<?xml version='1.0' encoding='UTF-8'?><gpx version="1.1" creator="JPX - https://github.com/jenetics/jpx" xmlns="http://www.topografix.com/GPX/1/1"><trk><trkseg><trkpt lat="45.1893719" lon="8.0663622"><ele>157.0</ele><time>2026-05-02T07:46:52.036Z</time></trkpt><trkpt lat="45.189428" lon="8.0664113"><ele>157.0</ele><time>2026-05-02T07:46:57.003Z</time></trkpt><trkpt lat="45.1894509" lon="8.0665091"><ele>157.0</ele><time>2026-05-02T07:47:57.033Z</time></trkpt><trkpt lat="45.1894006" lon="8.0666183"><ele>157.0</ele><time>2026-05-02T07:48:00.057Z</time></trkpt><trkpt lat="45.1893454" lon="8.0667336"><ele>157.0</ele><time>2026-05-02T07:48:02.031Z</time></trkpt><trkpt lat="45.1893018" lon="8.0668499"><ele>157.0</ele><time>2026-05-02T07:48:04.06Z</time></trkpt><trkpt lat="45.1892721" lon="8.0669902"><ele>157.0</ele><time>2026-05-02T07:48:06.018Z</time></trkpt><trkpt lat="45.1892474" lon="8.0671577"><ele>157.0</ele><time>2026-05-02T07:48:08.015Z</time></trkpt><trkpt lat="45.1892302" lon="8.067325"><ele>157.0</ele><time>2026-05-02T07:48:10.03Z</time></trkpt><trkpt lat="45.189219" lon="8.0674686"><ele>157.0</ele><time>2026-05-02T07:48:12.014Z</time></trkpt><trkpt lat="45.1892356" lon="8.0675735"><ele>157.0</ele><time>2026-05-02T07:48:14.047Z</time></trkpt><trkpt lat="45.1893188" lon="8.0676421"><ele>157.0</ele><time>2026-05-02T07:48:16.026Z</time></trkpt><trkpt lat="45.1894382" lon="8.067691"><ele>157.0</ele><time>2026-05-02T07:48:18.028Z</time></trkpt><trkpt lat="45.1895017" lon="8.0677208"><ele>157.0</ele><time>2026-05-02T07:48:19.032Z</time></trkpt><trkpt lat="45.1895681" lon="8.0677547"><ele>157.0</ele><time>2026-05-02T07:48:20.021Z</time></trkpt><trkpt lat="45.1896376" lon="8.0677875"><ele>157.0</ele><time>2026-05-02T07:48:21.031Z</time></trkpt><trkpt lat="45.1897151" lon="8.0678278"><ele>157.0</ele><time>2026-05-02T07:48:22.033Z</time></trkpt><trkpt lat="45.1897926" lon="8.0678699"><ele>156.79999999999998</ele><time>2026-05-02T07:48:23.006Z</time></trkpt><trkpt lat="45.1898745" lon="8.0679149"><ele>156.6</ele><time>2026-05-02T07:48:24.006Z</time></trkpt><trkpt lat="45.1899577" lon="8.0679592"><ele>156.39999999999998</ele><time>2026-05-02T07:48:25.018Z</time></trkpt><trkpt lat="45.1900409" lon="8.0680072"><ele>156.2</ele><time>2026-05-02T07:48:26.023Z</time></trkpt><trkpt lat="45.1901266" lon="8.0680557"><ele>156.0</ele><time>2026-05-02T07:48:27.052Z</time></trkpt><trkpt lat="45.1902131" lon="8.0681048"><ele>156.0</ele><time>2026-05-02T07:48:28.143Z</time></trkpt><trkpt lat="45.1902979" lon="8.0681557"><ele>156.0</ele><time>2026-05-02T07:48:29.046Z</time></trkpt><trkpt lat="45.1903823" lon="8.0682057"><ele>156.0</ele><time>2026-05-02T07:48:30Z</time></trkpt><trkpt lat="45.1904571" lon="8.0682494"><ele>156.0</ele><time>2026-05-02T07:48:31.034Z</time></trkpt><trkpt lat="45.1905224" lon="8.068283"><ele>156.0</ele><time>2026-05-02T07:48:32.002Z</time></trkpt><trkpt lat="45.1905834" lon="8.0683178"><ele>156.0</ele><time>2026-05-02T07:48:33.014Z</time></trkpt><trkpt lat="45.1906812" lon="8.0683738"><ele>156.0</ele><time>2026-05-02T07:48:34.998Z</time></trkpt><trkpt lat="45.1907535" lon="8.0684236"><ele>156.0</ele><time>2026-05-02T07:48:37.006Z</time></trkpt><trkpt lat="45.190774" lon="8.0685179"><ele>156.0</ele><time>2026-05-02T07:48:39.009Z</time></trkpt><trkpt lat="45.1907424" lon="8.0686305"><ele>156.0</ele><time>2026-05-02T07:48:41.034Z</time></trkpt><trkpt lat="45.1906843" lon="8.0687614"><ele>156.0</ele><time>2026-05-02T07:48:43.026Z</time></trkpt><trkpt lat="45.1906454" lon="8.0688413"><ele>156.0</ele><time>2026-05-02T07:48:44.033Z</time></trkpt><trkpt lat="45.1906008" lon="8.0689317"><ele>156.2</ele><time>2026-05-02T07:48:45.019Z</time></trkpt><trkpt lat="45.1905529" lon="8.0690323"><ele>156.39999999999998</ele><time>2026-05-02T07:48:46.016Z</time></trkpt><trkpt lat="45.1905027" lon="8.0691432"><ele>156.6</ele><time>2026-05-02T07:48:47.014Z</time></trkpt><trkpt lat="45.1904517" lon="8.0692607"><ele>156.79999999999998</ele><time>2026-05-02T07:48:48.009Z</time></trkpt><trkpt lat="45.190402" lon="8.0693796"><ele>157.0</ele><time>2026-05-02T07:48:49.018Z</time></trkpt><trkpt lat="45.1903489" lon="8.0695042"><ele>156.6</ele><time>2026-05-02T07:48:50.01Z</time></trkpt><trkpt lat="45.1902925" lon="8.0696338"><ele>156.2</ele><time>2026-05-02T07:48:51.035Z</time></trkpt><trkpt lat="45.1902342" lon="8.0697689"><ele>155.8</ele><time>2026-05-02T07:48:52.002Z</time></trkpt><trkpt lat="45.1901735" lon="8.0699062"><ele>155.4</ele><time>2026-05-02T07:48:53.01Z</time></trkpt><trkpt lat="45.190111" lon="8.0700429"><ele>155.0</ele><time>2026-05-02T07:48:54.011Z</time></trkpt><trkpt lat="45.19005" lon="8.0701799"><ele>155.0</ele><time>2026-05-02T07:48:55.022Z</time></trkpt><trkpt lat="45.1899941" lon="8.0703183"><ele>155.0</ele><time>2026-05-02T07:48:56.026Z</time></trkpt><trkpt lat="45.1899431" lon="8.0704576"><ele>155.0</ele><time>2026-05-02T07:48:57.005Z</time></trkpt><trkpt lat="45.1898989" lon="8.0706005"><ele>155.0</ele><time>2026-05-02T07:48:58.017Z</time></trkpt><trkpt lat="45.1898507" lon="8.070738"><ele>155.0</ele><time>2026-05-02T07:48:59.012Z</time></trkpt><trkpt lat="45.1898286" lon="8.0708946"><ele>155.25</ele><time>2026-05-02T07:49:00.017Z</time></trkpt><trkpt lat="45.1898155" lon="8.0710554"><ele>155.5</ele><time>2026-05-02T07:49:01.022Z</time></trkpt><trkpt lat="45.1898026" lon="8.0712236"><ele>155.75</ele><time>2026-05-02T07:49:02.002Z</time></trkpt><trkpt lat="45.1897882" lon="8.071395"><ele>156.0</ele><time>2026-05-02T07:49:03.007Z</time></trkpt><trkpt lat="45.1897749" lon="8.0715648"><ele>156.0</ele><time>2026-05-02T07:49:04.018Z</time></trkpt><trkpt lat="45.1897634" lon="8.071729"><ele>156.0</ele><time>2026-05-02T07:49:05.014Z</time></trkpt><trkpt lat="45.1897563" lon="8.0718989"><ele>156.0</ele><time>2026-05-02T07:49:06.01Z</time></trkpt><trkpt lat="45.1897527" lon="8.0720743"><ele>156.0</ele><time>2026-05-02T07:49:07.023Z</time></trkpt><trkpt lat="45.1897535" lon="8.0722516"><ele>156.0</ele><time>2026-05-02T07:49:08.015Z</time></trkpt><trkpt lat="45.1897544" lon="8.0724335"><ele>156.0</ele><time>2026-05-02T07:49:09.018Z</time></trkpt><trkpt lat="45.1897547" lon="8.0726171"><ele>156.0</ele><time>2026-05-02T07:49:10.011Z</time></trkpt><trkpt lat="45.1897563" lon="8.072806"><ele>156.0</ele><time>2026-05-02T07:49:11.01Z</time></trkpt><trkpt lat="45.1897634" lon="8.0729958"><ele>155.75</ele><time>2026-05-02T07:49:12.002Z</time></trkpt><trkpt lat="45.1897746" lon="8.0731853"><ele>155.5</ele><time>2026-05-02T07:49:13.003Z</time></trkpt><trkpt lat="45.1897861" lon="8.0733761"><ele>155.25</ele><time>2026-05-02T07:49:14.006Z</time></trkpt><trkpt lat="45.1897977" lon="8.0735654"><ele>155.0</ele><time>2026-05-02T07:49:15.002Z</time></trkpt><trkpt lat="45.1898101" lon="8.0737574"><ele>155.0</ele><time>2026-05-02T07:49:16.003Z</time></trkpt><trkpt lat="45.1898248" lon="8.0739553"><ele>155.0</ele><time>2026-05-02T07:49:17.004Z</time></trkpt><trkpt lat="45.1898394" lon="8.0741562"><ele>155.0</ele><time>2026-05-02T07:49:18.022Z</time></trkpt><trkpt lat="45.1898537" lon="8.0743608"><ele>155.0</ele><time>2026-05-02T07:49:19.006Z</time></trkpt><trkpt lat="45.1898691" lon="8.0745682"><ele>155.0</ele><time>2026-05-02T07:49:20.012Z</time></trkpt><trkpt lat="45.1898832" lon="8.0747789"><ele>155.0</ele><time>2026-05-02T07:49:21.012Z</time></trkpt><trkpt lat="45.1898978" lon="8.0749878"><ele>155.0</ele><time>2026-05-02T07:49:22.003Z</time></trkpt><trkpt lat="45.1899126" lon="8.0751996"><ele>155.0</ele><time>2026-05-02T07:49:23.006Z</time></trkpt><trkpt lat="45.1899273" lon="8.0754133"><ele>155.0</ele><time>2026-05-02T07:49:24.01Z</time></trkpt><trkpt lat="45.1899412" lon="8.0756277"><ele>155.0</ele><time>2026-05-02T07:49:25.01Z</time></trkpt><trkpt lat="45.1899562" lon="8.0758428"><ele>155.0</ele><time>2026-05-02T07:49:26.002Z</time></trkpt><trkpt lat="45.1899716" lon="8.076057"><ele>155.66666666666666</ele><time>2026-05-02T07:49:26.999Z</time></trkpt><trkpt lat="45.1899868" lon="8.0762728"><ele>156.33333333333334</ele><time>2026-05-02T07:49:28.005Z</time></trkpt><trkpt lat="45.1900006" lon="8.0764889"><ele>157.0</ele><time>2026-05-02T07:49:29.008Z</time></trkpt><trkpt lat="45.1900144" lon="8.0767063"><ele>157.0</ele><time>2026-05-02T07:49:30.003Z</time></trkpt><trkpt lat="45.19003" lon="8.0769255"><ele>157.0</ele><time>2026-05-02T07:49:31.019Z</time></trkpt><trkpt lat="45.1900471" lon="8.0771467"><ele>157.0</ele><time>2026-05-02T07:49:32.018Z</time></trkpt><trkpt lat="45.1900634" lon="8.0773689"><ele>156.66666666666669</ele><time>2026-05-02T07:49:33.016Z</time></trkpt><trkpt lat="45.1900793" lon="8.07759"><ele>156.33333333333334</ele><time>2026-05-02T07:49:34.01Z</time></trkpt><trkpt lat="45.1900936" lon="8.0778102"><ele>156.0</ele><time>2026-05-02T07:49:35.009Z</time></trkpt><trkpt lat="45.190107" lon="8.0780296"><ele>156.0</ele><time>2026-05-02T07:49:36.015Z</time></trkpt><trkpt lat="45.1901214" lon="8.0782479"><ele>156.0</ele><time>2026-05-02T07:49:37.001Z</time></trkpt><trkpt lat="45.1901351" lon="8.0784653"><ele>156.0</ele><time>2026-05-02T07:49:38Z</time></trkpt><trkpt lat="45.190149" lon="8.0786828"><ele>156.33333333333334</ele><time>2026-05-02T07:49:39.006Z</time></trkpt><trkpt lat="45.190162" lon="8.0788994"><ele>156.66666666666669</ele><time>2026-05-02T07:49:40.013Z</time></trkpt><trkpt lat="45.1901748" lon="8.0791151"><ele>157.0</ele><time>2026-05-02T07:49:40.998Z</time></trkpt><trkpt lat="45.190188" lon="8.079329"><ele>157.0</ele><time>2026-05-02T07:49:41.999Z</time></trkpt><trkpt lat="45.1902005" lon="8.0795426"><ele>157.0</ele><time>2026-05-02T07:49:43.004Z</time></trkpt><trkpt lat="45.1902119" lon="8.0797557"><ele>157.0</ele><time>2026-05-02T07:49:44.004Z</time></trkpt><trkpt lat="45.1902217" lon="8.0799672"><ele>157.0</ele><time>2026-05-02T07:49:45.001Z</time></trkpt><trkpt lat="45.1902318" lon="8.0801794"><ele>157.0</ele><time>2026-05-02T07:49:46.011Z</time></trkpt><trkpt lat="45.1902421" lon="8.0803911"><ele>157.0</ele><time>2026-05-02T07:49:47.001Z</time></trkpt><trkpt lat="45.1902495" lon="8.080599"><ele>157.0</ele><time>2026-05-02T07:49:48.012Z</time></trkpt><trkpt lat="45.1902655" lon="8.0808056"><ele>156.66666666666669</ele><time>2026-05-02T07:49:49.003Z</time></trkpt><trkpt lat="45.1902812" lon="8.081019"><ele>156.33333333333334</ele><time>2026-05-02T07:49:49.998Z</time></trkpt><trkpt lat="45.1903027" lon="8.0812278"><ele>156.0</ele><time>2026-05-02T07:49:51.006Z</time></trkpt><trkpt lat="45.1903237" lon="8.0814437"><ele>156.33333333333334</ele><time>2026-05-02T07:49:52.011Z</time></trkpt><trkpt lat="45.1903472" lon="8.0816636"><ele>156.66666666666669</ele><time>2026-05-02T07:49:53.004Z</time></trkpt><trkpt lat="45.190368" lon="8.0818827"><ele>157.0</ele><time>2026-05-02T07:49:54.006Z</time></trkpt><trkpt lat="45.1903884" lon="8.0820974"><ele>157.0</ele><time>2026-05-02T07:49:55.005Z</time></trkpt><trkpt lat="45.19041" lon="8.0823151"><ele>157.0</ele><time>2026-05-02T07:49:56.003Z</time></trkpt><trkpt lat="45.1904289" lon="8.0825386"><ele>157.0</ele><time>2026-05-02T07:49:57.01Z</time></trkpt><trkpt lat="45.1904436" lon="8.0827622"><ele>156.66666666666669</ele><time>2026-05-02T07:49:58.011Z</time></trkpt><trkpt lat="45.1904637" lon="8.0829876"><ele>156.33333333333334</ele><time>2026-05-02T07:49:59.012Z</time></trkpt><trkpt lat="45.1904824" lon="8.0832108"><ele>156.0</ele><time>2026-05-02T07:50:00.001Z</time></trkpt><trkpt lat="45.1905025" lon="8.0834356"><ele>156.0</ele><time>2026-05-02T07:50:01.006Z</time></trkpt><trkpt lat="45.1905215" lon="8.0836625"><ele>156.0</ele><time>2026-05-02T07:50:02.007Z</time></trkpt><trkpt lat="45.1905403" lon="8.0838885"><ele>156.0</ele><time>2026-05-02T07:50:02.999Z</time></trkpt><trkpt lat="45.1905581" lon="8.0841142"><ele>155.66666666666666</ele><time>2026-05-02T07:50:04.005Z</time></trkpt><trkpt lat="45.1905742" lon="8.0843386"><ele>155.33333333333331</ele><time>2026-05-02T07:50:05.011Z</time></trkpt><trkpt lat="45.1905888" lon="8.0845631"><ele>155.0</ele><time>2026-05-02T07:50:06.006Z</time></trkpt><trkpt lat="45.1906027" lon="8.0847855"><ele>155.0</ele><time>2026-05-02T07:50:07.003Z</time></trkpt><trkpt lat="45.1906175" lon="8.0850072"><ele>155.0</ele><time>2026-05-02T07:50:08.008Z</time></trkpt><trkpt lat="45.1906327" lon="8.0852291"><ele>155.0</ele><time>2026-05-02T07:50:09.008Z</time></trkpt><trkpt lat="45.19065" lon="8.0854493"><ele>155.0</ele><time>2026-05-02T07:50:10.006Z</time></trkpt><trkpt lat="45.1906671" lon="8.0856698"><ele>155.0</ele><time>2026-05-02T07:50:11.007Z</time></trkpt><trkpt lat="45.1906853" lon="8.0858888"><ele>155.0</ele><time>2026-05-02T07:50:12.008Z</time></trkpt><trkpt lat="45.1907026" lon="8.0861059"><ele>155.0</ele><time>2026-05-02T07:50:13.009Z</time></trkpt><trkpt lat="45.1907202" lon="8.0863211"><ele>155.0</ele><time>2026-05-02T07:50:14.013Z</time></trkpt><trkpt lat="45.1907373" lon="8.086534"><ele>155.0</ele><time>2026-05-02T07:50:15.009Z</time></trkpt><trkpt lat="45.1907566" lon="8.086744"><ele>155.0</ele><time>2026-05-02T07:50:16.013Z</time></trkpt><trkpt lat="45.1907754" lon="8.0869533"><ele>155.0</ele><time>2026-05-02T07:50:17.008Z</time></trkpt><trkpt lat="45.1907938" lon="8.087164"><ele>155.0</ele><time>2026-05-02T07:50:18.005Z</time></trkpt><trkpt lat="45.190812" lon="8.0873792"><ele>155.0</ele><time>2026-05-02T07:50:19.005Z</time></trkpt><trkpt lat="45.19083" lon="8.0875992"><ele>155.0</ele><time>2026-05-02T07:50:20.009Z</time></trkpt><trkpt lat="45.1908481" lon="8.0878243"><ele>155.0</ele><time>2026-05-02T07:50:21.005Z</time></trkpt><trkpt lat="45.1908662" lon="8.0880546"><ele>154.33333333333331</ele><time>2026-05-02T07:50:22.004Z</time></trkpt><trkpt lat="45.1908848" lon="8.0882899"><ele>153.66666666666666</ele><time>2026-05-02T07:50:23Z</time></trkpt><trkpt lat="45.1909051" lon="8.088528"><ele>153.0</ele><time>2026-05-02T07:50:24.009Z</time></trkpt><trkpt lat="45.1909266" lon="8.0887669"><ele>153.0</ele><time>2026-05-02T07:50:24.999Z</time></trkpt><trkpt lat="45.1909476" lon="8.0890091"><ele>153.0</ele><time>2026-05-02T07:50:26.015Z</time></trkpt><trkpt lat="45.1909679" lon="8.0892523"><ele>153.0</ele><time>2026-05-02T07:50:27.007Z</time></trkpt><trkpt lat="45.1909872" lon="8.0894945"><ele>153.0</ele><time>2026-05-02T07:50:28.005Z</time></trkpt><trkpt lat="45.1910046" lon="8.0897355"><ele>153.0</ele><time>2026-05-02T07:50:29.013Z</time></trkpt><trkpt lat="45.1910214" lon="8.0899749"><ele>153.0</ele><time>2026-05-02T07:50:30.011Z</time></trkpt><trkpt lat="45.1910382" lon="8.0902136"><ele>153.33333333333334</ele><time>2026-05-02T07:50:30.993Z</time></trkpt><trkpt lat="45.191055" lon="8.0904513"><ele>153.66666666666669</ele><time>2026-05-02T07:50:32.007Z</time></trkpt><trkpt lat="45.1910712" lon="8.0906889"><ele>154.0</ele><time>2026-05-02T07:50:33.001Z</time></trkpt><trkpt lat="45.1910881" lon="8.0909264"><ele>154.33333333333334</ele><time>2026-05-02T07:50:34.015Z</time></trkpt><trkpt lat="45.1911066" lon="8.0911634"><ele>154.66666666666666</ele><time>2026-05-02T07:50:35.007Z</time></trkpt><trkpt lat="45.1911262" lon="8.0913973"><ele>155.0</ele><time>2026-05-02T07:50:35.994Z</time></trkpt><trkpt lat="45.1911483" lon="8.0916256"><ele>155.33333333333331</ele><time>2026-05-02T07:50:37.006Z</time></trkpt><trkpt lat="45.1911715" lon="8.0918467"><ele>155.66666666666666</ele><time>2026-05-02T07:50:38.001Z</time></trkpt><trkpt lat="45.1911952" lon="8.0920627"><ele>156.0</ele><time>2026-05-02T07:50:38.998Z</time></trkpt><trkpt lat="45.1912158" lon="8.0922643"><ele>156.5</ele><time>2026-05-02T07:50:40.004Z</time></trkpt><trkpt lat="45.1912309" lon="8.0924439"><ele>157.0</ele><time>2026-05-02T07:50:41.008Z</time></trkpt><trkpt lat="45.1912501" lon="8.0926117"><ele>157.5</ele><time>2026-05-02T07:50:41.999Z</time></trkpt><trkpt lat="45.1912708" lon="8.0927933"><ele>158.0</ele><time>2026-05-02T07:50:43.002Z</time></trkpt><trkpt lat="45.1913029" lon="8.0929757"><ele>158.0</ele><time>2026-05-02T07:50:44.009Z</time></trkpt><trkpt lat="45.1913334" lon="8.0931558"><ele>158.0</ele><time>2026-05-02T07:50:45.01Z</time></trkpt><trkpt lat="45.191365" lon="8.093331"><ele>158.0</ele><time>2026-05-02T07:50:46.005Z</time></trkpt><trkpt lat="45.1913904" lon="8.0935126"><ele>158.0</ele><time>2026-05-02T07:50:47.012Z</time></trkpt><trkpt lat="45.1913966" lon="8.0937068"><ele>157.75</ele><time>2026-05-02T07:50:48.011Z</time></trkpt><trkpt lat="45.1913928" lon="8.0938996"><ele>157.5</ele><time>2026-05-02T07:50:49.003Z</time></trkpt><trkpt lat="45.1913806" lon="8.0940942"><ele>157.25</ele><time>2026-05-02T07:50:49.993Z</time></trkpt><trkpt lat="45.1913721" lon="8.0942867"><ele>157.0</ele><time>2026-05-02T07:50:51.004Z</time></trkpt><trkpt lat="45.1913671" lon="8.0944856"><ele>156.75</ele><time>2026-05-02T07:50:52.006Z</time></trkpt><trkpt lat="45.1913719" lon="8.0946858"><ele>156.5</ele><time>2026-05-02T07:50:53.004Z</time></trkpt><trkpt lat="45.1913776" lon="8.0948943"><ele>156.25</ele><time>2026-05-02T07:50:53.995Z</time></trkpt><trkpt lat="45.1913878" lon="8.0950995"><ele>156.0</ele><time>2026-05-02T07:50:55.009Z</time></trkpt><trkpt lat="45.1914018" lon="8.0953056"><ele>156.0</ele><time>2026-05-02T07:50:56.01Z</time></trkpt><trkpt lat="45.1914158" lon="8.0955132"><ele>156.0</ele><time>2026-05-02T07:50:57.006Z</time></trkpt><trkpt lat="45.1914325" lon="8.0957233"><ele>156.0</ele><time>2026-05-02T07:50:58.004Z</time></trkpt><trkpt lat="45.1914496" lon="8.0959327"><ele>156.0</ele><time>2026-05-02T07:50:59.005Z</time></trkpt><trkpt lat="45.1914687" lon="8.0961436"><ele>156.25</ele><time>2026-05-02T07:51:00.009Z</time></trkpt><trkpt lat="45.1914909" lon="8.0963533"><ele>156.5</ele><time>2026-05-02T07:51:00.999Z</time></trkpt><trkpt lat="45.1915121" lon="8.096561"><ele>156.75</ele><time>2026-05-02T07:51:02.002Z</time></trkpt><trkpt lat="45.1915328" lon="8.0967647"><ele>157.0</ele><time>2026-05-02T07:51:03.011Z</time></trkpt><trkpt lat="45.191552" lon="8.0969652"><ele>157.25</ele><time>2026-05-02T07:51:04.002Z</time></trkpt><trkpt lat="45.1915711" lon="8.0971633"><ele>157.5</ele><time>2026-05-02T07:51:05.002Z</time></trkpt><trkpt lat="45.1915891" lon="8.0973565"><ele>157.75</ele><time>2026-05-02T07:51:06.012Z</time></trkpt><trkpt lat="45.1916021" lon="8.0975382"><ele>158.0</ele><time>2026-05-02T07:51:07.006Z</time></trkpt><trkpt lat="45.1916136" lon="8.097706"><ele>157.5</ele><time>2026-05-02T07:51:07.995Z</time></trkpt><trkpt lat="45.1916223" lon="8.0978479"><ele>157.0</ele><time>2026-05-02T07:51:09.007Z</time></trkpt><trkpt lat="45.191632" lon="8.0979703"><ele>156.5</ele><time>2026-05-02T07:51:10.011Z</time></trkpt><trkpt lat="45.1916416" lon="8.0980829"><ele>156.0</ele><time>2026-05-02T07:51:10.99Z</time></trkpt><trkpt lat="45.1916497" lon="8.0981929"><ele>155.5</ele><time>2026-05-02T07:51:12.005Z</time></trkpt><trkpt lat="45.1916505" lon="8.0983023"><ele>155.0</ele><time>2026-05-02T07:51:13.048Z</time></trkpt><trkpt lat="45.191647" lon="8.0984055"><ele>155.0</ele><time>2026-05-02T07:51:13.997Z</time></trkpt><trkpt lat="45.1916391" lon="8.0985048"><ele>155.0</ele><time>2026-05-02T07:51:15.001Z</time></trkpt><trkpt lat="45.1916225" lon="8.0985951"><ele>155.0</ele><time>2026-05-02T07:51:15.998Z</time></trkpt><trkpt lat="45.1915865" lon="8.0986738"><ele>155.0</ele><time>2026-05-02T07:51:16.998Z</time></trkpt><trkpt lat="45.1915383" lon="8.0987443"><ele>155.0</ele><time>2026-05-02T07:51:18.008Z</time></trkpt><trkpt lat="45.1914568" lon="8.0987739"><ele>155.0</ele><time>2026-05-02T07:51:19.005Z</time></trkpt><trkpt lat="45.1913879" lon="8.0988049"><ele>155.0</ele><time>2026-05-02T07:51:20.014Z</time></trkpt><trkpt lat="45.1913127" lon="8.0988622"><ele>155.16666666666666</ele><time>2026-05-02T07:51:21.002Z</time></trkpt><trkpt lat="45.1912426" lon="8.0989281"><ele>155.33333333333331</ele><time>2026-05-02T07:51:22.007Z</time></trkpt><trkpt lat="45.1911782" lon="8.0990145"><ele>155.5</ele><time>2026-05-02T07:51:23.014Z</time></trkpt><trkpt lat="45.1911051" lon="8.0990966"><ele>155.66666666666666</ele><time>2026-05-02T07:51:23.996Z</time></trkpt><trkpt lat="45.1910365" lon="8.0991754"><ele>155.83333333333334</ele><time>2026-05-02T07:51:24.998Z</time></trkpt><trkpt lat="45.1909753" lon="8.0992376"><ele>156.0</ele><time>2026-05-02T07:51:25.995Z</time></trkpt><trkpt lat="45.190883" lon="8.0993262"><ele>156.0</ele><time>2026-05-02T07:51:28.01Z</time></trkpt><trkpt lat="45.1908074" lon="8.0993799"><ele>156.0</ele><time>2026-05-02T07:51:30.011Z</time></trkpt><trkpt lat="45.1907666" lon="8.0995001"><ele>156.0</ele><time>2026-05-02T07:51:31.994Z</time></trkpt><trkpt lat="45.1907534" lon="8.0995881"><ele>156.0</ele><time>2026-05-02T07:51:33.038Z</time></trkpt><trkpt lat="45.1907353" lon="8.0996928"><ele>156.0</ele><time>2026-05-02T07:51:34.011Z</time></trkpt><trkpt lat="45.1907213" lon="8.0998127"><ele>156.0</ele><time>2026-05-02T07:51:35.005Z</time></trkpt><trkpt lat="45.1907089" lon="8.0999317"><ele>155.8</ele><time>2026-05-02T07:51:36.038Z</time></trkpt><trkpt lat="45.1906963" lon="8.1000554"><ele>155.6</ele><time>2026-05-02T07:51:37.012Z</time></trkpt><trkpt lat="45.1906768" lon="8.1001884"><ele>155.4</ele><time>2026-05-02T07:51:38Z</time></trkpt><trkpt lat="45.1906511" lon="8.1003284"><ele>155.2</ele><time>2026-05-02T07:51:39.011Z</time></trkpt><trkpt lat="45.1906318" lon="8.100465"><ele>155.0</ele><time>2026-05-02T07:51:40.016Z</time></trkpt><trkpt lat="45.1906096" lon="8.1006022"><ele>154.83333333333331</ele><time>2026-05-02T07:51:41.002Z</time></trkpt><trkpt lat="45.1905853" lon="8.1007324"><ele>154.66666666666666</ele><time>2026-05-02T07:51:42.01Z</time></trkpt><trkpt lat="45.1905608" lon="8.1008514"><ele>154.5</ele><time>2026-05-02T07:51:43.017Z</time></trkpt><trkpt lat="45.1905404" lon="8.1009591"><ele>154.33333333333334</ele><time>2026-05-02T07:51:44.005Z</time></trkpt><trkpt lat="45.1905217" lon="8.1010522"><ele>154.16666666666669</ele><time>2026-05-02T07:51:45.001Z</time></trkpt><trkpt lat="45.1904965" lon="8.1011823"><ele>154.0</ele><time>2026-05-02T07:51:47.01Z</time></trkpt><trkpt lat="45.1904795" lon="8.1012921"><ele>154.4</ele><time>2026-05-02T07:51:50.014Z</time></trkpt><trkpt lat="45.1904753" lon="8.1014198"><ele>154.8</ele><time>2026-05-02T07:51:52.999Z</time></trkpt><trkpt lat="45.1904658" lon="8.1015384"><ele>155.2</ele><time>2026-05-02T07:51:55.007Z</time></trkpt><trkpt lat="45.19044" lon="8.1016875"><ele>155.6</ele><time>2026-05-02T07:51:57.006Z</time></trkpt><trkpt lat="45.1904011" lon="8.1018564"><ele>156.0</ele><time>2026-05-02T07:51:58.998Z</time></trkpt><trkpt lat="45.1903643" lon="8.1020153"><ele>157.0</ele><time>2026-05-02T07:52:01.012Z</time></trkpt><trkpt lat="45.1902917" lon="8.1021241"><ele>158.0</ele><time>2026-05-02T07:52:03.011Z</time></trkpt><trkpt lat="45.1901619" lon="8.1021817"><ele>159.0</ele><time>2026-05-02T07:52:05.026Z</time></trkpt><trkpt lat="45.1900811" lon="8.1021914"><ele>160.0</ele><time>2026-05-02T07:52:06.004Z</time></trkpt><trkpt lat="45.1899922" lon="8.1021863"><ele>161.0</ele><time>2026-05-02T07:52:06.997Z</time></trkpt><trkpt lat="45.1898932" lon="8.1021704"><ele>160.0</ele><time>2026-05-02T07:52:08.001Z</time></trkpt><trkpt lat="45.1897888" lon="8.1021493"><ele>159.0</ele><time>2026-05-02T07:52:09.004Z</time></trkpt><trkpt lat="45.1896846" lon="8.1021222"><ele>158.0</ele><time>2026-05-02T07:52:09.997Z</time></trkpt><trkpt lat="45.1895778" lon="8.1020873"><ele>157.0</ele><time>2026-05-02T07:52:10.997Z</time></trkpt><trkpt lat="45.1894652" lon="8.1020648"><ele>156.0</ele><time>2026-05-02T07:52:12.002Z</time></trkpt><trkpt lat="45.189355" lon="8.1020338"><ele>156.0</ele><time>2026-05-02T07:52:13.009Z</time></trkpt><trkpt lat="45.1892434" lon="8.1020072"><ele>156.0</ele><time>2026-05-02T07:52:13.999Z</time></trkpt><trkpt lat="45.1891285" lon="8.1019808"><ele>156.0</ele><time>2026-05-02T07:52:15.009Z</time></trkpt><trkpt lat="45.1890101" lon="8.1019484"><ele>156.0</ele><time>2026-05-02T07:52:16.007Z</time></trkpt><trkpt lat="45.1888922" lon="8.1019228"><ele>155.5</ele><time>2026-05-02T07:52:17.015Z</time></trkpt><trkpt lat="45.1887736" lon="8.1018948"><ele>155.0</ele><time>2026-05-02T07:52:17.998Z</time></trkpt><trkpt lat="45.1886489" lon="8.101855"><ele>154.5</ele><time>2026-05-02T07:52:19Z</time></trkpt><trkpt lat="45.1885218" lon="8.1018207"><ele>154.0</ele><time>2026-05-02T07:52:20.001Z</time></trkpt><trkpt lat="45.1883982" lon="8.1017914"><ele>154.0</ele><time>2026-05-02T07:52:20.997Z</time></trkpt><trkpt lat="45.1882748" lon="8.1017672"><ele>154.0</ele><time>2026-05-02T07:52:21.995Z</time></trkpt><trkpt lat="45.188147" lon="8.1017373"><ele>154.0</ele><time>2026-05-02T07:52:22.996Z</time></trkpt><trkpt lat="45.1880181" lon="8.1017023"><ele>154.0</ele><time>2026-05-02T07:52:23.994Z</time></trkpt><trkpt lat="45.1878929" lon="8.1016646"><ele>153.75</ele><time>2026-05-02T07:52:24.995Z</time></trkpt><trkpt lat="45.187759" lon="8.1016391"><ele>153.5</ele><time>2026-05-02T07:52:26.015Z</time></trkpt><trkpt lat="45.1876251" lon="8.1016166"><ele>153.25</ele><time>2026-05-02T07:52:27.005Z</time></trkpt><trkpt lat="45.187494" lon="8.1015706"><ele>153.0</ele><time>2026-05-02T07:52:27.999Z</time></trkpt><trkpt lat="45.1873668" lon="8.1015463"><ele>152.75</ele><time>2026-05-02T07:52:29.006Z</time></trkpt><trkpt lat="45.187241" lon="8.1015217"><ele>152.5</ele><time>2026-05-02T07:52:30.007Z</time></trkpt><trkpt lat="45.1871083" lon="8.1014923"><ele>152.25</ele><time>2026-05-02T07:52:31.004Z</time></trkpt><trkpt lat="45.1869819" lon="8.1014636"><ele>152.0</ele><time>2026-05-02T07:52:32.002Z</time></trkpt><trkpt lat="45.1868604" lon="8.1014309"><ele>152.0</ele><time>2026-05-02T07:52:33.007Z</time></trkpt><trkpt lat="45.1867494" lon="8.1013982"><ele>152.0</ele><time>2026-05-02T07:52:33.999Z</time></trkpt><trkpt lat="45.1866441" lon="8.1013785"><ele>152.0</ele><time>2026-05-02T07:52:35.006Z</time></trkpt><trkpt lat="45.1865497" lon="8.1013554"><ele>152.0</ele><time>2026-05-02T07:52:36.003Z</time></trkpt><trkpt lat="45.1864568" lon="8.1013354"><ele>152.0</ele><time>2026-05-02T07:52:37.01Z</time></trkpt><trkpt lat="45.1863721" lon="8.1013143"><ele>151.83333333333331</ele><time>2026-05-02T07:52:38.006Z</time></trkpt><trkpt lat="45.1862876" lon="8.1012963"><ele>151.66666666666666</ele><time>2026-05-02T07:52:39.005Z</time></trkpt><trkpt lat="45.1862038" lon="8.1012774"><ele>151.5</ele><time>2026-05-02T07:52:39.998Z</time></trkpt><trkpt lat="45.1861225" lon="8.1012494"><ele>151.33333333333334</ele><time>2026-05-02T07:52:41.007Z</time></trkpt><trkpt lat="45.1860397" lon="8.1012216"><ele>151.16666666666669</ele><time>2026-05-02T07:52:42.007Z</time></trkpt><trkpt lat="45.1859623" lon="8.101195"><ele>151.0</ele><time>2026-05-02T07:52:43.003Z</time></trkpt><trkpt lat="45.1858901" lon="8.1011671"><ele>151.0</ele><time>2026-05-02T07:52:44.003Z</time></trkpt><trkpt lat="45.1858282" lon="8.1011351"><ele>151.0</ele><time>2026-05-02T07:52:45.014Z</time></trkpt><trkpt lat="45.1857252" lon="8.101075"><ele>151.0</ele><time>2026-05-02T07:52:47.004Z</time></trkpt><trkpt lat="45.1856517" lon="8.1010205"><ele>151.0</ele><time>2026-05-02T07:52:49.009Z</time></trkpt><trkpt lat="45.1855894" lon="8.1009556"><ele>151.0</ele><time>2026-05-02T07:52:51.004Z</time></trkpt><trkpt lat="45.185517" lon="8.1008665"><ele>151.0</ele><time>2026-05-02T07:52:52.999Z</time></trkpt><trkpt lat="45.1854242" lon="8.1007975"><ele>151.0</ele><time>2026-05-02T07:52:55.012Z</time></trkpt><trkpt lat="45.185325" lon="8.1008276"><ele>151.0</ele><time>2026-05-02T07:52:56.996Z</time></trkpt><trkpt lat="45.1852592" lon="8.100897"><ele>151.0</ele><time>2026-05-02T07:52:59.003Z</time></trkpt><trkpt lat="45.1852055" lon="8.1009491"><ele>151.0</ele><time>2026-05-02T07:53:01.006Z</time></trkpt><trkpt lat="45.1851402" lon="8.1009987"><ele>151.0</ele><time>2026-05-02T07:53:03.003Z</time></trkpt><trkpt lat="45.18502" lon="8.1010017"><ele>151.0</ele><time>2026-05-02T07:53:05.003Z</time></trkpt><trkpt lat="45.1849405" lon="8.1009928"><ele>151.0</ele><time>2026-05-02T07:53:06.005Z</time></trkpt><trkpt lat="45.1848522" lon="8.1009762"><ele>151.0</ele><time>2026-05-02T07:53:06.998Z</time></trkpt><trkpt lat="45.1847513" lon="8.100948"><ele>151.0</ele><time>2026-05-02T07:53:07.996Z</time></trkpt><trkpt lat="45.1846365" lon="8.1009138"><ele>151.0</ele><time>2026-05-02T07:53:09.003Z</time></trkpt><trkpt lat="45.1845148" lon="8.1008795"><ele>151.0</ele><time>2026-05-02T07:53:09.999Z</time></trkpt><trkpt lat="45.1843883" lon="8.1008481"><ele>151.0</ele><time>2026-05-02T07:53:11.002Z</time></trkpt><trkpt lat="45.1842547" lon="8.1008171"><ele>151.0</ele><time>2026-05-02T07:53:12.003Z</time></trkpt><trkpt lat="45.1841219" lon="8.1007874"><ele>151.0</ele><time>2026-05-02T07:53:13Z</time></trkpt><trkpt lat="45.1839827" lon="8.1007584"><ele>151.0</ele><time>2026-05-02T07:53:13.996Z</time></trkpt><trkpt lat="45.1838395" lon="8.1007247"><ele>152.25</ele><time>2026-05-02T07:53:15.009Z</time></trkpt><trkpt lat="45.1836947" lon="8.1006899"><ele>153.5</ele><time>2026-05-02T07:53:16.015Z</time></trkpt><trkpt lat="45.1835479" lon="8.1006543"><ele>154.75</ele><time>2026-05-02T07:53:17Z</time></trkpt><trkpt lat="45.1833991" lon="8.1006213"><ele>156.0</ele><time>2026-05-02T07:53:18.001Z</time></trkpt><trkpt lat="45.1832487" lon="8.1005876"><ele>156.33333333333334</ele><time>2026-05-02T07:53:18.998Z</time></trkpt><trkpt lat="45.1830962" lon="8.1005519"><ele>156.66666666666669</ele><time>2026-05-02T07:53:20.002Z</time></trkpt><trkpt lat="45.1829445" lon="8.100514"><ele>157.0</ele><time>2026-05-02T07:53:20.997Z</time></trkpt><trkpt lat="45.1827925" lon="8.1004766"><ele>157.0</ele><time>2026-05-02T07:53:22.003Z</time></trkpt><trkpt lat="45.1826406" lon="8.1004408"><ele>157.0</ele><time>2026-05-02T07:53:23.011Z</time></trkpt><trkpt lat="45.1824888" lon="8.100406"><ele>157.0</ele><time>2026-05-02T07:53:24.002Z</time></trkpt><trkpt lat="45.182336" lon="8.1003716"><ele>156.0</ele><time>2026-05-02T07:53:24.996Z</time></trkpt><trkpt lat="45.1821827" lon="8.1003359"><ele>155.0</ele><time>2026-05-02T07:53:26.001Z</time></trkpt><trkpt lat="45.1820293" lon="8.1003007"><ele>154.0</ele><time>2026-05-02T07:53:26.998Z</time></trkpt><trkpt lat="45.1818756" lon="8.100265"><ele>154.0</ele><time>2026-05-02T07:53:27.997Z</time></trkpt><trkpt lat="45.1817236" lon="8.1002301"><ele>154.0</ele><time>2026-05-02T07:53:29.003Z</time></trkpt><trkpt lat="45.1815767" lon="8.100197"><ele>154.0</ele><time>2026-05-02T07:53:30.014Z</time></trkpt><trkpt lat="45.1814331" lon="8.1001647"><ele>154.0</ele><time>2026-05-02T07:53:31.016Z</time></trkpt><trkpt lat="45.1812919" lon="8.100132"><ele>153.5</ele><time>2026-05-02T07:53:31.998Z</time></trkpt><trkpt lat="45.1811526" lon="8.1001002"><ele>153.0</ele><time>2026-05-02T07:53:32.998Z</time></trkpt><trkpt lat="45.181016" lon="8.1000672"><ele>152.5</ele><time>2026-05-02T07:53:33.996Z</time></trkpt><trkpt lat="45.1808818" lon="8.1000335"><ele>152.0</ele><time>2026-05-02T07:53:35.003Z</time></trkpt><trkpt lat="45.1807489" lon="8.1000007"><ele>151.75</ele><time>2026-05-02T07:53:35.999Z</time></trkpt><trkpt lat="45.1806176" lon="8.0999689"><ele>151.5</ele><time>2026-05-02T07:53:37.003Z</time></trkpt><trkpt lat="45.1804881" lon="8.0999373"><ele>151.25</ele><time>2026-05-02T07:53:38.007Z</time></trkpt><trkpt lat="45.1803603" lon="8.0999067"><ele>151.0</ele><time>2026-05-02T07:53:38.999Z</time></trkpt><trkpt lat="45.1802365" lon="8.0998764"><ele>150.8</ele><time>2026-05-02T07:53:40.003Z</time></trkpt><trkpt lat="45.1801224" lon="8.0998492"><ele>150.6</ele><time>2026-05-02T07:53:41.013Z</time></trkpt><trkpt lat="45.1800184" lon="8.099824"><ele>150.4</ele><time>2026-05-02T07:53:42.018Z</time></trkpt><trkpt lat="45.1799228" lon="8.0998001"><ele>150.2</ele><time>2026-05-02T07:53:43Z</time></trkpt><trkpt lat="45.1798348" lon="8.0997786"><ele>150.0</ele><time>2026-05-02T07:53:43.995Z</time></trkpt><trkpt lat="45.1797542" lon="8.0997591"><ele>149.5</ele><time>2026-05-02T07:53:45.002Z</time></trkpt><trkpt lat="45.1796802" lon="8.0997426"><ele>149.0</ele><time>2026-05-02T07:53:46.002Z</time></trkpt><trkpt lat="45.1796111" lon="8.0997266"><ele>148.5</ele><time>2026-05-02T07:53:46.995Z</time></trkpt><trkpt lat="45.1795468" lon="8.0997106"><ele>148.0</ele><time>2026-05-02T07:53:48.006Z</time></trkpt><trkpt lat="45.1794292" lon="8.099679"><ele>147.5</ele><time>2026-05-02T07:53:49.998Z</time></trkpt><trkpt lat="45.179316" lon="8.0996456"><ele>147.0</ele><time>2026-05-02T07:53:52.005Z</time></trkpt><trkpt lat="45.1792057" lon="8.0996189"><ele>147.0</ele><time>2026-05-02T07:53:54.001Z</time></trkpt><trkpt lat="45.1790951" lon="8.0996"><ele>147.0</ele><time>2026-05-02T07:53:56.001Z</time></trkpt><trkpt lat="45.1790023" lon="8.0995817"><ele>147.0</ele><time>2026-05-02T07:53:57.999Z</time></trkpt><trkpt lat="45.1789334" lon="8.099563"><ele>147.0</ele><time>2026-05-02T07:53:59.996Z</time></trkpt><trkpt lat="45.1787605" lon="8.0995244"><ele>147.2</ele><time>2026-05-02T07:54:53.001Z</time></trkpt><trkpt lat="45.1786561" lon="8.0994999"><ele>147.39999999999998</ele><time>2026-05-02T07:54:55.007Z</time></trkpt><trkpt lat="45.1785883" lon="8.0994881"><ele>147.60000000000002</ele><time>2026-05-02T07:54:55.998Z</time></trkpt><trkpt lat="45.1785056" lon="8.0994694"><ele>147.8</ele><time>2026-05-02T07:54:57.001Z</time></trkpt><trkpt lat="45.1784169" lon="8.0994455"><ele>148.0</ele><time>2026-05-02T07:54:57.999Z</time></trkpt><trkpt lat="45.1783166" lon="8.0994195"><ele>148.0</ele><time>2026-05-02T07:54:58.998Z</time></trkpt><trkpt lat="45.1782083" lon="8.0993913"><ele>148.0</ele><time>2026-05-02T07:55:00Z</time></trkpt><trkpt lat="45.1780939" lon="8.0993635"><ele>148.0</ele><time>2026-05-02T07:55:00.998Z</time></trkpt><trkpt lat="45.1779694" lon="8.0993346"><ele>148.0</ele><time>2026-05-02T07:55:02.007Z</time></trkpt><trkpt lat="45.1778415" lon="8.0993045"><ele>148.0</ele><time>2026-05-02T07:55:03.006Z</time></trkpt><trkpt lat="45.1777151" lon="8.0992743"><ele>148.0</ele><time>2026-05-02T07:55:03.997Z</time></trkpt><trkpt lat="45.1775918" lon="8.0992447"><ele>148.0</ele><time>2026-05-02T07:55:04.995Z</time></trkpt><trkpt lat="45.1774697" lon="8.0992158"><ele>148.0</ele><time>2026-05-02T07:55:06.003Z</time></trkpt><trkpt lat="45.1773468" lon="8.0991864"><ele>148.0</ele><time>2026-05-02T07:55:07.001Z</time></trkpt><trkpt lat="45.1772217" lon="8.0991579"><ele>148.0</ele><time>2026-05-02T07:55:08.002Z</time></trkpt><trkpt lat="45.1770955" lon="8.0991289"><ele>148.0</ele><time>2026-05-02T07:55:09.012Z</time></trkpt><trkpt lat="45.1769694" lon="8.099099"><ele>148.0</ele><time>2026-05-02T07:55:10.004Z</time></trkpt><trkpt lat="45.1768429" lon="8.0990688"><ele>148.0</ele><time>2026-05-02T07:55:11.003Z</time></trkpt><trkpt lat="45.1767164" lon="8.0990393"><ele>148.0</ele><time>2026-05-02T07:55:12.052Z</time></trkpt><trkpt lat="45.1765896" lon="8.099009"><ele>148.0</ele><time>2026-05-02T07:55:12.998Z</time></trkpt><trkpt lat="45.1764634" lon="8.0989795"><ele>148.0</ele><time>2026-05-02T07:55:13.996Z</time></trkpt><trkpt lat="45.1763407" lon="8.0989519"><ele>148.75</ele><time>2026-05-02T07:55:15.005Z</time></trkpt><trkpt lat="45.1762228" lon="8.098924"><ele>149.5</ele><time>2026-05-02T07:55:16.007Z</time></trkpt><trkpt lat="45.1761061" lon="8.0988946"><ele>150.25</ele><time>2026-05-02T07:55:17.002Z</time></trkpt><trkpt lat="45.1759964" lon="8.0988675"><ele>151.0</ele><time>2026-05-02T07:55:18.006Z</time></trkpt><trkpt lat="45.1758942" lon="8.0988439"><ele>151.0</ele><time>2026-05-02T07:55:19.008Z</time></trkpt><trkpt lat="45.175802" lon="8.0988231"><ele>151.0</ele><time>2026-05-02T07:55:19.999Z</time></trkpt><trkpt lat="45.17572" lon="8.0988013"><ele>151.0</ele><time>2026-05-02T07:55:21.008Z</time></trkpt><trkpt lat="45.1756472" lon="8.0987792"><ele>151.0</ele><time>2026-05-02T07:55:22.003Z</time></trkpt><trkpt lat="45.1755818" lon="8.0987586"><ele>151.0</ele><time>2026-05-02T07:55:22.998Z</time></trkpt><trkpt lat="45.1754712" lon="8.0987284"><ele>151.0</ele><time>2026-05-02T07:55:25.003Z</time></trkpt><trkpt lat="45.1753909" lon="8.0987087"><ele>151.83333333333334</ele><time>2026-05-02T07:55:27.004Z</time></trkpt><trkpt lat="45.1753241" lon="8.0986766"><ele>152.66666666666669</ele><time>2026-05-02T08:01:07.994Z</time></trkpt><trkpt lat="45.1752142" lon="8.0986611"><ele>153.5</ele><time>2026-05-02T08:01:10.013Z</time></trkpt><trkpt lat="45.1751357" lon="8.0986507"><ele>154.33333333333334</ele><time>2026-05-02T08:01:11.006Z</time></trkpt><trkpt lat="45.1750503" lon="8.0986339"><ele>155.16666666666666</ele><time>2026-05-02T08:01:12.003Z</time></trkpt><trkpt lat="45.1749665" lon="8.0986111"><ele>156.0</ele><time>2026-05-02T08:01:12.997Z</time></trkpt><trkpt lat="45.1748765" lon="8.0985838"><ele>157.6</ele><time>2026-05-02T08:01:14.004Z</time></trkpt><trkpt lat="45.1747777" lon="8.0985512"><ele>159.2</ele><time>2026-05-02T08:01:15.011Z</time></trkpt><trkpt lat="45.1746732" lon="8.0985078"><ele>160.79999999999998</ele><time>2026-05-02T08:01:16.004Z</time></trkpt><trkpt lat="45.1745621" lon="8.0984562"><ele>162.39999999999998</ele><time>2026-05-02T08:01:17.006Z</time></trkpt><trkpt lat="45.1744534" lon="8.0983966"><ele>164.0</ele><time>2026-05-02T08:01:18.001Z</time></trkpt><trkpt lat="45.1743516" lon="8.0983197"><ele>164.2</ele><time>2026-05-02T08:01:19.007Z</time></trkpt><trkpt lat="45.1742515" lon="8.0982327"><ele>164.39999999999998</ele><time>2026-05-02T08:01:20.001Z</time></trkpt><trkpt lat="45.1741615" lon="8.0981412"><ele>164.6</ele><time>2026-05-02T08:01:21.001Z</time></trkpt><trkpt lat="45.1740789" lon="8.0980434"><ele>164.8</ele><time>2026-05-02T08:01:22.006Z</time></trkpt><trkpt lat="45.1740038" lon="8.0979352"><ele>165.0</ele><time>2026-05-02T08:01:23.001Z</time></trkpt><trkpt lat="45.1739286" lon="8.0978165"><ele>165.0</ele><time>2026-05-02T08:01:24.007Z</time></trkpt><trkpt lat="45.173852" lon="8.0976868"><ele>165.0</ele><time>2026-05-02T08:01:25.001Z</time></trkpt><trkpt lat="45.1737746" lon="8.0975461"><ele>165.0</ele><time>2026-05-02T08:01:25.997Z</time></trkpt><trkpt lat="45.1736972" lon="8.0974"><ele>165.0</ele><time>2026-05-02T08:01:27.01Z</time></trkpt><trkpt lat="45.1736225" lon="8.0972491"><ele>165.0</ele><time>2026-05-02T08:01:28.025Z</time></trkpt><trkpt lat="45.1735487" lon="8.0970987"><ele>165.0</ele><time>2026-05-02T08:01:29.016Z</time></trkpt><trkpt lat="45.1734769" lon="8.0969503"><ele>165.0</ele><time>2026-05-02T08:01:29.998Z</time></trkpt><trkpt lat="45.1734039" lon="8.0968071"><ele>165.0</ele><time>2026-05-02T08:01:31.012Z</time></trkpt><trkpt lat="45.1733336" lon="8.0966658"><ele>163.4</ele><time>2026-05-02T08:01:32.02Z</time></trkpt><trkpt lat="45.1732645" lon="8.0965314"><ele>161.8</ele><time>2026-05-02T08:01:33.003Z</time></trkpt><trkpt lat="45.1731972" lon="8.0964189"><ele>160.2</ele><time>2026-05-02T08:01:34.008Z</time></trkpt><trkpt lat="45.1731429" lon="8.096328"><ele>158.6</ele><time>2026-05-02T08:01:35.005Z</time></trkpt><trkpt lat="45.1730996" lon="8.0962561"><ele>157.0</ele><time>2026-05-02T08:01:36.011Z</time></trkpt><trkpt lat="45.1730552" lon="8.0961647"><ele>157.0</ele><time>2026-05-02T08:01:38.007Z</time></trkpt><trkpt lat="45.1730865" lon="8.0960436"><ele>157.0</ele><time>2026-05-02T08:01:41.005Z</time></trkpt><trkpt lat="45.1731378" lon="8.0959722"><ele>157.0</ele><time>2026-05-02T08:01:43Z</time></trkpt><trkpt lat="45.1731992" lon="8.0959253"><ele>157.0</ele><time>2026-05-02T08:01:53.998Z</time></trkpt><trkpt lat="45.1732621" lon="8.095892"><ele>157.0</ele><time>2026-05-02T08:01:56.01Z</time></trkpt><trkpt lat="45.1733515" lon="8.0958352"><ele>157.0</ele><time>2026-05-02T08:01:57.993Z</time></trkpt><trkpt lat="45.1734469" lon="8.0957791"><ele>156.33333333333334</ele><time>2026-05-02T08:02:00.003Z</time></trkpt><trkpt lat="45.1735439" lon="8.0957161"><ele>155.66666666666669</ele><time>2026-05-02T08:02:01.997Z</time></trkpt><trkpt lat="45.173654" lon="8.0956517"><ele>155.0</ele><time>2026-05-02T08:02:04.001Z</time></trkpt><trkpt lat="45.1737167" lon="8.0956171"><ele>154.33333333333334</ele><time>2026-05-02T08:02:05.003Z</time></trkpt><trkpt lat="45.1737773" lon="8.095584"><ele>153.66666666666666</ele><time>2026-05-02T08:02:06.009Z</time></trkpt><trkpt lat="45.1738416" lon="8.0955485"><ele>153.0</ele><time>2026-05-02T08:02:07.006Z</time></trkpt><trkpt lat="45.1739444" lon="8.0954916"><ele>153.0</ele><time>2026-05-02T08:02:08.998Z</time></trkpt><trkpt lat="45.1740202" lon="8.0954478"><ele>153.0</ele><time>2026-05-02T08:02:11.01Z</time></trkpt><trkpt lat="45.1740518" lon="8.0953429"><ele>153.0</ele><time>2026-05-02T08:02:12.993Z</time></trkpt><trkpt lat="45.1740432" lon="8.0952223"><ele>153.0</ele><time>2026-05-02T08:02:14.999Z</time></trkpt><trkpt lat="45.1739937" lon="8.0951052"><ele>153.0</ele><time>2026-05-02T08:02:17Z</time></trkpt><trkpt lat="45.1739187" lon="8.0949855"><ele>153.0</ele><time>2026-05-02T08:02:19.001Z</time></trkpt><trkpt lat="45.1738714" lon="8.094923"><ele>153.0</ele><time>2026-05-02T08:02:20.001Z</time></trkpt><trkpt lat="45.1737954" lon="8.0948188"><ele>153.0</ele><time>2026-05-02T08:02:22.008Z</time></trkpt><trkpt lat="45.1737065" lon="8.0947261"><ele>153.0</ele><time>2026-05-02T08:02:24Z</time></trkpt><trkpt lat="45.1735965" lon="8.0946349"><ele>153.0</ele><time>2026-05-02T08:02:25.998Z</time></trkpt><trkpt lat="45.1735073" lon="8.0945314"><ele>153.20000000000002</ele><time>2026-05-02T08:02:28.004Z</time></trkpt><trkpt lat="45.1734585" lon="8.0944173"><ele>153.4</ele><time>2026-05-02T08:02:30.002Z</time></trkpt><trkpt lat="45.1734208" lon="8.0942787"><ele>153.60000000000002</ele><time>2026-05-02T08:02:32.002Z</time></trkpt><trkpt lat="45.1733696" lon="8.0941384"><ele>153.8</ele><time>2026-05-02T08:02:34.004Z</time></trkpt><trkpt lat="45.1733114" lon="8.094011"><ele>154.0</ele><time>2026-05-02T08:02:36.009Z</time></trkpt><trkpt lat="45.1732494" lon="8.0938653"><ele>154.0</ele><time>2026-05-02T08:02:38Z</time></trkpt><trkpt lat="45.1731982" lon="8.0937294"><ele>154.0</ele><time>2026-05-02T08:02:40.006Z</time></trkpt><trkpt lat="45.1731598" lon="8.0936035"><ele>154.0</ele><time>2026-05-02T08:02:42.007Z</time></trkpt><trkpt lat="45.1731395" lon="8.0934638"><ele>154.0</ele><time>2026-05-02T08:02:44.001Z</time></trkpt><trkpt lat="45.1731373" lon="8.0932859"><ele>154.0</ele><time>2026-05-02T08:02:46.003Z</time></trkpt><trkpt lat="45.1731353" lon="8.093188"><ele>153.83333333333334</ele><time>2026-05-02T08:02:47.002Z</time></trkpt><trkpt lat="45.1731328" lon="8.0930945"><ele>153.66666666666669</ele><time>2026-05-02T08:02:48.005Z</time></trkpt><trkpt lat="45.17313" lon="8.0930041"><ele>153.5</ele><time>2026-05-02T08:02:48.998Z</time></trkpt><trkpt lat="45.1731266" lon="8.0929114"><ele>153.33333333333334</ele><time>2026-05-02T08:02:50.002Z</time></trkpt><trkpt lat="45.1731285" lon="8.0928146"><ele>153.16666666666666</ele><time>2026-05-02T08:02:51.005Z</time></trkpt><trkpt lat="45.1731296" lon="8.0927198"><ele>153.0</ele><time>2026-05-02T08:02:52.008Z</time></trkpt><trkpt lat="45.1731311" lon="8.0925424"><ele>153.0</ele><time>2026-05-02T08:02:54.009Z</time></trkpt><trkpt lat="45.1731295" lon="8.0923725"><ele>153.0</ele><time>2026-05-02T08:02:56.002Z</time></trkpt><trkpt lat="45.1731192" lon="8.0922128"><ele>153.0</ele><time>2026-05-02T08:02:58.009Z</time></trkpt><trkpt lat="45.1730797" lon="8.0920745"><ele>153.0</ele><time>2026-05-02T08:03:00.002Z</time></trkpt><trkpt lat="45.1730285" lon="8.0919377"><ele>153.0</ele><time>2026-05-02T08:03:02.002Z</time></trkpt><trkpt lat="45.1729764" lon="8.091808"><ele>153.0</ele><time>2026-05-02T08:03:03.999Z</time></trkpt><trkpt lat="45.1729152" lon="8.0916863"><ele>153.0</ele><time>2026-05-02T08:03:06.008Z</time></trkpt><trkpt lat="45.1728494" lon="8.0915544"><ele>153.0</ele><time>2026-05-02T08:03:08.006Z</time></trkpt><trkpt lat="45.1728021" lon="8.0914218"><ele>153.0</ele><time>2026-05-02T08:03:10.005Z</time></trkpt><trkpt lat="45.1727734" lon="8.0912903"><ele>153.0</ele><time>2026-05-02T08:03:12.004Z</time></trkpt><trkpt lat="45.1727385" lon="8.091181"><ele>153.0</ele><time>2026-05-02T08:03:14.001Z</time></trkpt><trkpt lat="45.1726931" lon="8.0910796"><ele>153.0</ele><time>2026-05-02T08:03:16.003Z</time></trkpt><trkpt lat="45.1726446" lon="8.0909733"><ele>153.0</ele><time>2026-05-02T08:03:18.012Z</time></trkpt><trkpt lat="45.1725893" lon="8.0908631"><ele>153.0</ele><time>2026-05-02T08:03:19.998Z</time></trkpt><trkpt lat="45.1725357" lon="8.090756"><ele>153.0</ele><time>2026-05-02T08:03:22.004Z</time></trkpt><trkpt lat="45.1724712" lon="8.0906816"><ele>153.0</ele><time>2026-05-02T08:03:24.003Z</time></trkpt><trkpt lat="45.1723913" lon="8.090639"><ele>153.16666666666666</ele><time>2026-05-02T08:03:26.001Z</time></trkpt><trkpt lat="45.172324" lon="8.0905946"><ele>153.33333333333334</ele><time>2026-05-02T08:03:27.998Z</time></trkpt><trkpt lat="45.1722528" lon="8.0905204"><ele>153.5</ele><time>2026-05-02T08:03:30.001Z</time></trkpt><trkpt lat="45.1721827" lon="8.0904309"><ele>153.66666666666669</ele><time>2026-05-02T08:03:31.99Z</time></trkpt><trkpt lat="45.1721237" lon="8.0903394"><ele>153.83333333333334</ele><time>2026-05-02T08:03:34.004Z</time></trkpt><trkpt lat="45.17206" lon="8.0902516"><ele>154.0</ele><time>2026-05-02T08:03:36.011Z</time></trkpt><trkpt lat="45.1719987" lon="8.0901711"><ele>154.0</ele><time>2026-05-02T08:03:38Z</time></trkpt><trkpt lat="45.1719642" lon="8.0900924"><ele>154.0</ele><time>2026-05-02T08:03:40.996Z</time></trkpt><trkpt lat="45.1719462" lon="8.0899897"><ele>154.0</ele><time>2026-05-02T08:03:43.004Z</time></trkpt><trkpt lat="45.1719146" lon="8.0899076"><ele>154.0</ele><time>2026-05-02T08:03:45.998Z</time></trkpt><trkpt lat="45.1718514" lon="8.0898416"><ele>154.0</ele><time>2026-05-02T08:03:47.996Z</time></trkpt><trkpt lat="45.1717997" lon="8.0897788"><ele>154.0</ele><time>2026-05-02T08:03:50.016Z</time></trkpt><trkpt lat="45.1717319" lon="8.0897151"><ele>154.0</ele><time>2026-05-02T08:03:51.991Z</time></trkpt><trkpt lat="45.1716597" lon="8.0896623"><ele>154.0</ele><time>2026-05-02T08:03:54.007Z</time></trkpt><trkpt lat="45.1715805" lon="8.0896073"><ele>154.0</ele><time>2026-05-02T08:03:56.011Z</time></trkpt><trkpt lat="45.1715027" lon="8.0895477"><ele>154.0</ele><time>2026-05-02T08:03:57.999Z</time></trkpt><trkpt lat="45.1714278" lon="8.0894873"><ele>154.0</ele><time>2026-05-02T08:04:00.002Z</time></trkpt><trkpt lat="45.1713591" lon="8.089404"><ele>154.0</ele><time>2026-05-02T08:04:03.001Z</time></trkpt><trkpt lat="45.1712881" lon="8.0893099"><ele>153.83333333333334</ele><time>2026-05-02T08:04:06.008Z</time></trkpt><trkpt lat="45.1712499" lon="8.0892095"><ele>153.66666666666669</ele><time>2026-05-02T08:04:08.004Z</time></trkpt><trkpt lat="45.1712097" lon="8.0890921"><ele>153.5</ele><time>2026-05-02T08:04:09.997Z</time></trkpt><trkpt lat="45.1711757" lon="8.088984"><ele>153.33333333333334</ele><time>2026-05-02T08:04:12.003Z</time></trkpt><trkpt lat="45.1711326" lon="8.0888713"><ele>153.16666666666666</ele><time>2026-05-02T08:04:13.997Z</time></trkpt><trkpt lat="45.1710969" lon="8.0887621"><ele>153.0</ele><time>2026-05-02T08:04:16.001Z</time></trkpt><trkpt lat="45.1710644" lon="8.088652"><ele>153.0</ele><time>2026-05-02T08:04:17.999Z</time></trkpt><trkpt lat="45.1710245" lon="8.088528"><ele>153.0</ele><time>2026-05-02T08:04:20.009Z</time></trkpt><trkpt lat="45.170984" lon="8.0884041"><ele>153.0</ele><time>2026-05-02T08:04:22.001Z</time></trkpt><trkpt lat="45.1709445" lon="8.0882827"><ele>153.0</ele><time>2026-05-02T08:04:24.008Z</time></trkpt><trkpt lat="45.1709107" lon="8.0881589"><ele>153.0</ele><time>2026-05-02T08:04:26.009Z</time></trkpt><trkpt lat="45.1708674" lon="8.0880196"><ele>153.0</ele><time>2026-05-02T08:04:28.006Z</time></trkpt><trkpt lat="45.1708183" lon="8.0878765"><ele>153.0</ele><time>2026-05-02T08:04:30.004Z</time></trkpt><trkpt lat="45.1707719" lon="8.0877374"><ele>153.0</ele><time>2026-05-02T08:04:31.995Z</time></trkpt><trkpt lat="45.1707309" lon="8.0875962"><ele>153.0</ele><time>2026-05-02T08:04:33.994Z</time></trkpt><trkpt lat="45.1706823" lon="8.0874414"><ele>153.0</ele><time>2026-05-02T08:04:36Z</time></trkpt><trkpt lat="45.1706244" lon="8.0872963"><ele>153.6</ele><time>2026-05-02T08:04:37.999Z</time></trkpt><trkpt lat="45.170565" lon="8.0871758"><ele>154.20000000000002</ele><time>2026-05-02T08:04:40.006Z</time></trkpt><trkpt lat="45.1705043" lon="8.0870633"><ele>154.8</ele><time>2026-05-02T08:04:41.997Z</time></trkpt><trkpt lat="45.1704958" lon="8.0869356"><ele>155.4</ele><time>2026-05-02T08:04:45.002Z</time></trkpt><trkpt lat="45.1704883" lon="8.0868324"><ele>156.0</ele><time>2026-05-02T08:04:47.008Z</time></trkpt><trkpt lat="45.1704119" lon="8.0867188"><ele>156.0</ele><time>2026-05-02T08:04:49.003Z</time></trkpt><trkpt lat="45.1703586" lon="8.08666"><ele>156.0</ele><time>2026-05-02T08:04:50.023Z</time></trkpt><trkpt lat="45.1702964" lon="8.0865988"><ele>156.0</ele><time>2026-05-02T08:04:51.013Z</time></trkpt><trkpt lat="45.1702321" lon="8.0865344"><ele>156.0</ele><time>2026-05-02T08:04:52.004Z</time></trkpt><trkpt lat="45.1701662" lon="8.08647"><ele>156.0</ele><time>2026-05-02T08:04:53.011Z</time></trkpt><trkpt lat="45.1700976" lon="8.0864044"><ele>156.0</ele><time>2026-05-02T08:04:54.017Z</time></trkpt><trkpt lat="45.1700317" lon="8.0863412"><ele>156.0</ele><time>2026-05-02T08:04:54.994Z</time></trkpt><trkpt lat="45.1699595" lon="8.0862704"><ele>156.0</ele><time>2026-05-02T08:04:56.012Z</time></trkpt><trkpt lat="45.1698914" lon="8.086198"><ele>156.0</ele><time>2026-05-02T08:04:57.001Z</time></trkpt><trkpt lat="45.1698237" lon="8.0861251"><ele>156.0</ele><time>2026-05-02T08:04:58.004Z</time></trkpt><trkpt lat="45.1697519" lon="8.0860511"><ele>156.0</ele><time>2026-05-02T08:04:59.002Z</time></trkpt><trkpt lat="45.1696788" lon="8.0859778"><ele>156.0</ele><time>2026-05-02T08:05:00.014Z</time></trkpt><trkpt lat="45.1696044" lon="8.0859048"><ele>155.6</ele><time>2026-05-02T08:05:01.008Z</time></trkpt><trkpt lat="45.1695266" lon="8.0858312"><ele>155.2</ele><time>2026-05-02T08:05:02Z</time></trkpt><trkpt lat="45.1694496" lon="8.0857596"><ele>154.8</ele><time>2026-05-02T08:05:02.997Z</time></trkpt><trkpt lat="45.1693684" lon="8.0856847"><ele>154.4</ele><time>2026-05-02T08:05:04.003Z</time></trkpt><trkpt lat="45.1692937" lon="8.0856116"><ele>154.0</ele><time>2026-05-02T08:05:05.012Z</time></trkpt><trkpt lat="45.1692193" lon="8.0855379"><ele>154.0</ele><time>2026-05-02T08:05:05.996Z</time></trkpt><trkpt lat="45.169141" lon="8.085462"><ele>154.0</ele><time>2026-05-02T08:05:07.011Z</time></trkpt><trkpt lat="45.169066" lon="8.0853823"><ele>154.0</ele><time>2026-05-02T08:05:08Z</time></trkpt><trkpt lat="45.1689909" lon="8.0853077"><ele>154.0</ele><time>2026-05-02T08:05:09.001Z</time></trkpt><trkpt lat="45.1689165" lon="8.0852344"><ele>154.0</ele><time>2026-05-02T08:05:10Z</time></trkpt><trkpt lat="45.1688475" lon="8.0851649"><ele>154.0</ele><time>2026-05-02T08:05:11.01Z</time></trkpt><trkpt lat="45.1687779" lon="8.0850976"><ele>154.0</ele><time>2026-05-02T08:05:12.005Z</time></trkpt><trkpt lat="45.1687218" lon="8.0850357"><ele>154.0</ele><time>2026-05-02T08:05:12.997Z</time></trkpt><trkpt lat="45.1686715" lon="8.0849293"><ele>154.0</ele><time>2026-05-02T08:05:15.006Z</time></trkpt><trkpt lat="45.1686808" lon="8.0848162"><ele>154.0</ele><time>2026-05-02T08:05:17.007Z</time></trkpt><trkpt lat="45.1687138" lon="8.0846251"><ele>154.0</ele><time>2026-05-02T08:05:19.011Z</time></trkpt><trkpt lat="45.1687301" lon="8.084489"><ele>154.0</ele><time>2026-05-02T08:05:19.997Z</time></trkpt><trkpt lat="45.1687466" lon="8.084341"><ele>154.0</ele><time>2026-05-02T08:05:21.011Z</time></trkpt><trkpt lat="45.1687649" lon="8.0841763"><ele>154.0</ele><time>2026-05-02T08:05:22.006Z</time></trkpt><trkpt lat="45.1687866" lon="8.0839939"><ele>153.5</ele><time>2026-05-02T08:05:23.006Z</time></trkpt><trkpt lat="45.1688065" lon="8.0838103"><ele>153.0</ele><time>2026-05-02T08:05:24.006Z</time></trkpt><trkpt lat="45.1688264" lon="8.0836279"><ele>152.5</ele><time>2026-05-02T08:05:25.006Z</time></trkpt><trkpt lat="45.1688479" lon="8.0834413"><ele>152.0</ele><time>2026-05-02T08:05:26.001Z</time></trkpt><trkpt lat="45.1688693" lon="8.0832523"><ele>152.0</ele><time>2026-05-02T08:05:26.995Z</time></trkpt><trkpt lat="45.1688914" lon="8.083065"><ele>152.0</ele><time>2026-05-02T08:05:28Z</time></trkpt><trkpt lat="45.1689125" lon="8.082878"><ele>152.0</ele><time>2026-05-02T08:05:29.001Z</time></trkpt><trkpt lat="45.1689335" lon="8.0826928"><ele>152.0</ele><time>2026-05-02T08:05:30.001Z</time></trkpt><trkpt lat="45.1689543" lon="8.0825084"><ele>152.0</ele><time>2026-05-02T08:05:31.004Z</time></trkpt><trkpt lat="45.1689742" lon="8.0823242"><ele>152.0</ele><time>2026-05-02T08:05:31.999Z</time></trkpt><trkpt lat="45.1689965" lon="8.0821426"><ele>152.0</ele><time>2026-05-02T08:05:33.006Z</time></trkpt><trkpt lat="45.1690183" lon="8.0819675"><ele>152.0</ele><time>2026-05-02T08:05:34.007Z</time></trkpt><trkpt lat="45.1690381" lon="8.0817959"><ele>152.25</ele><time>2026-05-02T08:05:34.997Z</time></trkpt><trkpt lat="45.1690563" lon="8.0816224"><ele>152.5</ele><time>2026-05-02T08:05:36.001Z</time></trkpt><trkpt lat="45.1690716" lon="8.0814439"><ele>152.75</ele><time>2026-05-02T08:05:37.002Z</time></trkpt><trkpt lat="45.1690888" lon="8.0812606"><ele>153.0</ele><time>2026-05-02T08:05:38.004Z</time></trkpt><trkpt lat="45.169107" lon="8.0810657"><ele>153.0</ele><time>2026-05-02T08:05:38.995Z</time></trkpt><trkpt lat="45.1691315" lon="8.0808501"><ele>153.0</ele><time>2026-05-02T08:05:40.004Z</time></trkpt><trkpt lat="45.1691575" lon="8.0806271"><ele>153.0</ele><time>2026-05-02T08:05:41.008Z</time></trkpt><trkpt lat="45.169181" lon="8.0804223"><ele>154.25</ele><time>2026-05-02T08:05:42.001Z</time></trkpt><trkpt lat="45.1692014" lon="8.0802236"><ele>155.5</ele><time>2026-05-02T08:05:42.991Z</time></trkpt><trkpt lat="45.169222" lon="8.0800426"><ele>156.75</ele><time>2026-05-02T08:05:44.001Z</time></trkpt><trkpt lat="45.1692388" lon="8.0798804"><ele>158.0</ele><time>2026-05-02T08:05:44.996Z</time></trkpt><trkpt lat="45.1692556" lon="8.0797338"><ele>158.0</ele><time>2026-05-02T08:05:45.994Z</time></trkpt><trkpt lat="45.1692711" lon="8.0795995"><ele>158.0</ele><time>2026-05-02T08:05:47.008Z</time></trkpt><trkpt lat="45.169284" lon="8.0794736"><ele>158.0</ele><time>2026-05-02T08:05:48.005Z</time></trkpt><trkpt lat="45.1692972" lon="8.0793537"><ele>158.0</ele><time>2026-05-02T08:05:48.996Z</time></trkpt><trkpt lat="45.1693096" lon="8.0792331"><ele>158.0</ele><time>2026-05-02T08:05:50.009Z</time></trkpt><trkpt lat="45.16932" lon="8.0791247"><ele>158.0</ele><time>2026-05-02T08:05:51.009Z</time></trkpt><trkpt lat="45.1693283" lon="8.0790284"><ele>157.20000000000002</ele><time>2026-05-02T08:05:52.003Z</time></trkpt><trkpt lat="45.1693656" lon="8.0788903"><ele>156.4</ele><time>2026-05-02T08:05:54.002Z</time></trkpt><trkpt lat="45.1694364" lon="8.0788358"><ele>155.60000000000002</ele><time>2026-05-02T08:05:56.006Z</time></trkpt><trkpt lat="45.1695425" lon="8.07885"><ele>154.8</ele><time>2026-05-02T08:05:58.006Z</time></trkpt><trkpt lat="45.1696214" lon="8.0788923"><ele>154.0</ele><time>2026-05-02T08:05:59.011Z</time></trkpt><trkpt lat="45.1697215" lon="8.0789533"><ele>154.0</ele><time>2026-05-02T08:05:59.995Z</time></trkpt><trkpt lat="45.1698305" lon="8.0790189"><ele>154.0</ele><time>2026-05-02T08:06:01.016Z</time></trkpt><trkpt lat="45.1699631" lon="8.0790923"><ele>154.0</ele><time>2026-05-02T08:06:02.005Z</time></trkpt><trkpt lat="45.1701127" lon="8.0791721"><ele>154.0</ele><time>2026-05-02T08:06:03.009Z</time></trkpt><trkpt lat="45.1702685" lon="8.0792567"><ele>154.0</ele><time>2026-05-02T08:06:04.002Z</time></trkpt><trkpt lat="45.1704116" lon="8.0793344"><ele>154.0</ele><time>2026-05-02T08:06:05Z</time></trkpt><trkpt lat="45.1705381" lon="8.0794011"><ele>154.0</ele><time>2026-05-02T08:06:05.997Z</time></trkpt><trkpt lat="45.1706435" lon="8.0794561"><ele>154.0</ele><time>2026-05-02T08:06:07.01Z</time></trkpt><trkpt lat="45.1707291" lon="8.0795034"><ele>154.0</ele><time>2026-05-02T08:06:08.003Z</time></trkpt><trkpt lat="45.1708036" lon="8.0795442"><ele>154.0</ele><time>2026-05-02T08:06:09.009Z</time></trkpt><trkpt lat="45.170866" lon="8.0795748"><ele>154.0</ele><time>2026-05-02T08:06:10.006Z</time></trkpt><trkpt lat="45.1709749" lon="8.0796"><ele>154.0</ele><time>2026-05-02T08:06:12.003Z</time></trkpt><trkpt lat="45.1710976" lon="8.0795937"><ele>154.0</ele><time>2026-05-02T08:06:14.001Z</time></trkpt><trkpt lat="45.1711671" lon="8.0795787"><ele>154.0</ele><time>2026-05-02T08:06:15.001Z</time></trkpt><trkpt lat="45.1712329" lon="8.0795302"><ele>154.0</ele><time>2026-05-02T08:06:16.007Z</time></trkpt><trkpt lat="45.171288" lon="8.0794599"><ele>154.0</ele><time>2026-05-02T08:06:17.005Z</time></trkpt><trkpt lat="45.1713363" lon="8.0793831"><ele>154.0</ele><time>2026-05-02T08:06:17.995Z</time></trkpt><trkpt lat="45.1713883" lon="8.0793061"><ele>154.0</ele><time>2026-05-02T08:06:19.011Z</time></trkpt><trkpt lat="45.1714464" lon="8.079228"><ele>154.0</ele><time>2026-05-02T08:06:19.999Z</time></trkpt><trkpt lat="45.171518" lon="8.0791604"><ele>154.0</ele><time>2026-05-02T08:06:20.998Z</time></trkpt><trkpt lat="45.1715869" lon="8.0791127"><ele>154.28571428571428</ele><time>2026-05-02T08:06:22.016Z</time></trkpt><trkpt lat="45.1716399" lon="8.0790585"><ele>154.57142857142856</ele><time>2026-05-02T08:06:22.998Z</time></trkpt><trkpt lat="45.1716834" lon="8.0789928"><ele>154.85714285714286</ele><time>2026-05-02T08:06:24.003Z</time></trkpt><trkpt lat="45.1717182" lon="8.0789131"><ele>155.14285714285714</ele><time>2026-05-02T08:06:25.002Z</time></trkpt><trkpt lat="45.1717442" lon="8.0788223"><ele>155.42857142857142</ele><time>2026-05-02T08:06:26.012Z</time></trkpt><trkpt lat="45.1717705" lon="8.0787255"><ele>155.71428571428572</ele><time>2026-05-02T08:06:27.003Z</time></trkpt><trkpt lat="45.1718032" lon="8.0786349"><ele>156.0</ele><time>2026-05-02T08:06:27.998Z</time></trkpt><trkpt lat="45.1718474" lon="8.0785583"><ele>156.0</ele><time>2026-05-02T08:06:29.01Z</time></trkpt><trkpt lat="45.1719026" lon="8.0784927"><ele>156.0</ele><time>2026-05-02T08:06:30.002Z</time></trkpt><trkpt lat="45.1719658" lon="8.0784378"><ele>156.0</ele><time>2026-05-02T08:06:31.005Z</time></trkpt><trkpt lat="45.1720314" lon="8.0783828"><ele>156.0</ele><time>2026-05-02T08:06:31.997Z</time></trkpt><trkpt lat="45.1720898" lon="8.0783254"><ele>156.0</ele><time>2026-05-02T08:06:33.006Z</time></trkpt><trkpt lat="45.172172" lon="8.0782152"><ele>156.0</ele><time>2026-05-02T08:06:35.006Z</time></trkpt><trkpt lat="45.1721968" lon="8.0780696"><ele>155.83333333333334</ele><time>2026-05-02T08:06:36.994Z</time></trkpt><trkpt lat="45.1722494" lon="8.077948"><ele>155.66666666666666</ele><time>2026-05-02T08:06:39.002Z</time></trkpt><trkpt lat="45.172299" lon="8.0777937"><ele>155.5</ele><time>2026-05-02T08:06:41.006Z</time></trkpt><trkpt lat="45.1723179" lon="8.0777017"><ele>155.33333333333331</ele><time>2026-05-02T08:06:42.003Z</time></trkpt><trkpt lat="45.172338" lon="8.0776055"><ele>155.16666666666666</ele><time>2026-05-02T08:06:42.999Z</time></trkpt><trkpt lat="45.1723612" lon="8.0774844"><ele>155.0</ele><time>2026-05-02T08:06:44.001Z</time></trkpt><trkpt lat="45.1723883" lon="8.0773591"><ele>154.25</ele><time>2026-05-02T08:06:45.002Z</time></trkpt><trkpt lat="45.1724146" lon="8.0772076"><ele>153.5</ele><time>2026-05-02T08:06:46Z</time></trkpt><trkpt lat="45.1724449" lon="8.0770494"><ele>152.75</ele><time>2026-05-02T08:06:47.011Z</time></trkpt><trkpt lat="45.1724739" lon="8.0768928"><ele>152.0</ele><time>2026-05-02T08:06:48.004Z</time></trkpt><trkpt lat="45.1725006" lon="8.0767319"><ele>152.25</ele><time>2026-05-02T08:06:49.003Z</time></trkpt><trkpt lat="45.1725294" lon="8.07656"><ele>152.5</ele><time>2026-05-02T08:06:50.005Z</time></trkpt><trkpt lat="45.1725579" lon="8.0763969"><ele>152.75</ele><time>2026-05-02T08:06:51.004Z</time></trkpt><trkpt lat="45.1725885" lon="8.0762395"><ele>153.0</ele><time>2026-05-02T08:06:52.001Z</time></trkpt><trkpt lat="45.1726238" lon="8.0760777"><ele>153.0</ele><time>2026-05-02T08:06:53.001Z</time></trkpt><trkpt lat="45.1726618" lon="8.0759178"><ele>153.0</ele><time>2026-05-02T08:06:54.001Z</time></trkpt><trkpt lat="45.1727052" lon="8.0757602"><ele>153.0</ele><time>2026-05-02T08:06:54.995Z</time></trkpt><trkpt lat="45.1727485" lon="8.0756122"><ele>153.0</ele><time>2026-05-02T08:06:55.996Z</time></trkpt><trkpt lat="45.1727888" lon="8.0754691"><ele>153.0</ele><time>2026-05-02T08:06:57.013Z</time></trkpt><trkpt lat="45.1728238" lon="8.0753305"><ele>153.0</ele><time>2026-05-02T08:06:58.007Z</time></trkpt><trkpt lat="45.1728496" lon="8.0751902"><ele>153.0</ele><time>2026-05-02T08:06:59.008Z</time></trkpt><trkpt lat="45.1728664" lon="8.0750533"><ele>153.0</ele><time>2026-05-02T08:07:00.016Z</time></trkpt><trkpt lat="45.1728792" lon="8.0749244"><ele>153.0</ele><time>2026-05-02T08:07:01.012Z</time></trkpt><trkpt lat="45.1728959" lon="8.0748066"><ele>153.16666666666666</ele><time>2026-05-02T08:07:02.008Z</time></trkpt><trkpt lat="45.1729187" lon="8.0746992"><ele>153.33333333333334</ele><time>2026-05-02T08:07:03.005Z</time></trkpt><trkpt lat="45.1729528" lon="8.0746032"><ele>153.5</ele><time>2026-05-02T08:07:04.002Z</time></trkpt><trkpt lat="45.1729983" lon="8.074525"><ele>153.66666666666669</ele><time>2026-05-02T08:07:05.01Z</time></trkpt><trkpt lat="45.1730555" lon="8.0744613"><ele>153.83333333333334</ele><time>2026-05-02T08:07:06.007Z</time></trkpt><trkpt lat="45.1731199" lon="8.0744043"><ele>154.0</ele><time>2026-05-02T08:07:07.011Z</time></trkpt><trkpt lat="45.1731921" lon="8.0743527"><ele>154.0</ele><time>2026-05-02T08:07:08.004Z</time></trkpt><trkpt lat="45.1732702" lon="8.0743041"><ele>154.0</ele><time>2026-05-02T08:07:09.004Z</time></trkpt><trkpt lat="45.1733548" lon="8.0742604"><ele>154.0</ele><time>2026-05-02T08:07:10.005Z</time></trkpt><trkpt lat="45.1734422" lon="8.0742111"><ele>154.0</ele><time>2026-05-02T08:07:11.013Z</time></trkpt><trkpt lat="45.1735355" lon="8.0741541"><ele>154.0</ele><time>2026-05-02T08:07:12.002Z</time></trkpt><trkpt lat="45.1736299" lon="8.0740974"><ele>154.33333333333334</ele><time>2026-05-02T08:07:12.992Z</time></trkpt><trkpt lat="45.1737207" lon="8.0740487"><ele>154.66666666666669</ele><time>2026-05-02T08:07:14.011Z</time></trkpt><trkpt lat="45.1738072" lon="8.0740079"><ele>155.0</ele><time>2026-05-02T08:07:15.01Z</time></trkpt><trkpt lat="45.1738905" lon="8.0739798"><ele>155.33333333333334</ele><time>2026-05-02T08:07:16.01Z</time></trkpt><trkpt lat="45.1739738" lon="8.0739713"><ele>155.66666666666666</ele><time>2026-05-02T08:07:17.001Z</time></trkpt><trkpt lat="45.1740572" lon="8.0739762"><ele>156.0</ele><time>2026-05-02T08:07:18.012Z</time></trkpt><trkpt lat="45.1741344" lon="8.073986"><ele>156.0</ele><time>2026-05-02T08:07:19.005Z</time></trkpt><trkpt lat="45.1742226" lon="8.0740255"><ele>156.0</ele><time>2026-05-02T08:07:21.007Z</time></trkpt><trkpt lat="45.1742736" lon="8.0741396"><ele>156.0</ele><time>2026-05-02T08:07:23.002Z</time></trkpt><trkpt lat="45.1742937" lon="8.0743254"><ele>156.0</ele><time>2026-05-02T08:07:25.008Z</time></trkpt><trkpt lat="45.1742946" lon="8.0744454"><ele>156.0</ele><time>2026-05-02T08:07:26.001Z</time></trkpt><trkpt lat="45.17429" lon="8.0745764"><ele>155.6</ele><time>2026-05-02T08:07:26.997Z</time></trkpt><trkpt lat="45.174278" lon="8.0747185"><ele>155.2</ele><time>2026-05-02T08:07:28.004Z</time></trkpt><trkpt lat="45.1742663" lon="8.0748593"><ele>154.8</ele><time>2026-05-02T08:07:28.999Z</time></trkpt><trkpt lat="45.1742512" lon="8.0749888"><ele>154.4</ele><time>2026-05-02T08:07:29.999Z</time></trkpt><trkpt lat="45.1742483" lon="8.0751138"><ele>154.0</ele><time>2026-05-02T08:07:31.01Z</time></trkpt><trkpt lat="45.1742096" lon="8.0752492"><ele>153.6</ele><time>2026-05-02T08:07:32.005Z</time></trkpt><trkpt lat="45.1741798" lon="8.0753944"><ele>153.2</ele><time>2026-05-02T08:07:33.007Z</time></trkpt><trkpt lat="45.1741465" lon="8.0755366"><ele>152.79999999999998</ele><time>2026-05-02T08:07:34.005Z</time></trkpt><trkpt lat="45.1741126" lon="8.0756647"><ele>152.4</ele><time>2026-05-02T08:07:35.008Z</time></trkpt><trkpt lat="45.1740865" lon="8.0758018"><ele>152.0</ele><time>2026-05-02T08:07:36.007Z</time></trkpt><trkpt lat="45.1740628" lon="8.0759362"><ele>152.0</ele><time>2026-05-02T08:07:37.009Z</time></trkpt><trkpt lat="45.1740369" lon="8.0760741"><ele>152.0</ele><time>2026-05-02T08:07:38.007Z</time></trkpt><trkpt lat="45.1740074" lon="8.0762196"><ele>152.0</ele><time>2026-05-02T08:07:39.006Z</time></trkpt><trkpt lat="45.17398" lon="8.0763684"><ele>152.0</ele><time>2026-05-02T08:07:40.002Z</time></trkpt><trkpt lat="45.1739485" lon="8.0765103"><ele>152.0</ele><time>2026-05-02T08:07:41.002Z</time></trkpt><trkpt lat="45.1739144" lon="8.0766468"><ele>151.79999999999998</ele><time>2026-05-02T08:07:42.007Z</time></trkpt><trkpt lat="45.173881" lon="8.0767808"><ele>151.6</ele><time>2026-05-02T08:07:43.004Z</time></trkpt><trkpt lat="45.1738463" lon="8.0769194"><ele>151.39999999999998</ele><time>2026-05-02T08:07:43.999Z</time></trkpt><trkpt lat="45.173815" lon="8.0770529"><ele>151.2</ele><time>2026-05-02T08:07:45.001Z</time></trkpt><trkpt lat="45.1737753" lon="8.0771875"><ele>151.0</ele><time>2026-05-02T08:07:46.001Z</time></trkpt><trkpt lat="45.1737466" lon="8.077318"><ele>151.16666666666669</ele><time>2026-05-02T08:07:47.009Z</time></trkpt><trkpt lat="45.1737276" lon="8.0774528"><ele>151.33333333333334</ele><time>2026-05-02T08:07:47.999Z</time></trkpt><trkpt lat="45.1737236" lon="8.0775699"><ele>151.5</ele><time>2026-05-02T08:07:48.998Z</time></trkpt><trkpt lat="45.17371" lon="8.0776891"><ele>151.66666666666666</ele><time>2026-05-02T08:07:50.004Z</time></trkpt><trkpt lat="45.173736" lon="8.077797"><ele>151.83333333333331</ele><time>2026-05-02T08:07:51.003Z</time></trkpt><trkpt lat="45.1737697" lon="8.0779167"><ele>152.0</ele><time>2026-05-02T08:07:52Z</time></trkpt><trkpt lat="45.1738061" lon="8.078048"><ele>152.0</ele><time>2026-05-02T08:07:53.009Z</time></trkpt><trkpt lat="45.173848" lon="8.0781724"><ele>152.0</ele><time>2026-05-02T08:07:54.006Z</time></trkpt><trkpt lat="45.173891" lon="8.07829"><ele>152.0</ele><time>2026-05-02T08:07:55.008Z</time></trkpt><trkpt lat="45.1739348" lon="8.0784083"><ele>152.0</ele><time>2026-05-02T08:07:55.998Z</time></trkpt><trkpt lat="45.1739827" lon="8.0785227"><ele>152.0</ele><time>2026-05-02T08:07:57.003Z</time></trkpt><trkpt lat="45.1740278" lon="8.0786271"><ele>152.16666666666666</ele><time>2026-05-02T08:07:58.007Z</time></trkpt><trkpt lat="45.1740726" lon="8.0787259"><ele>152.33333333333331</ele><time>2026-05-02T08:07:59.01Z</time></trkpt><trkpt lat="45.1741253" lon="8.0787981"><ele>152.5</ele><time>2026-05-02T08:08:00.01Z</time></trkpt><trkpt lat="45.1741955" lon="8.0788464"><ele>152.66666666666666</ele><time>2026-05-02T08:08:01.002Z</time></trkpt><trkpt lat="45.1742875" lon="8.0788888"><ele>152.83333333333334</ele><time>2026-05-02T08:08:02.002Z</time></trkpt><trkpt lat="45.1743684" lon="8.0789469"><ele>153.0</ele><time>2026-05-02T08:08:03.004Z</time></trkpt><trkpt lat="45.1744552" lon="8.0790016"><ele>153.0</ele><time>2026-05-02T08:08:04.008Z</time></trkpt><trkpt lat="45.1745424" lon="8.0790643"><ele>153.0</ele><time>2026-05-02T08:08:05.009Z</time></trkpt><trkpt lat="45.1746353" lon="8.0791246"><ele>153.0</ele><time>2026-05-02T08:08:06.009Z</time></trkpt><trkpt lat="45.1747297" lon="8.0791843"><ele>153.0</ele><time>2026-05-02T08:08:06.999Z</time></trkpt><trkpt lat="45.1748218" lon="8.0792434"><ele>153.0</ele><time>2026-05-02T08:08:08.014Z</time></trkpt><trkpt lat="45.1749137" lon="8.079304"><ele>152.8</ele><time>2026-05-02T08:08:09.011Z</time></trkpt><trkpt lat="45.1750084" lon="8.0793626"><ele>152.60000000000002</ele><time>2026-05-02T08:08:10.006Z</time></trkpt><trkpt lat="45.1750993" lon="8.0794291"><ele>152.39999999999998</ele><time>2026-05-02T08:08:11.011Z</time></trkpt><trkpt lat="45.1751955" lon="8.0794978"><ele>152.2</ele><time>2026-05-02T08:08:12.002Z</time></trkpt><trkpt lat="45.1752924" lon="8.0795653"><ele>152.0</ele><time>2026-05-02T08:08:13.009Z</time></trkpt><trkpt lat="45.1753903" lon="8.0796312"><ele>152.0</ele><time>2026-05-02T08:08:14.011Z</time></trkpt><trkpt lat="45.1754842" lon="8.0797002"><ele>152.0</ele><time>2026-05-02T08:08:15.004Z</time></trkpt><trkpt lat="45.1755816" lon="8.0797698"><ele>152.0</ele><time>2026-05-02T08:08:16.014Z</time></trkpt><trkpt lat="45.1756803" lon="8.0798409"><ele>152.0</ele><time>2026-05-02T08:08:17.001Z</time></trkpt><trkpt lat="45.1757813" lon="8.0799092"><ele>152.0</ele><time>2026-05-02T08:08:17.998Z</time></trkpt><trkpt lat="45.1758819" lon="8.079981"><ele>151.79999999999998</ele><time>2026-05-02T08:08:19.011Z</time></trkpt><trkpt lat="45.1759811" lon="8.0800502"><ele>151.6</ele><time>2026-05-02T08:08:20.002Z</time></trkpt><trkpt lat="45.1760765" lon="8.0801129"><ele>151.39999999999998</ele><time>2026-05-02T08:08:20.999Z</time></trkpt><trkpt lat="45.1761643" lon="8.0801733"><ele>151.2</ele><time>2026-05-02T08:08:22.007Z</time></trkpt><trkpt lat="45.1762475" lon="8.0802297"><ele>151.0</ele><time>2026-05-02T08:08:23.015Z</time></trkpt><trkpt lat="45.1763216" lon="8.0802763"><ele>151.00000000000003</ele><time>2026-05-02T08:08:24.003Z</time></trkpt><trkpt lat="45.1763914" lon="8.0803086"><ele>151.0</ele><time>2026-05-02T08:08:25.006Z</time></trkpt><trkpt lat="45.1764589" lon="8.0803418"><ele>151.0</ele><time>2026-05-02T08:08:26.008Z</time></trkpt><trkpt lat="45.1765228" lon="8.0803714"><ele>151.0</ele><time>2026-05-02T08:08:27.008Z</time></trkpt><trkpt lat="45.1765921" lon="8.0804097"><ele>151.0</ele><time>2026-05-02T08:08:28.001Z</time></trkpt><trkpt lat="45.1766589" lon="8.0804618"><ele>151.00000000000003</ele><time>2026-05-02T08:08:29.01Z</time></trkpt><trkpt lat="45.1767244" lon="8.0805124"><ele>151.0</ele><time>2026-05-02T08:08:29.998Z</time></trkpt><trkpt lat="45.1767891" lon="8.080581"><ele>151.16666666666669</ele><time>2026-05-02T08:08:30.997Z</time></trkpt><trkpt lat="45.1768506" lon="8.080659"><ele>151.33333333333334</ele><time>2026-05-02T08:08:32.007Z</time></trkpt><trkpt lat="45.1769114" lon="8.0807234"><ele>151.5</ele><time>2026-05-02T08:08:33Z</time></trkpt><trkpt lat="45.1769703" lon="8.0807837"><ele>151.66666666666666</ele><time>2026-05-02T08:08:34.002Z</time></trkpt><trkpt lat="45.1770457" lon="8.080839"><ele>151.83333333333331</ele><time>2026-05-02T08:08:35.007Z</time></trkpt><trkpt lat="45.1771226" lon="8.0808915"><ele>152.0</ele><time>2026-05-02T08:08:35.998Z</time></trkpt><trkpt lat="45.1771996" lon="8.0809447"><ele>152.4</ele><time>2026-05-02T08:08:37.001Z</time></trkpt><trkpt lat="45.1772832" lon="8.080999"><ele>152.79999999999998</ele><time>2026-05-02T08:08:38.004Z</time></trkpt><trkpt lat="45.1773707" lon="8.0810546"><ele>153.2</ele><time>2026-05-02T08:08:39.002Z</time></trkpt><trkpt lat="45.1774595" lon="8.0811167"><ele>153.6</ele><time>2026-05-02T08:08:40.004Z</time></trkpt><trkpt lat="45.1775488" lon="8.0811772"><ele>154.0</ele><time>2026-05-02T08:08:41.013Z</time></trkpt><trkpt lat="45.1776225" lon="8.081235"><ele>154.0</ele><time>2026-05-02T08:08:41.999Z</time></trkpt><trkpt lat="45.1776836" lon="8.0812837"><ele>154.0</ele><time>2026-05-02T08:08:42.998Z</time></trkpt><trkpt lat="45.1777529" lon="8.0813468"><ele>154.0</ele><time>2026-05-02T08:08:45.011Z</time></trkpt><trkpt lat="45.1778513" lon="8.0813222"><ele>154.0</ele><time>2026-05-02T08:08:48.002Z</time></trkpt><trkpt lat="45.1779035" lon="8.0812409"><ele>154.0</ele><time>2026-05-02T08:08:50.005Z</time></trkpt><trkpt lat="45.1779321" lon="8.081085"><ele>154.0</ele><time>2026-05-02T08:08:52.001Z</time></trkpt><trkpt lat="45.1779471" lon="8.0809894"><ele>154.0</ele><time>2026-05-02T08:08:52.999Z</time></trkpt><trkpt lat="45.1779589" lon="8.0808891"><ele>154.0</ele><time>2026-05-02T08:08:53.999Z</time></trkpt><trkpt lat="45.1779721" lon="8.080788"><ele>154.0</ele><time>2026-05-02T08:08:55Z</time></trkpt><trkpt lat="45.1779836" lon="8.0806822"><ele>154.0</ele><time>2026-05-02T08:08:55.998Z</time></trkpt><trkpt lat="45.1779961" lon="8.0805858"><ele>154.0</ele><time>2026-05-02T08:08:57Z</time></trkpt><trkpt lat="45.1780374" lon="8.0804411"><ele>154.0</ele><time>2026-05-02T08:08:59.004Z</time></trkpt><trkpt lat="45.1781006" lon="8.080369"><ele>153.8</ele><time>2026-05-02T08:09:01Z</time></trkpt><trkpt lat="45.1782014" lon="8.0804162"><ele>153.60000000000002</ele><time>2026-05-02T08:09:03.01Z</time></trkpt><trkpt lat="45.1782724" lon="8.0804656"><ele>153.4</ele><time>2026-05-02T08:09:04.001Z</time></trkpt><trkpt lat="45.1783429" lon="8.0805124"><ele>153.20000000000002</ele><time>2026-05-02T08:09:05.005Z</time></trkpt><trkpt lat="45.178456" lon="8.0805479"><ele>153.0</ele><time>2026-05-02T08:09:06.999Z</time></trkpt><trkpt lat="45.1785817" lon="8.080512"><ele>153.0</ele><time>2026-05-02T08:09:09.005Z</time></trkpt><trkpt lat="45.1786502" lon="8.0804618"><ele>153.0</ele><time>2026-05-02T08:09:10.001Z</time></trkpt><trkpt lat="45.1787199" lon="8.0804064"><ele>153.0</ele><time>2026-05-02T08:09:10.998Z</time></trkpt><trkpt lat="45.1787898" lon="8.0803404"><ele>153.0</ele><time>2026-05-02T08:09:12.01Z</time></trkpt><trkpt lat="45.1788577" lon="8.0802687"><ele>153.0</ele><time>2026-05-02T08:09:13.001Z</time></trkpt><trkpt lat="45.1789266" lon="8.0801956"><ele>153.0</ele><time>2026-05-02T08:09:14.012Z</time></trkpt><trkpt lat="45.1789886" lon="8.0801195"><ele>153.0</ele><time>2026-05-02T08:09:15.005Z</time></trkpt><trkpt lat="45.1790451" lon="8.0800371"><ele>153.0</ele><time>2026-05-02T08:09:15.998Z</time></trkpt><trkpt lat="45.1791028" lon="8.079948"><ele>153.0</ele><time>2026-05-02T08:09:17.005Z</time></trkpt><trkpt lat="45.1791547" lon="8.0798424"><ele>153.0</ele><time>2026-05-02T08:09:17.996Z</time></trkpt><trkpt lat="45.1792088" lon="8.0797337"><ele>153.0</ele><time>2026-05-02T08:09:18.999Z</time></trkpt><trkpt lat="45.1792616" lon="8.0796221"><ele>153.0</ele><time>2026-05-02T08:09:20Z</time></trkpt><trkpt lat="45.1793232" lon="8.0795044"><ele>153.4</ele><time>2026-05-02T08:09:21.002Z</time></trkpt><trkpt lat="45.1793821" lon="8.0793824"><ele>153.8</ele><time>2026-05-02T08:09:22.005Z</time></trkpt><trkpt lat="45.1794425" lon="8.0792584"><ele>154.2</ele><time>2026-05-02T08:09:23.007Z</time></trkpt><trkpt lat="45.1794988" lon="8.0791412"><ele>154.6</ele><time>2026-05-02T08:09:23.997Z</time></trkpt><trkpt lat="45.1795572" lon="8.0790272"><ele>155.0</ele><time>2026-05-02T08:09:25.006Z</time></trkpt><trkpt lat="45.1796178" lon="8.0789157"><ele>154.8</ele><time>2026-05-02T08:09:25.998Z</time></trkpt><trkpt lat="45.1796792" lon="8.0788026"><ele>154.6</ele><time>2026-05-02T08:09:26.997Z</time></trkpt><trkpt lat="45.1797433" lon="8.0786897"><ele>154.4</ele><time>2026-05-02T08:09:28.001Z</time></trkpt><trkpt lat="45.1798059" lon="8.0785755"><ele>154.2</ele><time>2026-05-02T08:09:29.002Z</time></trkpt><trkpt lat="45.1798681" lon="8.0784633"><ele>154.0</ele><time>2026-05-02T08:09:29.996Z</time></trkpt><trkpt lat="45.1799291" lon="8.0783516"><ele>154.0</ele><time>2026-05-02T08:09:30.999Z</time></trkpt><trkpt lat="45.1799872" lon="8.0782417"><ele>154.0</ele><time>2026-05-02T08:09:32.005Z</time></trkpt><trkpt lat="45.1800363" lon="8.0781318"><ele>154.0</ele><time>2026-05-02T08:09:33.002Z</time></trkpt><trkpt lat="45.1800753" lon="8.0780225"><ele>154.0</ele><time>2026-05-02T08:09:33.991Z</time></trkpt><trkpt lat="45.1801051" lon="8.0779278"><ele>154.0</ele><time>2026-05-02T08:09:35.007Z</time></trkpt><trkpt lat="45.180135" lon="8.0778438"><ele>154.0</ele><time>2026-05-02T08:09:36.009Z</time></trkpt><trkpt lat="45.1801965" lon="8.0777692"><ele>154.0</ele><time>2026-05-02T08:09:38.002Z</time></trkpt><trkpt lat="45.180279" lon="8.0777594"><ele>154.0</ele><time>2026-05-02T08:09:40.001Z</time></trkpt><trkpt lat="45.1803545" lon="8.0777386"><ele>154.0</ele><time>2026-05-02T08:09:42.009Z</time></trkpt><trkpt lat="45.1804103" lon="8.0776377"><ele>154.0</ele><time>2026-05-02T08:09:43.997Z</time></trkpt><trkpt lat="45.1804328" lon="8.0775418"><ele>154.0</ele><time>2026-05-02T08:09:45.007Z</time></trkpt><trkpt lat="45.1804623" lon="8.0774336"><ele>154.0</ele><time>2026-05-02T08:09:46.005Z</time></trkpt><trkpt lat="45.1804963" lon="8.0773236"><ele>154.0</ele><time>2026-05-02T08:09:46.997Z</time></trkpt><trkpt lat="45.1805288" lon="8.0772115"><ele>154.0</ele><time>2026-05-02T08:09:48.002Z</time></trkpt><trkpt lat="45.1805647" lon="8.0770963"><ele>154.0</ele><time>2026-05-02T08:09:49.004Z</time></trkpt><trkpt lat="45.1806018" lon="8.0769793"><ele>154.0</ele><time>2026-05-02T08:09:50.026Z</time></trkpt><trkpt lat="45.1806383" lon="8.0768651"><ele>154.0</ele><time>2026-05-02T08:09:50.999Z</time></trkpt><trkpt lat="45.1806749" lon="8.0767518"><ele>154.0</ele><time>2026-05-02T08:09:52.008Z</time></trkpt><trkpt lat="45.1807122" lon="8.0766358"><ele>154.0</ele><time>2026-05-02T08:09:53.003Z</time></trkpt><trkpt lat="45.1807488" lon="8.0765186"><ele>154.0</ele><time>2026-05-02T08:09:53.994Z</time></trkpt><trkpt lat="45.1807862" lon="8.0764034"><ele>154.0</ele><time>2026-05-02T08:09:55.005Z</time></trkpt><trkpt lat="45.180822" lon="8.0762897"><ele>154.0</ele><time>2026-05-02T08:09:56.004Z</time></trkpt><trkpt lat="45.1808571" lon="8.0761764"><ele>154.0</ele><time>2026-05-02T08:09:57.004Z</time></trkpt><trkpt lat="45.1808927" lon="8.0760593"><ele>154.0</ele><time>2026-05-02T08:09:58.008Z</time></trkpt><trkpt lat="45.1809275" lon="8.0759413"><ele>154.0</ele><time>2026-05-02T08:09:58.998Z</time></trkpt><trkpt lat="45.1809592" lon="8.0758194"><ele>154.0</ele><time>2026-05-02T08:09:59.997Z</time></trkpt><trkpt lat="45.1809907" lon="8.0757098"><ele>154.0</ele><time>2026-05-02T08:10:01.003Z</time></trkpt><trkpt lat="45.181016" lon="8.075611"><ele>154.0</ele><time>2026-05-02T08:10:02Z</time></trkpt><trkpt lat="45.1810306" lon="8.0755161"><ele>154.0</ele><time>2026-05-02T08:10:03.003Z</time></trkpt><trkpt lat="45.1810296" lon="8.0754136"><ele>154.0</ele><time>2026-05-02T08:10:04.012Z</time></trkpt><trkpt lat="45.181023" lon="8.0753084"><ele>154.16666666666669</ele><time>2026-05-02T08:10:05.006Z</time></trkpt><trkpt lat="45.181016" lon="8.075197"><ele>154.33333333333334</ele><time>2026-05-02T08:10:05.994Z</time></trkpt><trkpt lat="45.1810074" lon="8.0750784"><ele>154.5</ele><time>2026-05-02T08:10:07.007Z</time></trkpt><trkpt lat="45.180998" lon="8.074959"><ele>154.66666666666666</ele><time>2026-05-02T08:10:08.007Z</time></trkpt><trkpt lat="45.1809861" lon="8.074836"><ele>154.83333333333331</ele><time>2026-05-02T08:10:09.004Z</time></trkpt><trkpt lat="45.1809742" lon="8.0747105"><ele>155.0</ele><time>2026-05-02T08:10:10.007Z</time></trkpt><trkpt lat="45.1809658" lon="8.0745809"><ele>154.6</ele><time>2026-05-02T08:10:11.002Z</time></trkpt><trkpt lat="45.180961" lon="8.0744473"><ele>154.2</ele><time>2026-05-02T08:10:12.004Z</time></trkpt><trkpt lat="45.1809607" lon="8.0743113"><ele>153.8</ele><time>2026-05-02T08:10:12.999Z</time></trkpt><trkpt lat="45.1809613" lon="8.0741757"><ele>153.4</ele><time>2026-05-02T08:10:13.995Z</time></trkpt><trkpt lat="45.1809635" lon="8.0740443"><ele>153.0</ele><time>2026-05-02T08:10:14.999Z</time></trkpt><trkpt lat="45.1809697" lon="8.0739153"><ele>153.20000000000002</ele><time>2026-05-02T08:10:15.992Z</time></trkpt><trkpt lat="45.180977" lon="8.0737857"><ele>153.4</ele><time>2026-05-02T08:10:17.006Z</time></trkpt><trkpt lat="45.1809832" lon="8.0736565"><ele>153.60000000000002</ele><time>2026-05-02T08:10:17.994Z</time></trkpt><trkpt lat="45.1809895" lon="8.0735281"><ele>153.8</ele><time>2026-05-02T08:10:19.006Z</time></trkpt><trkpt lat="45.1809947" lon="8.073399"><ele>154.0</ele><time>2026-05-02T08:10:20.006Z</time></trkpt><trkpt lat="45.1809979" lon="8.0732701"><ele>154.0</ele><time>2026-05-02T08:10:21.006Z</time></trkpt><trkpt lat="45.181003" lon="8.0731493"><ele>154.0</ele><time>2026-05-02T08:10:21.997Z</time></trkpt><trkpt lat="45.1810073" lon="8.0730235"><ele>154.0</ele><time>2026-05-02T08:10:23.007Z</time></trkpt><trkpt lat="45.1810114" lon="8.0728911"><ele>154.0</ele><time>2026-05-02T08:10:24.005Z</time></trkpt><trkpt lat="45.1810152" lon="8.0727559"><ele>154.0</ele><time>2026-05-02T08:10:24.998Z</time></trkpt><trkpt lat="45.1810173" lon="8.0726162"><ele>154.0</ele><time>2026-05-02T08:10:26.003Z</time></trkpt><trkpt lat="45.1810182" lon="8.0724717"><ele>154.0</ele><time>2026-05-02T08:10:27Z</time></trkpt><trkpt lat="45.1810168" lon="8.0723236"><ele>154.0</ele><time>2026-05-02T08:10:28.006Z</time></trkpt><trkpt lat="45.1810217" lon="8.0721689"><ele>154.0</ele><time>2026-05-02T08:10:29.009Z</time></trkpt><trkpt lat="45.1810239" lon="8.0720224"><ele>154.0</ele><time>2026-05-02T08:10:30.007Z</time></trkpt><trkpt lat="45.181026" lon="8.0718742"><ele>153.8</ele><time>2026-05-02T08:10:30.995Z</time></trkpt><trkpt lat="45.1810297" lon="8.0717293"><ele>153.60000000000002</ele><time>2026-05-02T08:10:32.001Z</time></trkpt><trkpt lat="45.1810307" lon="8.0715879"><ele>153.4</ele><time>2026-05-02T08:10:33.007Z</time></trkpt><trkpt lat="45.1810308" lon="8.0714567"><ele>153.20000000000002</ele><time>2026-05-02T08:10:34Z</time></trkpt><trkpt lat="45.1810185" lon="8.0713359"><ele>153.0</ele><time>2026-05-02T08:10:35.002Z</time></trkpt><trkpt lat="45.181" lon="8.071215"><ele>152.8</ele><time>2026-05-02T08:10:36.008Z</time></trkpt><trkpt lat="45.180974" lon="8.0710906"><ele>152.60000000000002</ele><time>2026-05-02T08:10:36.995Z</time></trkpt><trkpt lat="45.1809427" lon="8.070966"><ele>152.39999999999998</ele><time>2026-05-02T08:10:38.003Z</time></trkpt><trkpt lat="45.1809124" lon="8.0708387"><ele>152.2</ele><time>2026-05-02T08:10:39Z</time></trkpt><trkpt lat="45.1808826" lon="8.0707053"><ele>152.0</ele><time>2026-05-02T08:10:39.996Z</time></trkpt><trkpt lat="45.1808501" lon="8.0705739"><ele>152.0</ele><time>2026-05-02T08:10:41.004Z</time></trkpt><trkpt lat="45.1808154" lon="8.0704461"><ele>152.0</ele><time>2026-05-02T08:10:41.999Z</time></trkpt><trkpt lat="45.1807769" lon="8.0703269"><ele>152.0</ele><time>2026-05-02T08:10:42.995Z</time></trkpt><trkpt lat="45.1807327" lon="8.0702146"><ele>152.0</ele><time>2026-05-02T08:10:43.999Z</time></trkpt><trkpt lat="45.1806895" lon="8.0701072"><ele>152.0</ele><time>2026-05-02T08:10:45.002Z</time></trkpt><trkpt lat="45.1806372" lon="8.0700178"><ele>152.0</ele><time>2026-05-02T08:10:45.998Z</time></trkpt><trkpt lat="45.1805944" lon="8.0699326"><ele>152.66666666666666</ele><time>2026-05-02T08:10:46.998Z</time></trkpt><trkpt lat="45.1805639" lon="8.0698484"><ele>153.33333333333331</ele><time>2026-05-02T08:10:48.002Z</time></trkpt><trkpt lat="45.1805419" lon="8.0697585"><ele>154.0</ele><time>2026-05-02T08:10:49.002Z</time></trkpt><trkpt lat="45.1805229" lon="8.0696575"><ele>154.66666666666666</ele><time>2026-05-02T08:10:50.001Z</time></trkpt><trkpt lat="45.1805016" lon="8.0695515"><ele>155.33333333333334</ele><time>2026-05-02T08:10:50.994Z</time></trkpt><trkpt lat="45.1804721" lon="8.0694273"><ele>156.0</ele><time>2026-05-02T08:10:52.006Z</time></trkpt><trkpt lat="45.1804365" lon="8.0693049"><ele>156.0</ele><time>2026-05-02T08:10:53Z</time></trkpt><trkpt lat="45.1803988" lon="8.0691943"><ele>156.0</ele><time>2026-05-02T08:10:53.994Z</time></trkpt><trkpt lat="45.180366" lon="8.0690968"><ele>156.0</ele><time>2026-05-02T08:10:55.007Z</time></trkpt><trkpt lat="45.1803352" lon="8.069017"><ele>156.0</ele><time>2026-05-02T08:10:56.011Z</time></trkpt><trkpt lat="45.1802871" lon="8.0688943"><ele>156.0</ele><time>2026-05-02T08:10:58.004Z</time></trkpt><trkpt lat="45.1802576" lon="8.068814"><ele>156.0</ele><time>2026-05-02T08:11:00.003Z</time></trkpt><trkpt lat="45.1802373" lon="8.0687256"><ele>156.2</ele><time>2026-05-02T08:11:02.016Z</time></trkpt><trkpt lat="45.1802787" lon="8.0685824"><ele>156.39999999999998</ele><time>2026-05-02T08:11:05.007Z</time></trkpt><trkpt lat="45.1803007" lon="8.0684924"><ele>156.6</ele><time>2026-05-02T08:11:06.004Z</time></trkpt><trkpt lat="45.1803236" lon="8.0684032"><ele>156.79999999999998</ele><time>2026-05-02T08:11:07.006Z</time></trkpt><trkpt lat="45.1803657" lon="8.0682427"><ele>157.0</ele><time>2026-05-02T08:11:09.008Z</time></trkpt><trkpt lat="45.1804301" lon="8.0680867"><ele>156.5</ele><time>2026-05-02T08:11:11.018Z</time></trkpt><trkpt lat="45.1804973" lon="8.067955"><ele>156.0</ele><time>2026-05-02T08:11:13.002Z</time></trkpt><trkpt lat="45.1805312" lon="8.0678709"><ele>155.5</ele><time>2026-05-02T08:11:15.007Z</time></trkpt><trkpt lat="45.180537" lon="8.0677705"><ele>155.0</ele><time>2026-05-02T08:11:24.998Z</time></trkpt><trkpt lat="45.1805413" lon="8.0676721"><ele>154.5</ele><time>2026-05-02T08:11:28.01Z</time></trkpt><trkpt lat="45.1805848" lon="8.0675587"><ele>154.0</ele><time>2026-05-02T08:11:32.003Z</time></trkpt><trkpt lat="45.1806244" lon="8.0674406"><ele>154.0</ele><time>2026-05-02T08:11:35.013Z</time></trkpt><trkpt lat="45.1806424" lon="8.0673499"><ele>154.0</ele><time>2026-05-02T08:11:37.008Z</time></trkpt><trkpt lat="45.1806671" lon="8.0672252"><ele>154.0</ele><time>2026-05-02T08:11:40.009Z</time></trkpt><trkpt lat="45.1806946" lon="8.067105"><ele>154.0</ele><time>2026-05-02T08:11:43.001Z</time></trkpt><trkpt lat="45.1807117" lon="8.0670028"><ele>154.0</ele><time>2026-05-02T08:11:45.01Z</time></trkpt><trkpt lat="45.1807291" lon="8.066899"><ele>154.0</ele><time>2026-05-02T08:11:47.002Z</time></trkpt><trkpt lat="45.1807546" lon="8.0667968"><ele>154.0</ele><time>2026-05-02T08:11:49.011Z</time></trkpt><trkpt lat="45.1807804" lon="8.0666988"><ele>154.0</ele><time>2026-05-02T08:11:59.012Z</time></trkpt><trkpt lat="45.180803" lon="8.066585"><ele>154.0</ele><time>2026-05-02T08:12:03.002Z</time></trkpt><trkpt lat="45.1808143" lon="8.0664811"><ele>154.0</ele><time>2026-05-02T08:12:06.01Z</time></trkpt><trkpt lat="45.1808149" lon="8.066363"><ele>154.0</ele><time>2026-05-02T08:12:25.002Z</time></trkpt><trkpt lat="45.1808004" lon="8.0662595"><ele>154.0</ele><time>2026-05-02T08:12:28.006Z</time></trkpt><trkpt lat="45.1807794" lon="8.0661498"><ele>154.0</ele><time>2026-05-02T08:12:30.998Z</time></trkpt><trkpt lat="45.1807628" lon="8.0660302"><ele>154.0</ele><time>2026-05-02T08:12:34.001Z</time></trkpt><trkpt lat="45.1807611" lon="8.0659195"><ele>154.0</ele><time>2026-05-02T08:12:37.007Z</time></trkpt><trkpt lat="45.1807393" lon="8.0658266"><ele>154.0</ele><time>2026-05-02T08:12:40.012Z</time></trkpt><trkpt lat="45.1807006" lon="8.0657429"><ele>154.0</ele><time>2026-05-02T08:12:49.999Z</time></trkpt><trkpt lat="45.1806453" lon="8.0656504"><ele>154.0</ele><time>2026-05-02T08:13:01.01Z</time></trkpt><trkpt lat="45.1806355" lon="8.0655514"><ele>154.33333333333334</ele><time>2026-05-02T08:13:03.997Z</time></trkpt><trkpt lat="45.1806231" lon="8.06545"><ele>154.66666666666669</ele><time>2026-05-02T08:13:06.994Z</time></trkpt><trkpt lat="45.1806007" lon="8.0653622"><ele>155.0</ele><time>2026-05-02T08:13:09.007Z</time></trkpt><trkpt lat="45.1805864" lon="8.0652598"><ele>155.33333333333334</ele><time>2026-05-02T08:13:10.998Z</time></trkpt><trkpt lat="45.180583" lon="8.0651586"><ele>155.66666666666666</ele><time>2026-05-02T08:13:13.006Z</time></trkpt><trkpt lat="45.1805832" lon="8.0650312"><ele>156.0</ele><time>2026-05-02T08:13:15.001Z</time></trkpt><trkpt lat="45.1805701" lon="8.0648993"><ele>156.0</ele><time>2026-05-02T08:13:16.999Z</time></trkpt><trkpt lat="45.1805482" lon="8.0647809"><ele>156.0</ele><time>2026-05-02T08:13:19.006Z</time></trkpt><trkpt lat="45.1805111" lon="8.0646753"><ele>156.0</ele><time>2026-05-02T08:13:20.998Z</time></trkpt><trkpt lat="45.1804751" lon="8.0645766"><ele>156.0</ele><time>2026-05-02T08:13:23.015Z</time></trkpt><trkpt lat="45.1804438" lon="8.0644709"><ele>156.0</ele><time>2026-05-02T08:13:24.999Z</time></trkpt><trkpt lat="45.1804255" lon="8.0643605"><ele>156.0</ele><time>2026-05-02T08:13:27.007Z</time></trkpt><trkpt lat="45.1804161" lon="8.0642579"><ele>156.0</ele><time>2026-05-02T08:13:29.007Z</time></trkpt><trkpt lat="45.1804263" lon="8.0641623"><ele>156.0</ele><time>2026-05-02T08:13:31.01Z</time></trkpt><trkpt lat="45.1804161" lon="8.0640648"><ele>156.0</ele><time>2026-05-02T08:13:33.002Z</time></trkpt><trkpt lat="45.1803899" lon="8.0639608"><ele>156.0</ele><time>2026-05-02T08:13:35.006Z</time></trkpt><trkpt lat="45.1803573" lon="8.0638394"><ele>156.0</ele><time>2026-05-02T08:13:37.013Z</time></trkpt><trkpt lat="45.1803276" lon="8.0637241"><ele>156.0</ele><time>2026-05-02T08:13:39.002Z</time></trkpt><trkpt lat="45.1803011" lon="8.0636174"><ele>156.0</ele><time>2026-05-02T08:13:41.005Z</time></trkpt><trkpt lat="45.1802677" lon="8.0634854"><ele>156.0</ele><time>2026-05-02T08:13:43.015Z</time></trkpt><trkpt lat="45.1802377" lon="8.0633486"><ele>156.0</ele><time>2026-05-02T08:13:45.006Z</time></trkpt><trkpt lat="45.1802148" lon="8.063211"><ele>156.0</ele><time>2026-05-02T08:13:47.017Z</time></trkpt><trkpt lat="45.1802101" lon="8.0630999"><ele>156.0</ele><time>2026-05-02T08:13:49Z</time></trkpt><trkpt lat="45.1802068" lon="8.0629968"><ele>156.0</ele><time>2026-05-02T08:13:51.001Z</time></trkpt><trkpt lat="45.1801942" lon="8.0628994"><ele>156.0</ele><time>2026-05-02T08:13:52.998Z</time></trkpt><trkpt lat="45.1801827" lon="8.0627994"><ele>156.0</ele><time>2026-05-02T08:13:55.006Z</time></trkpt><trkpt lat="45.1801734" lon="8.0627029"><ele>156.0</ele><time>2026-05-02T08:13:57.002Z</time></trkpt><trkpt lat="45.1801718" lon="8.0625854"><ele>156.0</ele><time>2026-05-02T08:14:00.998Z</time></trkpt><trkpt lat="45.1801541" lon="8.0624852"><ele>156.0</ele><time>2026-05-02T08:14:04.007Z</time></trkpt><trkpt lat="45.1801457" lon="8.0623628"><ele>156.0</ele><time>2026-05-02T08:14:07.006Z</time></trkpt><trkpt lat="45.180147" lon="8.0622539"><ele>156.0</ele><time>2026-05-02T08:14:10.005Z</time></trkpt><trkpt lat="45.1801357" lon="8.0621577"><ele>156.0</ele><time>2026-05-02T08:14:14.003Z</time></trkpt><trkpt lat="45.1800796" lon="8.0621031"><ele>156.0</ele><time>2026-05-02T08:14:38.005Z</time></trkpt><trkpt lat="45.1800857" lon="8.0622042"><ele>156.0</ele><time>2026-05-02T08:14:47.003Z</time></trkpt><trkpt lat="45.1801275" lon="8.062291"><ele>156.0</ele><time>2026-05-02T08:14:50.017Z</time></trkpt><trkpt lat="45.18016" lon="8.0624208"><ele>156.33333333333334</ele><time>2026-05-02T08:14:53.008Z</time></trkpt><trkpt lat="45.1801795" lon="8.0625223"><ele>156.66666666666666</ele><time>2026-05-02T08:14:54.998Z</time></trkpt><trkpt lat="45.1801888" lon="8.0626236"><ele>157.0</ele><time>2026-05-02T08:14:57.002Z</time></trkpt><trkpt lat="45.180187" lon="8.0627385"><ele>157.33333333333331</ele><time>2026-05-02T08:14:59.006Z</time></trkpt><trkpt lat="45.1801986" lon="8.0628616"><ele>157.66666666666666</ele><time>2026-05-02T08:15:01.004Z</time></trkpt><trkpt lat="45.1802228" lon="8.0629748"><ele>158.0</ele><time>2026-05-02T08:15:03.001Z</time></trkpt><trkpt lat="45.1802514" lon="8.0630748"><ele>158.0</ele><time>2026-05-02T08:15:05.003Z</time></trkpt><trkpt lat="45.1802701" lon="8.0631793"><ele>158.0</ele><time>2026-05-02T08:15:07Z</time></trkpt><trkpt lat="45.1802765" lon="8.0633004"><ele>158.0</ele><time>2026-05-02T08:15:09.008Z</time></trkpt><trkpt lat="45.1802819" lon="8.0634357"><ele>158.0</ele><time>2026-05-02T08:15:10.994Z</time></trkpt><trkpt lat="45.1802915" lon="8.0635614"><ele>158.0</ele><time>2026-05-02T08:15:13.014Z</time></trkpt><trkpt lat="45.1803142" lon="8.0636928"><ele>158.0</ele><time>2026-05-02T08:15:15Z</time></trkpt><trkpt lat="45.1803427" lon="8.0638133"><ele>157.66666666666666</ele><time>2026-05-02T08:15:17.008Z</time></trkpt><trkpt lat="45.1803729" lon="8.0639318"><ele>157.33333333333331</ele><time>2026-05-02T08:15:19.007Z</time></trkpt><trkpt lat="45.1803994" lon="8.0640456"><ele>157.0</ele><time>2026-05-02T08:15:20.997Z</time></trkpt><trkpt lat="45.1804299" lon="8.064153"><ele>156.66666666666666</ele><time>2026-05-02T08:15:22.998Z</time></trkpt><trkpt lat="45.1804667" lon="8.0642603"><ele>156.33333333333334</ele><time>2026-05-02T08:15:25.006Z</time></trkpt><trkpt lat="45.1804979" lon="8.0643793"><ele>156.0</ele><time>2026-05-02T08:15:27.007Z</time></trkpt><trkpt lat="45.1805068" lon="8.0645029"><ele>156.0</ele><time>2026-05-02T08:15:29.001Z</time></trkpt><trkpt lat="45.1805115" lon="8.0646463"><ele>156.0</ele><time>2026-05-02T08:15:30.996Z</time></trkpt><trkpt lat="45.1805273" lon="8.0647805"><ele>156.0</ele><time>2026-05-02T08:15:33.001Z</time></trkpt><trkpt lat="45.1805537" lon="8.0649123"><ele>156.0</ele><time>2026-05-02T08:15:35.002Z</time></trkpt><trkpt lat="45.1805815" lon="8.0650297"><ele>156.0</ele><time>2026-05-02T08:15:36.995Z</time></trkpt><trkpt lat="45.1805965" lon="8.065149"><ele>156.16666666666666</ele><time>2026-05-02T08:15:39.028Z</time></trkpt><trkpt lat="45.180598" lon="8.0652797"><ele>156.33333333333334</ele><time>2026-05-02T08:15:40.996Z</time></trkpt><trkpt lat="45.1806028" lon="8.0654096"><ele>156.5</ele><time>2026-05-02T08:15:43.001Z</time></trkpt><trkpt lat="45.1806258" lon="8.0655029"><ele>156.66666666666669</ele><time>2026-05-02T08:15:45.008Z</time></trkpt><trkpt lat="45.1806562" lon="8.0655956"><ele>156.83333333333334</ele><time>2026-05-02T08:15:48.007Z</time></trkpt><trkpt lat="45.1806491" lon="8.0657128"><ele>157.0</ele><time>2026-05-02T08:15:51.009Z</time></trkpt><trkpt lat="45.1806716" lon="8.0658158"><ele>156.57142857142856</ele><time>2026-05-02T08:16:06.021Z</time></trkpt><trkpt lat="45.1807031" lon="8.0659032"><ele>156.14285714285714</ele><time>2026-05-02T08:16:09.008Z</time></trkpt><trkpt lat="45.18074" lon="8.065981"><ele>155.71428571428572</ele><time>2026-05-02T08:16:12.002Z</time></trkpt><trkpt lat="45.1807635" lon="8.0660715"><ele>155.28571428571428</ele><time>2026-05-02T08:16:33.003Z</time></trkpt><trkpt lat="45.1807744" lon="8.0661839"><ele>154.85714285714286</ele><time>2026-05-02T08:16:36.008Z</time></trkpt><trkpt lat="45.1807877" lon="8.0662839"><ele>154.42857142857142</ele><time>2026-05-02T08:16:40.003Z</time></trkpt><trkpt lat="45.1808135" lon="8.0663938"><ele>154.0</ele><time>2026-05-02T08:16:49.007Z</time></trkpt><trkpt lat="45.1808096" lon="8.0665179"><ele>154.0</ele><time>2026-05-02T08:16:52.003Z</time></trkpt><trkpt lat="45.1807869" lon="8.0666192"><ele>154.0</ele><time>2026-05-02T08:16:55.036Z</time></trkpt><trkpt lat="45.1807702" lon="8.0667119"><ele>154.0</ele><time>2026-05-02T08:16:57.999Z</time></trkpt><trkpt lat="45.1807384" lon="8.0668332"><ele>154.0</ele><time>2026-05-02T08:17:00.997Z</time></trkpt><trkpt lat="45.1807164" lon="8.0669537"><ele>154.0</ele><time>2026-05-02T08:17:04.004Z</time></trkpt><trkpt lat="45.1806854" lon="8.0670435"><ele>154.0</ele><time>2026-05-02T08:17:07.007Z</time></trkpt><trkpt lat="45.1806701" lon="8.0671484"><ele>154.0</ele><time>2026-05-02T08:17:10.009Z</time></trkpt><trkpt lat="45.1806603" lon="8.0672668"><ele>154.0</ele><time>2026-05-02T08:17:13.012Z</time></trkpt><trkpt lat="45.1806413" lon="8.0673651"><ele>154.0</ele><time>2026-05-02T08:17:15.002Z</time></trkpt><trkpt lat="45.1806039" lon="8.0674821"><ele>154.0</ele><time>2026-05-02T08:17:18.007Z</time></trkpt><trkpt lat="45.1805703" lon="8.0675943"><ele>154.0</ele><time>2026-05-02T08:17:21.008Z</time></trkpt><trkpt lat="45.1805367" lon="8.0676982"><ele>154.0</ele><time>2026-05-02T08:17:24.013Z</time></trkpt><trkpt lat="45.1805241" lon="8.0677867"><ele>154.0</ele><time>2026-05-02T08:17:26Z</time></trkpt><trkpt lat="45.1805119" lon="8.0678763"><ele>154.0</ele><time>2026-05-02T08:17:28Z</time></trkpt><trkpt lat="45.1804705" lon="8.0679813"><ele>154.0</ele><time>2026-05-02T08:17:30.998Z</time></trkpt><trkpt lat="45.1804232" lon="8.0680767"><ele>154.0</ele><time>2026-05-02T08:17:33.003Z</time></trkpt><trkpt lat="45.1803671" lon="8.0682067"><ele>154.0</ele><time>2026-05-02T08:17:35.007Z</time></trkpt><trkpt lat="45.1803272" lon="8.0683698"><ele>154.6</ele><time>2026-05-02T08:17:37.005Z</time></trkpt><trkpt lat="45.1802928" lon="8.0685276"><ele>155.2</ele><time>2026-05-02T08:17:39.002Z</time></trkpt><trkpt lat="45.1802545" lon="8.0686503"><ele>155.79999999999998</ele><time>2026-05-02T08:17:41.012Z</time></trkpt><trkpt lat="45.1802459" lon="8.0687739"><ele>156.4</ele><time>2026-05-02T08:17:44.006Z</time></trkpt><trkpt lat="45.1802847" lon="8.0688876"><ele>157.0</ele><time>2026-05-02T08:17:46.004Z</time></trkpt><trkpt lat="45.1803325" lon="8.0690299"><ele>156.83333333333334</ele><time>2026-05-02T08:17:48.001Z</time></trkpt><trkpt lat="45.1803925" lon="8.06919"><ele>156.66666666666669</ele><time>2026-05-02T08:17:49.999Z</time></trkpt><trkpt lat="45.180423" lon="8.0692783"><ele>156.5</ele><time>2026-05-02T08:17:51Z</time></trkpt><trkpt lat="45.1804505" lon="8.0693709"><ele>156.33333333333334</ele><time>2026-05-02T08:17:52.001Z</time></trkpt><trkpt lat="45.1804745" lon="8.0694586"><ele>156.16666666666666</ele><time>2026-05-02T08:17:53.007Z</time></trkpt><trkpt lat="45.1805045" lon="8.0696147"><ele>156.0</ele><time>2026-05-02T08:17:55.002Z</time></trkpt><trkpt lat="45.1805286" lon="8.0697584"><ele>156.0</ele><time>2026-05-02T08:17:57.004Z</time></trkpt><trkpt lat="45.180563" lon="8.0698965"><ele>156.0</ele><time>2026-05-02T08:17:59.009Z</time></trkpt><trkpt lat="45.1806142" lon="8.0700284"><ele>156.0</ele><time>2026-05-02T08:18:01.01Z</time></trkpt><trkpt lat="45.180691" lon="8.0701527"><ele>156.0</ele><time>2026-05-02T08:18:03.002Z</time></trkpt><trkpt lat="45.1807562" lon="8.0702948"><ele>156.0</ele><time>2026-05-02T08:18:05.005Z</time></trkpt><trkpt lat="45.1808047" lon="8.0704488"><ele>155.2</ele><time>2026-05-02T08:18:06.998Z</time></trkpt><trkpt lat="45.1808424" lon="8.0705961"><ele>154.39999999999998</ele><time>2026-05-02T08:18:09.009Z</time></trkpt><trkpt lat="45.1808772" lon="8.0707427"><ele>153.6</ele><time>2026-05-02T08:18:11.003Z</time></trkpt><trkpt lat="45.1809066" lon="8.0708787"><ele>152.79999999999998</ele><time>2026-05-02T08:18:13Z</time></trkpt><trkpt lat="45.1809292" lon="8.0709813"><ele>152.0</ele><time>2026-05-02T08:18:15.001Z</time></trkpt><trkpt lat="45.1809487" lon="8.0710738"><ele>151.83333333333331</ele><time>2026-05-02T08:18:17.002Z</time></trkpt><trkpt lat="45.180979" lon="8.0712082"><ele>151.66666666666666</ele><time>2026-05-02T08:18:19.003Z</time></trkpt><trkpt lat="45.1810067" lon="8.0713744"><ele>151.5</ele><time>2026-05-02T08:18:20.999Z</time></trkpt><trkpt lat="45.1810143" lon="8.0714651"><ele>151.33333333333334</ele><time>2026-05-02T08:18:22.012Z</time></trkpt><trkpt lat="45.1810177" lon="8.0715611"><ele>151.16666666666669</ele><time>2026-05-02T08:18:23.003Z</time></trkpt><trkpt lat="45.1810202" lon="8.0716514"><ele>151.0</ele><time>2026-05-02T08:18:24.026Z</time></trkpt><trkpt lat="45.1810161" lon="8.0718251"><ele>151.33333333333334</ele><time>2026-05-02T08:18:26Z</time></trkpt><trkpt lat="45.1810139" lon="8.0720062"><ele>151.66666666666669</ele><time>2026-05-02T08:18:28.003Z</time></trkpt><trkpt lat="45.1810123" lon="8.0721055"><ele>152.0</ele><time>2026-05-02T08:18:29.007Z</time></trkpt><trkpt lat="45.1810094" lon="8.072208"><ele>152.33333333333334</ele><time>2026-05-02T08:18:30.008Z</time></trkpt><trkpt lat="45.1810057" lon="8.0723108"><ele>152.66666666666666</ele><time>2026-05-02T08:18:31.003Z</time></trkpt><trkpt lat="45.1810049" lon="8.0724198"><ele>153.0</ele><time>2026-05-02T08:18:32.013Z</time></trkpt><trkpt lat="45.1810044" lon="8.0725312"><ele>153.16666666666666</ele><time>2026-05-02T08:18:33.005Z</time></trkpt><trkpt lat="45.1810031" lon="8.072642"><ele>153.33333333333334</ele><time>2026-05-02T08:18:34.005Z</time></trkpt><trkpt lat="45.1810009" lon="8.07275"><ele>153.5</ele><time>2026-05-02T08:18:35.013Z</time></trkpt><trkpt lat="45.1809981" lon="8.0728579"><ele>153.66666666666669</ele><time>2026-05-02T08:18:36.01Z</time></trkpt><trkpt lat="45.1809935" lon="8.0729664"><ele>153.83333333333334</ele><time>2026-05-02T08:18:37.003Z</time></trkpt><trkpt lat="45.1809912" lon="8.0730775"><ele>154.0</ele><time>2026-05-02T08:18:38.006Z</time></trkpt><trkpt lat="45.1809887" lon="8.073191"><ele>153.5</ele><time>2026-05-02T08:18:39.001Z</time></trkpt><trkpt lat="45.1809859" lon="8.0733032"><ele>153.0</ele><time>2026-05-02T08:18:40.006Z</time></trkpt><trkpt lat="45.1809833" lon="8.0734156"><ele>152.5</ele><time>2026-05-02T08:18:41.006Z</time></trkpt><trkpt lat="45.180978" lon="8.0735321"><ele>152.0</ele><time>2026-05-02T08:18:42.002Z</time></trkpt><trkpt lat="45.1809721" lon="8.0736471"><ele>151.5</ele><time>2026-05-02T08:18:42.996Z</time></trkpt><trkpt lat="45.1809678" lon="8.0737636"><ele>151.0</ele><time>2026-05-02T08:18:44.004Z</time></trkpt><trkpt lat="45.1809621" lon="8.0738784"><ele>151.0</ele><time>2026-05-02T08:18:45.006Z</time></trkpt><trkpt lat="45.1809579" lon="8.0739885"><ele>151.0</ele><time>2026-05-02T08:18:45.999Z</time></trkpt><trkpt lat="45.180956" lon="8.0740913"><ele>151.0</ele><time>2026-05-02T08:18:46.998Z</time></trkpt><trkpt lat="45.1809544" lon="8.0742016"><ele>151.0</ele><time>2026-05-02T08:18:48Z</time></trkpt><trkpt lat="45.1809532" lon="8.0743182"><ele>151.0</ele><time>2026-05-02T08:18:49.007Z</time></trkpt><trkpt lat="45.1809536" lon="8.074433"><ele>151.0</ele><time>2026-05-02T08:18:49.993Z</time></trkpt><trkpt lat="45.1809578" lon="8.0745506"><ele>151.33333333333334</ele><time>2026-05-02T08:18:51.001Z</time></trkpt><trkpt lat="45.1809639" lon="8.0746644"><ele>151.66666666666669</ele><time>2026-05-02T08:18:52.003Z</time></trkpt><trkpt lat="45.1809733" lon="8.0747769"><ele>152.0</ele><time>2026-05-02T08:18:52.996Z</time></trkpt><trkpt lat="45.1809848" lon="8.0748884"><ele>152.33333333333334</ele><time>2026-05-02T08:18:53.997Z</time></trkpt><trkpt lat="45.1809961" lon="8.0749978"><ele>152.66666666666666</ele><time>2026-05-02T08:18:54.999Z</time></trkpt><trkpt lat="45.1810041" lon="8.0750984"><ele>153.0</ele><time>2026-05-02T08:18:55.998Z</time></trkpt><trkpt lat="45.1810107" lon="8.0751961"><ele>153.14285714285714</ele><time>2026-05-02T08:18:57.045Z</time></trkpt><trkpt lat="45.1810177" lon="8.0752946"><ele>153.28571428571428</ele><time>2026-05-02T08:18:58.008Z</time></trkpt><trkpt lat="45.1810217" lon="8.0753914"><ele>153.42857142857144</ele><time>2026-05-02T08:18:59.005Z</time></trkpt><trkpt lat="45.1810199" lon="8.075488"><ele>153.57142857142856</ele><time>2026-05-02T08:18:59.999Z</time></trkpt><trkpt lat="45.1810136" lon="8.0755841"><ele>153.71428571428572</ele><time>2026-05-02T08:19:01.008Z</time></trkpt><trkpt lat="45.1809947" lon="8.0756789"><ele>153.85714285714286</ele><time>2026-05-02T08:19:02.002Z</time></trkpt><trkpt lat="45.1809722" lon="8.075776"><ele>154.0</ele><time>2026-05-02T08:19:02.998Z</time></trkpt><trkpt lat="45.1809436" lon="8.0758739"><ele>154.0</ele><time>2026-05-02T08:19:03.997Z</time></trkpt><trkpt lat="45.1809131" lon="8.0759729"><ele>154.0</ele><time>2026-05-02T08:19:04.996Z</time></trkpt><trkpt lat="45.1808805" lon="8.0760752"><ele>154.0</ele><time>2026-05-02T08:19:06.005Z</time></trkpt><trkpt lat="45.1808455" lon="8.0761828"><ele>154.0</ele><time>2026-05-02T08:19:07.001Z</time></trkpt><trkpt lat="45.1808095" lon="8.0762959"><ele>154.0</ele><time>2026-05-02T08:19:07.997Z</time></trkpt><trkpt lat="45.1807724" lon="8.0764148"><ele>154.0</ele><time>2026-05-02T08:19:08.996Z</time></trkpt><trkpt lat="45.1807335" lon="8.0765402"><ele>154.0</ele><time>2026-05-02T08:19:10Z</time></trkpt><trkpt lat="45.180693" lon="8.0766723"><ele>154.0</ele><time>2026-05-02T08:19:11.006Z</time></trkpt><trkpt lat="45.1806505" lon="8.0768078"><ele>154.0</ele><time>2026-05-02T08:19:12.005Z</time></trkpt><trkpt lat="45.1806015" lon="8.0769526"><ele>154.0</ele><time>2026-05-02T08:19:13.002Z</time></trkpt><trkpt lat="45.1805518" lon="8.0770977"><ele>154.0</ele><time>2026-05-02T08:19:14.006Z</time></trkpt><trkpt lat="45.1805097" lon="8.0772375"><ele>154.0</ele><time>2026-05-02T08:19:15.006Z</time></trkpt><trkpt lat="45.1804697" lon="8.0773655"><ele>154.0</ele><time>2026-05-02T08:19:16.003Z</time></trkpt><trkpt lat="45.1804346" lon="8.077483"><ele>154.0</ele><time>2026-05-02T08:19:17.004Z</time></trkpt><trkpt lat="45.1804046" lon="8.0775849"><ele>154.0</ele><time>2026-05-02T08:19:18.001Z</time></trkpt><trkpt lat="45.180381" lon="8.0776708"><ele>154.0</ele><time>2026-05-02T08:19:19.003Z</time></trkpt><trkpt lat="45.1803191" lon="8.0777818"><ele>154.0</ele><time>2026-05-02T08:19:21.004Z</time></trkpt><trkpt lat="45.1802454" lon="8.0777889"><ele>154.0</ele><time>2026-05-02T08:19:23.007Z</time></trkpt><trkpt lat="45.1801755" lon="8.0777812"><ele>154.0</ele><time>2026-05-02T08:19:25.998Z</time></trkpt><trkpt lat="45.1801062" lon="8.0778708"><ele>154.0</ele><time>2026-05-02T08:19:28.995Z</time></trkpt><trkpt lat="45.180053" lon="8.0780273"><ele>154.0</ele><time>2026-05-02T08:19:31.002Z</time></trkpt><trkpt lat="45.1800187" lon="8.0781294"><ele>154.0</ele><time>2026-05-02T08:19:32Z</time></trkpt><trkpt lat="45.1799812" lon="8.0782375"><ele>154.0</ele><time>2026-05-02T08:19:33.008Z</time></trkpt><trkpt lat="45.1799298" lon="8.0783404"><ele>154.0</ele><time>2026-05-02T08:19:34.011Z</time></trkpt><trkpt lat="45.1798748" lon="8.0784436"><ele>154.0</ele><time>2026-05-02T08:19:35.002Z</time></trkpt><trkpt lat="45.1798165" lon="8.0785535"><ele>154.0</ele><time>2026-05-02T08:19:36.007Z</time></trkpt><trkpt lat="45.1797589" lon="8.0786622"><ele>154.0</ele><time>2026-05-02T08:19:36.993Z</time></trkpt><trkpt lat="45.1797039" lon="8.0787635"><ele>154.16666666666669</ele><time>2026-05-02T08:19:37.999Z</time></trkpt><trkpt lat="45.179648" lon="8.0788575"><ele>154.33333333333334</ele><time>2026-05-02T08:19:39.002Z</time></trkpt><trkpt lat="45.1795971" lon="8.0789465"><ele>154.5</ele><time>2026-05-02T08:19:40.009Z</time></trkpt><trkpt lat="45.1795477" lon="8.0790325"><ele>154.66666666666666</ele><time>2026-05-02T08:19:41.002Z</time></trkpt><trkpt lat="45.1794995" lon="8.0791268"><ele>154.83333333333331</ele><time>2026-05-02T08:19:41.998Z</time></trkpt><trkpt lat="45.1794508" lon="8.0792252"><ele>155.0</ele><time>2026-05-02T08:19:43.002Z</time></trkpt><trkpt lat="45.179403" lon="8.0793216"><ele>155.0</ele><time>2026-05-02T08:19:44.003Z</time></trkpt><trkpt lat="45.1793528" lon="8.0794219"><ele>155.0</ele><time>2026-05-02T08:19:45.01Z</time></trkpt><trkpt lat="45.1793034" lon="8.0795208"><ele>155.0</ele><time>2026-05-02T08:19:46.003Z</time></trkpt><trkpt lat="45.1792544" lon="8.079621"><ele>155.0</ele><time>2026-05-02T08:19:47.006Z</time></trkpt><trkpt lat="45.1792041" lon="8.0797264"><ele>155.0</ele><time>2026-05-02T08:19:48.001Z</time></trkpt><trkpt lat="45.1791519" lon="8.0798268"><ele>155.0</ele><time>2026-05-02T08:19:49.005Z</time></trkpt><trkpt lat="45.1791011" lon="8.0799267"><ele>154.6</ele><time>2026-05-02T08:19:49.999Z</time></trkpt><trkpt lat="45.1790501" lon="8.0800234"><ele>154.2</ele><time>2026-05-02T08:19:51.003Z</time></trkpt><trkpt lat="45.1789948" lon="8.0801126"><ele>153.8</ele><time>2026-05-02T08:19:51.996Z</time></trkpt><trkpt lat="45.1789341" lon="8.0801863"><ele>153.4</ele><time>2026-05-02T08:19:52.998Z</time></trkpt><trkpt lat="45.1788022" lon="8.0803231"><ele>153.0</ele><time>2026-05-02T08:19:55.001Z</time></trkpt><trkpt lat="45.1787392" lon="8.0803817"><ele>153.0</ele><time>2026-05-02T08:19:55.998Z</time></trkpt><trkpt lat="45.1786704" lon="8.0804358"><ele>153.0</ele><time>2026-05-02T08:19:56.999Z</time></trkpt><trkpt lat="45.1786001" lon="8.0804836"><ele>153.0</ele><time>2026-05-02T08:19:58.004Z</time></trkpt><trkpt lat="45.1785408" lon="8.08052"><ele>153.0</ele><time>2026-05-02T08:19:59Z</time></trkpt><trkpt lat="45.1784331" lon="8.0805464"><ele>153.0</ele><time>2026-05-02T08:20:01.006Z</time></trkpt><trkpt lat="45.1783174" lon="8.0805112"><ele>153.0</ele><time>2026-05-02T08:20:03.001Z</time></trkpt><trkpt lat="45.1782563" lon="8.080469"><ele>153.0</ele><time>2026-05-02T08:20:04.003Z</time></trkpt><trkpt lat="45.1781977" lon="8.0804285"><ele>153.0</ele><time>2026-05-02T08:20:05.005Z</time></trkpt><trkpt lat="45.1780919" lon="8.0803959"><ele>153.0</ele><time>2026-05-02T08:20:07.002Z</time></trkpt><trkpt lat="45.1780112" lon="8.0804472"><ele>153.0</ele><time>2026-05-02T08:20:09.009Z</time></trkpt><trkpt lat="45.1779833" lon="8.0806119"><ele>153.0</ele><time>2026-05-02T08:20:11.007Z</time></trkpt><trkpt lat="45.1779688" lon="8.080715"><ele>153.16666666666666</ele><time>2026-05-02T08:20:12.014Z</time></trkpt><trkpt lat="45.1779565" lon="8.0808227"><ele>153.33333333333334</ele><time>2026-05-02T08:20:13.008Z</time></trkpt><trkpt lat="45.1779436" lon="8.0809314"><ele>153.5</ele><time>2026-05-02T08:20:14.006Z</time></trkpt><trkpt lat="45.1779302" lon="8.0810278"><ele>153.66666666666669</ele><time>2026-05-02T08:20:15.007Z</time></trkpt><trkpt lat="45.1779012" lon="8.0811896"><ele>153.83333333333334</ele><time>2026-05-02T08:20:16.999Z</time></trkpt><trkpt lat="45.1778556" lon="8.0812995"><ele>154.0</ele><time>2026-05-02T08:20:19.004Z</time></trkpt><trkpt lat="45.1777859" lon="8.0813399"><ele>154.0</ele><time>2026-05-02T08:20:21.004Z</time></trkpt><trkpt lat="45.1776759" lon="8.0812699"><ele>154.0</ele><time>2026-05-02T08:20:22.998Z</time></trkpt><trkpt lat="45.1776029" lon="8.0812121"><ele>154.0</ele><time>2026-05-02T08:20:24.003Z</time></trkpt><trkpt lat="45.1775225" lon="8.0811547"><ele>154.0</ele><time>2026-05-02T08:20:25.007Z</time></trkpt><trkpt lat="45.1774359" lon="8.0810939"><ele>154.0</ele><time>2026-05-02T08:20:26.002Z</time></trkpt><trkpt lat="45.1773491" lon="8.081034"><ele>154.33333333333334</ele><time>2026-05-02T08:20:27.009Z</time></trkpt><trkpt lat="45.1772673" lon="8.080983"><ele>154.66666666666669</ele><time>2026-05-02T08:20:28Z</time></trkpt><trkpt lat="45.1771943" lon="8.0809364"><ele>155.0</ele><time>2026-05-02T08:20:28.998Z</time></trkpt><trkpt lat="45.1771291" lon="8.0808938"><ele>155.33333333333334</ele><time>2026-05-02T08:20:30.001Z</time></trkpt><trkpt lat="45.1770721" lon="8.0808531"><ele>155.66666666666666</ele><time>2026-05-02T08:20:31.001Z</time></trkpt><trkpt lat="45.1769695" lon="8.0807828"><ele>156.0</ele><time>2026-05-02T08:20:33.002Z</time></trkpt><trkpt lat="45.1768621" lon="8.0806889"><ele>155.2</ele><time>2026-05-02T08:20:35.002Z</time></trkpt><trkpt lat="45.176767" lon="8.0805755"><ele>154.39999999999998</ele><time>2026-05-02T08:20:37.006Z</time></trkpt><trkpt lat="45.1766759" lon="8.0804863"><ele>153.6</ele><time>2026-05-02T08:20:39.006Z</time></trkpt><trkpt lat="45.1765777" lon="8.080416"><ele>152.79999999999998</ele><time>2026-05-02T08:20:40.998Z</time></trkpt><trkpt lat="45.1765026" lon="8.0803614"><ele>152.0</ele><time>2026-05-02T08:20:43.002Z</time></trkpt><trkpt lat="45.1764586" lon="8.0802953"><ele>152.0</ele><time>2026-05-02T08:20:46.001Z</time></trkpt><trkpt lat="45.1764695" lon="8.0801454"><ele>152.0</ele><time>2026-05-02T08:20:49Z</time></trkpt><trkpt lat="45.1765218" lon="8.0799781"><ele>152.0</ele><time>2026-05-02T08:20:51.002Z</time></trkpt><trkpt lat="45.1765544" lon="8.0798704"><ele>152.0</ele><time>2026-05-02T08:20:52.006Z</time></trkpt><trkpt lat="45.1765887" lon="8.0797717"><ele>152.0</ele><time>2026-05-02T08:20:53.003Z</time></trkpt><trkpt lat="45.1766239" lon="8.0796707"><ele>152.0</ele><time>2026-05-02T08:20:54.005Z</time></trkpt><trkpt lat="45.1766928" lon="8.0794731"><ele>152.0</ele><time>2026-05-02T08:20:56.003Z</time></trkpt><trkpt lat="45.176729" lon="8.0793742"><ele>152.0</ele><time>2026-05-02T08:20:57.004Z</time></trkpt><trkpt lat="45.1767626" lon="8.0792819"><ele>152.0</ele><time>2026-05-02T08:20:58.009Z</time></trkpt><trkpt lat="45.1767967" lon="8.0791888"><ele>152.0</ele><time>2026-05-02T08:20:59.005Z</time></trkpt><trkpt lat="45.1768343" lon="8.0790891"><ele>152.0</ele><time>2026-05-02T08:21:00.008Z</time></trkpt><trkpt lat="45.1768724" lon="8.0789898"><ele>152.0</ele><time>2026-05-02T08:21:01.008Z</time></trkpt><trkpt lat="45.1769106" lon="8.0788885"><ele>152.0</ele><time>2026-05-02T08:21:02.004Z</time></trkpt><trkpt lat="45.1769479" lon="8.078782"><ele>152.0</ele><time>2026-05-02T08:21:03.001Z</time></trkpt><trkpt lat="45.1769896" lon="8.0786711"><ele>152.0</ele><time>2026-05-02T08:21:04.007Z</time></trkpt><trkpt lat="45.1770356" lon="8.078549"><ele>152.0</ele><time>2026-05-02T08:21:05.005Z</time></trkpt><trkpt lat="45.1770829" lon="8.0784214"><ele>152.0</ele><time>2026-05-02T08:21:06.006Z</time></trkpt><trkpt lat="45.1771324" lon="8.0782893"><ele>152.0</ele><time>2026-05-02T08:21:07.009Z</time></trkpt><trkpt lat="45.1771857" lon="8.0781554"><ele>152.0</ele><time>2026-05-02T08:21:08Z</time></trkpt><trkpt lat="45.1772395" lon="8.0780204"><ele>152.0</ele><time>2026-05-02T08:21:08.996Z</time></trkpt><trkpt lat="45.1772941" lon="8.0778882"><ele>152.0</ele><time>2026-05-02T08:21:10.002Z</time></trkpt><trkpt lat="45.1773477" lon="8.0777586"><ele>152.0</ele><time>2026-05-02T08:21:11.002Z</time></trkpt><trkpt lat="45.1773997" lon="8.0776289"><ele>152.0</ele><time>2026-05-02T08:21:12.006Z</time></trkpt><trkpt lat="45.1774502" lon="8.0774975"><ele>152.0</ele><time>2026-05-02T08:21:13.015Z</time></trkpt><trkpt lat="45.1775006" lon="8.077367"><ele>152.0</ele><time>2026-05-02T08:21:14.009Z</time></trkpt><trkpt lat="45.1775496" lon="8.0772418"><ele>152.0</ele><time>2026-05-02T08:21:15.007Z</time></trkpt><trkpt lat="45.1775978" lon="8.0771175"><ele>152.0</ele><time>2026-05-02T08:21:16.006Z</time></trkpt><trkpt lat="45.1776473" lon="8.0769909"><ele>152.0</ele><time>2026-05-02T08:21:17.003Z</time></trkpt><trkpt lat="45.1776961" lon="8.0768743"><ele>152.0</ele><time>2026-05-02T08:21:18.006Z</time></trkpt><trkpt lat="45.1777466" lon="8.0767603"><ele>152.0</ele><time>2026-05-02T08:21:19.006Z</time></trkpt><trkpt lat="45.1778001" lon="8.0766448"><ele>152.0</ele><time>2026-05-02T08:21:20.004Z</time></trkpt><trkpt lat="45.1778556" lon="8.0765264"><ele>152.2</ele><time>2026-05-02T08:21:21.011Z</time></trkpt><trkpt lat="45.1779137" lon="8.0764057"><ele>152.39999999999998</ele><time>2026-05-02T08:21:22.009Z</time></trkpt><trkpt lat="45.1779739" lon="8.0762833"><ele>152.60000000000002</ele><time>2026-05-02T08:21:23.011Z</time></trkpt><trkpt lat="45.1780321" lon="8.0761624"><ele>152.8</ele><time>2026-05-02T08:21:24.004Z</time></trkpt><trkpt lat="45.1780923" lon="8.0760448"><ele>153.0</ele><time>2026-05-02T08:21:25.002Z</time></trkpt><trkpt lat="45.1781548" lon="8.075936"><ele>153.0</ele><time>2026-05-02T08:21:26Z</time></trkpt><trkpt lat="45.1782217" lon="8.0758325"><ele>153.0</ele><time>2026-05-02T08:21:27.007Z</time></trkpt><trkpt lat="45.1782892" lon="8.0757306"><ele>153.0</ele><time>2026-05-02T08:21:28.007Z</time></trkpt><trkpt lat="45.17836" lon="8.0756271"><ele>153.0</ele><time>2026-05-02T08:21:29.006Z</time></trkpt><trkpt lat="45.178437" lon="8.0755188"><ele>153.0</ele><time>2026-05-02T08:21:30.005Z</time></trkpt><trkpt lat="45.178518" lon="8.0754078"><ele>153.0</ele><time>2026-05-02T08:21:31.003Z</time></trkpt><trkpt lat="45.1785953" lon="8.0752937"><ele>153.0</ele><time>2026-05-02T08:21:32.006Z</time></trkpt><trkpt lat="45.1786661" lon="8.0751825"><ele>153.0</ele><time>2026-05-02T08:21:33.002Z</time></trkpt><trkpt lat="45.1787325" lon="8.0750752"><ele>153.0</ele><time>2026-05-02T08:21:33.998Z</time></trkpt><trkpt lat="45.1787952" lon="8.0749711"><ele>153.0</ele><time>2026-05-02T08:21:35.002Z</time></trkpt><trkpt lat="45.1788576" lon="8.0748668"><ele>153.0</ele><time>2026-05-02T08:21:36.007Z</time></trkpt><trkpt lat="45.1789172" lon="8.0747603"><ele>153.0</ele><time>2026-05-02T08:21:36.995Z</time></trkpt><trkpt lat="45.1789755" lon="8.0746507"><ele>153.0</ele><time>2026-05-02T08:21:38.003Z</time></trkpt><trkpt lat="45.1790324" lon="8.0745389"><ele>153.0</ele><time>2026-05-02T08:21:39.012Z</time></trkpt><trkpt lat="45.1790887" lon="8.0744255"><ele>153.0</ele><time>2026-05-02T08:21:40.002Z</time></trkpt><trkpt lat="45.1791463" lon="8.0743113"><ele>153.4</ele><time>2026-05-02T08:21:41.002Z</time></trkpt><trkpt lat="45.1792016" lon="8.0741964"><ele>153.8</ele><time>2026-05-02T08:21:42.003Z</time></trkpt><trkpt lat="45.1792519" lon="8.0740788"><ele>154.2</ele><time>2026-05-02T08:21:43Z</time></trkpt><trkpt lat="45.1792988" lon="8.0739616"><ele>154.6</ele><time>2026-05-02T08:21:44.007Z</time></trkpt><trkpt lat="45.1793402" lon="8.0738397"><ele>155.0</ele><time>2026-05-02T08:21:45.007Z</time></trkpt><trkpt lat="45.179377" lon="8.0737202"><ele>155.0</ele><time>2026-05-02T08:21:46.005Z</time></trkpt><trkpt lat="45.1794091" lon="8.0736061"><ele>155.0</ele><time>2026-05-02T08:21:47.004Z</time></trkpt><trkpt lat="45.1794361" lon="8.0734873"><ele>155.0</ele><time>2026-05-02T08:21:48Z</time></trkpt><trkpt lat="45.1794617" lon="8.0733669"><ele>155.0</ele><time>2026-05-02T08:21:49.006Z</time></trkpt><trkpt lat="45.1794883" lon="8.0732476"><ele>155.0</ele><time>2026-05-02T08:21:50.006Z</time></trkpt><trkpt lat="45.1795126" lon="8.0731179"><ele>155.0</ele><time>2026-05-02T08:21:50.997Z</time></trkpt><trkpt lat="45.1795295" lon="8.0729971"><ele>155.0</ele><time>2026-05-02T08:21:52.005Z</time></trkpt><trkpt lat="45.1795362" lon="8.0728757"><ele>155.0</ele><time>2026-05-02T08:21:53.007Z</time></trkpt><trkpt lat="45.1795336" lon="8.0727528"><ele>155.0</ele><time>2026-05-02T08:21:54.003Z</time></trkpt><trkpt lat="45.1795309" lon="8.0726343"><ele>155.0</ele><time>2026-05-02T08:21:55.012Z</time></trkpt><trkpt lat="45.1795147" lon="8.0725122"><ele>155.0</ele><time>2026-05-02T08:21:56.008Z</time></trkpt><trkpt lat="45.1794951" lon="8.0723885"><ele>155.0</ele><time>2026-05-02T08:21:57.01Z</time></trkpt><trkpt lat="45.1794748" lon="8.0722609"><ele>155.0</ele><time>2026-05-02T08:21:58.007Z</time></trkpt><trkpt lat="45.1794589" lon="8.0721277"><ele>155.0</ele><time>2026-05-02T08:21:59.003Z</time></trkpt><trkpt lat="45.1794448" lon="8.0719936"><ele>155.0</ele><time>2026-05-02T08:22:00.014Z</time></trkpt><trkpt lat="45.1794306" lon="8.0718657"><ele>155.0</ele><time>2026-05-02T08:22:01.007Z</time></trkpt><trkpt lat="45.1794132" lon="8.0717336"><ele>155.0</ele><time>2026-05-02T08:22:02.006Z</time></trkpt><trkpt lat="45.1793993" lon="8.0716051"><ele>154.8</ele><time>2026-05-02T08:22:03.009Z</time></trkpt><trkpt lat="45.1793857" lon="8.0714722"><ele>154.6</ele><time>2026-05-02T08:22:04.007Z</time></trkpt><trkpt lat="45.1793751" lon="8.0713351"><ele>154.4</ele><time>2026-05-02T08:22:05.003Z</time></trkpt><trkpt lat="45.179364" lon="8.0712023"><ele>154.2</ele><time>2026-05-02T08:22:06.001Z</time></trkpt><trkpt lat="45.17935" lon="8.0710746"><ele>154.0</ele><time>2026-05-02T08:22:07.005Z</time></trkpt><trkpt lat="45.179332" lon="8.0709491"><ele>154.0</ele><time>2026-05-02T08:22:08Z</time></trkpt><trkpt lat="45.1793105" lon="8.0708256"><ele>154.0</ele><time>2026-05-02T08:22:09.005Z</time></trkpt><trkpt lat="45.1792891" lon="8.070705"><ele>154.0</ele><time>2026-05-02T08:22:09.999Z</time></trkpt><trkpt lat="45.1792747" lon="8.0705849"><ele>154.0</ele><time>2026-05-02T08:22:11.007Z</time></trkpt><trkpt lat="45.1792641" lon="8.0704614"><ele>154.0</ele><time>2026-05-02T08:22:12.005Z</time></trkpt><trkpt lat="45.1792536" lon="8.0703383"><ele>154.0</ele><time>2026-05-02T08:22:13.007Z</time></trkpt><trkpt lat="45.1792356" lon="8.0702222"><ele>154.0</ele><time>2026-05-02T08:22:14.012Z</time></trkpt><trkpt lat="45.1792144" lon="8.070117"><ele>154.0</ele><time>2026-05-02T08:22:15.012Z</time></trkpt><trkpt lat="45.1791885" lon="8.069971"><ele>154.0</ele><time>2026-05-02T08:22:17.003Z</time></trkpt><trkpt lat="45.1791883" lon="8.0698717"><ele>154.0</ele><time>2026-05-02T08:22:19.001Z</time></trkpt><trkpt lat="45.1791983" lon="8.0697422"><ele>154.0</ele><time>2026-05-02T08:22:21.01Z</time></trkpt><trkpt lat="45.1792009" lon="8.0696107"><ele>154.0</ele><time>2026-05-02T08:22:23.006Z</time></trkpt><trkpt lat="45.1791906" lon="8.0694745"><ele>154.16666666666669</ele><time>2026-05-02T08:22:25.001Z</time></trkpt><trkpt lat="45.1791768" lon="8.0693399"><ele>154.33333333333334</ele><time>2026-05-02T08:22:27.004Z</time></trkpt><trkpt lat="45.1791883" lon="8.069231"><ele>154.5</ele><time>2026-05-02T08:22:30.001Z</time></trkpt><trkpt lat="45.1792129" lon="8.0691372"><ele>154.66666666666666</ele><time>2026-05-02T08:22:33.004Z</time></trkpt><trkpt lat="45.1792102" lon="8.0690422"><ele>154.83333333333331</ele><time>2026-05-02T08:22:35.002Z</time></trkpt><trkpt lat="45.1792121" lon="8.0689029"><ele>155.0</ele><time>2026-05-02T08:22:37.001Z</time></trkpt><trkpt lat="45.1792212" lon="8.068735"><ele>155.0</ele><time>2026-05-02T08:22:39.011Z</time></trkpt><trkpt lat="45.1792346" lon="8.068588"><ele>155.0</ele><time>2026-05-02T08:22:41Z</time></trkpt><trkpt lat="45.1792406" lon="8.0684438"><ele>155.0</ele><time>2026-05-02T08:22:43.002Z</time></trkpt><trkpt lat="45.1792456" lon="8.0682821"><ele>155.0</ele><time>2026-05-02T08:22:45.002Z</time></trkpt><trkpt lat="45.1792552" lon="8.068128"><ele>155.0</ele><time>2026-05-02T08:22:46.999Z</time></trkpt><trkpt lat="45.1792679" lon="8.067982"><ele>155.0</ele><time>2026-05-02T08:22:49.006Z</time></trkpt><trkpt lat="45.1792773" lon="8.0678313"><ele>155.0</ele><time>2026-05-02T08:22:50.999Z</time></trkpt><trkpt lat="45.1792849" lon="8.0676916"><ele>155.0</ele><time>2026-05-02T08:22:53.003Z</time></trkpt><trkpt lat="45.179294" lon="8.0675407"><ele>155.0</ele><time>2026-05-02T08:22:55.002Z</time></trkpt><trkpt lat="45.1792917" lon="8.0673777"><ele>155.0</ele><time>2026-05-02T08:22:57.004Z</time></trkpt><trkpt lat="45.1792762" lon="8.0672175"><ele>155.0</ele><time>2026-05-02T08:22:59.002Z</time></trkpt><trkpt lat="45.1792606" lon="8.0670509"><ele>155.0</ele><time>2026-05-02T08:23:01.005Z</time></trkpt><trkpt lat="45.1792476" lon="8.0669116"><ele>155.0</ele><time>2026-05-02T08:23:03.006Z</time></trkpt><trkpt lat="45.1792436" lon="8.0668151"><ele>155.0</ele><time>2026-05-02T08:23:05.006Z</time></trkpt><trkpt lat="45.1792077" lon="8.0669057"><ele>155.0</ele><time>2026-05-02T08:23:13.004Z</time></trkpt><trkpt lat="45.1792465" lon="8.0670145"><ele>155.0</ele><time>2026-05-02T08:23:15.004Z</time></trkpt><trkpt lat="45.179273" lon="8.0671462"><ele>155.0</ele><time>2026-05-02T08:23:17.004Z</time></trkpt><trkpt lat="45.1792968" lon="8.0672906"><ele>155.0</ele><time>2026-05-02T08:23:19.005Z</time></trkpt><trkpt lat="45.1793105" lon="8.0674733"><ele>155.0</ele><time>2026-05-02T08:23:21.005Z</time></trkpt><trkpt lat="45.1793094" lon="8.0675762"><ele>155.0</ele><time>2026-05-02T08:23:22.001Z</time></trkpt><trkpt lat="45.1792949" lon="8.0677445"><ele>155.0</ele><time>2026-05-02T08:23:24.004Z</time></trkpt><trkpt lat="45.1792845" lon="8.067887"><ele>155.0</ele><time>2026-05-02T08:23:26.006Z</time></trkpt><trkpt lat="45.1792723" lon="8.0680356"><ele>155.0</ele><time>2026-05-02T08:23:28.001Z</time></trkpt><trkpt lat="45.1792511" lon="8.0681953"><ele>155.0</ele><time>2026-05-02T08:23:30.006Z</time></trkpt><trkpt lat="45.1792473" lon="8.0682857"><ele>155.0</ele><time>2026-05-02T08:23:31Z</time></trkpt><trkpt lat="45.1792445" lon="8.0683835"><ele>155.0</ele><time>2026-05-02T08:23:32.001Z</time></trkpt><trkpt lat="45.1792413" lon="8.0684797"><ele>155.0</ele><time>2026-05-02T08:23:32.998Z</time></trkpt><trkpt lat="45.1792362" lon="8.0685809"><ele>155.0</ele><time>2026-05-02T08:23:33.996Z</time></trkpt><trkpt lat="45.1792305" lon="8.0686885"><ele>155.0</ele><time>2026-05-02T08:23:34.999Z</time></trkpt><trkpt lat="45.1792193" lon="8.068797"><ele>155.0</ele><time>2026-05-02T08:23:36Z</time></trkpt><trkpt lat="45.1792099" lon="8.0689104"><ele>155.0</ele><time>2026-05-02T08:23:37.005Z</time></trkpt><trkpt lat="45.1792026" lon="8.0690203"><ele>155.0</ele><time>2026-05-02T08:23:38.005Z</time></trkpt><trkpt lat="45.1791929" lon="8.0691271"><ele>155.0</ele><time>2026-05-02T08:23:39.001Z</time></trkpt><trkpt lat="45.1791834" lon="8.0692232"><ele>155.0</ele><time>2026-05-02T08:23:40.008Z</time></trkpt><trkpt lat="45.1791782" lon="8.069322"><ele>155.0</ele><time>2026-05-02T08:23:41.002Z</time></trkpt><trkpt lat="45.1791827" lon="8.0694239"><ele>155.0</ele><time>2026-05-02T08:23:42.003Z</time></trkpt><trkpt lat="45.1791925" lon="8.0695282"><ele>155.0</ele><time>2026-05-02T08:23:43.008Z</time></trkpt><trkpt lat="45.1792022" lon="8.0696244"><ele>155.0</ele><time>2026-05-02T08:23:44.011Z</time></trkpt><trkpt lat="45.1792102" lon="8.069756"><ele>155.0</ele><time>2026-05-02T08:23:46.002Z</time></trkpt><trkpt lat="45.1791949" lon="8.0698533"><ele>155.0</ele><time>2026-05-02T08:23:48.003Z</time></trkpt><trkpt lat="45.1791396" lon="8.0697454"><ele>155.0</ele><time>2026-05-02T08:23:54.014Z</time></trkpt><trkpt lat="45.1791148" lon="8.0696307"><ele>155.0</ele><time>2026-05-02T08:23:56.003Z</time></trkpt><trkpt lat="45.1790797" lon="8.0694988"><ele>155.0</ele><time>2026-05-02T08:23:58.007Z</time></trkpt><trkpt lat="45.179025" lon="8.0693697"><ele>155.0</ele><time>2026-05-02T08:23:59.995Z</time></trkpt><trkpt lat="45.1789534" lon="8.0692476"><ele>155.0</ele><time>2026-05-02T08:24:02.005Z</time></trkpt><trkpt lat="45.1788673" lon="8.0691537"><ele>154.6</ele><time>2026-05-02T08:24:04.01Z</time></trkpt><trkpt lat="45.178765" lon="8.069092"><ele>154.2</ele><time>2026-05-02T08:24:06.008Z</time></trkpt><trkpt lat="45.1786624" lon="8.0690634"><ele>153.8</ele><time>2026-05-02T08:24:08.003Z</time></trkpt><trkpt lat="45.1785612" lon="8.0690486"><ele>153.4</ele><time>2026-05-02T08:24:10.004Z</time></trkpt><trkpt lat="45.1784512" lon="8.069031"><ele>153.0</ele><time>2026-05-02T08:24:12Z</time></trkpt><trkpt lat="45.1783394" lon="8.0690163"><ele>153.0</ele><time>2026-05-02T08:24:14.005Z</time></trkpt><trkpt lat="45.1782217" lon="8.0689947"><ele>153.0</ele><time>2026-05-02T08:24:15.999Z</time></trkpt><trkpt lat="45.1781579" lon="8.0689789"><ele>153.0</ele><time>2026-05-02T08:24:16.999Z</time></trkpt><trkpt lat="45.1780916" lon="8.068963"><ele>153.0</ele><time>2026-05-02T08:24:18.004Z</time></trkpt><trkpt lat="45.1779727" lon="8.0689311"><ele>153.0</ele><time>2026-05-02T08:24:20.005Z</time></trkpt><trkpt lat="45.1778609" lon="8.0688979"><ele>153.20000000000002</ele><time>2026-05-02T08:24:21.999Z</time></trkpt><trkpt lat="45.1777519" lon="8.0688544"><ele>153.4</ele><time>2026-05-02T08:24:24.014Z</time></trkpt><trkpt lat="45.1776468" lon="8.0687998"><ele>153.60000000000002</ele><time>2026-05-02T08:24:26.001Z</time></trkpt><trkpt lat="45.177543" lon="8.068733"><ele>153.8</ele><time>2026-05-02T08:24:28.006Z</time></trkpt><trkpt lat="45.177449" lon="8.0686515"><ele>154.0</ele><time>2026-05-02T08:24:29.998Z</time></trkpt><trkpt lat="45.1773608" lon="8.0685436"><ele>154.0</ele><time>2026-05-02T08:24:32.005Z</time></trkpt><trkpt lat="45.177282" lon="8.0684161"><ele>154.0</ele><time>2026-05-02T08:24:34.01Z</time></trkpt><trkpt lat="45.1772167" lon="8.0682774"><ele>154.0</ele><time>2026-05-02T08:24:36.001Z</time></trkpt><trkpt lat="45.1771609" lon="8.0681372"><ele>154.0</ele><time>2026-05-02T08:24:38.002Z</time></trkpt><trkpt lat="45.1771131" lon="8.0679959"><ele>154.0</ele><time>2026-05-02T08:24:40.003Z</time></trkpt><trkpt lat="45.1770659" lon="8.0678555"><ele>154.0</ele><time>2026-05-02T08:24:42.01Z</time></trkpt><trkpt lat="45.1770137" lon="8.0677161"><ele>154.0</ele><time>2026-05-02T08:24:44.009Z</time></trkpt><trkpt lat="45.176959" lon="8.0675918"><ele>154.0</ele><time>2026-05-02T08:24:45.997Z</time></trkpt><trkpt lat="45.1769024" lon="8.0674858"><ele>154.0</ele><time>2026-05-02T08:24:47.999Z</time></trkpt><trkpt lat="45.1768547" lon="8.0673588"><ele>154.0</ele><time>2026-05-02T08:24:50.003Z</time></trkpt><trkpt lat="45.1768295" lon="8.067204"><ele>154.0</ele><time>2026-05-02T08:24:52.006Z</time></trkpt><trkpt lat="45.1768159" lon="8.0671153"><ele>154.0</ele><time>2026-05-02T08:24:53.003Z</time></trkpt><trkpt lat="45.1767991" lon="8.0670157"><ele>154.0</ele><time>2026-05-02T08:24:53.996Z</time></trkpt><trkpt lat="45.1767821" lon="8.0669123"><ele>154.0</ele><time>2026-05-02T08:24:55.009Z</time></trkpt><trkpt lat="45.1767627" lon="8.0668095"><ele>154.0</ele><time>2026-05-02T08:24:56.011Z</time></trkpt><trkpt lat="45.1767426" lon="8.0667126"><ele>154.0</ele><time>2026-05-02T08:24:57.011Z</time></trkpt><trkpt lat="45.176717" lon="8.0666183"><ele>154.0</ele><time>2026-05-02T08:24:58.006Z</time></trkpt><trkpt lat="45.1766871" lon="8.0665217"><ele>154.0</ele><time>2026-05-02T08:24:59.007Z</time></trkpt><trkpt lat="45.1766535" lon="8.0664292"><ele>154.0</ele><time>2026-05-02T08:25:00.005Z</time></trkpt><trkpt lat="45.1766189" lon="8.0663412"><ele>154.0</ele><time>2026-05-02T08:25:01.008Z</time></trkpt><trkpt lat="45.1765825" lon="8.066254"><ele>154.0</ele><time>2026-05-02T08:25:02.006Z</time></trkpt><trkpt lat="45.1765462" lon="8.0661705"><ele>154.0</ele><time>2026-05-02T08:25:03.01Z</time></trkpt><trkpt lat="45.1765112" lon="8.0660872"><ele>154.14285714285714</ele><time>2026-05-02T08:25:04.002Z</time></trkpt><trkpt lat="45.1764778" lon="8.066003"><ele>154.28571428571428</ele><time>2026-05-02T08:25:05.001Z</time></trkpt><trkpt lat="45.1764439" lon="8.0659171"><ele>154.42857142857144</ele><time>2026-05-02T08:25:06.001Z</time></trkpt><trkpt lat="45.1764086" lon="8.0658304"><ele>154.57142857142856</ele><time>2026-05-02T08:25:07.003Z</time></trkpt><trkpt lat="45.1763736" lon="8.0657413"><ele>154.71428571428572</ele><time>2026-05-02T08:25:08.014Z</time></trkpt><trkpt lat="45.1763358" lon="8.0656512"><ele>154.85714285714286</ele><time>2026-05-02T08:25:08.993Z</time></trkpt><trkpt lat="45.1762989" lon="8.065562"><ele>155.0</ele><time>2026-05-02T08:25:10.002Z</time></trkpt><trkpt lat="45.1762608" lon="8.0654735"><ele>155.0</ele><time>2026-05-02T08:25:11.004Z</time></trkpt><trkpt lat="45.1762231" lon="8.0653854"><ele>155.0</ele><time>2026-05-02T08:25:12.007Z</time></trkpt><trkpt lat="45.1761855" lon="8.0652983"><ele>155.0</ele><time>2026-05-02T08:25:13.004Z</time></trkpt><trkpt lat="45.1761465" lon="8.0652072"><ele>155.0</ele><time>2026-05-02T08:25:14.003Z</time></trkpt><trkpt lat="45.1761061" lon="8.0651158"><ele>155.0</ele><time>2026-05-02T08:25:15.002Z</time></trkpt><trkpt lat="45.1760661" lon="8.0650257"><ele>155.0</ele><time>2026-05-02T08:25:16.009Z</time></trkpt><trkpt lat="45.1760238" lon="8.0649352"><ele>155.0</ele><time>2026-05-02T08:25:17.01Z</time></trkpt><trkpt lat="45.1759798" lon="8.0648435"><ele>155.0</ele><time>2026-05-02T08:25:18.003Z</time></trkpt><trkpt lat="45.1759329" lon="8.0647492"><ele>155.0</ele><time>2026-05-02T08:25:19.007Z</time></trkpt><trkpt lat="45.1758827" lon="8.0646539"><ele>155.0</ele><time>2026-05-02T08:25:20.001Z</time></trkpt><trkpt lat="45.1758306" lon="8.0645552"><ele>155.0</ele><time>2026-05-02T08:25:21.002Z</time></trkpt><trkpt lat="45.1757781" lon="8.0644552"><ele>155.0</ele><time>2026-05-02T08:25:21.999Z</time></trkpt><trkpt lat="45.1757313" lon="8.0643571"><ele>155.0</ele><time>2026-05-02T08:25:22.997Z</time></trkpt><trkpt lat="45.1756908" lon="8.0642537"><ele>155.16666666666666</ele><time>2026-05-02T08:25:24.008Z</time></trkpt><trkpt lat="45.1756589" lon="8.0641428"><ele>155.33333333333331</ele><time>2026-05-02T08:25:25.001Z</time></trkpt><trkpt lat="45.1756383" lon="8.0640294"><ele>155.5</ele><time>2026-05-02T08:25:26.006Z</time></trkpt><trkpt lat="45.1756269" lon="8.0639229"><ele>155.66666666666666</ele><time>2026-05-02T08:25:27.007Z</time></trkpt><trkpt lat="45.175619" lon="8.0638194"><ele>155.83333333333334</ele><time>2026-05-02T08:25:27.996Z</time></trkpt><trkpt lat="45.1756125" lon="8.0637197"><ele>156.0</ele><time>2026-05-02T08:25:29.005Z</time></trkpt><trkpt lat="45.1756089" lon="8.0636208"><ele>156.14285714285714</ele><time>2026-05-02T08:25:30.007Z</time></trkpt><trkpt lat="45.1756055" lon="8.0635217"><ele>156.28571428571428</ele><time>2026-05-02T08:25:31.006Z</time></trkpt><trkpt lat="45.1756036" lon="8.0634241"><ele>156.42857142857142</ele><time>2026-05-02T08:25:32Z</time></trkpt><trkpt lat="45.1756008" lon="8.0633253"><ele>156.57142857142856</ele><time>2026-05-02T08:25:33.001Z</time></trkpt><trkpt lat="45.1755988" lon="8.063227"><ele>156.71428571428572</ele><time>2026-05-02T08:25:33.999Z</time></trkpt><trkpt lat="45.1755972" lon="8.0631305"><ele>156.85714285714283</ele><time>2026-05-02T08:25:35Z</time></trkpt><trkpt lat="45.1755966" lon="8.0630335"><ele>157.0</ele><time>2026-05-02T08:25:36.006Z</time></trkpt><trkpt lat="45.1755975" lon="8.0629339"><ele>156.99999999999997</ele><time>2026-05-02T08:25:36.998Z</time></trkpt><trkpt lat="45.1756008" lon="8.0628336"><ele>157.0</ele><time>2026-05-02T08:25:38.007Z</time></trkpt><trkpt lat="45.1756064" lon="8.062735"><ele>157.0</ele><time>2026-05-02T08:25:38.993Z</time></trkpt><trkpt lat="45.1756143" lon="8.0626337"><ele>157.0</ele><time>2026-05-02T08:25:39.998Z</time></trkpt><trkpt lat="45.1756243" lon="8.0625311"><ele>157.0</ele><time>2026-05-02T08:25:41.001Z</time></trkpt><trkpt lat="45.1756385" lon="8.0624344"><ele>156.99999999999997</ele><time>2026-05-02T08:25:41.997Z</time></trkpt><trkpt lat="45.1756566" lon="8.0623385"><ele>157.0</ele><time>2026-05-02T08:25:43Z</time></trkpt><trkpt lat="45.175679" lon="8.0622432"><ele>156.99999999999997</ele><time>2026-05-02T08:25:43.999Z</time></trkpt><trkpt lat="45.1757035" lon="8.0621503"><ele>157.0</ele><time>2026-05-02T08:25:45Z</time></trkpt><trkpt lat="45.1757301" lon="8.0620581"><ele>157.0</ele><time>2026-05-02T08:25:46.003Z</time></trkpt><trkpt lat="45.1757589" lon="8.0619673"><ele>157.0</ele><time>2026-05-02T08:25:47.002Z</time></trkpt><trkpt lat="45.1757898" lon="8.0618756"><ele>157.0</ele><time>2026-05-02T08:25:47.999Z</time></trkpt><trkpt lat="45.1758221" lon="8.0617843"><ele>156.99999999999997</ele><time>2026-05-02T08:25:49.004Z</time></trkpt><trkpt lat="45.175857" lon="8.0616954"><ele>157.0</ele><time>2026-05-02T08:25:50.005Z</time></trkpt><trkpt lat="45.1758927" lon="8.0616096"><ele>157.14285714285714</ele><time>2026-05-02T08:25:50.998Z</time></trkpt><trkpt lat="45.1759297" lon="8.0615233"><ele>157.28571428571428</ele><time>2026-05-02T08:25:51.995Z</time></trkpt><trkpt lat="45.1759658" lon="8.0614433"><ele>157.42857142857144</ele><time>2026-05-02T08:25:53.001Z</time></trkpt><trkpt lat="45.1760035" lon="8.0613614"><ele>157.57142857142856</ele><time>2026-05-02T08:25:54.009Z</time></trkpt><trkpt lat="45.1760423" lon="8.0612812"><ele>157.71428571428572</ele><time>2026-05-02T08:25:55.006Z</time></trkpt><trkpt lat="45.1760841" lon="8.0611935"><ele>157.85714285714286</ele><time>2026-05-02T08:25:56.004Z</time></trkpt><trkpt lat="45.1761292" lon="8.0611096"><ele>158.0</ele><time>2026-05-02T08:25:57.007Z</time></trkpt><trkpt lat="45.1761735" lon="8.061029"><ele>158.00000000000003</ele><time>2026-05-02T08:25:58.008Z</time></trkpt><trkpt lat="45.1762185" lon="8.0609485"><ele>158.0</ele><time>2026-05-02T08:25:59.01Z</time></trkpt><trkpt lat="45.1762619" lon="8.0608724"><ele>158.0</ele><time>2026-05-02T08:26:00.008Z</time></trkpt><trkpt lat="45.1763058" lon="8.0607963"><ele>158.0</ele><time>2026-05-02T08:26:01.008Z</time></trkpt><trkpt lat="45.1763492" lon="8.0607215"><ele>158.0</ele><time>2026-05-02T08:26:02.005Z</time></trkpt><trkpt lat="45.176391" lon="8.0606459"><ele>158.00000000000003</ele><time>2026-05-02T08:26:03.005Z</time></trkpt><trkpt lat="45.1764319" lon="8.0605723"><ele>158.0</ele><time>2026-05-02T08:26:04.003Z</time></trkpt><trkpt lat="45.1764766" lon="8.0604999"><ele>158.33333333333331</ele><time>2026-05-02T08:26:05.014Z</time></trkpt><trkpt lat="45.1765231" lon="8.0604244"><ele>158.66666666666666</ele><time>2026-05-02T08:26:06.006Z</time></trkpt><trkpt lat="45.1765684" lon="8.0603522"><ele>159.0</ele><time>2026-05-02T08:26:07.001Z</time></trkpt><trkpt lat="45.1766126" lon="8.06028"><ele>159.33333333333334</ele><time>2026-05-02T08:26:07.998Z</time></trkpt><trkpt lat="45.1766547" lon="8.0602052"><ele>159.66666666666669</ele><time>2026-05-02T08:26:09.007Z</time></trkpt><trkpt lat="45.1766981" lon="8.0601302"><ele>160.0</ele><time>2026-05-02T08:26:10.006Z</time></trkpt><trkpt lat="45.1767734" lon="8.0600158"><ele>160.0</ele><time>2026-05-02T08:26:12.009Z</time></trkpt><trkpt lat="45.1768308" lon="8.0599467"><ele>160.0</ele><time>2026-05-02T08:26:14.008Z</time></trkpt><trkpt lat="45.1769087" lon="8.0598615"><ele>160.0</ele><time>2026-05-02T08:26:17.007Z</time></trkpt><trkpt lat="45.176982" lon="8.0597958"><ele>160.0</ele><time>2026-05-02T08:26:20.001Z</time></trkpt><trkpt lat="45.1770433" lon="8.0597588"><ele>160.0</ele><time>2026-05-02T08:26:23.012Z</time></trkpt><trkpt lat="45.1771383" lon="8.0597711"><ele>160.0</ele><time>2026-05-02T08:26:34.007Z</time></trkpt><trkpt lat="45.1772219" lon="8.0597747"><ele>160.0</ele><time>2026-05-02T08:26:36.003Z</time></trkpt><trkpt lat="45.1772885" lon="8.0597685"><ele>160.0</ele><time>2026-05-02T08:26:38.007Z</time></trkpt><trkpt lat="45.1773572" lon="8.0597388"><ele>160.0</ele><time>2026-05-02T08:26:50.014Z</time></trkpt><trkpt lat="45.1772752" lon="8.0597107"><ele>160.0</ele><time>2026-05-02T08:26:57.003Z</time></trkpt><trkpt lat="45.1772012" lon="8.0597467"><ele>160.0</ele><time>2026-05-02T08:26:59.004Z</time></trkpt><trkpt lat="45.1771143" lon="8.0597627"><ele>160.0</ele><time>2026-05-02T08:27:01.014Z</time></trkpt><trkpt lat="45.1770158" lon="8.0597728"><ele>160.0</ele><time>2026-05-02T08:27:02.996Z</time></trkpt><trkpt lat="45.1769432" lon="8.059825"><ele>160.0</ele><time>2026-05-02T08:27:04.999Z</time></trkpt><trkpt lat="45.1768827" lon="8.0598902"><ele>160.0</ele><time>2026-05-02T08:27:07.011Z</time></trkpt><trkpt lat="45.1768025" lon="8.0599806"><ele>160.0</ele><time>2026-05-02T08:27:08.994Z</time></trkpt><trkpt lat="45.1767258" lon="8.0600907"><ele>160.0</ele><time>2026-05-02T08:27:11.004Z</time></trkpt><trkpt lat="45.1766554" lon="8.0602077"><ele>160.0</ele><time>2026-05-02T08:27:13.005Z</time></trkpt><trkpt lat="45.1765845" lon="8.0603332"><ele>160.0</ele><time>2026-05-02T08:27:15.013Z</time></trkpt><trkpt lat="45.1765066" lon="8.0604591"><ele>160.0</ele><time>2026-05-02T08:27:17.002Z</time></trkpt><trkpt lat="45.1764647" lon="8.060527"><ele>160.0</ele><time>2026-05-02T08:27:18.008Z</time></trkpt><trkpt lat="45.1764234" lon="8.0605978"><ele>160.0</ele><time>2026-05-02T08:27:19.003Z</time></trkpt><trkpt lat="45.1763469" lon="8.0607325"><ele>159.71428571428572</ele><time>2026-05-02T08:27:21.009Z</time></trkpt><trkpt lat="45.1763084" lon="8.0608033"><ele>159.42857142857144</ele><time>2026-05-02T08:27:22.006Z</time></trkpt><trkpt lat="45.1762668" lon="8.0608769"><ele>159.14285714285717</ele><time>2026-05-02T08:27:23.006Z</time></trkpt><trkpt lat="45.1762231" lon="8.0609541"><ele>158.85714285714286</ele><time>2026-05-02T08:27:24.005Z</time></trkpt><trkpt lat="45.1761797" lon="8.0610332"><ele>158.57142857142858</ele><time>2026-05-02T08:27:25.005Z</time></trkpt><trkpt lat="45.1761361" lon="8.061116"><ele>158.2857142857143</ele><time>2026-05-02T08:27:26.004Z</time></trkpt><trkpt lat="45.1760908" lon="8.0612027"><ele>158.0</ele><time>2026-05-02T08:27:27.004Z</time></trkpt><trkpt lat="45.1760461" lon="8.0612927"><ele>158.00000000000003</ele><time>2026-05-02T08:27:28.004Z</time></trkpt><trkpt lat="45.176003" lon="8.0613822"><ele>158.0</ele><time>2026-05-02T08:27:28.999Z</time></trkpt><trkpt lat="45.1759619" lon="8.061472"><ele>158.0</ele><time>2026-05-02T08:27:30Z</time></trkpt><trkpt lat="45.1759224" lon="8.0615633"><ele>158.0</ele><time>2026-05-02T08:27:31.003Z</time></trkpt><trkpt lat="45.1758854" lon="8.0616528"><ele>158.0</ele><time>2026-05-02T08:27:32.009Z</time></trkpt><trkpt lat="45.1758508" lon="8.0617403"><ele>158.00000000000003</ele><time>2026-05-02T08:27:33.006Z</time></trkpt><trkpt lat="45.1758178" lon="8.0618289"><ele>158.0</ele><time>2026-05-02T08:27:34Z</time></trkpt><trkpt lat="45.1757854" lon="8.0619189"><ele>157.85714285714286</ele><time>2026-05-02T08:27:35.001Z</time></trkpt><trkpt lat="45.1757552" lon="8.0620121"><ele>157.71428571428572</ele><time>2026-05-02T08:27:36.009Z</time></trkpt><trkpt lat="45.1757274" lon="8.0621026"><ele>157.57142857142856</ele><time>2026-05-02T08:27:36.998Z</time></trkpt><trkpt lat="45.1757007" lon="8.0621957"><ele>157.42857142857144</ele><time>2026-05-02T08:27:38.006Z</time></trkpt><trkpt lat="45.1756769" lon="8.0622917"><ele>157.28571428571428</ele><time>2026-05-02T08:27:39.004Z</time></trkpt><trkpt lat="45.175656" lon="8.0623894"><ele>157.14285714285714</ele><time>2026-05-02T08:27:40Z</time></trkpt><trkpt lat="45.1756385" lon="8.062492"><ele>157.0</ele><time>2026-05-02T08:27:41.009Z</time></trkpt><trkpt lat="45.1756259" lon="8.0625946"><ele>156.99999999999997</ele><time>2026-05-02T08:27:42.008Z</time></trkpt><trkpt lat="45.1756177" lon="8.0626949"><ele>157.0</ele><time>2026-05-02T08:27:43.011Z</time></trkpt><trkpt lat="45.1756112" lon="8.0627896"><ele>157.0</ele><time>2026-05-02T08:27:44Z</time></trkpt><trkpt lat="45.1756061" lon="8.0628852"><ele>157.0</ele><time>2026-05-02T08:27:44.998Z</time></trkpt><trkpt lat="45.1756039" lon="8.0629843"><ele>157.0</ele><time>2026-05-02T08:27:46.006Z</time></trkpt><trkpt lat="45.1756039" lon="8.0630863"><ele>156.99999999999997</ele><time>2026-05-02T08:27:47.006Z</time></trkpt><trkpt lat="45.1756049" lon="8.0631901"><ele>157.0</ele><time>2026-05-02T08:27:48.005Z</time></trkpt><trkpt lat="45.1756071" lon="8.0632913"><ele>156.99999999999997</ele><time>2026-05-02T08:27:49Z</time></trkpt><trkpt lat="45.1756099" lon="8.0633875"><ele>157.0</ele><time>2026-05-02T08:27:49.996Z</time></trkpt><trkpt lat="45.1756123" lon="8.0634811"><ele>157.0</ele><time>2026-05-02T08:27:51.002Z</time></trkpt><trkpt lat="45.1756149" lon="8.0635735"><ele>157.0</ele><time>2026-05-02T08:27:52.005Z</time></trkpt><trkpt lat="45.1756187" lon="8.0636688"><ele>157.0</ele><time>2026-05-02T08:27:53.006Z</time></trkpt><trkpt lat="45.1756234" lon="8.0637649"><ele>156.99999999999997</ele><time>2026-05-02T08:27:53.997Z</time></trkpt><trkpt lat="45.1756293" lon="8.0638596"><ele>157.0</ele><time>2026-05-02T08:27:54.997Z</time></trkpt><trkpt lat="45.1756379" lon="8.063956"><ele>156.99999999999997</ele><time>2026-05-02T08:27:56.003Z</time></trkpt><trkpt lat="45.1756497" lon="8.0640532"><ele>157.0</ele><time>2026-05-02T08:27:56.999Z</time></trkpt><trkpt lat="45.1756677" lon="8.0641497"><ele>157.0</ele><time>2026-05-02T08:27:58.007Z</time></trkpt><trkpt lat="45.1756924" lon="8.0642431"><ele>157.0</ele><time>2026-05-02T08:27:59.002Z</time></trkpt><trkpt lat="45.1757248" lon="8.0643342"><ele>157.0</ele><time>2026-05-02T08:28:00.006Z</time></trkpt><trkpt lat="45.1757639" lon="8.0644213"><ele>156.99999999999997</ele><time>2026-05-02T08:28:01.006Z</time></trkpt><trkpt lat="45.1758067" lon="8.0645056"><ele>157.0</ele><time>2026-05-02T08:28:02.001Z</time></trkpt><trkpt lat="45.1758504" lon="8.0645882"><ele>156.7142857142857</ele><time>2026-05-02T08:28:03Z</time></trkpt><trkpt lat="45.1758948" lon="8.0646724"><ele>156.42857142857142</ele><time>2026-05-02T08:28:04.013Z</time></trkpt><trkpt lat="45.1759396" lon="8.0647599"><ele>156.14285714285714</ele><time>2026-05-02T08:28:05.002Z</time></trkpt><trkpt lat="45.1759827" lon="8.0648463"><ele>155.85714285714283</ele><time>2026-05-02T08:28:06.001Z</time></trkpt><trkpt lat="45.1760244" lon="8.0649322"><ele>155.57142857142856</ele><time>2026-05-02T08:28:07.009Z</time></trkpt><trkpt lat="45.1760645" lon="8.065018"><ele>155.28571428571428</ele><time>2026-05-02T08:28:08.015Z</time></trkpt><trkpt lat="45.1761027" lon="8.0651037"><ele>155.0</ele><time>2026-05-02T08:28:09.001Z</time></trkpt><trkpt lat="45.176141" lon="8.0651893"><ele>155.0</ele><time>2026-05-02T08:28:10.008Z</time></trkpt><trkpt lat="45.1761788" lon="8.0652763"><ele>155.0</ele><time>2026-05-02T08:28:10.993Z</time></trkpt><trkpt lat="45.176218" lon="8.0653657"><ele>155.0</ele><time>2026-05-02T08:28:12.004Z</time></trkpt><trkpt lat="45.1762585" lon="8.0654578"><ele>155.0</ele><time>2026-05-02T08:28:13.004Z</time></trkpt><trkpt lat="45.1762978" lon="8.06555"><ele>155.0</ele><time>2026-05-02T08:28:13.998Z</time></trkpt><trkpt lat="45.1763369" lon="8.0656411"><ele>155.0</ele><time>2026-05-02T08:28:15.004Z</time></trkpt><trkpt lat="45.176375" lon="8.0657335"><ele>155.0</ele><time>2026-05-02T08:28:16.004Z</time></trkpt><trkpt lat="45.1764123" lon="8.0658273"><ele>155.0</ele><time>2026-05-02T08:28:17.006Z</time></trkpt><trkpt lat="45.1764484" lon="8.0659203"><ele>155.0</ele><time>2026-05-02T08:28:17.999Z</time></trkpt><trkpt lat="45.1764851" lon="8.066012"><ele>155.0</ele><time>2026-05-02T08:28:19.001Z</time></trkpt><trkpt lat="45.1765213" lon="8.066102"><ele>155.0</ele><time>2026-05-02T08:28:20.007Z</time></trkpt><trkpt lat="45.1765573" lon="8.0661886"><ele>155.0</ele><time>2026-05-02T08:28:21.006Z</time></trkpt><trkpt lat="45.1765931" lon="8.0662743"><ele>155.0</ele><time>2026-05-02T08:28:22.002Z</time></trkpt><trkpt lat="45.1766288" lon="8.0663615"><ele>155.0</ele><time>2026-05-02T08:28:23.004Z</time></trkpt><trkpt lat="45.1766634" lon="8.0664498"><ele>154.85714285714286</ele><time>2026-05-02T08:28:24.002Z</time></trkpt><trkpt lat="45.1766958" lon="8.0665376"><ele>154.71428571428572</ele><time>2026-05-02T08:28:24.999Z</time></trkpt><trkpt lat="45.1767249" lon="8.0666304"><ele>154.57142857142856</ele><time>2026-05-02T08:28:26.002Z</time></trkpt><trkpt lat="45.1767487" lon="8.0667304"><ele>154.42857142857144</ele><time>2026-05-02T08:28:27.01Z</time></trkpt><trkpt lat="45.1767691" lon="8.0668331"><ele>154.28571428571428</ele><time>2026-05-02T08:28:28.001Z</time></trkpt><trkpt lat="45.1767876" lon="8.0669365"><ele>154.14285714285714</ele><time>2026-05-02T08:28:29.006Z</time></trkpt><trkpt lat="45.1768044" lon="8.0670406"><ele>154.0</ele><time>2026-05-02T08:28:30.009Z</time></trkpt><trkpt lat="45.1768202" lon="8.0671421"><ele>154.0</ele><time>2026-05-02T08:28:31.003Z</time></trkpt><trkpt lat="45.1768368" lon="8.0672411"><ele>154.0</ele><time>2026-05-02T08:28:32.007Z</time></trkpt><trkpt lat="45.1768525" lon="8.0673285"><ele>154.0</ele><time>2026-05-02T08:28:33.01Z</time></trkpt><trkpt lat="45.1768892" lon="8.0674482"><ele>154.0</ele><time>2026-05-02T08:28:35.003Z</time></trkpt><trkpt lat="45.1769415" lon="8.0675568"><ele>154.0</ele><time>2026-05-02T08:28:37.004Z</time></trkpt><trkpt lat="45.1770019" lon="8.0676694"><ele>154.0</ele><time>2026-05-02T08:28:39.005Z</time></trkpt><trkpt lat="45.1770599" lon="8.0678102"><ele>154.0</ele><time>2026-05-02T08:28:41.004Z</time></trkpt><trkpt lat="45.177109" lon="8.067954"><ele>154.0</ele><time>2026-05-02T08:28:43.003Z</time></trkpt><trkpt lat="45.1771559" lon="8.0680897"><ele>154.0</ele><time>2026-05-02T08:28:45.004Z</time></trkpt><trkpt lat="45.1772061" lon="8.0682314"><ele>154.0</ele><time>2026-05-02T08:28:47Z</time></trkpt><trkpt lat="45.1772621" lon="8.0683678"><ele>154.0</ele><time>2026-05-02T08:28:49.007Z</time></trkpt><trkpt lat="45.1773323" lon="8.068493"><ele>154.0</ele><time>2026-05-02T08:28:51Z</time></trkpt><trkpt lat="45.1774132" lon="8.0686057"><ele>154.0</ele><time>2026-05-02T08:28:53.002Z</time></trkpt><trkpt lat="45.1775085" lon="8.0686976"><ele>154.0</ele><time>2026-05-02T08:28:55.006Z</time></trkpt><trkpt lat="45.1776118" lon="8.0687716"><ele>154.0</ele><time>2026-05-02T08:28:57.001Z</time></trkpt><trkpt lat="45.1777183" lon="8.0688311"><ele>154.0</ele><time>2026-05-02T08:28:59.006Z</time></trkpt><trkpt lat="45.1778308" lon="8.0688784"><ele>154.0</ele><time>2026-05-02T08:29:01.008Z</time></trkpt><trkpt lat="45.177894" lon="8.068901"><ele>154.0</ele><time>2026-05-02T08:29:02.007Z</time></trkpt><trkpt lat="45.1779584" lon="8.0689203"><ele>154.0</ele><time>2026-05-02T08:29:03.007Z</time></trkpt><trkpt lat="45.1780266" lon="8.0689363"><ele>154.0</ele><time>2026-05-02T08:29:04.004Z</time></trkpt><trkpt lat="45.1780983" lon="8.0689526"><ele>154.0</ele><time>2026-05-02T08:29:04.998Z</time></trkpt><trkpt lat="45.1781722" lon="8.0689698"><ele>153.85714285714286</ele><time>2026-05-02T08:29:06.007Z</time></trkpt><trkpt lat="45.1782454" lon="8.0689856"><ele>153.71428571428572</ele><time>2026-05-02T08:29:07.005Z</time></trkpt><trkpt lat="45.1783146" lon="8.0689981"><ele>153.57142857142856</ele><time>2026-05-02T08:29:08.003Z</time></trkpt><trkpt lat="45.1783824" lon="8.0690066"><ele>153.42857142857144</ele><time>2026-05-02T08:29:09.011Z</time></trkpt><trkpt lat="45.1784508" lon="8.0690151"><ele>153.28571428571428</ele><time>2026-05-02T08:29:10.002Z</time></trkpt><trkpt lat="45.1785199" lon="8.0690239"><ele>153.14285714285714</ele><time>2026-05-02T08:29:11.009Z</time></trkpt><trkpt lat="45.1785889" lon="8.0690349"><ele>153.0</ele><time>2026-05-02T08:29:11.998Z</time></trkpt><trkpt lat="45.1786558" lon="8.0690463"><ele>153.0</ele><time>2026-05-02T08:29:13.008Z</time></trkpt><trkpt lat="45.1787655" lon="8.0690742"><ele>153.0</ele><time>2026-05-02T08:29:15.006Z</time></trkpt><trkpt lat="45.1788683" lon="8.0691349"><ele>153.0</ele><time>2026-05-02T08:29:16.999Z</time></trkpt><trkpt lat="45.1789659" lon="8.0692463"><ele>153.0</ele><time>2026-05-02T08:29:19.004Z</time></trkpt><trkpt lat="45.1790098" lon="8.0693179"><ele>153.0</ele><time>2026-05-02T08:29:20Z</time></trkpt><trkpt lat="45.1790485" lon="8.0693985"><ele>153.16666666666666</ele><time>2026-05-02T08:29:20.997Z</time></trkpt><trkpt lat="45.1790816" lon="8.0694868"><ele>153.33333333333334</ele><time>2026-05-02T08:29:22.013Z</time></trkpt><trkpt lat="45.1791074" lon="8.0695758"><ele>153.5</ele><time>2026-05-02T08:29:23.003Z</time></trkpt><trkpt lat="45.179133" lon="8.0697314"><ele>153.66666666666669</ele><time>2026-05-02T08:29:25.006Z</time></trkpt><trkpt lat="45.179159" lon="8.0698547"><ele>153.83333333333334</ele><time>2026-05-02T08:29:27.007Z</time></trkpt><trkpt lat="45.1791866" lon="8.0699839"><ele>154.0</ele><time>2026-05-02T08:29:28.994Z</time></trkpt><trkpt lat="45.1792166" lon="8.0701231"><ele>154.0</ele><time>2026-05-02T08:29:31.01Z</time></trkpt><trkpt lat="45.1792435" lon="8.0702933"><ele>154.0</ele><time>2026-05-02T08:29:33.011Z</time></trkpt><trkpt lat="45.1792554" lon="8.0703902"><ele>154.0</ele><time>2026-05-02T08:29:34.007Z</time></trkpt><trkpt lat="45.1792659" lon="8.0704915"><ele>154.0</ele><time>2026-05-02T08:29:35.004Z</time></trkpt><trkpt lat="45.1792774" lon="8.0705938"><ele>154.0</ele><time>2026-05-02T08:29:36.002Z</time></trkpt><trkpt lat="45.1792894" lon="8.0706924"><ele>154.0</ele><time>2026-05-02T08:29:37.002Z</time></trkpt><trkpt lat="45.1793037" lon="8.0707862"><ele>154.0</ele><time>2026-05-02T08:29:38.006Z</time></trkpt><trkpt lat="45.1793199" lon="8.0708771"><ele>154.0</ele><time>2026-05-02T08:29:39.015Z</time></trkpt><trkpt lat="45.1793356" lon="8.0709679"><ele>154.0</ele><time>2026-05-02T08:29:39.997Z</time></trkpt><trkpt lat="45.1793472" lon="8.0710688"><ele>154.0</ele><time>2026-05-02T08:29:40.997Z</time></trkpt><trkpt lat="45.1793573" lon="8.071175"><ele>154.0</ele><time>2026-05-02T08:29:42.002Z</time></trkpt><trkpt lat="45.1793692" lon="8.0712824"><ele>154.0</ele><time>2026-05-02T08:29:43.005Z</time></trkpt><trkpt lat="45.1793793" lon="8.0713912"><ele>154.0</ele><time>2026-05-02T08:29:43.998Z</time></trkpt><trkpt lat="45.1793894" lon="8.0715048"><ele>154.16666666666669</ele><time>2026-05-02T08:29:44.999Z</time></trkpt><trkpt lat="45.1793997" lon="8.0716188"><ele>154.33333333333334</ele><time>2026-05-02T08:29:45.998Z</time></trkpt><trkpt lat="45.179411" lon="8.0717373"><ele>154.5</ele><time>2026-05-02T08:29:47.003Z</time></trkpt><trkpt lat="45.179425" lon="8.0718588"><ele>154.66666666666666</ele><time>2026-05-02T08:29:48Z</time></trkpt><trkpt lat="45.1794378" lon="8.0719799"><ele>154.83333333333331</ele><time>2026-05-02T08:29:49Z</time></trkpt><trkpt lat="45.1794495" lon="8.0721005"><ele>155.0</ele><time>2026-05-02T08:29:50.003Z</time></trkpt><trkpt lat="45.1794638" lon="8.0722222"><ele>155.0</ele><time>2026-05-02T08:29:50.999Z</time></trkpt><trkpt lat="45.1794795" lon="8.0723469"><ele>155.0</ele><time>2026-05-02T08:29:51.997Z</time></trkpt><trkpt lat="45.1794974" lon="8.0724706"><ele>155.0</ele><time>2026-05-02T08:29:53.002Z</time></trkpt><trkpt lat="45.1795129" lon="8.0725871"><ele>155.0</ele><time>2026-05-02T08:29:54.008Z</time></trkpt><trkpt lat="45.179528" lon="8.0727004"><ele>155.0</ele><time>2026-05-02T08:29:55.004Z</time></trkpt><trkpt lat="45.1795338" lon="8.0728089"><ele>155.0</ele><time>2026-05-02T08:29:56.002Z</time></trkpt><trkpt lat="45.1795361" lon="8.0729209"><ele>155.0</ele><time>2026-05-02T08:29:57.003Z</time></trkpt><trkpt lat="45.1795363" lon="8.0730311"><ele>155.0</ele><time>2026-05-02T08:29:57.999Z</time></trkpt><trkpt lat="45.1795195" lon="8.0731453"><ele>155.0</ele><time>2026-05-02T08:29:59.003Z</time></trkpt><trkpt lat="45.1794979" lon="8.0732526"><ele>155.0</ele><time>2026-05-02T08:30:00.002Z</time></trkpt><trkpt lat="45.1794735" lon="8.0733563"><ele>155.0</ele><time>2026-05-02T08:30:01.006Z</time></trkpt><trkpt lat="45.1794489" lon="8.0734605"><ele>155.0</ele><time>2026-05-02T08:30:02.007Z</time></trkpt><trkpt lat="45.179424" lon="8.0735733"><ele>155.0</ele><time>2026-05-02T08:30:03.003Z</time></trkpt><trkpt lat="45.1793912" lon="8.0736933"><ele>155.0</ele><time>2026-05-02T08:30:03.997Z</time></trkpt><trkpt lat="45.179352" lon="8.0738173"><ele>155.0</ele><time>2026-05-02T08:30:04.997Z</time></trkpt><trkpt lat="45.1793088" lon="8.0739438"><ele>155.0</ele><time>2026-05-02T08:30:05.998Z</time></trkpt><trkpt lat="45.1792582" lon="8.074069"><ele>155.0</ele><time>2026-05-02T08:30:07.001Z</time></trkpt><trkpt lat="45.1792018" lon="8.074194"><ele>155.0</ele><time>2026-05-02T08:30:08.003Z</time></trkpt><trkpt lat="45.179141" lon="8.0743181"><ele>155.0</ele><time>2026-05-02T08:30:09.011Z</time></trkpt><trkpt lat="45.1790789" lon="8.0744435"><ele>155.0</ele><time>2026-05-02T08:30:09.998Z</time></trkpt><trkpt lat="45.1790161" lon="8.0745742"><ele>155.0</ele><time>2026-05-02T08:30:11.003Z</time></trkpt><trkpt lat="45.1789502" lon="8.0747043"><ele>155.0</ele><time>2026-05-02T08:30:12.007Z</time></trkpt><trkpt lat="45.1788796" lon="8.0748336"><ele>154.25</ele><time>2026-05-02T08:30:13.001Z</time></trkpt><trkpt lat="45.1788075" lon="8.0749612"><ele>153.5</ele><time>2026-05-02T08:30:14.001Z</time></trkpt><trkpt lat="45.1787311" lon="8.0750886"><ele>152.75</ele><time>2026-05-02T08:30:15.014Z</time></trkpt><trkpt lat="45.1786524" lon="8.0752152"><ele>152.0</ele><time>2026-05-02T08:30:16Z</time></trkpt><trkpt lat="45.1785716" lon="8.0753368"><ele>152.0</ele><time>2026-05-02T08:30:17.008Z</time></trkpt><trkpt lat="45.1784862" lon="8.0754578"><ele>152.0</ele><time>2026-05-02T08:30:18.021Z</time></trkpt><trkpt lat="45.1783986" lon="8.0755807"><ele>152.0</ele><time>2026-05-02T08:30:19.002Z</time></trkpt><trkpt lat="45.1783113" lon="8.075706"><ele>152.0</ele><time>2026-05-02T08:30:20.006Z</time></trkpt><trkpt lat="45.1782267" lon="8.075835"><ele>152.25</ele><time>2026-05-02T08:30:21.005Z</time></trkpt><trkpt lat="45.1781462" lon="8.0759653"><ele>152.5</ele><time>2026-05-02T08:30:22.01Z</time></trkpt><trkpt lat="45.1780709" lon="8.0760993"><ele>152.75</ele><time>2026-05-02T08:30:23.004Z</time></trkpt><trkpt lat="45.1780013" lon="8.0762361"><ele>153.0</ele><time>2026-05-02T08:30:24.002Z</time></trkpt><trkpt lat="45.1779374" lon="8.07637"><ele>153.0</ele><time>2026-05-02T08:30:25.008Z</time></trkpt><trkpt lat="45.1778721" lon="8.0765018"><ele>153.0</ele><time>2026-05-02T08:30:26.002Z</time></trkpt><trkpt lat="45.177809" lon="8.0766351"><ele>153.0</ele><time>2026-05-02T08:30:26.997Z</time></trkpt><trkpt lat="45.1777481" lon="8.076772"><ele>153.0</ele><time>2026-05-02T08:30:28.009Z</time></trkpt><trkpt lat="45.1776871" lon="8.076911"><ele>153.0</ele><time>2026-05-02T08:30:29.015Z</time></trkpt><trkpt lat="45.1776279" lon="8.0770521"><ele>153.0</ele><time>2026-05-02T08:30:29.998Z</time></trkpt><trkpt lat="45.1775715" lon="8.077196"><ele>153.0</ele><time>2026-05-02T08:30:31.004Z</time></trkpt><trkpt lat="45.1775155" lon="8.0773401"><ele>153.0</ele><time>2026-05-02T08:30:32.004Z</time></trkpt><trkpt lat="45.1774591" lon="8.0774844"><ele>153.0</ele><time>2026-05-02T08:30:33.005Z</time></trkpt><trkpt lat="45.1774032" lon="8.0776324"><ele>153.0</ele><time>2026-05-02T08:30:34.001Z</time></trkpt><trkpt lat="45.1773456" lon="8.0777808"><ele>153.0</ele><time>2026-05-02T08:30:35.014Z</time></trkpt><trkpt lat="45.1772855" lon="8.0779267"><ele>153.0</ele><time>2026-05-02T08:30:36.012Z</time></trkpt><trkpt lat="45.1772249" lon="8.0780746"><ele>152.75</ele><time>2026-05-02T08:30:37.007Z</time></trkpt><trkpt lat="45.1771655" lon="8.0782221"><ele>152.5</ele><time>2026-05-02T08:30:38.007Z</time></trkpt><trkpt lat="45.1771076" lon="8.0783684"><ele>152.25</ele><time>2026-05-02T08:30:39.008Z</time></trkpt><trkpt lat="45.1770497" lon="8.0785107"><ele>152.0</ele><time>2026-05-02T08:30:40.006Z</time></trkpt><trkpt lat="45.1770005" lon="8.0786472"><ele>152.0</ele><time>2026-05-02T08:30:41Z</time></trkpt><trkpt lat="45.1769503" lon="8.0787855"><ele>152.0</ele><time>2026-05-02T08:30:42.007Z</time></trkpt><trkpt lat="45.1769013" lon="8.0789232"><ele>152.0</ele><time>2026-05-02T08:30:43.005Z</time></trkpt><trkpt lat="45.1768511" lon="8.0790608"><ele>152.0</ele><time>2026-05-02T08:30:43.998Z</time></trkpt><trkpt lat="45.1768008" lon="8.0791967"><ele>152.0</ele><time>2026-05-02T08:30:45.005Z</time></trkpt><trkpt lat="45.1767511" lon="8.0793312"><ele>152.0</ele><time>2026-05-02T08:30:46.006Z</time></trkpt><trkpt lat="45.1767033" lon="8.0794651"><ele>152.0</ele><time>2026-05-02T08:30:47.006Z</time></trkpt><trkpt lat="45.1766564" lon="8.0795961"><ele>152.0</ele><time>2026-05-02T08:30:48.003Z</time></trkpt><trkpt lat="45.1766125" lon="8.0797186"><ele>152.0</ele><time>2026-05-02T08:30:49.002Z</time></trkpt><trkpt lat="45.1765725" lon="8.0798327"><ele>152.0</ele><time>2026-05-02T08:30:50.001Z</time></trkpt><trkpt lat="45.1765411" lon="8.079938"><ele>151.83333333333331</ele><time>2026-05-02T08:30:51.006Z</time></trkpt><trkpt lat="45.1765139" lon="8.0800345"><ele>151.66666666666666</ele><time>2026-05-02T08:30:52.006Z</time></trkpt><trkpt lat="45.1764905" lon="8.0801177"><ele>151.5</ele><time>2026-05-02T08:30:52.999Z</time></trkpt><trkpt lat="45.176452" lon="8.0802481"><ele>151.33333333333334</ele><time>2026-05-02T08:30:55.006Z</time></trkpt><trkpt lat="45.1763747" lon="8.0802991"><ele>151.16666666666669</ele><time>2026-05-02T08:30:58.008Z</time></trkpt><trkpt lat="45.1762639" lon="8.0802325"><ele>151.0</ele><time>2026-05-02T08:31:00.003Z</time></trkpt><trkpt lat="45.1761863" lon="8.0801775"><ele>151.0</ele><time>2026-05-02T08:31:01.002Z</time></trkpt><trkpt lat="45.1761001" lon="8.0801173"><ele>151.0</ele><time>2026-05-02T08:31:02.006Z</time></trkpt><trkpt lat="45.1760046" lon="8.0800503"><ele>151.0</ele><time>2026-05-02T08:31:03.005Z</time></trkpt><trkpt lat="45.1758989" lon="8.0799796"><ele>151.0</ele><time>2026-05-02T08:31:04.008Z</time></trkpt><trkpt lat="45.1757878" lon="8.0799027"><ele>151.0</ele><time>2026-05-02T08:31:05.003Z</time></trkpt><trkpt lat="45.1756773" lon="8.0798242"><ele>151.2</ele><time>2026-05-02T08:31:06.003Z</time></trkpt><trkpt lat="45.1755734" lon="8.0797509"><ele>151.39999999999998</ele><time>2026-05-02T08:31:07.003Z</time></trkpt><trkpt lat="45.1754775" lon="8.0796812"><ele>151.6</ele><time>2026-05-02T08:31:08.01Z</time></trkpt><trkpt lat="45.175388" lon="8.0796093"><ele>151.79999999999998</ele><time>2026-05-02T08:31:09.006Z</time></trkpt><trkpt lat="45.1752947" lon="8.0795426"><ele>152.0</ele><time>2026-05-02T08:31:10.006Z</time></trkpt><trkpt lat="45.1751981" lon="8.0794811"><ele>152.0</ele><time>2026-05-02T08:31:11.017Z</time></trkpt><trkpt lat="45.1750992" lon="8.0794173"><ele>152.0</ele><time>2026-05-02T08:31:12.005Z</time></trkpt><trkpt lat="45.1750006" lon="8.0793486"><ele>152.0</ele><time>2026-05-02T08:31:13.017Z</time></trkpt><trkpt lat="45.1749023" lon="8.0792802"><ele>152.0</ele><time>2026-05-02T08:31:14.011Z</time></trkpt><trkpt lat="45.1748051" lon="8.0792096"><ele>152.0</ele><time>2026-05-02T08:31:15.013Z</time></trkpt><trkpt lat="45.1747058" lon="8.0791397"><ele>152.2</ele><time>2026-05-02T08:31:16.012Z</time></trkpt><trkpt lat="45.1746093" lon="8.0790744"><ele>152.39999999999998</ele><time>2026-05-02T08:31:17.001Z</time></trkpt><trkpt lat="45.1745121" lon="8.0790093"><ele>152.60000000000002</ele><time>2026-05-02T08:31:18.013Z</time></trkpt><trkpt lat="45.1744124" lon="8.0789497"><ele>152.8</ele><time>2026-05-02T08:31:19.003Z</time></trkpt><trkpt lat="45.174317" lon="8.078884"><ele>153.0</ele><time>2026-05-02T08:31:20.011Z</time></trkpt><trkpt lat="45.1742235" lon="8.0788201"><ele>153.0</ele><time>2026-05-02T08:31:21.005Z</time></trkpt><trkpt lat="45.1741462" lon="8.0787578"><ele>153.0</ele><time>2026-05-02T08:31:22.002Z</time></trkpt><trkpt lat="45.174089" lon="8.0786908"><ele>153.0</ele><time>2026-05-02T08:31:23.013Z</time></trkpt><trkpt lat="45.1740443" lon="8.0786104"><ele>153.0</ele><time>2026-05-02T08:31:24.01Z</time></trkpt><trkpt lat="45.1740026" lon="8.078515"><ele>153.0</ele><time>2026-05-02T08:31:25.003Z</time></trkpt><trkpt lat="45.1739607" lon="8.0784079"><ele>153.0</ele><time>2026-05-02T08:31:26.002Z</time></trkpt><trkpt lat="45.1739168" lon="8.0782935"><ele>152.83333333333334</ele><time>2026-05-02T08:31:27.005Z</time></trkpt><trkpt lat="45.1738718" lon="8.0781754"><ele>152.66666666666666</ele><time>2026-05-02T08:31:27.997Z</time></trkpt><trkpt lat="45.1738287" lon="8.0780538"><ele>152.5</ele><time>2026-05-02T08:31:28.998Z</time></trkpt><trkpt lat="45.1737902" lon="8.0779405"><ele>152.33333333333331</ele><time>2026-05-02T08:31:30.005Z</time></trkpt><trkpt lat="45.173754" lon="8.0778357"><ele>152.16666666666666</ele><time>2026-05-02T08:31:31.005Z</time></trkpt><trkpt lat="45.1737303" lon="8.0777409"><ele>152.0</ele><time>2026-05-02T08:31:32.011Z</time></trkpt><trkpt lat="45.1737184" lon="8.0776514"><ele>152.0</ele><time>2026-05-02T08:31:33.006Z</time></trkpt><trkpt lat="45.1737246" lon="8.0774723"><ele>152.0</ele><time>2026-05-02T08:31:35.023Z</time></trkpt><trkpt lat="45.1737398" lon="8.0773738"><ele>152.0</ele><time>2026-05-02T08:31:36.006Z</time></trkpt><trkpt lat="45.1737615" lon="8.0772709"><ele>152.0</ele><time>2026-05-02T08:31:37.005Z</time></trkpt><trkpt lat="45.1737853" lon="8.0771595"><ele>152.0</ele><time>2026-05-02T08:31:38.002Z</time></trkpt><trkpt lat="45.1738152" lon="8.0770501"><ele>152.0</ele><time>2026-05-02T08:31:39.007Z</time></trkpt><trkpt lat="45.1738475" lon="8.0769393"><ele>151.83333333333331</ele><time>2026-05-02T08:31:40.005Z</time></trkpt><trkpt lat="45.173882" lon="8.076826"><ele>151.66666666666666</ele><time>2026-05-02T08:31:41.005Z</time></trkpt><trkpt lat="45.1739171" lon="8.0767106"><ele>151.5</ele><time>2026-05-02T08:31:42.007Z</time></trkpt><trkpt lat="45.1739501" lon="8.0765985"><ele>151.33333333333334</ele><time>2026-05-02T08:31:43.006Z</time></trkpt><trkpt lat="45.1739745" lon="8.0764829"><ele>151.16666666666669</ele><time>2026-05-02T08:31:44.004Z</time></trkpt><trkpt lat="45.173997" lon="8.0763681"><ele>151.0</ele><time>2026-05-02T08:31:45.004Z</time></trkpt><trkpt lat="45.1740204" lon="8.0762507"><ele>151.16666666666669</ele><time>2026-05-02T08:31:46.014Z</time></trkpt><trkpt lat="45.1740423" lon="8.0761273"><ele>151.33333333333334</ele><time>2026-05-02T08:31:47.008Z</time></trkpt><trkpt lat="45.1740636" lon="8.0760008"><ele>151.5</ele><time>2026-05-02T08:31:48.008Z</time></trkpt><trkpt lat="45.1740875" lon="8.0758701"><ele>151.66666666666666</ele><time>2026-05-02T08:31:49.011Z</time></trkpt><trkpt lat="45.1741096" lon="8.0757439"><ele>151.83333333333331</ele><time>2026-05-02T08:31:50Z</time></trkpt><trkpt lat="45.1741271" lon="8.0756388"><ele>152.0</ele><time>2026-05-02T08:31:50.996Z</time></trkpt><trkpt lat="45.1741497" lon="8.0754821"><ele>152.0</ele><time>2026-05-02T08:31:53.009Z</time></trkpt><trkpt lat="45.1741729" lon="8.0753627"><ele>152.0</ele><time>2026-05-02T08:31:55.009Z</time></trkpt><trkpt lat="45.1741928" lon="8.0752569"><ele>152.0</ele><time>2026-05-02T08:31:56.995Z</time></trkpt><trkpt lat="45.1742344" lon="8.075158"><ele>152.0</ele><time>2026-05-02T08:33:25.003Z</time></trkpt><trkpt lat="45.1742552" lon="8.0750488"><ele>152.0</ele><time>2026-05-02T08:33:26.999Z</time></trkpt><trkpt lat="45.1742676" lon="8.0749135"><ele>152.0</ele><time>2026-05-02T08:33:29.011Z</time></trkpt><trkpt lat="45.1742775" lon="8.0747248"><ele>152.33333333333331</ele><time>2026-05-02T08:33:31.004Z</time></trkpt><trkpt lat="45.174282" lon="8.0746138"><ele>152.66666666666666</ele><time>2026-05-02T08:33:32.005Z</time></trkpt><trkpt lat="45.1742864" lon="8.0745053"><ele>153.0</ele><time>2026-05-02T08:33:33.01Z</time></trkpt><trkpt lat="45.1742902" lon="8.0744118"><ele>153.33333333333334</ele><time>2026-05-02T08:33:34.003Z</time></trkpt><trkpt lat="45.1742879" lon="8.0742512"><ele>153.66666666666669</ele><time>2026-05-02T08:33:35.998Z</time></trkpt><trkpt lat="45.1742467" lon="8.074111"><ele>154.0</ele><time>2026-05-02T08:33:38.007Z</time></trkpt><trkpt lat="45.1741582" lon="8.0740195"><ele>154.4</ele><time>2026-05-02T08:33:40.006Z</time></trkpt><trkpt lat="45.1740519" lon="8.0739872"><ele>154.8</ele><time>2026-05-02T08:33:42.008Z</time></trkpt><trkpt lat="45.1739487" lon="8.0739738"><ele>155.2</ele><time>2026-05-02T08:33:44.014Z</time></trkpt><trkpt lat="45.1738353" lon="8.0739907"><ele>155.6</ele><time>2026-05-02T08:33:46.007Z</time></trkpt><trkpt lat="45.1737194" lon="8.0740354"><ele>156.0</ele><time>2026-05-02T08:33:48.008Z</time></trkpt><trkpt lat="45.1736563" lon="8.0740687"><ele>155.6</ele><time>2026-05-02T08:33:49.02Z</time></trkpt><trkpt lat="45.1735903" lon="8.0741145"><ele>155.2</ele><time>2026-05-02T08:33:50.022Z</time></trkpt><trkpt lat="45.1735258" lon="8.0741599"><ele>154.8</ele><time>2026-05-02T08:33:51.026Z</time></trkpt><trkpt lat="45.1734189" lon="8.0742263"><ele>154.4</ele><time>2026-05-02T08:33:53.008Z</time></trkpt><trkpt lat="45.1733022" lon="8.0742909"><ele>154.0</ele><time>2026-05-02T08:33:55.005Z</time></trkpt><trkpt lat="45.1732371" lon="8.0743292"><ele>154.14285714285714</ele><time>2026-05-02T08:33:56.017Z</time></trkpt><trkpt lat="45.1731723" lon="8.0743726"><ele>154.28571428571428</ele><time>2026-05-02T08:33:57.023Z</time></trkpt><trkpt lat="45.1731096" lon="8.0744158"><ele>154.42857142857144</ele><time>2026-05-02T08:33:58.022Z</time></trkpt><trkpt lat="45.173051" lon="8.0744639"><ele>154.57142857142856</ele><time>2026-05-02T08:33:59.011Z</time></trkpt><trkpt lat="45.1729971" lon="8.0745302"><ele>154.71428571428572</ele><time>2026-05-02T08:34:00.002Z</time></trkpt><trkpt lat="45.1729526" lon="8.0746135"><ele>154.85714285714286</ele><time>2026-05-02T08:34:01.02Z</time></trkpt><trkpt lat="45.1729172" lon="8.0747168"><ele>155.0</ele><time>2026-05-02T08:34:02.012Z</time></trkpt><trkpt lat="45.1728896" lon="8.0748357"><ele>154.6</ele><time>2026-05-02T08:34:03.023Z</time></trkpt><trkpt lat="45.1728728" lon="8.0749696"><ele>154.2</ele><time>2026-05-02T08:34:04.003Z</time></trkpt><trkpt lat="45.1728618" lon="8.0751074"><ele>153.8</ele><time>2026-05-02T08:34:05.021Z</time></trkpt><trkpt lat="45.1728425" lon="8.0752408"><ele>153.4</ele><time>2026-05-02T08:34:06.011Z</time></trkpt><trkpt lat="45.1728111" lon="8.0753866"><ele>153.0</ele><time>2026-05-02T08:34:07.013Z</time></trkpt><trkpt lat="45.1727684" lon="8.0755514"><ele>153.0</ele><time>2026-05-02T08:34:08.009Z</time></trkpt><trkpt lat="45.1727135" lon="8.0757385"><ele>153.0</ele><time>2026-05-02T08:34:09.018Z</time></trkpt><trkpt lat="45.172658" lon="8.0759387"><ele>153.0</ele><time>2026-05-02T08:34:10.003Z</time></trkpt><trkpt lat="45.1726123" lon="8.0761256"><ele>153.0</ele><time>2026-05-02T08:34:11.007Z</time></trkpt><trkpt lat="45.172575" lon="8.0762974"><ele>153.0</ele><time>2026-05-02T08:34:11.998Z</time></trkpt><trkpt lat="45.1725449" lon="8.0764642"><ele>153.0</ele><time>2026-05-02T08:34:13.004Z</time></trkpt><trkpt lat="45.1725173" lon="8.0766222"><ele>153.0</ele><time>2026-05-02T08:34:14.01Z</time></trkpt><trkpt lat="45.172492" lon="8.0767707"><ele>153.0</ele><time>2026-05-02T08:34:14.998Z</time></trkpt><trkpt lat="45.1724675" lon="8.0769089"><ele>153.0</ele><time>2026-05-02T08:34:16.002Z</time></trkpt><trkpt lat="45.1724417" lon="8.0770399"><ele>152.8</ele><time>2026-05-02T08:34:17.009Z</time></trkpt><trkpt lat="45.1724145" lon="8.0771677"><ele>152.60000000000002</ele><time>2026-05-02T08:34:18.003Z</time></trkpt><trkpt lat="45.1723889" lon="8.0772946"><ele>152.39999999999998</ele><time>2026-05-02T08:34:19.003Z</time></trkpt><trkpt lat="45.1723648" lon="8.0774191"><ele>152.2</ele><time>2026-05-02T08:34:20.004Z</time></trkpt><trkpt lat="45.1723424" lon="8.0775389"><ele>152.0</ele><time>2026-05-02T08:34:21.001Z</time></trkpt><trkpt lat="45.1723192" lon="8.077657"><ele>152.5</ele><time>2026-05-02T08:34:22Z</time></trkpt><trkpt lat="45.1722927" lon="8.0777727"><ele>153.0</ele><time>2026-05-02T08:34:23.013Z</time></trkpt><trkpt lat="45.1722638" lon="8.0778849"><ele>153.5</ele><time>2026-05-02T08:34:24.004Z</time></trkpt><trkpt lat="45.1722352" lon="8.0779927"><ele>154.0</ele><time>2026-05-02T08:34:25.004Z</time></trkpt><trkpt lat="45.1722049" lon="8.0780947"><ele>154.5</ele><time>2026-05-02T08:34:26.001Z</time></trkpt><trkpt lat="45.1721606" lon="8.0781936"><ele>155.0</ele><time>2026-05-02T08:34:26.999Z</time></trkpt><trkpt lat="45.1721092" lon="8.0782773"><ele>155.14285714285714</ele><time>2026-05-02T08:34:28.01Z</time></trkpt><trkpt lat="45.1720506" lon="8.0783536"><ele>155.28571428571428</ele><time>2026-05-02T08:34:29.004Z</time></trkpt><trkpt lat="45.1719874" lon="8.0784157"><ele>155.42857142857144</ele><time>2026-05-02T08:34:30.003Z</time></trkpt><trkpt lat="45.1719251" lon="8.0784592"><ele>155.57142857142856</ele><time>2026-05-02T08:34:31.01Z</time></trkpt><trkpt lat="45.1718689" lon="8.0785026"><ele>155.7142857142857</ele><time>2026-05-02T08:34:32.001Z</time></trkpt><trkpt lat="45.1718173" lon="8.0785588"><ele>155.85714285714286</ele><time>2026-05-02T08:34:33.003Z</time></trkpt><trkpt lat="45.1717774" lon="8.0786314"><ele>156.0</ele><time>2026-05-02T08:34:34.007Z</time></trkpt><trkpt lat="45.1717492" lon="8.0787181"><ele>156.0</ele><time>2026-05-02T08:34:35.003Z</time></trkpt><trkpt lat="45.1717299" lon="8.078807"><ele>156.0</ele><time>2026-05-02T08:34:36.006Z</time></trkpt><trkpt lat="45.1716903" lon="8.0789549"><ele>156.0</ele><time>2026-05-02T08:34:38.002Z</time></trkpt><trkpt lat="45.1716205" lon="8.0790718"><ele>156.0</ele><time>2026-05-02T08:34:40.015Z</time></trkpt><trkpt lat="45.1715656" lon="8.0791191"><ele>156.0</ele><time>2026-05-02T08:34:41.018Z</time></trkpt><trkpt lat="45.1715079" lon="8.0791582"><ele>156.0</ele><time>2026-05-02T08:34:42.01Z</time></trkpt><trkpt lat="45.1714501" lon="8.079206"><ele>155.66666666666666</ele><time>2026-05-02T08:34:43.004Z</time></trkpt><trkpt lat="45.1713961" lon="8.0792648"><ele>155.33333333333334</ele><time>2026-05-02T08:34:44.002Z</time></trkpt><trkpt lat="45.1713489" lon="8.079334"><ele>155.0</ele><time>2026-05-02T08:34:45.01Z</time></trkpt><trkpt lat="45.1713069" lon="8.0794078"><ele>154.66666666666669</ele><time>2026-05-02T08:34:46.002Z</time></trkpt><trkpt lat="45.1712264" lon="8.0795297"><ele>154.33333333333334</ele><time>2026-05-02T08:34:48.004Z</time></trkpt><trkpt lat="45.1711259" lon="8.079601"><ele>154.0</ele><time>2026-05-02T08:34:50.003Z</time></trkpt><trkpt lat="45.1710091" lon="8.0796151"><ele>154.0</ele><time>2026-05-02T08:34:52.007Z</time></trkpt><trkpt lat="45.1709005" lon="8.0795892"><ele>154.0</ele><time>2026-05-02T08:34:54.018Z</time></trkpt><trkpt lat="45.1708356" lon="8.079565"><ele>154.0</ele><time>2026-05-02T08:34:55.015Z</time></trkpt><trkpt lat="45.1707654" lon="8.0795308"><ele>154.0</ele><time>2026-05-02T08:34:56Z</time></trkpt><trkpt lat="45.170685" lon="8.0794878"><ele>154.0</ele><time>2026-05-02T08:34:57.004Z</time></trkpt><trkpt lat="45.1705984" lon="8.0794387"><ele>154.0</ele><time>2026-05-02T08:34:58.015Z</time></trkpt><trkpt lat="45.1705015" lon="8.0793818"><ele>153.5</ele><time>2026-05-02T08:34:59.005Z</time></trkpt><trkpt lat="45.1703868" lon="8.0793203"><ele>153.0</ele><time>2026-05-02T08:35:00.003Z</time></trkpt><trkpt lat="45.170266" lon="8.0792525"><ele>152.5</ele><time>2026-05-02T08:35:01.005Z</time></trkpt><trkpt lat="45.1701271" lon="8.0791804"><ele>152.0</ele><time>2026-05-02T08:35:02.013Z</time></trkpt><trkpt lat="45.1700013" lon="8.0791096"><ele>152.4</ele><time>2026-05-02T08:35:03.01Z</time></trkpt><trkpt lat="45.1698891" lon="8.0790485"><ele>152.79999999999998</ele><time>2026-05-02T08:35:04.017Z</time></trkpt><trkpt lat="45.1697934" lon="8.0789958"><ele>153.2</ele><time>2026-05-02T08:35:05.013Z</time></trkpt><trkpt lat="45.1697049" lon="8.0789458"><ele>153.6</ele><time>2026-05-02T08:35:06.018Z</time></trkpt><trkpt lat="45.1696289" lon="8.0789032"><ele>154.0</ele><time>2026-05-02T08:35:07.024Z</time></trkpt><trkpt lat="45.1695605" lon="8.0788688"><ele>154.0</ele><time>2026-05-02T08:35:08.012Z</time></trkpt><trkpt lat="45.169497" lon="8.078842"><ele>154.0</ele><time>2026-05-02T08:35:09.006Z</time></trkpt><trkpt lat="45.1694041" lon="8.0788403"><ele>154.0</ele><time>2026-05-02T08:35:11.006Z</time></trkpt><trkpt lat="45.1693424" lon="8.0788954"><ele>154.0</ele><time>2026-05-02T08:35:13.003Z</time></trkpt><trkpt lat="45.1693149" lon="8.0790162"><ele>154.0</ele><time>2026-05-02T08:35:15.01Z</time></trkpt><trkpt lat="45.1693058" lon="8.0791991"><ele>154.8</ele><time>2026-05-02T08:35:17.019Z</time></trkpt><trkpt lat="45.1693001" lon="8.0793139"><ele>155.60000000000002</ele><time>2026-05-02T08:35:18.002Z</time></trkpt><trkpt lat="45.1692927" lon="8.0794407"><ele>156.4</ele><time>2026-05-02T08:35:19.021Z</time></trkpt><trkpt lat="45.1692781" lon="8.0795923"><ele>157.20000000000002</ele><time>2026-05-02T08:35:20.006Z</time></trkpt><trkpt lat="45.1692575" lon="8.0797593"><ele>158.0</ele><time>2026-05-02T08:35:21.006Z</time></trkpt><trkpt lat="45.1692368" lon="8.0799378"><ele>158.0</ele><time>2026-05-02T08:35:22.01Z</time></trkpt><trkpt lat="45.1692164" lon="8.0801294"><ele>158.0</ele><time>2026-05-02T08:35:23.011Z</time></trkpt><trkpt lat="45.1691962" lon="8.08032"><ele>158.0</ele><time>2026-05-02T08:35:24.003Z</time></trkpt><trkpt lat="45.1691768" lon="8.0804956"><ele>158.0</ele><time>2026-05-02T08:35:25.013Z</time></trkpt><trkpt lat="45.1691587" lon="8.0806608"><ele>157.16666666666666</ele><time>2026-05-02T08:35:26.006Z</time></trkpt><trkpt lat="45.1691415" lon="8.0808127"><ele>156.33333333333331</ele><time>2026-05-02T08:35:27.005Z</time></trkpt><trkpt lat="45.1691261" lon="8.0809448"><ele>155.5</ele><time>2026-05-02T08:35:28.009Z</time></trkpt><trkpt lat="45.1691123" lon="8.0810624"><ele>154.66666666666666</ele><time>2026-05-02T08:35:29.002Z</time></trkpt><trkpt lat="45.1691015" lon="8.081163"><ele>153.83333333333334</ele><time>2026-05-02T08:35:30.005Z</time></trkpt><trkpt lat="45.1690927" lon="8.081254"><ele>153.0</ele><time>2026-05-02T08:35:31.01Z</time></trkpt><trkpt lat="45.1690771" lon="8.0814098"><ele>153.0</ele><time>2026-05-02T08:35:33.009Z</time></trkpt><trkpt lat="45.1690416" lon="8.0814969"><ele>153.0</ele><time>2026-05-02T08:35:36.009Z</time></trkpt><trkpt lat="45.1689876" lon="8.0814479"><ele>153.0</ele><time>2026-05-02T08:35:46.007Z</time></trkpt><trkpt lat="45.168892" lon="8.0813523"><ele>153.0</ele><time>2026-05-02T08:35:47.999Z</time></trkpt><trkpt lat="45.1688227" lon="8.0812742"><ele>153.0</ele><time>2026-05-02T08:35:48.999Z</time></trkpt><trkpt lat="45.1687433" lon="8.0811884"><ele>153.0</ele><time>2026-05-02T08:35:50.001Z</time></trkpt><trkpt lat="45.1686513" lon="8.0810925"><ele>153.0</ele><time>2026-05-02T08:35:51.007Z</time></trkpt><trkpt lat="45.1685441" lon="8.0809849"><ele>153.0</ele><time>2026-05-02T08:35:52.001Z</time></trkpt><trkpt lat="45.1684327" lon="8.0808679"><ele>153.0</ele><time>2026-05-02T08:35:53.012Z</time></trkpt><trkpt lat="45.1683162" lon="8.0807469"><ele>153.0</ele><time>2026-05-02T08:35:54.013Z</time></trkpt><trkpt lat="45.1681959" lon="8.0806217"><ele>153.25</ele><time>2026-05-02T08:35:55.017Z</time></trkpt><trkpt lat="45.1680824" lon="8.0805016"><ele>153.5</ele><time>2026-05-02T08:35:56.013Z</time></trkpt><trkpt lat="45.1679809" lon="8.0803923"><ele>153.75</ele><time>2026-05-02T08:35:57.013Z</time></trkpt><trkpt lat="45.1678963" lon="8.0802978"><ele>154.0</ele><time>2026-05-02T08:35:58.013Z</time></trkpt><trkpt lat="45.1678191" lon="8.0802049"><ele>154.0</ele><time>2026-05-02T08:35:59Z</time></trkpt><trkpt lat="45.1677487" lon="8.0801057"><ele>154.0</ele><time>2026-05-02T08:36:00.003Z</time></trkpt><trkpt lat="45.1676891" lon="8.0800027"><ele>154.0</ele><time>2026-05-02T08:36:01.009Z</time></trkpt><trkpt lat="45.1676389" lon="8.0798932"><ele>154.0</ele><time>2026-05-02T08:36:01.999Z</time></trkpt><trkpt lat="45.167598" lon="8.0797706"><ele>154.0</ele><time>2026-05-02T08:36:03.008Z</time></trkpt><trkpt lat="45.1675654" lon="8.0796438"><ele>154.2</ele><time>2026-05-02T08:36:04.008Z</time></trkpt><trkpt lat="45.1675401" lon="8.0795116"><ele>154.4</ele><time>2026-05-02T08:36:05.004Z</time></trkpt><trkpt lat="45.1675109" lon="8.0793822"><ele>154.6</ele><time>2026-05-02T08:36:06.009Z</time></trkpt><trkpt lat="45.1674974" lon="8.0792509"><ele>154.8</ele><time>2026-05-02T08:36:07.01Z</time></trkpt><trkpt lat="45.1674833" lon="8.079121"><ele>155.0</ele><time>2026-05-02T08:36:08.008Z</time></trkpt><trkpt lat="45.1674866" lon="8.0789877"><ele>155.0</ele><time>2026-05-02T08:36:09.001Z</time></trkpt><trkpt lat="45.1674958" lon="8.0788509"><ele>155.0</ele><time>2026-05-02T08:36:10.006Z</time></trkpt><trkpt lat="45.1675071" lon="8.078708"><ele>155.0</ele><time>2026-05-02T08:36:11.005Z</time></trkpt><trkpt lat="45.1675145" lon="8.0785481"><ele>155.0</ele><time>2026-05-02T08:36:12.007Z</time></trkpt><trkpt lat="45.1675224" lon="8.0783886"><ele>155.0</ele><time>2026-05-02T08:36:13.008Z</time></trkpt><trkpt lat="45.1675287" lon="8.0782135"><ele>155.5</ele><time>2026-05-02T08:36:14.006Z</time></trkpt><trkpt lat="45.1675378" lon="8.0780383"><ele>156.0</ele><time>2026-05-02T08:36:15.005Z</time></trkpt><trkpt lat="45.1675484" lon="8.0778735"><ele>156.5</ele><time>2026-05-02T08:36:16.019Z</time></trkpt><trkpt lat="45.1675594" lon="8.0777128"><ele>157.0</ele><time>2026-05-02T08:36:17.001Z</time></trkpt><trkpt lat="45.1675752" lon="8.0775469"><ele>157.0</ele><time>2026-05-02T08:36:18.008Z</time></trkpt><trkpt lat="45.1675807" lon="8.0773946"><ele>157.0</ele><time>2026-05-02T08:36:19.007Z</time></trkpt><trkpt lat="45.1675808" lon="8.0772636"><ele>157.0</ele><time>2026-05-02T08:36:20.012Z</time></trkpt><trkpt lat="45.1675796" lon="8.0771513"><ele>157.0</ele><time>2026-05-02T08:36:21.006Z</time></trkpt><trkpt lat="45.1675369" lon="8.0770018"><ele>157.0</ele><time>2026-05-02T08:36:23.008Z</time></trkpt><trkpt lat="45.1674416" lon="8.0769039"><ele>157.0</ele><time>2026-05-02T08:36:25.008Z</time></trkpt><trkpt lat="45.1673746" lon="8.0768949"><ele>157.0</ele><time>2026-05-02T08:36:26.011Z</time></trkpt><trkpt lat="45.1672899" lon="8.0769042"><ele>157.0</ele><time>2026-05-02T08:36:27.005Z</time></trkpt><trkpt lat="45.1671933" lon="8.0769018"><ele>157.0</ele><time>2026-05-02T08:36:28Z</time></trkpt><trkpt lat="45.1670893" lon="8.0768998"><ele>157.0</ele><time>2026-05-02T08:36:29.006Z</time></trkpt><trkpt lat="45.1669818" lon="8.0768974"><ele>157.0</ele><time>2026-05-02T08:36:30.001Z</time></trkpt><trkpt lat="45.1668743" lon="8.0768888"><ele>157.0</ele><time>2026-05-02T08:36:31.003Z</time></trkpt><trkpt lat="45.1667794" lon="8.0768547"><ele>157.0</ele><time>2026-05-02T08:36:32.003Z</time></trkpt><trkpt lat="45.1666871" lon="8.0768235"><ele>157.0</ele><time>2026-05-02T08:36:33.005Z</time></trkpt><trkpt lat="45.1665852" lon="8.0768065"><ele>157.0</ele><time>2026-05-02T08:36:34.01Z</time></trkpt><trkpt lat="45.1664821" lon="8.0767933"><ele>156.4</ele><time>2026-05-02T08:36:34.996Z</time></trkpt><trkpt lat="45.1663786" lon="8.0767812"><ele>155.79999999999998</ele><time>2026-05-02T08:36:36.004Z</time></trkpt><trkpt lat="45.1662746" lon="8.0767704"><ele>155.2</ele><time>2026-05-02T08:36:37.006Z</time></trkpt><trkpt lat="45.1661677" lon="8.0767628"><ele>154.6</ele><time>2026-05-02T08:36:38.008Z</time></trkpt><trkpt lat="45.1660591" lon="8.0767581"><ele>154.0</ele><time>2026-05-02T08:36:38.997Z</time></trkpt><trkpt lat="45.1659445" lon="8.0767522"><ele>154.0</ele><time>2026-05-02T08:36:40.002Z</time></trkpt><trkpt lat="45.1658174" lon="8.0767382"><ele>154.0</ele><time>2026-05-02T08:36:41.01Z</time></trkpt><trkpt lat="45.1656926" lon="8.0767191"><ele>154.0</ele><time>2026-05-02T08:36:42.002Z</time></trkpt><trkpt lat="45.1655704" lon="8.0766966"><ele>154.0</ele><time>2026-05-02T08:36:43.005Z</time></trkpt><trkpt lat="45.1654501" lon="8.0766707"><ele>153.8</ele><time>2026-05-02T08:36:44.003Z</time></trkpt><trkpt lat="45.1653324" lon="8.076645"><ele>153.60000000000002</ele><time>2026-05-02T08:36:45.005Z</time></trkpt><trkpt lat="45.165222" lon="8.0766186"><ele>153.4</ele><time>2026-05-02T08:36:46.01Z</time></trkpt><trkpt lat="45.1651197" lon="8.076591"><ele>153.20000000000002</ele><time>2026-05-02T08:36:47.015Z</time></trkpt><trkpt lat="45.1650291" lon="8.0765622"><ele>153.0</ele><time>2026-05-02T08:36:48.01Z</time></trkpt><trkpt lat="45.1649463" lon="8.0765231"><ele>152.83333333333334</ele><time>2026-05-02T08:36:49.002Z</time></trkpt><trkpt lat="45.1648649" lon="8.0764724"><ele>152.66666666666666</ele><time>2026-05-02T08:36:50.001Z</time></trkpt><trkpt lat="45.1647895" lon="8.0764121"><ele>152.5</ele><time>2026-05-02T08:36:51.005Z</time></trkpt><trkpt lat="45.1647226" lon="8.0763473"><ele>152.33333333333331</ele><time>2026-05-02T08:36:52.012Z</time></trkpt><trkpt lat="45.1646614" lon="8.0762845"><ele>152.16666666666666</ele><time>2026-05-02T08:36:53.003Z</time></trkpt><trkpt lat="45.1646022" lon="8.076235"><ele>152.0</ele><time>2026-05-02T08:36:54.004Z</time></trkpt><trkpt lat="45.1645441" lon="8.0761873"><ele>153.66666666666666</ele><time>2026-05-02T08:36:55.004Z</time></trkpt><trkpt lat="45.1644744" lon="8.0761446"><ele>155.33333333333331</ele><time>2026-05-02T08:36:56.015Z</time></trkpt><trkpt lat="45.1644058" lon="8.0761055"><ele>157.0</ele><time>2026-05-02T08:36:56.998Z</time></trkpt><trkpt lat="45.1643336" lon="8.076063"><ele>158.66666666666666</ele><time>2026-05-02T08:36:58.006Z</time></trkpt><trkpt lat="45.1642647" lon="8.0760233"><ele>160.33333333333334</ele><time>2026-05-02T08:36:59.005Z</time></trkpt><trkpt lat="45.1641932" lon="8.075984"><ele>162.0</ele><time>2026-05-02T08:37:00.01Z</time></trkpt><trkpt lat="45.1641221" lon="8.0759428"><ele>162.0</ele><time>2026-05-02T08:37:01.023Z</time></trkpt><trkpt lat="45.164051" lon="8.0759012"><ele>162.0</ele><time>2026-05-02T08:37:02Z</time></trkpt><trkpt lat="45.1639799" lon="8.0758519"><ele>162.0</ele><time>2026-05-02T08:37:03.008Z</time></trkpt><trkpt lat="45.1639065" lon="8.0757998"><ele>162.0</ele><time>2026-05-02T08:37:04.008Z</time></trkpt><trkpt lat="45.1638329" lon="8.0757506"><ele>162.0</ele><time>2026-05-02T08:37:05.004Z</time></trkpt><trkpt lat="45.1637576" lon="8.0757043"><ele>162.0</ele><time>2026-05-02T08:37:05.999Z</time></trkpt><trkpt lat="45.1636822" lon="8.0756555"><ele>161.8</ele><time>2026-05-02T08:37:07.007Z</time></trkpt><trkpt lat="45.1635955" lon="8.0755971"><ele>161.6</ele><time>2026-05-02T08:37:08.006Z</time></trkpt><trkpt lat="45.1635101" lon="8.0755358"><ele>161.4</ele><time>2026-05-02T08:37:09.013Z</time></trkpt><trkpt lat="45.1634297" lon="8.0754817"><ele>161.20000000000002</ele><time>2026-05-02T08:37:10.015Z</time></trkpt><trkpt lat="45.1633495" lon="8.0754346"><ele>161.0</ele><time>2026-05-02T08:37:11.016Z</time></trkpt><trkpt lat="45.1632627" lon="8.0754016"><ele>161.0</ele><time>2026-05-02T08:37:12.009Z</time></trkpt><trkpt lat="45.1631752" lon="8.0753711"><ele>161.0</ele><time>2026-05-02T08:37:13.01Z</time></trkpt><trkpt lat="45.1630797" lon="8.0753708"><ele>161.0</ele><time>2026-05-02T08:37:14.007Z</time></trkpt><trkpt lat="45.162987" lon="8.0753733"><ele>161.0</ele><time>2026-05-02T08:37:15.017Z</time></trkpt><trkpt lat="45.1628952" lon="8.0753906"><ele>161.0</ele><time>2026-05-02T08:37:16.004Z</time></trkpt><trkpt lat="45.1628029" lon="8.0754108"><ele>161.0</ele><time>2026-05-02T08:37:17.008Z</time></trkpt><trkpt lat="45.1627122" lon="8.075428"><ele>161.0</ele><time>2026-05-02T08:37:18.01Z</time></trkpt><trkpt lat="45.1626216" lon="8.0754506"><ele>161.0</ele><time>2026-05-02T08:37:19.001Z</time></trkpt><trkpt lat="45.1625295" lon="8.0754749"><ele>161.0</ele><time>2026-05-02T08:37:20.001Z</time></trkpt><trkpt lat="45.1624343" lon="8.075502"><ele>161.0</ele><time>2026-05-02T08:37:21.017Z</time></trkpt><trkpt lat="45.1623346" lon="8.0755299"><ele>161.16666666666666</ele><time>2026-05-02T08:37:22.01Z</time></trkpt><trkpt lat="45.1622392" lon="8.0755611"><ele>161.33333333333331</ele><time>2026-05-02T08:37:22.999Z</time></trkpt><trkpt lat="45.1621505" lon="8.0755875"><ele>161.5</ele><time>2026-05-02T08:37:24.003Z</time></trkpt><trkpt lat="45.1620687" lon="8.0756083"><ele>161.66666666666666</ele><time>2026-05-02T08:37:25.019Z</time></trkpt><trkpt lat="45.1619991" lon="8.0756181"><ele>161.83333333333334</ele><time>2026-05-02T08:37:26.018Z</time></trkpt><trkpt lat="45.1619333" lon="8.0756051"><ele>162.0</ele><time>2026-05-02T08:37:27.001Z</time></trkpt><trkpt lat="45.1618699" lon="8.0755589"><ele>162.0</ele><time>2026-05-02T08:37:28.01Z</time></trkpt><trkpt lat="45.1618146" lon="8.0754833"><ele>162.0</ele><time>2026-05-02T08:37:29.01Z</time></trkpt><trkpt lat="45.1617586" lon="8.0754043"><ele>162.0</ele><time>2026-05-02T08:37:29.999Z</time></trkpt><trkpt lat="45.161712" lon="8.0752942"><ele>162.0</ele><time>2026-05-02T08:37:31.013Z</time></trkpt><trkpt lat="45.1616708" lon="8.0751937"><ele>162.0</ele><time>2026-05-02T08:37:32.012Z</time></trkpt><trkpt lat="45.1616312" lon="8.0751186"><ele>162.0</ele><time>2026-05-02T08:37:33.005Z</time></trkpt><trkpt lat="45.1615338" lon="8.0750142"><ele>162.16666666666666</ele><time>2026-05-02T08:37:35Z</time></trkpt><trkpt lat="45.1614731" lon="8.0749803"><ele>162.33333333333334</ele><time>2026-05-02T08:37:36.019Z</time></trkpt><trkpt lat="45.1614067" lon="8.0749563"><ele>162.5</ele><time>2026-05-02T08:37:37.008Z</time></trkpt><trkpt lat="45.1613371" lon="8.074942"><ele>162.66666666666669</ele><time>2026-05-02T08:37:38.008Z</time></trkpt><trkpt lat="45.1612616" lon="8.074935"><ele>162.83333333333334</ele><time>2026-05-02T08:37:39.012Z</time></trkpt><trkpt lat="45.1611798" lon="8.074928"><ele>163.0</ele><time>2026-05-02T08:37:40.005Z</time></trkpt><trkpt lat="45.1610903" lon="8.074918"><ele>163.2</ele><time>2026-05-02T08:37:41.008Z</time></trkpt><trkpt lat="45.1609925" lon="8.0749116"><ele>163.4</ele><time>2026-05-02T08:37:42.008Z</time></trkpt><trkpt lat="45.1608916" lon="8.0749051"><ele>163.6</ele><time>2026-05-02T08:37:43.019Z</time></trkpt><trkpt lat="45.1607856" lon="8.0748962"><ele>163.79999999999998</ele><time>2026-05-02T08:37:44.016Z</time></trkpt><trkpt lat="45.1606768" lon="8.0748771"><ele>164.0</ele><time>2026-05-02T08:37:45.006Z</time></trkpt><trkpt lat="45.1605713" lon="8.074852"><ele>164.0</ele><time>2026-05-02T08:37:46.007Z</time></trkpt><trkpt lat="45.1604654" lon="8.0748196"><ele>164.0</ele><time>2026-05-02T08:37:47.004Z</time></trkpt><trkpt lat="45.1603595" lon="8.0747764"><ele>164.0</ele><time>2026-05-02T08:37:48.005Z</time></trkpt><trkpt lat="45.160253" lon="8.0747243"><ele>164.0</ele><time>2026-05-02T08:37:49.006Z</time></trkpt><trkpt lat="45.1601462" lon="8.0746648"><ele>164.0</ele><time>2026-05-02T08:37:50.015Z</time></trkpt><trkpt lat="45.1600397" lon="8.0746054"><ele>164.0</ele><time>2026-05-02T08:37:51.011Z</time></trkpt><trkpt lat="45.1599313" lon="8.0745529"><ele>164.0</ele><time>2026-05-02T08:37:52.003Z</time></trkpt><trkpt lat="45.159815" lon="8.0745011"><ele>164.0</ele><time>2026-05-02T08:37:53.01Z</time></trkpt><trkpt lat="45.1597015" lon="8.0744495"><ele>164.0</ele><time>2026-05-02T08:37:54.007Z</time></trkpt><trkpt lat="45.1595871" lon="8.0743991"><ele>165.0</ele><time>2026-05-02T08:37:55.011Z</time></trkpt><trkpt lat="45.1594747" lon="8.074355"><ele>166.0</ele><time>2026-05-02T08:37:56.014Z</time></trkpt><trkpt lat="45.1593649" lon="8.0743153"><ele>167.0</ele><time>2026-05-02T08:37:57.014Z</time></trkpt><trkpt lat="45.1592602" lon="8.0742807"><ele>168.0</ele><time>2026-05-02T08:37:58.004Z</time></trkpt><trkpt lat="45.1591581" lon="8.0742499"><ele>169.0</ele><time>2026-05-02T08:37:59.008Z</time></trkpt><trkpt lat="45.1590576" lon="8.0742217"><ele>169.2</ele><time>2026-05-02T08:38:00.01Z</time></trkpt><trkpt lat="45.1589613" lon="8.0742016"><ele>169.39999999999998</ele><time>2026-05-02T08:38:01.016Z</time></trkpt><trkpt lat="45.1588638" lon="8.0741895"><ele>169.6</ele><time>2026-05-02T08:38:02.008Z</time></trkpt><trkpt lat="45.1587667" lon="8.0741812"><ele>169.8</ele><time>2026-05-02T08:38:03.001Z</time></trkpt><trkpt lat="45.1586706" lon="8.0741857"><ele>170.0</ele><time>2026-05-02T08:38:04.005Z</time></trkpt><trkpt lat="45.1585742" lon="8.0741963"><ele>170.0</ele><time>2026-05-02T08:38:05.007Z</time></trkpt><trkpt lat="45.1584829" lon="8.0742185"><ele>170.0</ele><time>2026-05-02T08:38:06.021Z</time></trkpt><trkpt lat="45.1583986" lon="8.0742401"><ele>170.0</ele><time>2026-05-02T08:38:07.004Z</time></trkpt><trkpt lat="45.1583299" lon="8.0742633"><ele>170.0</ele><time>2026-05-02T08:38:07.996Z</time></trkpt><trkpt lat="45.1582284" lon="8.0742665"><ele>170.0</ele><time>2026-05-02T08:38:10.004Z</time></trkpt><trkpt lat="45.1581742" lon="8.0741969"><ele>170.0</ele><time>2026-05-02T08:38:12.004Z</time></trkpt><trkpt lat="45.1581149" lon="8.0740764"><ele>170.16666666666666</ele><time>2026-05-02T08:38:15Z</time></trkpt><trkpt lat="45.1580575" lon="8.0740356"><ele>170.33333333333331</ele><time>2026-05-02T08:38:17.024Z</time></trkpt><trkpt lat="45.1579996" lon="8.0739741"><ele>170.5</ele><time>2026-05-02T08:38:19.014Z</time></trkpt><trkpt lat="45.1578988" lon="8.073872"><ele>170.66666666666666</ele><time>2026-05-02T08:38:20.998Z</time></trkpt><trkpt lat="45.1578451" lon="8.0738116"><ele>170.83333333333334</ele><time>2026-05-02T08:38:22.007Z</time></trkpt><trkpt lat="45.1577863" lon="8.0737413"><ele>171.0</ele><time>2026-05-02T08:38:23.013Z</time></trkpt><trkpt lat="45.1577275" lon="8.0736519"><ele>171.0</ele><time>2026-05-02T08:38:24.01Z</time></trkpt><trkpt lat="45.1576798" lon="8.0735362"><ele>171.0</ele><time>2026-05-02T08:38:25.008Z</time></trkpt><trkpt lat="45.1576428" lon="8.0734108"><ele>171.0</ele><time>2026-05-02T08:38:26.014Z</time></trkpt><trkpt lat="45.157606" lon="8.0732785"><ele>171.0</ele><time>2026-05-02T08:38:27.003Z</time></trkpt><trkpt lat="45.157569" lon="8.0731404"><ele>171.0</ele><time>2026-05-02T08:38:28.008Z</time></trkpt><trkpt lat="45.1575294" lon="8.0729977"><ele>171.25</ele><time>2026-05-02T08:38:29.047Z</time></trkpt><trkpt lat="45.157488" lon="8.0728486"><ele>171.5</ele><time>2026-05-02T08:38:30.008Z</time></trkpt><trkpt lat="45.1574452" lon="8.072696"><ele>171.75</ele><time>2026-05-02T08:38:31.006Z</time></trkpt><trkpt lat="45.1574019" lon="8.0725386"><ele>172.0</ele><time>2026-05-02T08:38:32.009Z</time></trkpt><trkpt lat="45.1573587" lon="8.0723786"><ele>172.25</ele><time>2026-05-02T08:38:33.007Z</time></trkpt><trkpt lat="45.1573146" lon="8.072216"><ele>172.5</ele><time>2026-05-02T08:38:34.01Z</time></trkpt><trkpt lat="45.1572703" lon="8.0720508"><ele>172.75</ele><time>2026-05-02T08:38:34.999Z</time></trkpt><trkpt lat="45.1572257" lon="8.0718827"><ele>173.0</ele><time>2026-05-02T08:38:36.003Z</time></trkpt><trkpt lat="45.1571781" lon="8.071713"><ele>172.75</ele><time>2026-05-02T08:38:37.014Z</time></trkpt><trkpt lat="45.1571319" lon="8.0715396"><ele>172.5</ele><time>2026-05-02T08:38:38.003Z</time></trkpt><trkpt lat="45.1570814" lon="8.0713678"><ele>172.25</ele><time>2026-05-02T08:38:39.002Z</time></trkpt><trkpt lat="45.1570323" lon="8.0711978"><ele>172.0</ele><time>2026-05-02T08:38:40.011Z</time></trkpt><trkpt lat="45.1569859" lon="8.0710258"><ele>172.0</ele><time>2026-05-02T08:38:41.01Z</time></trkpt><trkpt lat="45.1569388" lon="8.0708517"><ele>172.0</ele><time>2026-05-02T08:38:41.996Z</time></trkpt><trkpt lat="45.1568901" lon="8.0706747"><ele>172.0</ele><time>2026-05-02T08:38:43.003Z</time></trkpt><trkpt lat="45.1568412" lon="8.070502"><ele>172.0</ele><time>2026-05-02T08:38:44.013Z</time></trkpt><trkpt lat="45.1567935" lon="8.0703287"><ele>172.0</ele><time>2026-05-02T08:38:44.998Z</time></trkpt><trkpt lat="45.1567483" lon="8.0701535"><ele>172.0</ele><time>2026-05-02T08:38:46.007Z</time></trkpt><trkpt lat="45.1567035" lon="8.0699767"><ele>172.0</ele><time>2026-05-02T08:38:46.998Z</time></trkpt><trkpt lat="45.1566548" lon="8.0697988"><ele>172.0</ele><time>2026-05-02T08:38:48.002Z</time></trkpt><trkpt lat="45.1566041" lon="8.0696221"><ele>172.25</ele><time>2026-05-02T08:38:49.001Z</time></trkpt><trkpt lat="45.1565547" lon="8.0694421"><ele>172.5</ele><time>2026-05-02T08:38:50.004Z</time></trkpt><trkpt lat="45.1565071" lon="8.0692594"><ele>172.75</ele><time>2026-05-02T08:38:51.015Z</time></trkpt><trkpt lat="45.1564597" lon="8.069076"><ele>173.0</ele><time>2026-05-02T08:38:52.006Z</time></trkpt><trkpt lat="45.1564097" lon="8.0688898"><ele>173.25</ele><time>2026-05-02T08:38:52.997Z</time></trkpt><trkpt lat="45.1563575" lon="8.0687047"><ele>173.5</ele><time>2026-05-02T08:38:54.009Z</time></trkpt><trkpt lat="45.1563057" lon="8.0685186"><ele>173.75</ele><time>2026-05-02T08:38:55.012Z</time></trkpt><trkpt lat="45.1562557" lon="8.0683322"><ele>174.0</ele><time>2026-05-02T08:38:55.998Z</time></trkpt><trkpt lat="45.1562068" lon="8.0681451"><ele>173.5</ele><time>2026-05-02T08:38:56.995Z</time></trkpt><trkpt lat="45.156158" lon="8.0679627"><ele>173.0</ele><time>2026-05-02T08:38:58.008Z</time></trkpt><trkpt lat="45.1561102" lon="8.0677847"><ele>172.5</ele><time>2026-05-02T08:38:59.002Z</time></trkpt><trkpt lat="45.1560639" lon="8.0676084"><ele>172.0</ele><time>2026-05-02T08:39:00Z</time></trkpt><trkpt lat="45.1560163" lon="8.0674321"><ele>171.5</ele><time>2026-05-02T08:39:01.005Z</time></trkpt><trkpt lat="45.1559677" lon="8.0672569"><ele>171.0</ele><time>2026-05-02T08:39:02.012Z</time></trkpt><trkpt lat="45.1559201" lon="8.0670819"><ele>170.5</ele><time>2026-05-02T08:39:03.009Z</time></trkpt><trkpt lat="45.1558742" lon="8.0669128"><ele>170.0</ele><time>2026-05-02T08:39:04.005Z</time></trkpt><trkpt lat="45.1558311" lon="8.0667561"><ele>170.0</ele><time>2026-05-02T08:39:05.01Z</time></trkpt><trkpt lat="45.1557905" lon="8.0666137"><ele>170.0</ele><time>2026-05-02T08:39:06.009Z</time></trkpt><trkpt lat="45.1557559" lon="8.0664914"><ele>170.0</ele><time>2026-05-02T08:39:07.005Z</time></trkpt><trkpt lat="45.1557257" lon="8.066391"><ele>170.0</ele><time>2026-05-02T08:39:08.007Z</time></trkpt><trkpt lat="45.1556921" lon="8.0663038"><ele>170.0</ele><time>2026-05-02T08:39:09.006Z</time></trkpt><trkpt lat="45.1556635" lon="8.0662077"><ele>170.0</ele><time>2026-05-02T08:39:10.003Z</time></trkpt><trkpt lat="45.1556453" lon="8.066097"><ele>171.0</ele><time>2026-05-02T08:39:11.007Z</time></trkpt><trkpt lat="45.1556304" lon="8.0659734"><ele>172.0</ele><time>2026-05-02T08:39:12.005Z</time></trkpt><trkpt lat="45.1556185" lon="8.0658361"><ele>173.0</ele><time>2026-05-02T08:39:13.008Z</time></trkpt><trkpt lat="45.1556158" lon="8.0656905"><ele>174.0</ele><time>2026-05-02T08:39:14.007Z</time></trkpt><trkpt lat="45.1556252" lon="8.0655356"><ele>175.0</ele><time>2026-05-02T08:39:15.006Z</time></trkpt><trkpt lat="45.1556423" lon="8.0653689"><ele>175.0</ele><time>2026-05-02T08:39:16.005Z</time></trkpt><trkpt lat="45.1556605" lon="8.065191"><ele>175.0</ele><time>2026-05-02T08:39:17.014Z</time></trkpt><trkpt lat="45.1556792" lon="8.0650072"><ele>175.0</ele><time>2026-05-02T08:39:18.006Z</time></trkpt><trkpt lat="45.1557003" lon="8.0648225"><ele>175.0</ele><time>2026-05-02T08:39:19.005Z</time></trkpt><trkpt lat="45.1557215" lon="8.0646389"><ele>173.75</ele><time>2026-05-02T08:39:19.998Z</time></trkpt><trkpt lat="45.1557443" lon="8.064453"><ele>172.5</ele><time>2026-05-02T08:39:21.01Z</time></trkpt><trkpt lat="45.1557693" lon="8.0642769"><ele>171.25</ele><time>2026-05-02T08:39:22.002Z</time></trkpt><trkpt lat="45.1557921" lon="8.0641058"><ele>170.0</ele><time>2026-05-02T08:39:23.001Z</time></trkpt><trkpt lat="45.1558154" lon="8.0639376"><ele>170.0</ele><time>2026-05-02T08:39:24.001Z</time></trkpt><trkpt lat="45.1558372" lon="8.0637688"><ele>170.0</ele><time>2026-05-02T08:39:24.993Z</time></trkpt><trkpt lat="45.1558598" lon="8.0635994"><ele>170.0</ele><time>2026-05-02T08:39:26.003Z</time></trkpt><trkpt lat="45.1558823" lon="8.0634299"><ele>170.0</ele><time>2026-05-02T08:39:27.004Z</time></trkpt><trkpt lat="45.1559067" lon="8.0632613"><ele>170.25</ele><time>2026-05-02T08:39:28.003Z</time></trkpt><trkpt lat="45.1559316" lon="8.0630885"><ele>170.5</ele><time>2026-05-02T08:39:29.008Z</time></trkpt><trkpt lat="45.1559553" lon="8.062912"><ele>170.75</ele><time>2026-05-02T08:39:30.009Z</time></trkpt><trkpt lat="45.1559796" lon="8.0627381"><ele>171.0</ele><time>2026-05-02T08:39:31.005Z</time></trkpt><trkpt lat="45.1560046" lon="8.0625672"><ele>170.60000000000002</ele><time>2026-05-02T08:39:32.005Z</time></trkpt><trkpt lat="45.1560263" lon="8.0624029"><ele>170.2</ele><time>2026-05-02T08:39:33.007Z</time></trkpt><trkpt lat="45.1560441" lon="8.0622484"><ele>169.8</ele><time>2026-05-02T08:39:33.998Z</time></trkpt><trkpt lat="45.1560589" lon="8.0621031"><ele>169.39999999999998</ele><time>2026-05-02T08:39:35.023Z</time></trkpt><trkpt lat="45.1560711" lon="8.0619706"><ele>169.0</ele><time>2026-05-02T08:39:35.998Z</time></trkpt><trkpt lat="45.1560814" lon="8.0618388"><ele>169.0</ele><time>2026-05-02T08:39:37.005Z</time></trkpt><trkpt lat="45.1560911" lon="8.0617064"><ele>169.0</ele><time>2026-05-02T08:39:37.999Z</time></trkpt><trkpt lat="45.1561001" lon="8.0615716"><ele>169.0</ele><time>2026-05-02T08:39:39.005Z</time></trkpt><trkpt lat="45.1561097" lon="8.0614347"><ele>169.0</ele><time>2026-05-02T08:39:40.011Z</time></trkpt><trkpt lat="45.1561193" lon="8.0612976"><ele>169.0</ele><time>2026-05-02T08:39:41.01Z</time></trkpt><trkpt lat="45.1561305" lon="8.0611652"><ele>169.16666666666669</ele><time>2026-05-02T08:39:42.002Z</time></trkpt><trkpt lat="45.1561409" lon="8.0610398"><ele>169.33333333333334</ele><time>2026-05-02T08:39:43.01Z</time></trkpt><trkpt lat="45.1561494" lon="8.0609212"><ele>169.5</ele><time>2026-05-02T08:39:44.007Z</time></trkpt><trkpt lat="45.156157" lon="8.0608089"><ele>169.66666666666666</ele><time>2026-05-02T08:39:45.003Z</time></trkpt><trkpt lat="45.1561624" lon="8.0607037"><ele>169.83333333333331</ele><time>2026-05-02T08:39:45.998Z</time></trkpt><trkpt lat="45.1561698" lon="8.0605968"><ele>170.0</ele><time>2026-05-02T08:39:47.006Z</time></trkpt><trkpt lat="45.1561776" lon="8.0604851"><ele>170.16666666666666</ele><time>2026-05-02T08:39:48.009Z</time></trkpt><trkpt lat="45.1561867" lon="8.060367"><ele>170.33333333333331</ele><time>2026-05-02T08:39:49.005Z</time></trkpt><trkpt lat="45.1561914" lon="8.0602477"><ele>170.5</ele><time>2026-05-02T08:39:50.001Z</time></trkpt><trkpt lat="45.1561972" lon="8.0601407"><ele>170.66666666666666</ele><time>2026-05-02T08:39:51.016Z</time></trkpt><trkpt lat="45.1562165" lon="8.0600545"><ele>170.83333333333334</ele><time>2026-05-02T08:39:52Z</time></trkpt><trkpt lat="45.1562843" lon="8.0599554"><ele>171.0</ele><time>2026-05-02T08:39:54.014Z</time></trkpt><trkpt lat="45.1563474" lon="8.059948"><ele>171.0</ele><time>2026-05-02T08:39:55.01Z</time></trkpt><trkpt lat="45.15642" lon="8.0599526"><ele>171.0</ele><time>2026-05-02T08:39:56.002Z</time></trkpt><trkpt lat="45.1564981" lon="8.0599587"><ele>171.0</ele><time>2026-05-02T08:39:57.004Z</time></trkpt><trkpt lat="45.1565826" lon="8.0599618"><ele>171.0</ele><time>2026-05-02T08:39:58.006Z</time></trkpt><trkpt lat="45.1566696" lon="8.0599662"><ele>171.0</ele><time>2026-05-02T08:39:59.01Z</time></trkpt><trkpt lat="45.1567535" lon="8.0599683"><ele>171.0</ele><time>2026-05-02T08:40:00.004Z</time></trkpt><trkpt lat="45.1568355" lon="8.0599684"><ele>170.66666666666666</ele><time>2026-05-02T08:40:01.006Z</time></trkpt><trkpt lat="45.1569137" lon="8.0599756"><ele>170.33333333333334</ele><time>2026-05-02T08:40:02.007Z</time></trkpt><trkpt lat="45.1569864" lon="8.0599822"><ele>170.0</ele><time>2026-05-02T08:40:03Z</time></trkpt><trkpt lat="45.157053" lon="8.0599909"><ele>169.66666666666669</ele><time>2026-05-02T08:40:04.013Z</time></trkpt><trkpt lat="45.1571601" lon="8.0599637"><ele>169.33333333333334</ele><time>2026-05-02T08:40:06.015Z</time></trkpt><trkpt lat="45.1571989" lon="8.05985"><ele>169.0</ele><time>2026-05-02T08:40:08.009Z</time></trkpt><trkpt lat="45.1572498" lon="8.059697"><ele>169.0</ele><time>2026-05-02T08:40:10.009Z</time></trkpt><trkpt lat="45.1573028" lon="8.0596259"><ele>169.0</ele><time>2026-05-02T08:40:10.999Z</time></trkpt><trkpt lat="45.1573674" lon="8.059559"><ele>169.0</ele><time>2026-05-02T08:40:12.018Z</time></trkpt><trkpt lat="45.1574394" lon="8.0594846"><ele>169.0</ele><time>2026-05-02T08:40:13.009Z</time></trkpt><trkpt lat="45.1575178" lon="8.0594039"><ele>169.0</ele><time>2026-05-02T08:40:14.006Z</time></trkpt><trkpt lat="45.1576008" lon="8.0593216"><ele>169.0</ele><time>2026-05-02T08:40:15.009Z</time></trkpt><trkpt lat="45.1576849" lon="8.0592361"><ele>168.83333333333334</ele><time>2026-05-02T08:40:16.008Z</time></trkpt><trkpt lat="45.1577626" lon="8.0591554"><ele>168.66666666666669</ele><time>2026-05-02T08:40:17.008Z</time></trkpt><trkpt lat="45.1578329" lon="8.0590776"><ele>168.5</ele><time>2026-05-02T08:40:17.997Z</time></trkpt><trkpt lat="45.1578992" lon="8.0590053"><ele>168.33333333333334</ele><time>2026-05-02T08:40:19.004Z</time></trkpt><trkpt lat="45.157968" lon="8.0589442"><ele>168.16666666666666</ele><time>2026-05-02T08:40:20.005Z</time></trkpt><trkpt lat="45.1580381" lon="8.0588893"><ele>168.0</ele><time>2026-05-02T08:40:21.003Z</time></trkpt><trkpt lat="45.1581091" lon="8.0588481"><ele>167.83333333333334</ele><time>2026-05-02T08:40:22.005Z</time></trkpt><trkpt lat="45.1581749" lon="8.0588127"><ele>167.66666666666666</ele><time>2026-05-02T08:40:23.001Z</time></trkpt><trkpt lat="45.1582422" lon="8.0588132"><ele>167.5</ele><time>2026-05-02T08:40:24Z</time></trkpt><trkpt lat="45.1583548" lon="8.0588177"><ele>167.33333333333331</ele><time>2026-05-02T08:40:25.998Z</time></trkpt><trkpt lat="45.1584511" lon="8.0588289"><ele>167.16666666666666</ele><time>2026-05-02T08:40:28.004Z</time></trkpt><trkpt lat="45.1585217" lon="8.0588103"><ele>167.0</ele><time>2026-05-02T08:40:30.001Z</time></trkpt><trkpt lat="45.1585815" lon="8.0587396"><ele>167.0</ele><time>2026-05-02T08:40:33.014Z</time></trkpt><trkpt lat="45.1585523" lon="8.0585789"><ele>167.0</ele><time>2026-05-02T08:40:34.997Z</time></trkpt><trkpt lat="45.158525" lon="8.0584734"><ele>167.0</ele><time>2026-05-02T08:40:36.003Z</time></trkpt><trkpt lat="45.1584991" lon="8.0583559"><ele>167.0</ele><time>2026-05-02T08:40:37.005Z</time></trkpt><trkpt lat="45.1584667" lon="8.0582229"><ele>167.0</ele><time>2026-05-02T08:40:38.003Z</time></trkpt><trkpt lat="45.1584322" lon="8.0580813"><ele>167.25</ele><time>2026-05-02T08:40:39.011Z</time></trkpt><trkpt lat="45.1583974" lon="8.0579284"><ele>167.5</ele><time>2026-05-02T08:40:40.005Z</time></trkpt><trkpt lat="45.1583589" lon="8.0577686"><ele>167.75</ele><time>2026-05-02T08:40:41.009Z</time></trkpt><trkpt lat="45.1583206" lon="8.0576106"><ele>168.0</ele><time>2026-05-02T08:40:42.005Z</time></trkpt><trkpt lat="45.1582813" lon="8.0574511"><ele>167.8</ele><time>2026-05-02T08:40:43.005Z</time></trkpt><trkpt lat="45.1582427" lon="8.0572966"><ele>167.60000000000002</ele><time>2026-05-02T08:40:44.018Z</time></trkpt><trkpt lat="45.1582123" lon="8.0571512"><ele>167.39999999999998</ele><time>2026-05-02T08:40:45.012Z</time></trkpt><trkpt lat="45.1581823" lon="8.0570134"><ele>167.2</ele><time>2026-05-02T08:40:46.007Z</time></trkpt><trkpt lat="45.1581519" lon="8.056883"><ele>167.0</ele><time>2026-05-02T08:40:47.005Z</time></trkpt><trkpt lat="45.1581206" lon="8.0567522"><ele>167.0</ele><time>2026-05-02T08:40:48.005Z</time></trkpt><trkpt lat="45.1580907" lon="8.0566219"><ele>167.0</ele><time>2026-05-02T08:40:49.005Z</time></trkpt><trkpt lat="45.1580615" lon="8.0564938"><ele>167.0</ele><time>2026-05-02T08:40:50.014Z</time></trkpt><trkpt lat="45.158032" lon="8.0563664"><ele>167.0</ele><time>2026-05-02T08:40:51.014Z</time></trkpt><trkpt lat="45.1580024" lon="8.0562408"><ele>167.0</ele><time>2026-05-02T08:40:52.001Z</time></trkpt><trkpt lat="45.1579751" lon="8.0561173"><ele>167.0</ele><time>2026-05-02T08:40:53.012Z</time></trkpt><trkpt lat="45.1579509" lon="8.0559959"><ele>167.0</ele><time>2026-05-02T08:40:54.008Z</time></trkpt><trkpt lat="45.1579283" lon="8.0558765"><ele>167.0</ele><time>2026-05-02T08:40:55.003Z</time></trkpt><trkpt lat="45.1579063" lon="8.0557606"><ele>167.0</ele><time>2026-05-02T08:40:56.014Z</time></trkpt><trkpt lat="45.1578855" lon="8.0556549"><ele>167.0</ele><time>2026-05-02T08:40:57.017Z</time></trkpt><trkpt lat="45.1578681" lon="8.0555581"><ele>167.0</ele><time>2026-05-02T08:40:58.011Z</time></trkpt><trkpt lat="45.1578526" lon="8.0554678"><ele>167.0</ele><time>2026-05-02T08:40:58.998Z</time></trkpt><trkpt lat="45.1578499" lon="8.0553283"><ele>167.0</ele><time>2026-05-02T08:41:01.008Z</time></trkpt><trkpt lat="45.1579155" lon="8.055252"><ele>167.0</ele><time>2026-05-02T08:41:03.012Z</time></trkpt><trkpt lat="45.1580353" lon="8.0551994"><ele>167.0</ele><time>2026-05-02T08:41:05.021Z</time></trkpt><trkpt lat="45.1581137" lon="8.0551759"><ele>167.0</ele><time>2026-05-02T08:41:06.02Z</time></trkpt><trkpt lat="45.1582019" lon="8.055153"><ele>166.8</ele><time>2026-05-02T08:41:07.004Z</time></trkpt><trkpt lat="45.1583006" lon="8.0551329"><ele>166.6</ele><time>2026-05-02T08:41:08.001Z</time></trkpt><trkpt lat="45.1584054" lon="8.0551099"><ele>166.4</ele><time>2026-05-02T08:41:09.007Z</time></trkpt><trkpt lat="45.1585155" lon="8.0550819"><ele>166.20000000000002</ele><time>2026-05-02T08:41:10.006Z</time></trkpt><trkpt lat="45.1586264" lon="8.0550502"><ele>166.0</ele><time>2026-05-02T08:41:11.007Z</time></trkpt><trkpt lat="45.1587316" lon="8.0550181"><ele>166.0</ele><time>2026-05-02T08:41:12.004Z</time></trkpt><trkpt lat="45.1588344" lon="8.0549843"><ele>166.0</ele><time>2026-05-02T08:41:12.997Z</time></trkpt><trkpt lat="45.1589371" lon="8.0549502"><ele>166.0</ele><time>2026-05-02T08:41:14.009Z</time></trkpt><trkpt lat="45.1590393" lon="8.0549135"><ele>166.0</ele><time>2026-05-02T08:41:15.015Z</time></trkpt><trkpt lat="45.1591411" lon="8.0548743"><ele>166.0</ele><time>2026-05-02T08:41:16.008Z</time></trkpt><trkpt lat="45.1592421" lon="8.0548362"><ele>165.60000000000002</ele><time>2026-05-02T08:41:17.007Z</time></trkpt><trkpt lat="45.1593429" lon="8.054796"><ele>165.2</ele><time>2026-05-02T08:41:18.004Z</time></trkpt><trkpt lat="45.1594451" lon="8.0547569"><ele>164.8</ele><time>2026-05-02T08:41:19.005Z</time></trkpt><trkpt lat="45.1595451" lon="8.0547105"><ele>164.39999999999998</ele><time>2026-05-02T08:41:20Z</time></trkpt><trkpt lat="45.1596443" lon="8.0546661"><ele>164.0</ele><time>2026-05-02T08:41:21.01Z</time></trkpt><trkpt lat="45.1597418" lon="8.054623"><ele>164.0</ele><time>2026-05-02T08:41:22.016Z</time></trkpt><trkpt lat="45.1598432" lon="8.0545811"><ele>164.0</ele><time>2026-05-02T08:41:23.007Z</time></trkpt><trkpt lat="45.1599368" lon="8.054547"><ele>164.0</ele><time>2026-05-02T08:41:24.009Z</time></trkpt><trkpt lat="45.1600342" lon="8.054512"><ele>164.0</ele><time>2026-05-02T08:41:25.005Z</time></trkpt><trkpt lat="45.1601303" lon="8.0544709"><ele>164.0</ele><time>2026-05-02T08:41:26.003Z</time></trkpt><trkpt lat="45.1602263" lon="8.05442"><ele>164.33333333333331</ele><time>2026-05-02T08:41:27.006Z</time></trkpt><trkpt lat="45.1603212" lon="8.0543597"><ele>164.66666666666666</ele><time>2026-05-02T08:41:28.009Z</time></trkpt><trkpt lat="45.1604042" lon="8.0542949"><ele>165.0</ele><time>2026-05-02T08:41:29.01Z</time></trkpt><trkpt lat="45.160482" lon="8.0542373"><ele>165.33333333333334</ele><time>2026-05-02T08:41:30.003Z</time></trkpt><trkpt lat="45.1605569" lon="8.0541864"><ele>165.66666666666669</ele><time>2026-05-02T08:41:31.004Z</time></trkpt><trkpt lat="45.1606275" lon="8.0541407"><ele>166.0</ele><time>2026-05-02T08:41:32.008Z</time></trkpt><trkpt lat="45.1606931" lon="8.0540979"><ele>165.0</ele><time>2026-05-02T08:41:33.006Z</time></trkpt><trkpt lat="45.1607522" lon="8.054056"><ele>164.0</ele><time>2026-05-02T08:41:34.005Z</time></trkpt><trkpt lat="45.1608448" lon="8.0539327"><ele>163.0</ele><time>2026-05-02T08:41:36.004Z</time></trkpt><trkpt lat="45.1608863" lon="8.0538493"><ele>162.0</ele><time>2026-05-02T08:41:37Z</time></trkpt><trkpt lat="45.1609319" lon="8.0537488"><ele>161.0</ele><time>2026-05-02T08:41:38.009Z</time></trkpt><trkpt lat="45.1609809" lon="8.0536376"><ele>160.0</ele><time>2026-05-02T08:41:39.001Z</time></trkpt><trkpt lat="45.161036" lon="8.0535196"><ele>160.0</ele><time>2026-05-02T08:41:40.004Z</time></trkpt><trkpt lat="45.1610929" lon="8.053396"><ele>160.0</ele><time>2026-05-02T08:41:40.998Z</time></trkpt><trkpt lat="45.1611539" lon="8.053266"><ele>160.0</ele><time>2026-05-02T08:41:42Z</time></trkpt><trkpt lat="45.1612163" lon="8.0531322"><ele>160.0</ele><time>2026-05-02T08:41:43.003Z</time></trkpt><trkpt lat="45.1612779" lon="8.0529942"><ele>160.0</ele><time>2026-05-02T08:41:44.009Z</time></trkpt><trkpt lat="45.16134" lon="8.0528542"><ele>160.2</ele><time>2026-05-02T08:41:45.008Z</time></trkpt><trkpt lat="45.1614044" lon="8.0527174"><ele>160.4</ele><time>2026-05-02T08:41:46.002Z</time></trkpt><trkpt lat="45.1614672" lon="8.0525776"><ele>160.60000000000002</ele><time>2026-05-02T08:41:47.009Z</time></trkpt><trkpt lat="45.1615224" lon="8.0524476"><ele>160.8</ele><time>2026-05-02T08:41:48.002Z</time></trkpt><trkpt lat="45.1615714" lon="8.0523313"><ele>161.0</ele><time>2026-05-02T08:41:49.005Z</time></trkpt><trkpt lat="45.1616179" lon="8.0522153"><ele>161.0</ele><time>2026-05-02T08:41:50.009Z</time></trkpt><trkpt lat="45.1616651" lon="8.0520995"><ele>161.0</ele><time>2026-05-02T08:41:51.006Z</time></trkpt><trkpt lat="45.1617146" lon="8.0519728"><ele>161.0</ele><time>2026-05-02T08:41:52.016Z</time></trkpt><trkpt lat="45.1617676" lon="8.0518341"><ele>161.0</ele><time>2026-05-02T08:41:53.013Z</time></trkpt><trkpt lat="45.1618236" lon="8.0516956"><ele>161.0</ele><time>2026-05-02T08:41:54.002Z</time></trkpt><trkpt lat="45.1618818" lon="8.0515569"><ele>160.60000000000002</ele><time>2026-05-02T08:41:55.012Z</time></trkpt><trkpt lat="45.1619421" lon="8.05142"><ele>160.20000000000002</ele><time>2026-05-02T08:41:56.002Z</time></trkpt><trkpt lat="45.1620043" lon="8.051298"><ele>159.8</ele><time>2026-05-02T08:41:57.013Z</time></trkpt><trkpt lat="45.1620714" lon="8.0511947"><ele>159.4</ele><time>2026-05-02T08:41:58.009Z</time></trkpt><trkpt lat="45.1621431" lon="8.0511135"><ele>159.0</ele><time>2026-05-02T08:41:59.008Z</time></trkpt><trkpt lat="45.1622247" lon="8.0510585"><ele>159.0</ele><time>2026-05-02T08:42:00.005Z</time></trkpt><trkpt lat="45.1623218" lon="8.0510246"><ele>159.0</ele><time>2026-05-02T08:42:01.003Z</time></trkpt><trkpt lat="45.1624359" lon="8.0510169"><ele>159.0</ele><time>2026-05-02T08:42:02.005Z</time></trkpt><trkpt lat="45.1625561" lon="8.0510095"><ele>159.0</ele><time>2026-05-02T08:42:03.008Z</time></trkpt><trkpt lat="45.1626914" lon="8.0510261"><ele>159.2</ele><time>2026-05-02T08:42:04.003Z</time></trkpt><trkpt lat="45.1628164" lon="8.051044"><ele>159.4</ele><time>2026-05-02T08:42:05.003Z</time></trkpt><trkpt lat="45.1629187" lon="8.0510616"><ele>159.6</ele><time>2026-05-02T08:42:06.004Z</time></trkpt><trkpt lat="45.1630091" lon="8.0510767"><ele>159.8</ele><time>2026-05-02T08:42:07.014Z</time></trkpt><trkpt lat="45.1630878" lon="8.0510914"><ele>160.0</ele><time>2026-05-02T08:42:08.013Z</time></trkpt><trkpt lat="45.1631569" lon="8.0510991"><ele>160.0</ele><time>2026-05-02T08:42:09.002Z</time></trkpt><trkpt lat="45.16327" lon="8.0510767"><ele>160.0</ele><time>2026-05-02T08:42:11.007Z</time></trkpt><trkpt lat="45.1633495" lon="8.0509326"><ele>160.0</ele><time>2026-05-02T08:42:13.004Z</time></trkpt><trkpt lat="45.1633846" lon="8.0508239"><ele>160.0</ele><time>2026-05-02T08:42:14.005Z</time></trkpt><trkpt lat="45.1634253" lon="8.0506964"><ele>160.0</ele><time>2026-05-02T08:42:15.016Z</time></trkpt><trkpt lat="45.1634757" lon="8.0505606"><ele>160.0</ele><time>2026-05-02T08:42:16.015Z</time></trkpt><trkpt lat="45.1635198" lon="8.0504261"><ele>160.0</ele><time>2026-05-02T08:42:17.018Z</time></trkpt><trkpt lat="45.1635715" lon="8.0502922"><ele>160.0</ele><time>2026-05-02T08:42:18Z</time></trkpt><trkpt lat="45.1636256" lon="8.0501551"><ele>160.0</ele><time>2026-05-02T08:42:19.005Z</time></trkpt><trkpt lat="45.1636776" lon="8.0500093"><ele>160.0</ele><time>2026-05-02T08:42:20.003Z</time></trkpt><trkpt lat="45.1637294" lon="8.0498692"><ele>159.2</ele><time>2026-05-02T08:42:21Z</time></trkpt><trkpt lat="45.1637785" lon="8.0497385"><ele>158.4</ele><time>2026-05-02T08:42:22.004Z</time></trkpt><trkpt lat="45.1638259" lon="8.0496181"><ele>157.6</ele><time>2026-05-02T08:42:23.011Z</time></trkpt><trkpt lat="45.1638644" lon="8.0494932"><ele>156.8</ele><time>2026-05-02T08:42:24.006Z</time></trkpt><trkpt lat="45.1639059" lon="8.0493684"><ele>156.0</ele><time>2026-05-02T08:42:25.006Z</time></trkpt><trkpt lat="45.1639404" lon="8.0492331"><ele>156.2</ele><time>2026-05-02T08:42:25.997Z</time></trkpt><trkpt lat="45.1639775" lon="8.0491086"><ele>156.39999999999998</ele><time>2026-05-02T08:42:27.006Z</time></trkpt><trkpt lat="45.1640207" lon="8.0489829"><ele>156.6</ele><time>2026-05-02T08:42:28.012Z</time></trkpt><trkpt lat="45.1640655" lon="8.0488653"><ele>156.79999999999998</ele><time>2026-05-02T08:42:29.008Z</time></trkpt><trkpt lat="45.1641255" lon="8.0487353"><ele>157.0</ele><time>2026-05-02T08:42:30.002Z</time></trkpt><trkpt lat="45.164188" lon="8.0486027"><ele>157.0</ele><time>2026-05-02T08:42:31.006Z</time></trkpt><trkpt lat="45.16426" lon="8.048463"><ele>157.0</ele><time>2026-05-02T08:42:32.01Z</time></trkpt><trkpt lat="45.1643275" lon="8.0483384"><ele>157.0</ele><time>2026-05-02T08:42:33.004Z</time></trkpt><trkpt lat="45.16439" lon="8.0482186"><ele>157.0</ele><time>2026-05-02T08:42:34.005Z</time></trkpt><trkpt lat="45.1644438" lon="8.0481107"><ele>157.0</ele><time>2026-05-02T08:42:35.013Z</time></trkpt><trkpt lat="45.164501" lon="8.0479881"><ele>157.0</ele><time>2026-05-02T08:42:36Z</time></trkpt><trkpt lat="45.1645558" lon="8.0478692"><ele>157.0</ele><time>2026-05-02T08:42:37.005Z</time></trkpt><trkpt lat="45.1646128" lon="8.0477477"><ele>157.0</ele><time>2026-05-02T08:42:38.009Z</time></trkpt><trkpt lat="45.1646758" lon="8.0476247"><ele>157.0</ele><time>2026-05-02T08:42:39.009Z</time></trkpt><trkpt lat="45.1647379" lon="8.0474962"><ele>157.0</ele><time>2026-05-02T08:42:40.015Z</time></trkpt><trkpt lat="45.1647992" lon="8.047374"><ele>157.4</ele><time>2026-05-02T08:42:41Z</time></trkpt><trkpt lat="45.1648573" lon="8.047267"><ele>157.79999999999998</ele><time>2026-05-02T08:42:42.016Z</time></trkpt><trkpt lat="45.1649132" lon="8.0471608"><ele>158.2</ele><time>2026-05-02T08:42:43.003Z</time></trkpt><trkpt lat="45.1649703" lon="8.0470491"><ele>158.6</ele><time>2026-05-02T08:42:44.011Z</time></trkpt><trkpt lat="45.1650284" lon="8.0469429"><ele>159.0</ele><time>2026-05-02T08:42:45.006Z</time></trkpt><trkpt lat="45.1650887" lon="8.046837"><ele>159.0</ele><time>2026-05-02T08:42:45.999Z</time></trkpt><trkpt lat="45.1651454" lon="8.0467366"><ele>159.0</ele><time>2026-05-02T08:42:47.008Z</time></trkpt><trkpt lat="45.1652015" lon="8.0466346"><ele>159.0</ele><time>2026-05-02T08:42:48.011Z</time></trkpt><trkpt lat="45.1652593" lon="8.0465338"><ele>159.0</ele><time>2026-05-02T08:42:49.005Z</time></trkpt><trkpt lat="45.1653106" lon="8.0464444"><ele>159.0</ele><time>2026-05-02T08:42:50.01Z</time></trkpt><trkpt lat="45.1653529" lon="8.0463655"><ele>159.0</ele><time>2026-05-02T08:42:51.011Z</time></trkpt><trkpt lat="45.165396" lon="8.0462977"><ele>159.0</ele><time>2026-05-02T08:42:52.002Z</time></trkpt><trkpt lat="45.1654593" lon="8.0462629"><ele>159.0</ele><time>2026-05-02T08:42:54.009Z</time></trkpt><trkpt lat="45.1655506" lon="8.0463136"><ele>159.0</ele><time>2026-05-02T08:42:56.011Z</time></trkpt><trkpt lat="45.1656129" lon="8.0463492"><ele>159.0</ele><time>2026-05-02T08:42:57.001Z</time></trkpt><trkpt lat="45.165682" lon="8.0463904"><ele>159.0</ele><time>2026-05-02T08:42:57.994Z</time></trkpt><trkpt lat="45.1657451" lon="8.0464285"><ele>159.0</ele><time>2026-05-02T08:42:59.008Z</time></trkpt><trkpt lat="45.1658033" lon="8.0464665"><ele>159.0</ele><time>2026-05-02T08:43:00.004Z</time></trkpt><trkpt lat="45.1659036" lon="8.0465374"><ele>159.0</ele><time>2026-05-02T08:43:02Z</time></trkpt><trkpt lat="45.1660212" lon="8.0466018"><ele>159.0</ele><time>2026-05-02T08:43:04.016Z</time></trkpt><trkpt lat="45.1660926" lon="8.0466409"><ele>159.0</ele><time>2026-05-02T08:43:05.006Z</time></trkpt><trkpt lat="45.1661645" lon="8.0466783"><ele>159.0</ele><time>2026-05-02T08:43:06.002Z</time></trkpt><trkpt lat="45.1662448" lon="8.0467107"><ele>159.0</ele><time>2026-05-02T08:43:07.005Z</time></trkpt><trkpt lat="45.1663298" lon="8.0467472"><ele>159.2</ele><time>2026-05-02T08:43:08.008Z</time></trkpt><trkpt lat="45.1664241" lon="8.0467784"><ele>159.4</ele><time>2026-05-02T08:43:09.001Z</time></trkpt><trkpt lat="45.1665223" lon="8.0468001"><ele>159.6</ele><time>2026-05-02T08:43:10.009Z</time></trkpt><trkpt lat="45.1666228" lon="8.0468144"><ele>159.8</ele><time>2026-05-02T08:43:11.011Z</time></trkpt><trkpt lat="45.166724" lon="8.0468289"><ele>160.0</ele><time>2026-05-02T08:43:12.006Z</time></trkpt><trkpt lat="45.1668258" lon="8.0468407"><ele>159.6</ele><time>2026-05-02T08:43:13.009Z</time></trkpt><trkpt lat="45.1669321" lon="8.0468506"><ele>159.2</ele><time>2026-05-02T08:43:14.001Z</time></trkpt><trkpt lat="45.1670384" lon="8.0468572"><ele>158.8</ele><time>2026-05-02T08:43:15.009Z</time></trkpt><trkpt lat="45.1671455" lon="8.0468634"><ele>158.4</ele><time>2026-05-02T08:43:16.007Z</time></trkpt><trkpt lat="45.1672474" lon="8.0468689"><ele>158.0</ele><time>2026-05-02T08:43:17.008Z</time></trkpt><trkpt lat="45.1673491" lon="8.0468717"><ele>158.16666666666666</ele><time>2026-05-02T08:43:18.007Z</time></trkpt><trkpt lat="45.1674434" lon="8.0468732"><ele>158.33333333333331</ele><time>2026-05-02T08:43:19.012Z</time></trkpt><trkpt lat="45.1675336" lon="8.0468779"><ele>158.5</ele><time>2026-05-02T08:43:20.001Z</time></trkpt><trkpt lat="45.167621" lon="8.0468866"><ele>158.66666666666666</ele><time>2026-05-02T08:43:21.008Z</time></trkpt><trkpt lat="45.1677056" lon="8.0468988"><ele>158.83333333333334</ele><time>2026-05-02T08:43:22.002Z</time></trkpt><trkpt lat="45.1677861" lon="8.0469156"><ele>159.0</ele><time>2026-05-02T08:43:23.008Z</time></trkpt><trkpt lat="45.16785" lon="8.0469347"><ele>159.0</ele><time>2026-05-02T08:43:24.003Z</time></trkpt><trkpt lat="45.1679608" lon="8.0469309"><ele>159.0</ele><time>2026-05-02T08:43:25.999Z</time></trkpt><trkpt lat="45.1680719" lon="8.0468507"><ele>159.0</ele><time>2026-05-02T08:43:28Z</time></trkpt><trkpt lat="45.1681145" lon="8.0467755"><ele>159.0</ele><time>2026-05-02T08:43:29.003Z</time></trkpt><trkpt lat="45.1681434" lon="8.046678"><ele>159.0</ele><time>2026-05-02T08:43:30.009Z</time></trkpt><trkpt lat="45.1681602" lon="8.046581"><ele>159.0</ele><time>2026-05-02T08:43:31.009Z</time></trkpt><trkpt lat="45.1681703" lon="8.0464787"><ele>159.16666666666666</ele><time>2026-05-02T08:43:32.003Z</time></trkpt><trkpt lat="45.1681703" lon="8.0463827"><ele>159.33333333333334</ele><time>2026-05-02T08:43:32.999Z</time></trkpt><trkpt lat="45.1681687" lon="8.0462818"><ele>159.5</ele><time>2026-05-02T08:43:34Z</time></trkpt><trkpt lat="45.1681825" lon="8.0461309"><ele>159.66666666666669</ele><time>2026-05-02T08:43:36.002Z</time></trkpt><trkpt lat="45.168244" lon="8.0460571"><ele>159.83333333333334</ele><time>2026-05-02T08:43:37.999Z</time></trkpt><trkpt lat="45.1683587" lon="8.0460649"><ele>160.0</ele><time>2026-05-02T08:43:40.007Z</time></trkpt><trkpt lat="45.168424" lon="8.0460816"><ele>160.0</ele><time>2026-05-02T08:43:41.001Z</time></trkpt><trkpt lat="45.1684869" lon="8.0460959"><ele>160.0</ele><time>2026-05-02T08:43:42.011Z</time></trkpt><trkpt lat="45.1685514" lon="8.0461009"><ele>160.0</ele><time>2026-05-02T08:43:43.005Z</time></trkpt><trkpt lat="45.1686223" lon="8.0460919"><ele>160.0</ele><time>2026-05-02T08:43:44.002Z</time></trkpt><trkpt lat="45.1686886" lon="8.0460631"><ele>160.0</ele><time>2026-05-02T08:43:45.011Z</time></trkpt><trkpt lat="45.1687486" lon="8.0460066"><ele>160.0</ele><time>2026-05-02T08:43:46.001Z</time></trkpt><trkpt lat="45.1688054" lon="8.0459419"><ele>160.0</ele><time>2026-05-02T08:43:47.008Z</time></trkpt><trkpt lat="45.1688612" lon="8.0458625"><ele>160.0</ele><time>2026-05-02T08:43:48.027Z</time></trkpt><trkpt lat="45.1689114" lon="8.0457845"><ele>160.0</ele><time>2026-05-02T08:43:49.014Z</time></trkpt><trkpt lat="45.1689525" lon="8.0456919"><ele>160.0</ele><time>2026-05-02T08:43:50.008Z</time></trkpt><trkpt lat="45.1689937" lon="8.0455968"><ele>160.0</ele><time>2026-05-02T08:43:51.003Z</time></trkpt><trkpt lat="45.1690304" lon="8.0455085"><ele>160.0</ele><time>2026-05-02T08:43:51.999Z</time></trkpt><trkpt lat="45.1690664" lon="8.045428"><ele>160.0</ele><time>2026-05-02T08:43:53.006Z</time></trkpt><trkpt lat="45.1691067" lon="8.0453581"><ele>160.0</ele><time>2026-05-02T08:43:54.001Z</time></trkpt><trkpt lat="45.1691993" lon="8.0452471"><ele>160.0</ele><time>2026-05-02T08:43:56.004Z</time></trkpt><trkpt lat="45.1692892" lon="8.045217"><ele>160.0</ele><time>2026-05-02T08:43:58.001Z</time></trkpt><trkpt lat="45.1693626" lon="8.0451982"><ele>160.0</ele><time>2026-05-02T08:44:01.003Z</time></trkpt><trkpt lat="45.1694283" lon="8.0451909"><ele>160.0</ele><time>2026-05-02T08:45:44Z</time></trkpt><trkpt lat="45.1695048" lon="8.0451885"><ele>160.0</ele><time>2026-05-02T08:45:46Z</time></trkpt><trkpt lat="45.169594" lon="8.0451919"><ele>160.0</ele><time>2026-05-02T08:45:48.001Z</time></trkpt><trkpt lat="45.1696891" lon="8.0451933"><ele>160.0</ele><time>2026-05-02T08:45:50.001Z</time></trkpt><trkpt lat="45.1697944" lon="8.0451957"><ele>160.0</ele><time>2026-05-02T08:45:51.998Z</time></trkpt><trkpt lat="45.1699007" lon="8.0451944"><ele>160.0</ele><time>2026-05-02T08:45:53.996Z</time></trkpt><trkpt lat="45.1700121" lon="8.0451997"><ele>160.0</ele><time>2026-05-02T08:45:56.002Z</time></trkpt><trkpt lat="45.1701187" lon="8.0452019"><ele>160.0</ele><time>2026-05-02T08:45:57.992Z</time></trkpt><trkpt lat="45.1702262" lon="8.0451619"><ele>160.4</ele><time>2026-05-02T08:46:00.003Z</time></trkpt><trkpt lat="45.1703328" lon="8.0450962"><ele>160.8</ele><time>2026-05-02T08:46:02Z</time></trkpt><trkpt lat="45.1704431" lon="8.0450176"><ele>161.2</ele><time>2026-05-02T08:46:04.006Z</time></trkpt><trkpt lat="45.170544" lon="8.0449426"><ele>161.6</ele><time>2026-05-02T08:46:06.008Z</time></trkpt><trkpt lat="45.1706258" lon="8.0448957"><ele>162.0</ele><time>2026-05-02T08:46:07.995Z</time></trkpt><trkpt lat="45.1706994" lon="8.0448527"><ele>162.2</ele><time>2026-05-02T08:46:10.008Z</time></trkpt><trkpt lat="45.17078" lon="8.0447894"><ele>162.39999999999998</ele><time>2026-05-02T08:46:12Z</time></trkpt><trkpt lat="45.1708632" lon="8.0447327"><ele>162.60000000000002</ele><time>2026-05-02T08:46:14.004Z</time></trkpt><trkpt lat="45.1709464" lon="8.0446817"><ele>162.8</ele><time>2026-05-02T08:46:16.021Z</time></trkpt><trkpt lat="45.1710292" lon="8.0446387"><ele>163.0</ele><time>2026-05-02T08:46:18.027Z</time></trkpt><trkpt lat="45.1711163" lon="8.0445998"><ele>163.0</ele><time>2026-05-02T08:46:20.019Z</time></trkpt><trkpt lat="45.1712014" lon="8.0445891"><ele>163.0</ele><time>2026-05-02T08:46:22.022Z</time></trkpt><trkpt lat="45.1712933" lon="8.0445906"><ele>163.0</ele><time>2026-05-02T08:46:24.997Z</time></trkpt><trkpt lat="45.171385" lon="8.0445755"><ele>163.0</ele><time>2026-05-02T08:46:27.005Z</time></trkpt><trkpt lat="45.1714859" lon="8.0445425"><ele>163.0</ele><time>2026-05-02T08:46:29.004Z</time></trkpt><trkpt lat="45.1715983" lon="8.04451"><ele>163.5</ele><time>2026-05-02T08:46:31.002Z</time></trkpt><trkpt lat="45.1717207" lon="8.0444737"><ele>164.0</ele><time>2026-05-02T08:46:33Z</time></trkpt><trkpt lat="45.1717831" lon="8.0444519"><ele>164.5</ele><time>2026-05-02T08:46:34.002Z</time></trkpt><trkpt lat="45.1718471" lon="8.0444305"><ele>165.0</ele><time>2026-05-02T08:46:34.996Z</time></trkpt><trkpt lat="45.1719106" lon="8.0444115"><ele>165.5</ele><time>2026-05-02T08:46:36.005Z</time></trkpt><trkpt lat="45.1719726" lon="8.0443937"><ele>166.0</ele><time>2026-05-02T08:46:37.006Z</time></trkpt><trkpt lat="45.1720777" lon="8.0443704"><ele>166.0</ele><time>2026-05-02T08:46:38.998Z</time></trkpt><trkpt lat="45.1721445" lon="8.0443272"><ele>166.0</ele><time>2026-05-02T08:46:41.002Z</time></trkpt><trkpt lat="45.1721835" lon="8.0442324"><ele>166.0</ele><time>2026-05-02T08:46:43.005Z</time></trkpt><trkpt lat="45.1722029" lon="8.0440964"><ele>166.0</ele><time>2026-05-02T08:46:45.002Z</time></trkpt><trkpt lat="45.1722024" lon="8.0439471"><ele>166.0</ele><time>2026-05-02T08:46:47.009Z</time></trkpt><trkpt lat="45.1722005" lon="8.0437948"><ele>165.4</ele><time>2026-05-02T08:46:49.013Z</time></trkpt><trkpt lat="45.1722022" lon="8.0436458"><ele>164.8</ele><time>2026-05-02T08:46:50.999Z</time></trkpt><trkpt lat="45.1721999" lon="8.0434906"><ele>164.20000000000002</ele><time>2026-05-02T08:46:52.993Z</time></trkpt><trkpt lat="45.1721937" lon="8.0433153"><ele>163.60000000000002</ele><time>2026-05-02T08:46:55.003Z</time></trkpt><trkpt lat="45.1721874" lon="8.0432245"><ele>163.0</ele><time>2026-05-02T08:46:55.995Z</time></trkpt><trkpt lat="45.1721829" lon="8.0431297"><ele>162.71428571428572</ele><time>2026-05-02T08:46:56.997Z</time></trkpt><trkpt lat="45.1721793" lon="8.0430327"><ele>162.42857142857142</ele><time>2026-05-02T08:46:58.012Z</time></trkpt><trkpt lat="45.1721752" lon="8.0429373"><ele>162.14285714285714</ele><time>2026-05-02T08:46:58.994Z</time></trkpt><trkpt lat="45.1721713" lon="8.0428409"><ele>161.85714285714286</ele><time>2026-05-02T08:47:00Z</time></trkpt><trkpt lat="45.1721675" lon="8.042747"><ele>161.57142857142856</ele><time>2026-05-02T08:47:01.005Z</time></trkpt><trkpt lat="45.1721673" lon="8.0426516"><ele>161.28571428571428</ele><time>2026-05-02T08:47:01.999Z</time></trkpt><trkpt lat="45.1721739" lon="8.04256"><ele>161.0</ele><time>2026-05-02T08:47:02.996Z</time></trkpt><trkpt lat="45.1721822" lon="8.042469"><ele>161.20000000000002</ele><time>2026-05-02T08:47:04.004Z</time></trkpt><trkpt lat="45.1721859" lon="8.0422941"><ele>161.4</ele><time>2026-05-02T08:47:06.002Z</time></trkpt><trkpt lat="45.1721653" lon="8.0421331"><ele>161.6</ele><time>2026-05-02T08:47:07.997Z</time></trkpt><trkpt lat="45.1721065" lon="8.0419741"><ele>161.8</ele><time>2026-05-02T08:47:10.002Z</time></trkpt><trkpt lat="45.1720788" lon="8.0418894"><ele>162.0</ele><time>2026-05-02T08:47:10.994Z</time></trkpt><trkpt lat="45.1720546" lon="8.041733"><ele>161.4</ele><time>2026-05-02T08:47:12.991Z</time></trkpt><trkpt lat="45.1720652" lon="8.0415788"><ele>160.79999999999998</ele><time>2026-05-02T08:47:15.002Z</time></trkpt><trkpt lat="45.172084" lon="8.0414073"><ele>160.2</ele><time>2026-05-02T08:47:17.001Z</time></trkpt><trkpt lat="45.1720854" lon="8.0412413"><ele>159.6</ele><time>2026-05-02T08:47:19.002Z</time></trkpt><trkpt lat="45.1720475" lon="8.0411268"><ele>159.0</ele><time>2026-05-02T08:47:20.996Z</time></trkpt><trkpt lat="45.1720184" lon="8.041042"><ele>159.0</ele><time>2026-05-02T08:47:23.002Z</time></trkpt><trkpt lat="45.172042" lon="8.0409504"><ele>159.0</ele><time>2026-05-02T08:47:25Z</time></trkpt><trkpt lat="45.1720858" lon="8.0408456"><ele>159.0</ele><time>2026-05-02T08:47:27.001Z</time></trkpt><trkpt lat="45.172091" lon="8.0407244"><ele>159.0</ele><time>2026-05-02T08:47:28.997Z</time></trkpt><trkpt lat="45.1720865" lon="8.0406056"><ele>159.0</ele><time>2026-05-02T08:47:30.995Z</time></trkpt><trkpt lat="45.1720924" lon="8.0404828"><ele>159.0</ele><time>2026-05-02T08:47:32.995Z</time></trkpt><trkpt lat="45.1721132" lon="8.0403629"><ele>158.83333333333334</ele><time>2026-05-02T08:47:35.007Z</time></trkpt><trkpt lat="45.1721305" lon="8.0402171"><ele>158.66666666666666</ele><time>2026-05-02T08:47:37.003Z</time></trkpt><trkpt lat="45.1721305" lon="8.0400776"><ele>158.5</ele><time>2026-05-02T08:47:38.996Z</time></trkpt><trkpt lat="45.1721097" lon="8.0399922"><ele>158.33333333333331</ele><time>2026-05-02T08:47:39.994Z</time></trkpt><trkpt lat="45.172093" lon="8.0399016"><ele>158.16666666666666</ele><time>2026-05-02T08:47:40.997Z</time></trkpt><trkpt lat="45.1720728" lon="8.0398092"><ele>158.0</ele><time>2026-05-02T08:47:41.993Z</time></trkpt><trkpt lat="45.1720277" lon="8.0396383"><ele>158.0</ele><time>2026-05-02T08:47:44.001Z</time></trkpt><trkpt lat="45.1719866" lon="8.0394816"><ele>158.0</ele><time>2026-05-02T08:47:45.991Z</time></trkpt><trkpt lat="45.1719555" lon="8.0393182"><ele>158.0</ele><time>2026-05-02T08:47:47.998Z</time></trkpt><trkpt lat="45.1719318" lon="8.039183"><ele>158.0</ele><time>2026-05-02T08:47:49.997Z</time></trkpt><trkpt lat="45.1719347" lon="8.0390319"><ele>158.0</ele><time>2026-05-02T08:47:51.999Z</time></trkpt><trkpt lat="45.1719625" lon="8.0388578"><ele>158.00000000000003</ele><time>2026-05-02T08:47:53.999Z</time></trkpt><trkpt lat="45.1719766" lon="8.0387657"><ele>158.0</ele><time>2026-05-02T08:47:54.998Z</time></trkpt><trkpt lat="45.1719987" lon="8.0386765"><ele>158.0</ele><time>2026-05-02T08:47:55.999Z</time></trkpt><trkpt lat="45.1720312" lon="8.0385842"><ele>158.0</ele><time>2026-05-02T08:47:56.999Z</time></trkpt><trkpt lat="45.1720688" lon="8.0384943"><ele>158.0</ele><time>2026-05-02T08:47:58.002Z</time></trkpt><trkpt lat="45.1721103" lon="8.0384105"><ele>158.00000000000003</ele><time>2026-05-02T08:47:58.999Z</time></trkpt><trkpt lat="45.1721512" lon="8.038323"><ele>158.0</ele><time>2026-05-02T08:47:59.998Z</time></trkpt><trkpt lat="45.1721902" lon="8.0382304"><ele>158.14285714285717</ele><time>2026-05-02T08:48:01.001Z</time></trkpt><trkpt lat="45.1722247" lon="8.0381444"><ele>158.28571428571428</ele><time>2026-05-02T08:48:02.009Z</time></trkpt><trkpt lat="45.1722591" lon="8.0380578"><ele>158.42857142857144</ele><time>2026-05-02T08:48:02.994Z</time></trkpt><trkpt lat="45.1722895" lon="8.0379682"><ele>158.57142857142858</ele><time>2026-05-02T08:48:04.005Z</time></trkpt><trkpt lat="45.1723152" lon="8.0378712"><ele>158.71428571428572</ele><time>2026-05-02T08:48:05.001Z</time></trkpt><trkpt lat="45.1723387" lon="8.037782"><ele>158.85714285714286</ele><time>2026-05-02T08:48:05.999Z</time></trkpt><trkpt lat="45.1723612" lon="8.0376946"><ele>159.0</ele><time>2026-05-02T08:48:07.006Z</time></trkpt><trkpt lat="45.1723983" lon="8.0375349"><ele>159.6</ele><time>2026-05-02T08:48:09.009Z</time></trkpt><trkpt lat="45.1724441" lon="8.0373933"><ele>160.2</ele><time>2026-05-02T08:48:11Z</time></trkpt><trkpt lat="45.1725267" lon="8.037284"><ele>160.79999999999998</ele><time>2026-05-02T08:48:12.999Z</time></trkpt><trkpt lat="45.1726195" lon="8.0372074"><ele>161.4</ele><time>2026-05-02T08:48:15.007Z</time></trkpt><trkpt lat="45.1726985" lon="8.0371038"><ele>162.0</ele><time>2026-05-02T08:48:17.002Z</time></trkpt><trkpt lat="45.1727514" lon="8.0369737"><ele>162.0</ele><time>2026-05-02T08:48:19.009Z</time></trkpt><trkpt lat="45.1728121" lon="8.0368358"><ele>162.0</ele><time>2026-05-02T08:48:20.993Z</time></trkpt><trkpt lat="45.1728534" lon="8.0366927"><ele>162.0</ele><time>2026-05-02T08:48:23.01Z</time></trkpt><trkpt lat="45.1728884" lon="8.0365511"><ele>162.0</ele><time>2026-05-02T08:48:25.007Z</time></trkpt><trkpt lat="45.1729436" lon="8.0364176"><ele>162.0</ele><time>2026-05-02T08:48:26.994Z</time></trkpt><trkpt lat="45.1730336" lon="8.0363087"><ele>162.0</ele><time>2026-05-02T08:48:28.999Z</time></trkpt><trkpt lat="45.1731002" lon="8.0362315"><ele>162.0</ele><time>2026-05-02T08:48:30.996Z</time></trkpt><trkpt lat="45.1731246" lon="8.0361217"><ele>162.0</ele><time>2026-05-02T08:48:34.004Z</time></trkpt><trkpt lat="45.173076" lon="8.0360406"><ele>162.0</ele><time>2026-05-02T08:48:36.004Z</time></trkpt><trkpt lat="45.1729842" lon="8.0359487"><ele>162.0</ele><time>2026-05-02T08:48:38.006Z</time></trkpt><trkpt lat="45.1728832" lon="8.0358534"><ele>162.0</ele><time>2026-05-02T08:48:40.016Z</time></trkpt><trkpt lat="45.1727798" lon="8.0357751"><ele>162.0</ele><time>2026-05-02T08:48:42.006Z</time></trkpt><trkpt lat="45.1726831" lon="8.0357413"><ele>162.0</ele><time>2026-05-02T08:48:44.016Z</time></trkpt><trkpt lat="45.1725833" lon="8.0357542"><ele>162.0</ele><time>2026-05-02T08:48:45.996Z</time></trkpt><trkpt lat="45.1724792" lon="8.0358431"><ele>162.0</ele><time>2026-05-02T08:48:48Z</time></trkpt><trkpt lat="45.1724274" lon="8.0358957"><ele>162.0</ele><time>2026-05-02T08:48:48.999Z</time></trkpt><trkpt lat="45.1723701" lon="8.0359507"><ele>162.0</ele><time>2026-05-02T08:48:50.007Z</time></trkpt><trkpt lat="45.1722954" lon="8.0360134"><ele>162.0</ele><time>2026-05-02T08:48:51.994Z</time></trkpt><trkpt lat="45.1722109" lon="8.0360006"><ele>162.0</ele><time>2026-05-02T08:48:53.997Z</time></trkpt><trkpt lat="45.1721045" lon="8.0359586"><ele>162.0</ele><time>2026-05-02T08:48:56.004Z</time></trkpt><trkpt lat="45.1720368" lon="8.0359496"><ele>162.0</ele><time>2026-05-02T08:48:56.992Z</time></trkpt><trkpt lat="45.1719648" lon="8.0359461"><ele>161.66666666666666</ele><time>2026-05-02T08:48:58.001Z</time></trkpt><trkpt lat="45.1718945" lon="8.035932"><ele>161.33333333333334</ele><time>2026-05-02T08:48:59.003Z</time></trkpt><trkpt lat="45.1718235" lon="8.0359148"><ele>161.0</ele><time>2026-05-02T08:49:00.008Z</time></trkpt><trkpt lat="45.171757" lon="8.0358922"><ele>160.66666666666669</ele><time>2026-05-02T08:49:01.007Z</time></trkpt><trkpt lat="45.1716863" lon="8.0358788"><ele>160.33333333333334</ele><time>2026-05-02T08:49:02.018Z</time></trkpt><trkpt lat="45.1716193" lon="8.0358638"><ele>160.0</ele><time>2026-05-02T08:49:03.008Z</time></trkpt><trkpt lat="45.1715032" lon="8.0358513"><ele>160.0</ele><time>2026-05-02T08:49:05.004Z</time></trkpt><trkpt lat="45.171393" lon="8.0358573"><ele>160.0</ele><time>2026-05-02T08:49:07.005Z</time></trkpt><trkpt lat="45.1712949" lon="8.0358988"><ele>160.0</ele><time>2026-05-02T08:49:08.996Z</time></trkpt><trkpt lat="45.1712081" lon="8.0359009"><ele>160.0</ele><time>2026-05-02T08:49:10.997Z</time></trkpt><trkpt lat="45.1711315" lon="8.0358648"><ele>160.0</ele><time>2026-05-02T08:49:13.998Z</time></trkpt><trkpt lat="45.1710633" lon="8.0358324"><ele>160.0</ele><time>2026-05-02T08:49:17.014Z</time></trkpt><trkpt lat="45.1709708" lon="8.0357613"><ele>160.0</ele><time>2026-05-02T08:49:20.004Z</time></trkpt><trkpt lat="45.1709014" lon="8.0357299"><ele>160.0</ele><time>2026-05-02T08:49:21.992Z</time></trkpt><trkpt lat="45.1708354" lon="8.0357071"><ele>160.0</ele><time>2026-05-02T08:57:39.968Z</time></trkpt><trkpt lat="45.1707211" lon="8.0356393"><ele>160.0</ele><time>2026-05-02T08:57:41.99Z</time></trkpt><trkpt lat="45.1706579" lon="8.0355992"><ele>160.0</ele><time>2026-05-02T08:57:42.99Z</time></trkpt><trkpt lat="45.1706002" lon="8.0355624"><ele>160.33333333333334</ele><time>2026-05-02T08:57:43.989Z</time></trkpt><trkpt lat="45.1705159" lon="8.0355139"><ele>160.66666666666669</ele><time>2026-05-02T08:57:45.991Z</time></trkpt><trkpt lat="45.1704333" lon="8.0354645"><ele>161.0</ele><time>2026-05-02T08:57:47.997Z</time></trkpt><trkpt lat="45.1703297" lon="8.0353823"><ele>161.33333333333334</ele><time>2026-05-02T08:57:49.991Z</time></trkpt><trkpt lat="45.1702752" lon="8.0353363"><ele>161.66666666666666</ele><time>2026-05-02T08:57:50.996Z</time></trkpt><trkpt lat="45.1702178" lon="8.0352774"><ele>162.0</ele><time>2026-05-02T08:57:51.988Z</time></trkpt><trkpt lat="45.1701589" lon="8.0352052"><ele>162.0</ele><time>2026-05-02T08:57:52.992Z</time></trkpt><trkpt lat="45.1701027" lon="8.0351286"><ele>162.0</ele><time>2026-05-02T08:57:53.991Z</time></trkpt><trkpt lat="45.1700547" lon="8.0350565"><ele>162.0</ele><time>2026-05-02T08:57:54.986Z</time></trkpt><trkpt lat="45.1699787" lon="8.034937"><ele>162.0</ele><time>2026-05-02T08:57:56.99Z</time></trkpt><trkpt lat="45.169955" lon="8.0348241"><ele>162.0</ele><time>2026-05-02T08:57:58.996Z</time></trkpt><trkpt lat="45.1699909" lon="8.0346788"><ele>161.66666666666666</ele><time>2026-05-02T08:58:00.992Z</time></trkpt><trkpt lat="45.170026" lon="8.0345901"><ele>161.33333333333334</ele><time>2026-05-02T08:58:01.992Z</time></trkpt><trkpt lat="45.1700649" lon="8.0344923"><ele>161.0</ele><time>2026-05-02T08:58:03Z</time></trkpt><trkpt lat="45.1701032" lon="8.0343839"><ele>160.66666666666669</ele><time>2026-05-02T08:58:03.991Z</time></trkpt><trkpt lat="45.1701431" lon="8.0342678"><ele>160.33333333333334</ele><time>2026-05-02T08:58:04.998Z</time></trkpt><trkpt lat="45.1701834" lon="8.0341551"><ele>160.0</ele><time>2026-05-02T08:58:05.994Z</time></trkpt><trkpt lat="45.1702255" lon="8.0340533"><ele>159.66666666666669</ele><time>2026-05-02T08:58:06.993Z</time></trkpt><trkpt lat="45.1702675" lon="8.0339525"><ele>159.33333333333334</ele><time>2026-05-02T08:58:07.993Z</time></trkpt><trkpt lat="45.1703126" lon="8.0338471"><ele>159.0</ele><time>2026-05-02T08:58:08.992Z</time></trkpt><trkpt lat="45.1703616" lon="8.0337438"><ele>158.66666666666666</ele><time>2026-05-02T08:58:09.995Z</time></trkpt><trkpt lat="45.1704132" lon="8.0336391"><ele>158.33333333333331</ele><time>2026-05-02T08:58:10.993Z</time></trkpt><trkpt lat="45.170473" lon="8.0335376"><ele>158.0</ele><time>2026-05-02T08:58:11.996Z</time></trkpt><trkpt lat="45.1705319" lon="8.0334312"><ele>158.0</ele><time>2026-05-02T08:58:12.991Z</time></trkpt><trkpt lat="45.1705898" lon="8.033315"><ele>158.0</ele><time>2026-05-02T08:58:13.995Z</time></trkpt><trkpt lat="45.1706467" lon="8.0331887"><ele>158.0</ele><time>2026-05-02T08:58:14.993Z</time></trkpt><trkpt lat="45.1707012" lon="8.0330639"><ele>158.0</ele><time>2026-05-02T08:58:15.992Z</time></trkpt><trkpt lat="45.1707545" lon="8.0329423"><ele>158.0</ele><time>2026-05-02T08:58:17.011Z</time></trkpt><trkpt lat="45.1708101" lon="8.0328205"><ele>157.4</ele><time>2026-05-02T08:58:17.997Z</time></trkpt><trkpt lat="45.1708678" lon="8.0327002"><ele>156.8</ele><time>2026-05-02T08:58:18.984Z</time></trkpt><trkpt lat="45.1709271" lon="8.032578"><ele>156.2</ele><time>2026-05-02T08:58:19.991Z</time></trkpt><trkpt lat="45.1709879" lon="8.0324554"><ele>155.6</ele><time>2026-05-02T08:58:20.99Z</time></trkpt><trkpt lat="45.1710497" lon="8.0323286"><ele>155.0</ele><time>2026-05-02T08:58:22.01Z</time></trkpt><trkpt lat="45.1711124" lon="8.0322047"><ele>155.0</ele><time>2026-05-02T08:58:22.992Z</time></trkpt><trkpt lat="45.1711789" lon="8.0320845"><ele>155.0</ele><time>2026-05-02T08:58:23.99Z</time></trkpt><trkpt lat="45.1712463" lon="8.0319652"><ele>155.0</ele><time>2026-05-02T08:58:24.99Z</time></trkpt><trkpt lat="45.1713138" lon="8.0318482"><ele>155.0</ele><time>2026-05-02T08:58:25.997Z</time></trkpt><trkpt lat="45.1713844" lon="8.03174"><ele>155.0</ele><time>2026-05-02T08:58:26.992Z</time></trkpt><trkpt lat="45.1714627" lon="8.0316396"><ele>155.4</ele><time>2026-05-02T08:58:27.989Z</time></trkpt><trkpt lat="45.1715443" lon="8.0315432"><ele>155.8</ele><time>2026-05-02T08:58:29.015Z</time></trkpt><trkpt lat="45.1716263" lon="8.0314505"><ele>156.2</ele><time>2026-05-02T08:58:29.99Z</time></trkpt><trkpt lat="45.1717077" lon="8.0313569"><ele>156.6</ele><time>2026-05-02T08:58:30.987Z</time></trkpt><trkpt lat="45.1717863" lon="8.031264"><ele>157.0</ele><time>2026-05-02T08:58:31.99Z</time></trkpt><trkpt lat="45.1718632" lon="8.0311732"><ele>157.0</ele><time>2026-05-02T08:58:32.991Z</time></trkpt><trkpt lat="45.1719339" lon="8.0310857"><ele>157.0</ele><time>2026-05-02T08:58:33.989Z</time></trkpt><trkpt lat="45.1720019" lon="8.0309997"><ele>157.0</ele><time>2026-05-02T08:58:34.987Z</time></trkpt><trkpt lat="45.1720656" lon="8.0309152"><ele>157.0</ele><time>2026-05-02T08:58:35.988Z</time></trkpt><trkpt lat="45.1721266" lon="8.0308304"><ele>157.0</ele><time>2026-05-02T08:58:36.992Z</time></trkpt><trkpt lat="45.1721869" lon="8.0307416"><ele>157.0</ele><time>2026-05-02T08:58:37.991Z</time></trkpt><trkpt lat="45.1722457" lon="8.0306546"><ele>157.5</ele><time>2026-05-02T08:58:38.993Z</time></trkpt><trkpt lat="45.1722949" lon="8.0305524"><ele>158.0</ele><time>2026-05-02T08:58:39.997Z</time></trkpt><trkpt lat="45.1723431" lon="8.0304492"><ele>158.5</ele><time>2026-05-02T08:58:40.991Z</time></trkpt><trkpt lat="45.1723931" lon="8.030351"><ele>159.0</ele><time>2026-05-02T08:58:41.991Z</time></trkpt><trkpt lat="45.1724423" lon="8.0302579"><ele>159.5</ele><time>2026-05-02T08:58:42.992Z</time></trkpt><trkpt lat="45.1724888" lon="8.0301753"><ele>160.0</ele><time>2026-05-02T08:58:43.995Z</time></trkpt><trkpt lat="45.1725274" lon="8.0300946"><ele>161.6</ele><time>2026-05-02T08:58:44.987Z</time></trkpt><trkpt lat="45.1725727" lon="8.0299259"><ele>163.2</ele><time>2026-05-02T08:58:46.99Z</time></trkpt><trkpt lat="45.1725893" lon="8.0298308"><ele>164.8</ele><time>2026-05-02T08:58:47.995Z</time></trkpt><trkpt lat="45.1726019" lon="8.0297271"><ele>166.4</ele><time>2026-05-02T08:58:49.003Z</time></trkpt><trkpt lat="45.1726132" lon="8.0296255"><ele>168.0</ele><time>2026-05-02T08:58:49.993Z</time></trkpt><trkpt lat="45.1726444" lon="8.0294744"><ele>168.0</ele><time>2026-05-02T08:58:52Z</time></trkpt><trkpt lat="45.1726851" lon="8.0293648"><ele>168.0</ele><time>2026-05-02T08:58:54.005Z</time></trkpt><trkpt lat="45.1727423" lon="8.0292389"><ele>168.0</ele><time>2026-05-02T08:58:55.998Z</time></trkpt><trkpt lat="45.1727706" lon="8.0290683"><ele>168.0</ele><time>2026-05-02T08:58:57.99Z</time></trkpt><trkpt lat="45.1727515" lon="8.0288937"><ele>168.0</ele><time>2026-05-02T08:58:59.995Z</time></trkpt><trkpt lat="45.1727374" lon="8.0288059"><ele>168.2</ele><time>2026-05-02T08:59:00.999Z</time></trkpt><trkpt lat="45.1727221" lon="8.0286385"><ele>168.4</ele><time>2026-05-02T08:59:02.992Z</time></trkpt><trkpt lat="45.1727227" lon="8.0285456"><ele>168.6</ele><time>2026-05-02T08:59:03.992Z</time></trkpt><trkpt lat="45.1727064" lon="8.0283901"><ele>168.79999999999998</ele><time>2026-05-02T08:59:05.988Z</time></trkpt><trkpt lat="45.1726407" lon="8.0282679"><ele>169.0</ele><time>2026-05-02T08:59:07.988Z</time></trkpt><trkpt lat="45.1725485" lon="8.0281662"><ele>168.33333333333334</ele><time>2026-05-02T08:59:09.988Z</time></trkpt><trkpt lat="45.1724546" lon="8.0280579"><ele>167.66666666666669</ele><time>2026-05-02T08:59:11.992Z</time></trkpt><trkpt lat="45.1724199" lon="8.0279825"><ele>167.0</ele><time>2026-05-02T08:59:12.99Z</time></trkpt><trkpt lat="45.1723498" lon="8.027832"><ele>166.33333333333334</ele><time>2026-05-02T08:59:14.996Z</time></trkpt><trkpt lat="45.1723094" lon="8.0277525"><ele>165.66666666666666</ele><time>2026-05-02T08:59:15.993Z</time></trkpt><trkpt lat="45.172273" lon="8.027671"><ele>165.0</ele><time>2026-05-02T08:59:16.989Z</time></trkpt><trkpt lat="45.1722419" lon="8.0275792"><ele>164.57142857142858</ele><time>2026-05-02T08:59:17.992Z</time></trkpt><trkpt lat="45.1722139" lon="8.0274906"><ele>164.14285714285714</ele><time>2026-05-02T08:59:18.996Z</time></trkpt><trkpt lat="45.1721897" lon="8.0274059"><ele>163.71428571428572</ele><time>2026-05-02T08:59:19.987Z</time></trkpt><trkpt lat="45.1721662" lon="8.0273212"><ele>163.28571428571428</ele><time>2026-05-02T08:59:20.997Z</time></trkpt><trkpt lat="45.1721356" lon="8.0272374"><ele>162.85714285714286</ele><time>2026-05-02T08:59:21.989Z</time></trkpt><trkpt lat="45.1720855" lon="8.0271334"><ele>162.42857142857144</ele><time>2026-05-02T08:59:23.994Z</time></trkpt><trkpt lat="45.1720339" lon="8.0270786"><ele>162.0</ele><time>2026-05-02T08:59:25.993Z</time></trkpt><trkpt lat="45.1719571" lon="8.0270431"><ele>162.0</ele><time>2026-05-02T08:59:28Z</time></trkpt><trkpt lat="45.1718515" lon="8.0270112"><ele>162.0</ele><time>2026-05-02T08:59:29.991Z</time></trkpt><trkpt lat="45.1717235" lon="8.0269846"><ele>162.0</ele><time>2026-05-02T08:59:31.992Z</time></trkpt><trkpt lat="45.1716545" lon="8.0269797"><ele>162.0</ele><time>2026-05-02T08:59:32.991Z</time></trkpt><trkpt lat="45.1715892" lon="8.0269788"><ele>162.0</ele><time>2026-05-02T08:59:33.995Z</time></trkpt><trkpt lat="45.1714709" lon="8.0269831"><ele>162.0</ele><time>2026-05-02T08:59:35.991Z</time></trkpt><trkpt lat="45.1713967" lon="8.0269642"><ele>162.0</ele><time>2026-05-02T08:59:37.991Z</time></trkpt><trkpt lat="45.1713831" lon="8.026822"><ele>162.0</ele><time>2026-05-02T08:59:40.991Z</time></trkpt><trkpt lat="45.1714145" lon="8.0266584"><ele>162.0</ele><time>2026-05-02T08:59:42.989Z</time></trkpt><trkpt lat="45.1714447" lon="8.0265054"><ele>162.0</ele><time>2026-05-02T08:59:44.992Z</time></trkpt><trkpt lat="45.1714638" lon="8.0263604"><ele>162.0</ele><time>2026-05-02T08:59:46.987Z</time></trkpt><trkpt lat="45.1714835" lon="8.0261984"><ele>162.0</ele><time>2026-05-02T08:59:48.986Z</time></trkpt><trkpt lat="45.17151" lon="8.0260297"><ele>162.0</ele><time>2026-05-02T08:59:50.987Z</time></trkpt><trkpt lat="45.1715389" lon="8.0258557"><ele>162.0</ele><time>2026-05-02T08:59:52.987Z</time></trkpt><trkpt lat="45.1715535" lon="8.0257646"><ele>162.0</ele><time>2026-05-02T08:59:53.994Z</time></trkpt><trkpt lat="45.1715677" lon="8.02567"><ele>162.14285714285714</ele><time>2026-05-02T08:59:54.991Z</time></trkpt><trkpt lat="45.1715798" lon="8.0255724"><ele>162.28571428571428</ele><time>2026-05-02T08:59:55.993Z</time></trkpt><trkpt lat="45.1715887" lon="8.0254731"><ele>162.42857142857144</ele><time>2026-05-02T08:59:56.997Z</time></trkpt><trkpt lat="45.171596" lon="8.0253756"><ele>162.57142857142856</ele><time>2026-05-02T08:59:57.994Z</time></trkpt><trkpt lat="45.1716" lon="8.0252786"><ele>162.7142857142857</ele><time>2026-05-02T08:59:59Z</time></trkpt><trkpt lat="45.171602" lon="8.0251812"><ele>162.85714285714286</ele><time>2026-05-02T08:59:59.998Z</time></trkpt><trkpt lat="45.1716011" lon="8.0250887"><ele>163.0</ele><time>2026-05-02T09:00:00.993Z</time></trkpt><trkpt lat="45.1715988" lon="8.0249553"><ele>162.60000000000002</ele><time>2026-05-02T09:00:02.993Z</time></trkpt><trkpt lat="45.1715719" lon="8.0248401"><ele>162.20000000000002</ele><time>2026-05-02T09:00:05.996Z</time></trkpt><trkpt lat="45.1714948" lon="8.0248144"><ele>161.8</ele><time>2026-05-02T09:00:07.995Z</time></trkpt><trkpt lat="45.171396" lon="8.0248099"><ele>161.4</ele><time>2026-05-02T09:00:09.995Z</time></trkpt><trkpt lat="45.1712818" lon="8.0248042"><ele>161.0</ele><time>2026-05-02T09:00:11.996Z</time></trkpt><trkpt lat="45.1711647" lon="8.024801"><ele>161.0</ele><time>2026-05-02T09:00:13.996Z</time></trkpt><trkpt lat="45.1710588" lon="8.0247839"><ele>161.0</ele><time>2026-05-02T09:00:15.997Z</time></trkpt><trkpt lat="45.1709874" lon="8.0247132"><ele>161.0</ele><time>2026-05-02T09:00:17.996Z</time></trkpt><trkpt lat="45.1709447" lon="8.024593"><ele>161.0</ele><time>2026-05-02T09:00:20Z</time></trkpt><trkpt lat="45.1709106" lon="8.0244791"><ele>161.0</ele><time>2026-05-02T09:00:21.993Z</time></trkpt><trkpt lat="45.1708477" lon="8.0244103"><ele>161.0</ele><time>2026-05-02T09:00:23.997Z</time></trkpt><trkpt lat="45.170753" lon="8.0244014"><ele>161.0</ele><time>2026-05-02T09:00:25.991Z</time></trkpt><trkpt lat="45.1706327" lon="8.0244053"><ele>161.0</ele><time>2026-05-02T09:00:27.995Z</time></trkpt><trkpt lat="45.1705661" lon="8.0244049"><ele>161.0</ele><time>2026-05-02T09:00:28.996Z</time></trkpt><trkpt lat="45.1705017" lon="8.0244063"><ele>161.0</ele><time>2026-05-02T09:00:29.992Z</time></trkpt><trkpt lat="45.1704327" lon="8.0244091"><ele>161.0</ele><time>2026-05-02T09:00:30.997Z</time></trkpt><trkpt lat="45.1703591" lon="8.0244041"><ele>161.0</ele><time>2026-05-02T09:00:31.995Z</time></trkpt><trkpt lat="45.1702878" lon="8.0243945"><ele>161.0</ele><time>2026-05-02T09:00:32.998Z</time></trkpt><trkpt lat="45.1702169" lon="8.0243855"><ele>161.0</ele><time>2026-05-02T09:00:34Z</time></trkpt><trkpt lat="45.1701489" lon="8.0243739"><ele>161.0</ele><time>2026-05-02T09:00:34.99Z</time></trkpt><trkpt lat="45.1700798" lon="8.0243596"><ele>161.0</ele><time>2026-05-02T09:00:35.993Z</time></trkpt><trkpt lat="45.1700094" lon="8.0243421"><ele>161.0</ele><time>2026-05-02T09:00:36.993Z</time></trkpt><trkpt lat="45.1699348" lon="8.024321"><ele>161.0</ele><time>2026-05-02T09:00:38Z</time></trkpt><trkpt lat="45.169856" lon="8.0242931"><ele>161.0</ele><time>2026-05-02T09:00:38.992Z</time></trkpt><trkpt lat="45.1697709" lon="8.0242573"><ele>161.0</ele><time>2026-05-02T09:00:39.996Z</time></trkpt><trkpt lat="45.169678" lon="8.0242135"><ele>161.0</ele><time>2026-05-02T09:00:40.993Z</time></trkpt><trkpt lat="45.1695802" lon="8.0241642"><ele>161.0</ele><time>2026-05-02T09:00:41.995Z</time></trkpt><trkpt lat="45.1694765" lon="8.0241127"><ele>161.0</ele><time>2026-05-02T09:00:42.994Z</time></trkpt><trkpt lat="45.1693705" lon="8.0240575"><ele>161.0</ele><time>2026-05-02T09:00:43.987Z</time></trkpt><trkpt lat="45.1692653" lon="8.0240041"><ele>161.0</ele><time>2026-05-02T09:00:44.987Z</time></trkpt><trkpt lat="45.1691653" lon="8.0239486"><ele>161.0</ele><time>2026-05-02T09:00:45.994Z</time></trkpt><trkpt lat="45.1690751" lon="8.0238951"><ele>161.0</ele><time>2026-05-02T09:00:46.992Z</time></trkpt><trkpt lat="45.1689843" lon="8.0238409"><ele>161.0</ele><time>2026-05-02T09:00:47.993Z</time></trkpt><trkpt lat="45.1688975" lon="8.0237763"><ele>161.0</ele><time>2026-05-02T09:00:48.991Z</time></trkpt><trkpt lat="45.1688119" lon="8.023707"><ele>161.0</ele><time>2026-05-02T09:00:49.997Z</time></trkpt><trkpt lat="45.1687294" lon="8.0236379"><ele>161.0</ele><time>2026-05-02T09:00:50.992Z</time></trkpt><trkpt lat="45.1686595" lon="8.0235772"><ele>161.0</ele><time>2026-05-02T09:00:51.991Z</time></trkpt><trkpt lat="45.168593" lon="8.0235097"><ele>161.0</ele><time>2026-05-02T09:00:52.985Z</time></trkpt><trkpt lat="45.1685296" lon="8.0234411"><ele>161.0</ele><time>2026-05-02T09:00:53.994Z</time></trkpt><trkpt lat="45.1684702" lon="8.0233728"><ele>160.85714285714286</ele><time>2026-05-02T09:00:54.991Z</time></trkpt><trkpt lat="45.1684144" lon="8.0233064"><ele>160.71428571428572</ele><time>2026-05-02T09:00:55.988Z</time></trkpt><trkpt lat="45.1683615" lon="8.0232404"><ele>160.57142857142856</ele><time>2026-05-02T09:00:56.99Z</time></trkpt><trkpt lat="45.1683209" lon="8.0231601"><ele>160.42857142857144</ele><time>2026-05-02T09:00:57.996Z</time></trkpt><trkpt lat="45.1683041" lon="8.0230723"><ele>160.28571428571428</ele><time>2026-05-02T09:00:58.991Z</time></trkpt><trkpt lat="45.1683052" lon="8.0229797"><ele>160.14285714285714</ele><time>2026-05-02T09:00:59.988Z</time></trkpt><trkpt lat="45.1683187" lon="8.0228827"><ele>160.0</ele><time>2026-05-02T09:01:00.989Z</time></trkpt><trkpt lat="45.1683419" lon="8.0227918"><ele>160.0</ele><time>2026-05-02T09:01:01.993Z</time></trkpt><trkpt lat="45.1683722" lon="8.022701"><ele>160.0</ele><time>2026-05-02T09:01:02.993Z</time></trkpt><trkpt lat="45.1683968" lon="8.0226123"><ele>160.0</ele><time>2026-05-02T09:01:03.997Z</time></trkpt><trkpt lat="45.1684222" lon="8.022526"><ele>160.0</ele><time>2026-05-02T09:01:04.999Z</time></trkpt><trkpt lat="45.1684075" lon="8.0223598"><ele>160.0</ele><time>2026-05-02T09:01:06.992Z</time></trkpt><trkpt lat="45.1683831" lon="8.0222769"><ele>160.0</ele><time>2026-05-02T09:01:07.994Z</time></trkpt><trkpt lat="45.168304" lon="8.0221378"><ele>159.85714285714286</ele><time>2026-05-02T09:01:09.999Z</time></trkpt><trkpt lat="45.1682544" lon="8.0220782"><ele>159.71428571428572</ele><time>2026-05-02T09:01:10.992Z</time></trkpt><trkpt lat="45.1682013" lon="8.0220201"><ele>159.57142857142856</ele><time>2026-05-02T09:01:11.994Z</time></trkpt><trkpt lat="45.1681489" lon="8.0219626"><ele>159.42857142857144</ele><time>2026-05-02T09:01:12.992Z</time></trkpt><trkpt lat="45.1680977" lon="8.0219053"><ele>159.2857142857143</ele><time>2026-05-02T09:01:13.999Z</time></trkpt><trkpt lat="45.168046" lon="8.0218442"><ele>159.14285714285714</ele><time>2026-05-02T09:01:14.993Z</time></trkpt><trkpt lat="45.1679935" lon="8.0217743"><ele>159.0</ele><time>2026-05-02T09:01:15.997Z</time></trkpt><trkpt lat="45.1679438" lon="8.0216959"><ele>159.66666666666666</ele><time>2026-05-02T09:01:16.995Z</time></trkpt><trkpt lat="45.167896" lon="8.0216145"><ele>160.33333333333334</ele><time>2026-05-02T09:01:17.997Z</time></trkpt><trkpt lat="45.1678511" lon="8.021529"><ele>161.0</ele><time>2026-05-02T09:01:18.99Z</time></trkpt><trkpt lat="45.1678019" lon="8.0214394"><ele>161.66666666666669</ele><time>2026-05-02T09:01:19.991Z</time></trkpt><trkpt lat="45.1677528" lon="8.0213467"><ele>162.33333333333334</ele><time>2026-05-02T09:01:20.993Z</time></trkpt><trkpt lat="45.167704" lon="8.0212511"><ele>163.0</ele><time>2026-05-02T09:01:21.998Z</time></trkpt><trkpt lat="45.1676532" lon="8.0211525"><ele>163.0</ele><time>2026-05-02T09:01:22.989Z</time></trkpt><trkpt lat="45.1676004" lon="8.0210528"><ele>163.0</ele><time>2026-05-02T09:01:23.993Z</time></trkpt><trkpt lat="45.1675438" lon="8.0209509"><ele>163.0</ele><time>2026-05-02T09:01:24.987Z</time></trkpt><trkpt lat="45.1674858" lon="8.0208451"><ele>163.0</ele><time>2026-05-02T09:01:25.992Z</time></trkpt><trkpt lat="45.1674262" lon="8.0207476"><ele>163.0</ele><time>2026-05-02T09:01:26.988Z</time></trkpt><trkpt lat="45.1673653" lon="8.0206639"><ele>162.83333333333334</ele><time>2026-05-02T09:01:28.007Z</time></trkpt><trkpt lat="45.1673022" lon="8.0205928"><ele>162.66666666666669</ele><time>2026-05-02T09:01:28.996Z</time></trkpt><trkpt lat="45.1672358" lon="8.0205291"><ele>162.5</ele><time>2026-05-02T09:01:29.994Z</time></trkpt><trkpt lat="45.1671688" lon="8.0204765"><ele>162.33333333333334</ele><time>2026-05-02T09:01:31.001Z</time></trkpt><trkpt lat="45.1671004" lon="8.0204267"><ele>162.16666666666666</ele><time>2026-05-02T09:01:31.994Z</time></trkpt><trkpt lat="45.1670428" lon="8.0203727"><ele>162.0</ele><time>2026-05-02T09:01:32.993Z</time></trkpt><trkpt lat="45.1669662" lon="8.0202552"><ele>162.0</ele><time>2026-05-02T09:01:34.991Z</time></trkpt><trkpt lat="45.1669559" lon="8.0201536"><ele>162.0</ele><time>2026-05-02T09:01:36.991Z</time></trkpt><trkpt lat="45.1670206" lon="8.0201097"><ele>162.0</ele><time>2026-05-02T09:01:38.991Z</time></trkpt><trkpt lat="45.1671238" lon="8.0201246"><ele>162.0</ele><time>2026-05-02T09:01:41.008Z</time></trkpt><trkpt lat="45.1672024" lon="8.0201416"><ele>162.0</ele><time>2026-05-02T09:01:43Z</time></trkpt><trkpt lat="45.1672738" lon="8.0200657"><ele>162.0</ele><time>2026-05-02T09:01:45.993Z</time></trkpt><trkpt lat="45.1673349" lon="8.0199135"><ele>162.0</ele><time>2026-05-02T09:01:48.003Z</time></trkpt><trkpt lat="45.1673742" lon="8.0198104"><ele>162.0</ele><time>2026-05-02T09:01:48.996Z</time></trkpt><trkpt lat="45.1674183" lon="8.0196908"><ele>162.0</ele><time>2026-05-02T09:01:49.993Z</time></trkpt><trkpt lat="45.1674604" lon="8.0195573"><ele>162.0</ele><time>2026-05-02T09:01:50.995Z</time></trkpt><trkpt lat="45.1674959" lon="8.0194125"><ele>162.0</ele><time>2026-05-02T09:01:51.993Z</time></trkpt><trkpt lat="45.1675286" lon="8.0192561"><ele>161.75</ele><time>2026-05-02T09:01:52.991Z</time></trkpt><trkpt lat="45.1675605" lon="8.0190956"><ele>161.5</ele><time>2026-05-02T09:01:54.01Z</time></trkpt><trkpt lat="45.1675924" lon="8.0189352"><ele>161.25</ele><time>2026-05-02T09:01:54.993Z</time></trkpt><trkpt lat="45.1676332" lon="8.0187765"><ele>161.0</ele><time>2026-05-02T09:01:55.992Z</time></trkpt><trkpt lat="45.1676779" lon="8.0186241"><ele>161.0</ele><time>2026-05-02T09:01:56.995Z</time></trkpt><trkpt lat="45.1677308" lon="8.0184736"><ele>161.0</ele><time>2026-05-02T09:01:57.992Z</time></trkpt><trkpt lat="45.1677822" lon="8.0183267"><ele>161.0</ele><time>2026-05-02T09:01:58.994Z</time></trkpt><trkpt lat="45.1678355" lon="8.0181816"><ele>161.0</ele><time>2026-05-02T09:01:59.988Z</time></trkpt><trkpt lat="45.1678901" lon="8.0180321"><ele>161.0</ele><time>2026-05-02T09:02:00.99Z</time></trkpt><trkpt lat="45.1679441" lon="8.0178834"><ele>161.0</ele><time>2026-05-02T09:02:01.99Z</time></trkpt><trkpt lat="45.1680023" lon="8.0177377"><ele>161.0</ele><time>2026-05-02T09:02:02.996Z</time></trkpt><trkpt lat="45.1680607" lon="8.0175925"><ele>161.0</ele><time>2026-05-02T09:02:03.992Z</time></trkpt><trkpt lat="45.1681284" lon="8.0174569"><ele>161.0</ele><time>2026-05-02T09:02:04.989Z</time></trkpt><trkpt lat="45.1682051" lon="8.0173345"><ele>161.0</ele><time>2026-05-02T09:02:05.99Z</time></trkpt><trkpt lat="45.1682816" lon="8.0172121"><ele>161.0</ele><time>2026-05-02T09:02:06.993Z</time></trkpt><trkpt lat="45.1683689" lon="8.0170976"><ele>161.0</ele><time>2026-05-02T09:02:07.99Z</time></trkpt><trkpt lat="45.1684587" lon="8.016985"><ele>161.0</ele><time>2026-05-02T09:02:08.985Z</time></trkpt><trkpt lat="45.1685562" lon="8.0168602"><ele>161.0</ele><time>2026-05-02T09:02:09.991Z</time></trkpt><trkpt lat="45.1686528" lon="8.0167311"><ele>161.0</ele><time>2026-05-02T09:02:10.985Z</time></trkpt><trkpt lat="45.1687473" lon="8.0166009"><ele>161.0</ele><time>2026-05-02T09:02:11.991Z</time></trkpt><trkpt lat="45.1688443" lon="8.0164659"><ele>161.0</ele><time>2026-05-02T09:02:12.993Z</time></trkpt><trkpt lat="45.1689396" lon="8.0163359"><ele>161.0</ele><time>2026-05-02T09:02:13.995Z</time></trkpt><trkpt lat="45.1690259" lon="8.0162133"><ele>161.0</ele><time>2026-05-02T09:02:14.993Z</time></trkpt><trkpt lat="45.1691027" lon="8.0160976"><ele>161.0</ele><time>2026-05-02T09:02:15.99Z</time></trkpt><trkpt lat="45.1691755" lon="8.0159799"><ele>161.0</ele><time>2026-05-02T09:02:16.993Z</time></trkpt><trkpt lat="45.169245" lon="8.0158662"><ele>161.0</ele><time>2026-05-02T09:02:17.995Z</time></trkpt><trkpt lat="45.1693061" lon="8.0157588"><ele>161.0</ele><time>2026-05-02T09:02:19Z</time></trkpt><trkpt lat="45.1693642" lon="8.0156579"><ele>161.0</ele><time>2026-05-02T09:02:19.993Z</time></trkpt><trkpt lat="45.169415" lon="8.0155655"><ele>161.0</ele><time>2026-05-02T09:02:20.997Z</time></trkpt><trkpt lat="45.1694534" lon="8.0154842"><ele>161.0</ele><time>2026-05-02T09:02:21.989Z</time></trkpt><trkpt lat="45.1694828" lon="8.0153526"><ele>161.60000000000002</ele><time>2026-05-02T09:02:23.991Z</time></trkpt><trkpt lat="45.1694102" lon="8.0152353"><ele>162.2</ele><time>2026-05-02T09:02:25.989Z</time></trkpt><trkpt lat="45.1693587" lon="8.0151615"><ele>162.8</ele><time>2026-05-02T09:02:26.993Z</time></trkpt><trkpt lat="45.1693024" lon="8.0150738"><ele>163.39999999999998</ele><time>2026-05-02T09:02:27.992Z</time></trkpt><trkpt lat="45.1692446" lon="8.0149775"><ele>164.0</ele><time>2026-05-02T09:02:28.992Z</time></trkpt><trkpt lat="45.169185" lon="8.0148706"><ele>164.0</ele><time>2026-05-02T09:02:29.991Z</time></trkpt><trkpt lat="45.1691206" lon="8.0147599"><ele>164.0</ele><time>2026-05-02T09:02:30.997Z</time></trkpt><trkpt lat="45.1690546" lon="8.0146476"><ele>164.0</ele><time>2026-05-02T09:02:31.999Z</time></trkpt><trkpt lat="45.1689744" lon="8.014543"><ele>164.0</ele><time>2026-05-02T09:02:32.994Z</time></trkpt><trkpt lat="45.168897" lon="8.0144403"><ele>164.0</ele><time>2026-05-02T09:02:33.993Z</time></trkpt><trkpt lat="45.1688331" lon="8.0143209"><ele>164.0</ele><time>2026-05-02T09:02:34.994Z</time></trkpt><trkpt lat="45.1687754" lon="8.0141967"><ele>164.0</ele><time>2026-05-02T09:02:35.998Z</time></trkpt><trkpt lat="45.1687191" lon="8.0140651"><ele>164.0</ele><time>2026-05-02T09:02:36.992Z</time></trkpt><trkpt lat="45.1686625" lon="8.0139205"><ele>164.0</ele><time>2026-05-02T09:02:38.007Z</time></trkpt><trkpt lat="45.1686074" lon="8.0137737"><ele>164.0</ele><time>2026-05-02T09:02:38.995Z</time></trkpt><trkpt lat="45.1685471" lon="8.0136187"><ele>164.25</ele><time>2026-05-02T09:02:39.987Z</time></trkpt><trkpt lat="45.1684913" lon="8.0134653"><ele>164.5</ele><time>2026-05-02T09:02:40.996Z</time></trkpt><trkpt lat="45.1684372" lon="8.0133225"><ele>164.75</ele><time>2026-05-02T09:02:41.993Z</time></trkpt><trkpt lat="45.1683841" lon="8.0131861"><ele>165.0</ele><time>2026-05-02T09:02:43.011Z</time></trkpt><trkpt lat="45.1683337" lon="8.0130474"><ele>165.0</ele><time>2026-05-02T09:02:43.995Z</time></trkpt><trkpt lat="45.1682806" lon="8.0129059"><ele>165.0</ele><time>2026-05-02T09:02:44.996Z</time></trkpt><trkpt lat="45.168228" lon="8.0127656"><ele>165.0</ele><time>2026-05-02T09:02:45.994Z</time></trkpt><trkpt lat="45.1681725" lon="8.0126271"><ele>165.0</ele><time>2026-05-02T09:02:46.991Z</time></trkpt><trkpt lat="45.1681175" lon="8.0124901"><ele>165.0</ele><time>2026-05-02T09:02:47.998Z</time></trkpt><trkpt lat="45.1680577" lon="8.0123469"><ele>164.0</ele><time>2026-05-02T09:02:48.99Z</time></trkpt><trkpt lat="45.1679999" lon="8.0122065"><ele>163.0</ele><time>2026-05-02T09:02:49.993Z</time></trkpt><trkpt lat="45.1679498" lon="8.0120582"><ele>162.0</ele><time>2026-05-02T09:02:50.993Z</time></trkpt><trkpt lat="45.167903" lon="8.0119074"><ele>161.0</ele><time>2026-05-02T09:02:51.992Z</time></trkpt><trkpt lat="45.167856" lon="8.0117469"><ele>161.16666666666666</ele><time>2026-05-02T09:02:52.994Z</time></trkpt><trkpt lat="45.167815" lon="8.0116013"><ele>161.33333333333331</ele><time>2026-05-02T09:02:53.993Z</time></trkpt><trkpt lat="45.167778" lon="8.0114698"><ele>161.5</ele><time>2026-05-02T09:02:54.995Z</time></trkpt><trkpt lat="45.1677523" lon="8.0113707"><ele>161.66666666666666</ele><time>2026-05-02T09:02:55.993Z</time></trkpt><trkpt lat="45.1677233" lon="8.0112453"><ele>161.83333333333334</ele><time>2026-05-02T09:02:57.994Z</time></trkpt><trkpt lat="45.1677038" lon="8.0111589"><ele>162.0</ele><time>2026-05-02T09:02:59.997Z</time></trkpt><trkpt lat="45.1676985" lon="8.0110699"><ele>162.0</ele><time>2026-05-02T09:03:02.993Z</time></trkpt><trkpt lat="45.167696" lon="8.0109758"><ele>162.0</ele><time>2026-05-02T09:03:05.992Z</time></trkpt><trkpt lat="45.1676997" lon="8.0108605"><ele>162.0</ele><time>2026-05-02T09:03:09.988Z</time></trkpt><trkpt lat="45.1677126" lon="8.0107423"><ele>162.0</ele><time>2026-05-02T09:03:13.991Z</time></trkpt><trkpt lat="45.1677233" lon="8.0106441"><ele>162.0</ele><time>2026-05-02T09:03:16.992Z</time></trkpt><trkpt lat="45.1677376" lon="8.0105261"><ele>162.0</ele><time>2026-05-02T09:03:19.988Z</time></trkpt><trkpt lat="45.167752" lon="8.0104024"><ele>162.0</ele><time>2026-05-02T09:03:22.991Z</time></trkpt><trkpt lat="45.1677675" lon="8.0102914"><ele>162.0</ele><time>2026-05-02T09:03:24.989Z</time></trkpt><trkpt lat="45.1677962" lon="8.0101588"><ele>162.0</ele><time>2026-05-02T09:03:26.992Z</time></trkpt><trkpt lat="45.1678499" lon="8.0100477"><ele>162.0</ele><time>2026-05-02T09:03:29.003Z</time></trkpt><trkpt lat="45.1678908" lon="8.0099077"><ele>162.0</ele><time>2026-05-02T09:03:30.992Z</time></trkpt><trkpt lat="45.1679034" lon="8.0097959"><ele>162.0</ele><time>2026-05-02T09:03:31.986Z</time></trkpt><trkpt lat="45.1679129" lon="8.0096749"><ele>162.0</ele><time>2026-05-02T09:03:32.997Z</time></trkpt><trkpt lat="45.1679233" lon="8.0095481"><ele>162.0</ele><time>2026-05-02T09:03:33.992Z</time></trkpt><trkpt lat="45.1679321" lon="8.009416"><ele>162.0</ele><time>2026-05-02T09:03:34.985Z</time></trkpt><trkpt lat="45.1679418" lon="8.0092899"><ele>162.0</ele><time>2026-05-02T09:03:36.012Z</time></trkpt><trkpt lat="45.1679636" lon="8.0091569"><ele>162.0</ele><time>2026-05-02T09:03:36.994Z</time></trkpt><trkpt lat="45.1679836" lon="8.0090322"><ele>162.0</ele><time>2026-05-02T09:03:37.987Z</time></trkpt><trkpt lat="45.1680067" lon="8.0088984"><ele>162.0</ele><time>2026-05-02T09:03:38.988Z</time></trkpt><trkpt lat="45.1680379" lon="8.0087575"><ele>162.0</ele><time>2026-05-02T09:03:39.99Z</time></trkpt><trkpt lat="45.1680698" lon="8.0086228"><ele>162.0</ele><time>2026-05-02T09:03:40.988Z</time></trkpt><trkpt lat="45.1681211" lon="8.0084882"><ele>162.0</ele><time>2026-05-02T09:03:41.988Z</time></trkpt><trkpt lat="45.1681765" lon="8.0083551"><ele>162.0</ele><time>2026-05-02T09:03:42.989Z</time></trkpt><trkpt lat="45.1682379" lon="8.0082229"><ele>162.0</ele><time>2026-05-02T09:03:43.987Z</time></trkpt><trkpt lat="45.1682992" lon="8.0080895"><ele>162.0</ele><time>2026-05-02T09:03:44.997Z</time></trkpt><trkpt lat="45.1683627" lon="8.0079585"><ele>162.0</ele><time>2026-05-02T09:03:45.998Z</time></trkpt><trkpt lat="45.1684262" lon="8.0078274"><ele>162.0</ele><time>2026-05-02T09:03:46.998Z</time></trkpt><trkpt lat="45.1684881" lon="8.0076968"><ele>162.0</ele><time>2026-05-02T09:03:48.02Z</time></trkpt><trkpt lat="45.1685494" lon="8.0075607"><ele>162.0</ele><time>2026-05-02T09:03:48.994Z</time></trkpt><trkpt lat="45.1686055" lon="8.0074223"><ele>162.0</ele><time>2026-05-02T09:03:50Z</time></trkpt><trkpt lat="45.1686601" lon="8.007282"><ele>162.2</ele><time>2026-05-02T09:03:50.99Z</time></trkpt><trkpt lat="45.1687126" lon="8.0071406"><ele>162.39999999999998</ele><time>2026-05-02T09:03:51.992Z</time></trkpt><trkpt lat="45.1687626" lon="8.0069999"><ele>162.60000000000002</ele><time>2026-05-02T09:03:52.992Z</time></trkpt><trkpt lat="45.1688112" lon="8.0068633"><ele>162.8</ele><time>2026-05-02T09:03:53.997Z</time></trkpt><trkpt lat="45.1688584" lon="8.0067327"><ele>163.0</ele><time>2026-05-02T09:03:54.997Z</time></trkpt><trkpt lat="45.1689038" lon="8.0066051"><ele>163.0</ele><time>2026-05-02T09:03:55.989Z</time></trkpt><trkpt lat="45.1689473" lon="8.0064835"><ele>163.0</ele><time>2026-05-02T09:03:57.011Z</time></trkpt><trkpt lat="45.1689872" lon="8.0063697"><ele>163.0</ele><time>2026-05-02T09:03:57.998Z</time></trkpt><trkpt lat="45.1690336" lon="8.0062582"><ele>163.0</ele><time>2026-05-02T09:03:58.994Z</time></trkpt><trkpt lat="45.1690829" lon="8.0061463"><ele>163.0</ele><time>2026-05-02T09:03:59.989Z</time></trkpt><trkpt lat="45.1691358" lon="8.0060289"><ele>163.0</ele><time>2026-05-02T09:04:00.996Z</time></trkpt><trkpt lat="45.1691982" lon="8.0059171"><ele>163.0</ele><time>2026-05-02T09:04:01.991Z</time></trkpt><trkpt lat="45.1692606" lon="8.0058031"><ele>163.0</ele><time>2026-05-02T09:04:02.995Z</time></trkpt><trkpt lat="45.1693188" lon="8.0056841"><ele>163.0</ele><time>2026-05-02T09:04:03.989Z</time></trkpt><trkpt lat="45.1693798" lon="8.005569"><ele>163.0</ele><time>2026-05-02T09:04:05.019Z</time></trkpt><trkpt lat="45.1694284" lon="8.0054373"><ele>163.0</ele><time>2026-05-02T09:04:05.992Z</time></trkpt><trkpt lat="45.1694775" lon="8.0053132"><ele>163.0</ele><time>2026-05-02T09:04:06.993Z</time></trkpt><trkpt lat="45.1695276" lon="8.0051907"><ele>163.0</ele><time>2026-05-02T09:04:07.987Z</time></trkpt><trkpt lat="45.1695815" lon="8.0050715"><ele>163.0</ele><time>2026-05-02T09:04:08.987Z</time></trkpt><trkpt lat="45.1696406" lon="8.0049581"><ele>163.0</ele><time>2026-05-02T09:04:09.997Z</time></trkpt><trkpt lat="45.1697004" lon="8.0048513"><ele>162.83333333333334</ele><time>2026-05-02T09:04:10.988Z</time></trkpt><trkpt lat="45.1697571" lon="8.0047444"><ele>162.66666666666669</ele><time>2026-05-02T09:04:12.008Z</time></trkpt><trkpt lat="45.1698092" lon="8.0046436"><ele>162.5</ele><time>2026-05-02T09:04:12.99Z</time></trkpt><trkpt lat="45.1698591" lon="8.004537"><ele>162.33333333333334</ele><time>2026-05-02T09:04:13.988Z</time></trkpt><trkpt lat="45.1699025" lon="8.0044321"><ele>162.16666666666666</ele><time>2026-05-02T09:04:14.984Z</time></trkpt><trkpt lat="45.1699326" lon="8.0043182"><ele>162.0</ele><time>2026-05-02T09:04:15.998Z</time></trkpt><trkpt lat="45.1699721" lon="8.0042177"><ele>162.5</ele><time>2026-05-02T09:04:16.994Z</time></trkpt><trkpt lat="45.1699771" lon="8.0041177"><ele>163.0</ele><time>2026-05-02T09:04:17.997Z</time></trkpt><trkpt lat="45.1699858" lon="8.0040114"><ele>163.5</ele><time>2026-05-02T09:04:18.99Z</time></trkpt><trkpt lat="45.1699905" lon="8.0039013"><ele>164.0</ele><time>2026-05-02T09:04:20.013Z</time></trkpt><trkpt lat="45.1700014" lon="8.0037781"><ele>164.5</ele><time>2026-05-02T09:04:20.989Z</time></trkpt><trkpt lat="45.1700124" lon="8.0036547"><ele>165.0</ele><time>2026-05-02T09:04:21.988Z</time></trkpt><trkpt lat="45.1700285" lon="8.0035314"><ele>165.0</ele><time>2026-05-02T09:04:22.987Z</time></trkpt><trkpt lat="45.1700536" lon="8.0033962"><ele>165.0</ele><time>2026-05-02T09:04:23.997Z</time></trkpt><trkpt lat="45.1700805" lon="8.0032601"><ele>165.0</ele><time>2026-05-02T09:04:24.988Z</time></trkpt><trkpt lat="45.1701063" lon="8.0031215"><ele>165.0</ele><time>2026-05-02T09:04:25.994Z</time></trkpt><trkpt lat="45.1701389" lon="8.0029777"><ele>165.0</ele><time>2026-05-02T09:04:26.991Z</time></trkpt><trkpt lat="45.1701692" lon="8.0028488"><ele>164.6</ele><time>2026-05-02T09:04:27.991Z</time></trkpt><trkpt lat="45.1702008" lon="8.0027112"><ele>164.2</ele><time>2026-05-02T09:04:28.987Z</time></trkpt><trkpt lat="45.1702362" lon="8.0025649"><ele>163.8</ele><time>2026-05-02T09:04:29.994Z</time></trkpt><trkpt lat="45.1702687" lon="8.0024192"><ele>163.4</ele><time>2026-05-02T09:04:30.995Z</time></trkpt><trkpt lat="45.1702996" lon="8.0022798"><ele>163.0</ele><time>2026-05-02T09:04:31.998Z</time></trkpt><trkpt lat="45.1703295" lon="8.0021455"><ele>162.83333333333334</ele><time>2026-05-02T09:04:32.992Z</time></trkpt><trkpt lat="45.1703586" lon="8.0020191"><ele>162.66666666666669</ele><time>2026-05-02T09:04:34Z</time></trkpt><trkpt lat="45.1703875" lon="8.0018986"><ele>162.5</ele><time>2026-05-02T09:04:34.996Z</time></trkpt><trkpt lat="45.1704158" lon="8.0017859"><ele>162.33333333333334</ele><time>2026-05-02T09:04:35.995Z</time></trkpt><trkpt lat="45.170443" lon="8.0016822"><ele>162.16666666666666</ele><time>2026-05-02T09:04:36.988Z</time></trkpt><trkpt lat="45.17048" lon="8.0015889"><ele>162.0</ele><time>2026-05-02T09:04:37.995Z</time></trkpt><trkpt lat="45.1705291" lon="8.0015089"><ele>162.0</ele><time>2026-05-02T09:04:38.994Z</time></trkpt><trkpt lat="45.1705904" lon="8.0014427"><ele>162.0</ele><time>2026-05-02T09:04:39.991Z</time></trkpt><trkpt lat="45.1706467" lon="8.0013854"><ele>162.0</ele><time>2026-05-02T09:04:40.992Z</time></trkpt><trkpt lat="45.1707124" lon="8.0012721"><ele>162.0</ele><time>2026-05-02T09:04:42.992Z</time></trkpt><trkpt lat="45.1707298" lon="8.0011124"><ele>162.0</ele><time>2026-05-02T09:04:44.995Z</time></trkpt><trkpt lat="45.1707209" lon="8.0010215"><ele>162.0</ele><time>2026-05-02T09:04:45.992Z</time></trkpt><trkpt lat="45.1707061" lon="8.0009208"><ele>162.0</ele><time>2026-05-02T09:04:46.993Z</time></trkpt><trkpt lat="45.1706867" lon="8.0008123"><ele>162.0</ele><time>2026-05-02T09:04:47.993Z</time></trkpt><trkpt lat="45.1706663" lon="8.0007009"><ele>162.0</ele><time>2026-05-02T09:04:48.992Z</time></trkpt><trkpt lat="45.1706455" lon="8.000589"><ele>162.0</ele><time>2026-05-02T09:04:49.995Z</time></trkpt><trkpt lat="45.1706233" lon="8.0004809"><ele>162.0</ele><time>2026-05-02T09:04:50.996Z</time></trkpt><trkpt lat="45.1705968" lon="8.0003878"><ele>162.0</ele><time>2026-05-02T09:04:51.993Z</time></trkpt><trkpt lat="45.1705159" lon="8.0002543"><ele>162.0</ele><time>2026-05-02T09:04:53.989Z</time></trkpt><trkpt lat="45.1704604" lon="8.0001993"><ele>162.0</ele><time>2026-05-02T09:04:54.993Z</time></trkpt><trkpt lat="45.1703977" lon="8.0001389"><ele>162.0</ele><time>2026-05-02T09:04:55.994Z</time></trkpt><trkpt lat="45.1703135" lon="8.0000696"><ele>162.0</ele><time>2026-05-02T09:04:56.992Z</time></trkpt><trkpt lat="45.1702232" lon="7.9999973"><ele>162.0</ele><time>2026-05-02T09:04:57.998Z</time></trkpt><trkpt lat="45.1701286" lon="7.9999236"><ele>162.0</ele><time>2026-05-02T09:04:58.997Z</time></trkpt><trkpt lat="45.17003" lon="7.9998466"><ele>162.0</ele><time>2026-05-02T09:04:59.996Z</time></trkpt><trkpt lat="45.169929" lon="7.9997667"><ele>162.0</ele><time>2026-05-02T09:05:00.997Z</time></trkpt><trkpt lat="45.1698325" lon="7.9996911"><ele>162.0</ele><time>2026-05-02T09:05:01.993Z</time></trkpt><trkpt lat="45.1697412" lon="7.9996204"><ele>162.0</ele><time>2026-05-02T09:05:02.993Z</time></trkpt><trkpt lat="45.1696601" lon="7.9995542"><ele>162.0</ele><time>2026-05-02T09:05:03.994Z</time></trkpt><trkpt lat="45.1695923" lon="7.999504"><ele>162.0</ele><time>2026-05-02T09:05:04.995Z</time></trkpt><trkpt lat="45.1695244" lon="7.9994469"><ele>162.0</ele><time>2026-05-02T09:05:06.993Z</time></trkpt><trkpt lat="45.1695072" lon="7.9993368"><ele>162.0</ele><time>2026-05-02T09:05:09.992Z</time></trkpt><trkpt lat="45.1695455" lon="7.9992215"><ele>162.0</ele><time>2026-05-02T09:05:11.992Z</time></trkpt><trkpt lat="45.1695774" lon="7.9990499"><ele>162.28571428571428</ele><time>2026-05-02T09:05:14.02Z</time></trkpt><trkpt lat="45.169584" lon="7.9989453"><ele>162.57142857142856</ele><time>2026-05-02T09:05:14.991Z</time></trkpt><trkpt lat="45.1695874" lon="7.9988371"><ele>162.85714285714283</ele><time>2026-05-02T09:05:15.992Z</time></trkpt><trkpt lat="45.1695938" lon="7.9987338"><ele>163.14285714285714</ele><time>2026-05-02T09:05:16.992Z</time></trkpt><trkpt lat="45.1696064" lon="7.9986343"><ele>163.42857142857142</ele><time>2026-05-02T09:05:17.999Z</time></trkpt><trkpt lat="45.1696165" lon="7.9985427"><ele>163.7142857142857</ele><time>2026-05-02T09:05:18.991Z</time></trkpt><trkpt lat="45.1696327" lon="7.9984543"><ele>164.0</ele><time>2026-05-02T09:05:19.993Z</time></trkpt><trkpt lat="45.1696531" lon="7.9983649"><ele>163.83333333333331</ele><time>2026-05-02T09:05:20.993Z</time></trkpt><trkpt lat="45.169669" lon="7.9982766"><ele>163.66666666666666</ele><time>2026-05-02T09:05:22.016Z</time></trkpt><trkpt lat="45.1696744" lon="7.9981834"><ele>163.5</ele><time>2026-05-02T09:05:22.991Z</time></trkpt><trkpt lat="45.1696766" lon="7.9980894"><ele>163.33333333333334</ele><time>2026-05-02T09:05:23.99Z</time></trkpt><trkpt lat="45.1696838" lon="7.997904"><ele>163.16666666666669</ele><time>2026-05-02T09:05:25.99Z</time></trkpt><trkpt lat="45.1696832" lon="7.9978086"><ele>163.0</ele><time>2026-05-02T09:05:26.99Z</time></trkpt><trkpt lat="45.1696815" lon="7.997718"><ele>163.0</ele><time>2026-05-02T09:05:27.994Z</time></trkpt><trkpt lat="45.1696799" lon="7.9975617"><ele>163.0</ele><time>2026-05-02T09:05:29.985Z</time></trkpt><trkpt lat="45.1696769" lon="7.9974274"><ele>163.0</ele><time>2026-05-02T09:05:31.998Z</time></trkpt><trkpt lat="45.1696714" lon="7.9972936"><ele>163.0</ele><time>2026-05-02T09:05:33.997Z</time></trkpt><trkpt lat="45.1696647" lon="7.9971942"><ele>163.0</ele><time>2026-05-02T09:05:36Z</time></trkpt><trkpt lat="45.169644" lon="7.9971017"><ele>163.0</ele><time>2026-05-02T09:05:37.998Z</time></trkpt><trkpt lat="45.1696012" lon="7.9970083"><ele>163.16666666666669</ele><time>2026-05-02T09:05:39.992Z</time></trkpt><trkpt lat="45.1695339" lon="7.9969103"><ele>163.33333333333334</ele><time>2026-05-02T09:05:41.996Z</time></trkpt><trkpt lat="45.1694442" lon="7.9968044"><ele>163.5</ele><time>2026-05-02T09:05:43.996Z</time></trkpt><trkpt lat="45.169393" lon="7.9967471"><ele>163.66666666666666</ele><time>2026-05-02T09:05:44.992Z</time></trkpt><trkpt lat="45.1693393" lon="7.9966903"><ele>163.83333333333331</ele><time>2026-05-02T09:05:45.996Z</time></trkpt><trkpt lat="45.1692827" lon="7.9966325"><ele>164.0</ele><time>2026-05-02T09:05:46.988Z</time></trkpt><trkpt lat="45.1692273" lon="7.9965768"><ele>163.7142857142857</ele><time>2026-05-02T09:05:48Z</time></trkpt><trkpt lat="45.1691712" lon="7.9965212"><ele>163.42857142857142</ele><time>2026-05-02T09:05:48.993Z</time></trkpt><trkpt lat="45.1691125" lon="7.9964644"><ele>163.14285714285714</ele><time>2026-05-02T09:05:49.991Z</time></trkpt><trkpt lat="45.1690536" lon="7.9964083"><ele>162.85714285714283</ele><time>2026-05-02T09:05:50.991Z</time></trkpt><trkpt lat="45.168993" lon="7.9963519"><ele>162.57142857142856</ele><time>2026-05-02T09:05:51.996Z</time></trkpt><trkpt lat="45.1689299" lon="7.9962956"><ele>162.28571428571428</ele><time>2026-05-02T09:05:52.994Z</time></trkpt><trkpt lat="45.168865" lon="7.996239"><ele>162.0</ele><time>2026-05-02T09:05:54.018Z</time></trkpt><trkpt lat="45.1688012" lon="7.9961811"><ele>162.0</ele><time>2026-05-02T09:05:54.992Z</time></trkpt><trkpt lat="45.1687379" lon="7.9961217"><ele>162.0</ele><time>2026-05-02T09:05:55.996Z</time></trkpt><trkpt lat="45.1686761" lon="7.9960646"><ele>162.0</ele><time>2026-05-02T09:05:56.993Z</time></trkpt><trkpt lat="45.1686115" lon="7.996005"><ele>162.0</ele><time>2026-05-02T09:05:57.998Z</time></trkpt><trkpt lat="45.1685439" lon="7.995944"><ele>162.0</ele><time>2026-05-02T09:05:58.999Z</time></trkpt><trkpt lat="45.1684742" lon="7.9958795"><ele>162.0</ele><time>2026-05-02T09:05:59.988Z</time></trkpt><trkpt lat="45.1684025" lon="7.9958123"><ele>162.14285714285714</ele><time>2026-05-02T09:06:00.997Z</time></trkpt><trkpt lat="45.168333" lon="7.9957474"><ele>162.28571428571428</ele><time>2026-05-02T09:06:01.994Z</time></trkpt><trkpt lat="45.1682714" lon="7.9956873"><ele>162.42857142857144</ele><time>2026-05-02T09:06:02.989Z</time></trkpt><trkpt lat="45.1682164" lon="7.9956289"><ele>162.57142857142856</ele><time>2026-05-02T09:06:04.001Z</time></trkpt><trkpt lat="45.1681647" lon="7.9955705"><ele>162.7142857142857</ele><time>2026-05-02T09:06:04.996Z</time></trkpt><trkpt lat="45.168114" lon="7.9955104"><ele>162.85714285714286</ele><time>2026-05-02T09:06:06.006Z</time></trkpt><trkpt lat="45.1680623" lon="7.9954448"><ele>163.0</ele><time>2026-05-02T09:06:06.993Z</time></trkpt><trkpt lat="45.1680134" lon="7.9953751"><ele>163.0</ele><time>2026-05-02T09:06:07.991Z</time></trkpt><trkpt lat="45.1679624" lon="7.995303"><ele>163.0</ele><time>2026-05-02T09:06:08.999Z</time></trkpt><trkpt lat="45.1679172" lon="7.9952185"><ele>163.0</ele><time>2026-05-02T09:06:09.991Z</time></trkpt><trkpt lat="45.1678725" lon="7.9951296"><ele>163.0</ele><time>2026-05-02T09:06:11.007Z</time></trkpt><trkpt lat="45.1678315" lon="7.9950394"><ele>163.0</ele><time>2026-05-02T09:06:11.994Z</time></trkpt><trkpt lat="45.1677931" lon="7.9949537"><ele>163.0</ele><time>2026-05-02T09:06:12.993Z</time></trkpt><trkpt lat="45.1677654" lon="7.9948667"><ele>163.0</ele><time>2026-05-02T09:06:13.991Z</time></trkpt><trkpt lat="45.167738" lon="7.9947036"><ele>163.0</ele><time>2026-05-02T09:06:15.993Z</time></trkpt><trkpt lat="45.1677326" lon="7.9946137"><ele>163.0</ele><time>2026-05-02T09:06:16.995Z</time></trkpt><trkpt lat="45.1677322" lon="7.9945093"><ele>163.0</ele><time>2026-05-02T09:06:17.995Z</time></trkpt><trkpt lat="45.1677339" lon="7.9943926"><ele>163.0</ele><time>2026-05-02T09:06:18.996Z</time></trkpt><trkpt lat="45.1677316" lon="7.9942613"><ele>163.0</ele><time>2026-05-02T09:06:20.018Z</time></trkpt><trkpt lat="45.1677257" lon="7.9941226"><ele>163.0</ele><time>2026-05-02T09:06:20.992Z</time></trkpt><trkpt lat="45.167715" lon="7.9939785"><ele>163.0</ele><time>2026-05-02T09:06:21.993Z</time></trkpt><trkpt lat="45.1677043" lon="7.9938309"><ele>163.0</ele><time>2026-05-02T09:06:23Z</time></trkpt><trkpt lat="45.167697" lon="7.9936853"><ele>163.0</ele><time>2026-05-02T09:06:23.995Z</time></trkpt><trkpt lat="45.1676901" lon="7.9935367"><ele>163.0</ele><time>2026-05-02T09:06:25.004Z</time></trkpt><trkpt lat="45.1676862" lon="7.9933924"><ele>163.0</ele><time>2026-05-02T09:06:25.999Z</time></trkpt><trkpt lat="45.1676842" lon="7.9932447"><ele>163.4</ele><time>2026-05-02T09:06:26.999Z</time></trkpt><trkpt lat="45.1676818" lon="7.9931009"><ele>163.8</ele><time>2026-05-02T09:06:27.99Z</time></trkpt><trkpt lat="45.1676796" lon="7.9929636"><ele>164.2</ele><time>2026-05-02T09:06:28.989Z</time></trkpt><trkpt lat="45.1676777" lon="7.9928319"><ele>164.6</ele><time>2026-05-02T09:06:29.989Z</time></trkpt><trkpt lat="45.1676827" lon="7.9927025"><ele>165.0</ele><time>2026-05-02T09:06:30.984Z</time></trkpt><trkpt lat="45.1676938" lon="7.9925935"><ele>165.4</ele><time>2026-05-02T09:06:32.006Z</time></trkpt><trkpt lat="45.1677047" lon="7.9924994"><ele>165.8</ele><time>2026-05-02T09:06:32.985Z</time></trkpt><trkpt lat="45.1677345" lon="7.9923221"><ele>166.2</ele><time>2026-05-02T09:06:34.985Z</time></trkpt><trkpt lat="45.167757" lon="7.9922061"><ele>166.6</ele><time>2026-05-02T09:06:35.993Z</time></trkpt><trkpt lat="45.1677779" lon="7.992079"><ele>167.0</ele><time>2026-05-02T09:06:36.987Z</time></trkpt><trkpt lat="45.1678026" lon="7.9919354"><ele>167.0</ele><time>2026-05-02T09:06:37.99Z</time></trkpt><trkpt lat="45.1678224" lon="7.9917971"><ele>167.0</ele><time>2026-05-02T09:06:38.988Z</time></trkpt><trkpt lat="45.1678425" lon="7.9916645"><ele>167.0</ele><time>2026-05-02T09:06:39.994Z</time></trkpt><trkpt lat="45.167862" lon="7.9915287"><ele>167.0</ele><time>2026-05-02T09:06:41.01Z</time></trkpt><trkpt lat="45.1678833" lon="7.9913961"><ele>167.0</ele><time>2026-05-02T09:06:41.985Z</time></trkpt><trkpt lat="45.1679059" lon="7.9912625"><ele>166.6</ele><time>2026-05-02T09:06:42.989Z</time></trkpt><trkpt lat="45.1679331" lon="7.9911277"><ele>166.2</ele><time>2026-05-02T09:06:43.999Z</time></trkpt><trkpt lat="45.1679591" lon="7.9909955"><ele>165.8</ele><time>2026-05-02T09:06:44.996Z</time></trkpt><trkpt lat="45.1679864" lon="7.9908637"><ele>165.4</ele><time>2026-05-02T09:06:46.009Z</time></trkpt><trkpt lat="45.1680156" lon="7.9907312"><ele>165.0</ele><time>2026-05-02T09:06:46.997Z</time></trkpt><trkpt lat="45.1680443" lon="7.9905953"><ele>165.0</ele><time>2026-05-02T09:06:47.989Z</time></trkpt><trkpt lat="45.1680744" lon="7.9904595"><ele>165.0</ele><time>2026-05-02T09:06:48.993Z</time></trkpt><trkpt lat="45.1681057" lon="7.9903267"><ele>165.0</ele><time>2026-05-02T09:06:49.997Z</time></trkpt><trkpt lat="45.1681402" lon="7.9901935"><ele>165.0</ele><time>2026-05-02T09:06:50.988Z</time></trkpt><trkpt lat="45.1681764" lon="7.9900592"><ele>165.0</ele><time>2026-05-02T09:06:51.995Z</time></trkpt><trkpt lat="45.1682123" lon="7.9899244"><ele>164.4</ele><time>2026-05-02T09:06:53.004Z</time></trkpt><trkpt lat="45.1682482" lon="7.9897903"><ele>163.8</ele><time>2026-05-02T09:06:53.997Z</time></trkpt><trkpt lat="45.1682866" lon="7.9896551"><ele>163.2</ele><time>2026-05-02T09:06:54.992Z</time></trkpt><trkpt lat="45.1683225" lon="7.989533"><ele>162.6</ele><time>2026-05-02T09:06:55.999Z</time></trkpt><trkpt lat="45.1683569" lon="7.9894203"><ele>162.0</ele><time>2026-05-02T09:06:56.998Z</time></trkpt><trkpt lat="45.1683956" lon="7.989312"><ele>162.0</ele><time>2026-05-02T09:06:58.001Z</time></trkpt><trkpt lat="45.1684366" lon="7.9891988"><ele>162.0</ele><time>2026-05-02T09:06:59.005Z</time></trkpt><trkpt lat="45.1684848" lon="7.9890849"><ele>162.0</ele><time>2026-05-02T09:06:59.995Z</time></trkpt><trkpt lat="45.1685406" lon="7.9889662"><ele>162.0</ele><time>2026-05-02T09:07:00.998Z</time></trkpt><trkpt lat="45.1685962" lon="7.9888472"><ele>162.0</ele><time>2026-05-02T09:07:02Z</time></trkpt><trkpt lat="45.1686476" lon="7.9887343"><ele>162.0</ele><time>2026-05-02T09:07:02.989Z</time></trkpt><trkpt lat="45.1686902" lon="7.9886171"><ele>162.0</ele><time>2026-05-02T09:07:04.001Z</time></trkpt><trkpt lat="45.1687243" lon="7.9884997"><ele>162.0</ele><time>2026-05-02T09:07:04.989Z</time></trkpt><trkpt lat="45.1687551" lon="7.9883844"><ele>162.0</ele><time>2026-05-02T09:07:05.995Z</time></trkpt><trkpt lat="45.1687831" lon="7.9882784"><ele>162.0</ele><time>2026-05-02T09:07:06.997Z</time></trkpt><trkpt lat="45.1687999" lon="7.9881812"><ele>162.0</ele><time>2026-05-02T09:07:07.994Z</time></trkpt><trkpt lat="45.1688178" lon="7.9880486"><ele>162.39999999999998</ele><time>2026-05-02T09:07:09.994Z</time></trkpt><trkpt lat="45.1688706" lon="7.9879818"><ele>162.79999999999998</ele><time>2026-05-02T09:07:12.989Z</time></trkpt><trkpt lat="45.16897" lon="7.9880249"><ele>163.2</ele><time>2026-05-02T09:07:14.989Z</time></trkpt><trkpt lat="45.1690473" lon="7.9880581"><ele>163.6</ele><time>2026-05-02T09:07:15.991Z</time></trkpt><trkpt lat="45.1691381" lon="7.9880939"><ele>164.0</ele><time>2026-05-02T09:07:16.991Z</time></trkpt><trkpt lat="45.1692402" lon="7.9881384"><ele>164.5</ele><time>2026-05-02T09:07:17.994Z</time></trkpt><trkpt lat="45.1693525" lon="7.9881889"><ele>165.0</ele><time>2026-05-02T09:07:18.994Z</time></trkpt><trkpt lat="45.1694687" lon="7.9882455"><ele>165.5</ele><time>2026-05-02T09:07:19.994Z</time></trkpt><trkpt lat="45.1695863" lon="7.9883011"><ele>166.0</ele><time>2026-05-02T09:07:20.992Z</time></trkpt><trkpt lat="45.1696976" lon="7.9883526"><ele>166.0</ele><time>2026-05-02T09:07:21.994Z</time></trkpt><trkpt lat="45.1698011" lon="7.9884015"><ele>166.0</ele><time>2026-05-02T09:07:22.996Z</time></trkpt><trkpt lat="45.1698935" lon="7.9884448"><ele>166.0</ele><time>2026-05-02T09:07:23.997Z</time></trkpt><trkpt lat="45.1699802" lon="7.9884873"><ele>166.0</ele><time>2026-05-02T09:07:24.989Z</time></trkpt><trkpt lat="45.1700533" lon="7.9885274"><ele>166.0</ele><time>2026-05-02T09:07:25.996Z</time></trkpt><trkpt lat="45.1701173" lon="7.9885646"><ele>166.0</ele><time>2026-05-02T09:07:26.994Z</time></trkpt><trkpt lat="45.170195" lon="7.9885342"><ele>165.8</ele><time>2026-05-02T09:07:28.992Z</time></trkpt><trkpt lat="45.170242" lon="7.9884427"><ele>165.60000000000002</ele><time>2026-05-02T09:07:31.015Z</time></trkpt><trkpt lat="45.1702808" lon="7.9882995"><ele>165.4</ele><time>2026-05-02T09:07:32.995Z</time></trkpt><trkpt lat="45.1703289" lon="7.9881408"><ele>165.2</ele><time>2026-05-02T09:07:34.989Z</time></trkpt><trkpt lat="45.170363" lon="7.9879963"><ele>165.0</ele><time>2026-05-02T09:07:37.002Z</time></trkpt><trkpt lat="45.1704093" lon="7.9878415"><ele>165.2857142857143</ele><time>2026-05-02T09:07:39.01Z</time></trkpt><trkpt lat="45.1704362" lon="7.9877605"><ele>165.57142857142858</ele><time>2026-05-02T09:07:39.989Z</time></trkpt><trkpt lat="45.1704637" lon="7.9876724"><ele>165.85714285714286</ele><time>2026-05-02T09:07:40.987Z</time></trkpt><trkpt lat="45.1704906" lon="7.9875854"><ele>166.14285714285717</ele><time>2026-05-02T09:07:41.992Z</time></trkpt><trkpt lat="45.1705208" lon="7.9874887"><ele>166.42857142857144</ele><time>2026-05-02T09:07:42.991Z</time></trkpt><trkpt lat="45.1705503" lon="7.9873879"><ele>166.71428571428572</ele><time>2026-05-02T09:07:44.009Z</time></trkpt><trkpt lat="45.1705794" lon="7.9872899"><ele>167.0</ele><time>2026-05-02T09:07:44.986Z</time></trkpt><trkpt lat="45.1706097" lon="7.987183"><ele>166.66666666666666</ele><time>2026-05-02T09:07:45.993Z</time></trkpt><trkpt lat="45.170638" lon="7.987075"><ele>166.33333333333331</ele><time>2026-05-02T09:07:46.99Z</time></trkpt><trkpt lat="45.1706666" lon="7.9869651"><ele>166.0</ele><time>2026-05-02T09:07:47.99Z</time></trkpt><trkpt lat="45.1706949" lon="7.9868573"><ele>165.66666666666666</ele><time>2026-05-02T09:07:48.986Z</time></trkpt><trkpt lat="45.1707206" lon="7.9867587"><ele>165.33333333333334</ele><time>2026-05-02T09:07:49.997Z</time></trkpt><trkpt lat="45.1707392" lon="7.9866686"><ele>165.0</ele><time>2026-05-02T09:07:50.988Z</time></trkpt><trkpt lat="45.1707385" lon="7.986568"><ele>165.00000000000003</ele><time>2026-05-02T09:07:51.99Z</time></trkpt><trkpt lat="45.1707356" lon="7.9864652"><ele>165.0</ele><time>2026-05-02T09:07:52.998Z</time></trkpt><trkpt lat="45.1707306" lon="7.9863651"><ele>165.0</ele><time>2026-05-02T09:07:53.998Z</time></trkpt><trkpt lat="45.1707256" lon="7.9862606"><ele>165.0</ele><time>2026-05-02T09:07:55.002Z</time></trkpt><trkpt lat="45.1707124" lon="7.9861593"><ele>165.0</ele><time>2026-05-02T09:07:55.997Z</time></trkpt><trkpt lat="45.1707082" lon="7.9860482"><ele>165.00000000000003</ele><time>2026-05-02T09:07:57.002Z</time></trkpt><trkpt lat="45.1707033" lon="7.9859383"><ele>165.0</ele><time>2026-05-02T09:07:57.998Z</time></trkpt><trkpt lat="45.1706983" lon="7.9858227"><ele>165.00000000000003</ele><time>2026-05-02T09:07:59.011Z</time></trkpt><trkpt lat="45.1706913" lon="7.985707"><ele>165.0</ele><time>2026-05-02T09:07:59.996Z</time></trkpt><trkpt lat="45.1706859" lon="7.9855961"><ele>165.0</ele><time>2026-05-02T09:08:01.005Z</time></trkpt><trkpt lat="45.1706777" lon="7.9854907"><ele>165.0</ele><time>2026-05-02T09:08:01.997Z</time></trkpt><trkpt lat="45.1706679" lon="7.9853884"><ele>165.0</ele><time>2026-05-02T09:08:03.002Z</time></trkpt><trkpt lat="45.1706567" lon="7.98529"><ele>165.00000000000003</ele><time>2026-05-02T09:08:03.997Z</time></trkpt><trkpt lat="45.1706449" lon="7.9851943"><ele>165.0</ele><time>2026-05-02T09:08:05.012Z</time></trkpt><trkpt lat="45.1706306" lon="7.9851039"><ele>164.85714285714286</ele><time>2026-05-02T09:08:06.003Z</time></trkpt><trkpt lat="45.1706126" lon="7.9850146"><ele>164.71428571428572</ele><time>2026-05-02T09:08:07.012Z</time></trkpt><trkpt lat="45.1705973" lon="7.9849221"><ele>164.57142857142856</ele><time>2026-05-02T09:08:08.008Z</time></trkpt><trkpt lat="45.1705797" lon="7.9848278"><ele>164.42857142857144</ele><time>2026-05-02T09:08:09Z</time></trkpt><trkpt lat="45.1705572" lon="7.9847312"><ele>164.28571428571428</ele><time>2026-05-02T09:08:10.005Z</time></trkpt><trkpt lat="45.1705295" lon="7.9846326"><ele>164.14285714285714</ele><time>2026-05-02T09:08:11.007Z</time></trkpt><trkpt lat="45.1705024" lon="7.9845329"><ele>164.0</ele><time>2026-05-02T09:08:12.007Z</time></trkpt><trkpt lat="45.1704728" lon="7.9844305"><ele>164.0</ele><time>2026-05-02T09:08:12.998Z</time></trkpt><trkpt lat="45.1704426" lon="7.9843269"><ele>164.0</ele><time>2026-05-02T09:08:13.994Z</time></trkpt><trkpt lat="45.1704103" lon="7.9842175"><ele>164.0</ele><time>2026-05-02T09:08:15.011Z</time></trkpt><trkpt lat="45.1703781" lon="7.9841074"><ele>164.0</ele><time>2026-05-02T09:08:15.998Z</time></trkpt><trkpt lat="45.170347" lon="7.9839963"><ele>164.0</ele><time>2026-05-02T09:08:17.005Z</time></trkpt><trkpt lat="45.1703193" lon="7.9838921"><ele>164.0</ele><time>2026-05-02T09:08:18.009Z</time></trkpt><trkpt lat="45.1702928" lon="7.983799"><ele>163.83333333333331</ele><time>2026-05-02T09:08:19.004Z</time></trkpt><trkpt lat="45.1702682" lon="7.9837119"><ele>163.66666666666666</ele><time>2026-05-02T09:08:20.009Z</time></trkpt><trkpt lat="45.1702471" lon="7.9836266"><ele>163.5</ele><time>2026-05-02T09:08:20.999Z</time></trkpt><trkpt lat="45.1702166" lon="7.9834679"><ele>163.33333333333334</ele><time>2026-05-02T09:08:23.017Z</time></trkpt><trkpt lat="45.1701995" lon="7.9833791"><ele>163.16666666666669</ele><time>2026-05-02T09:08:24.009Z</time></trkpt><trkpt lat="45.1701662" lon="7.9832145"><ele>163.0</ele><time>2026-05-02T09:08:26.017Z</time></trkpt><trkpt lat="45.1701444" lon="7.9830442"><ele>163.0</ele><time>2026-05-02T09:08:28.011Z</time></trkpt><trkpt lat="45.1701391" lon="7.9829537"><ele>163.0</ele><time>2026-05-02T09:08:29.004Z</time></trkpt><trkpt lat="45.1701337" lon="7.9828608"><ele>163.0</ele><time>2026-05-02T09:08:30.008Z</time></trkpt><trkpt lat="45.1701213" lon="7.9827692"><ele>163.0</ele><time>2026-05-02T09:08:31.008Z</time></trkpt><trkpt lat="45.1700804" lon="7.9826072"><ele>163.0</ele><time>2026-05-02T09:08:33.013Z</time></trkpt><trkpt lat="45.1699849" lon="7.9824918"><ele>163.0</ele><time>2026-05-02T09:08:35.012Z</time></trkpt><trkpt lat="45.1699212" lon="7.982445"><ele>163.16666666666669</ele><time>2026-05-02T09:08:36.013Z</time></trkpt><trkpt lat="45.1698521" lon="7.9824006"><ele>163.33333333333334</ele><time>2026-05-02T09:08:37.012Z</time></trkpt><trkpt lat="45.1697806" lon="7.982355"><ele>163.5</ele><time>2026-05-02T09:08:38.011Z</time></trkpt><trkpt lat="45.1697052" lon="7.9823062"><ele>163.66666666666666</ele><time>2026-05-02T09:08:39.007Z</time></trkpt><trkpt lat="45.1696345" lon="7.98226"><ele>163.83333333333331</ele><time>2026-05-02T09:08:40.006Z</time></trkpt><trkpt lat="45.1695644" lon="7.9822157"><ele>164.0</ele><time>2026-05-02T09:08:40.997Z</time></trkpt><trkpt lat="45.1694961" lon="7.9821777"><ele>164.0</ele><time>2026-05-02T09:08:42.004Z</time></trkpt><trkpt lat="45.1694251" lon="7.9821488"><ele>164.0</ele><time>2026-05-02T09:08:42.999Z</time></trkpt><trkpt lat="45.169353" lon="7.9821272"><ele>164.0</ele><time>2026-05-02T09:08:44.001Z</time></trkpt><trkpt lat="45.1692841" lon="7.9821077"><ele>164.0</ele><time>2026-05-02T09:08:45.014Z</time></trkpt><trkpt lat="45.1691721" lon="7.982072"><ele>164.0</ele><time>2026-05-02T09:08:47.014Z</time></trkpt><trkpt lat="45.1690844" lon="7.9820332"><ele>164.0</ele><time>2026-05-02T09:08:48.996Z</time></trkpt><trkpt lat="45.1690049" lon="7.9820061"><ele>164.57142857142856</ele><time>2026-05-02T09:08:51.003Z</time></trkpt><trkpt lat="45.1688919" lon="7.9819989"><ele>165.14285714285714</ele><time>2026-05-02T09:08:52.998Z</time></trkpt><trkpt lat="45.1688259" lon="7.982006"><ele>165.71428571428572</ele><time>2026-05-02T09:08:54.001Z</time></trkpt><trkpt lat="45.1687575" lon="7.9820127"><ele>166.28571428571428</ele><time>2026-05-02T09:08:55.007Z</time></trkpt><trkpt lat="45.1686917" lon="7.9820197"><ele>166.85714285714286</ele><time>2026-05-02T09:08:55.996Z</time></trkpt><trkpt lat="45.1686235" lon="7.9820329"><ele>167.42857142857142</ele><time>2026-05-02T09:08:57.001Z</time></trkpt><trkpt lat="45.168557" lon="7.9820397"><ele>168.0</ele><time>2026-05-02T09:08:58.006Z</time></trkpt><trkpt lat="45.1684935" lon="7.982049"><ele>168.0</ele><time>2026-05-02T09:08:58.994Z</time></trkpt><trkpt lat="45.1683727" lon="7.9820632"><ele>168.0</ele><time>2026-05-02T09:09:01.001Z</time></trkpt><trkpt lat="45.1682791" lon="7.9820727"><ele>168.0</ele><time>2026-05-02T09:09:02.999Z</time></trkpt><trkpt lat="45.1682121" lon="7.982069"><ele>168.0</ele><time>2026-05-02T09:09:05.007Z</time></trkpt><trkpt lat="45.168147" lon="7.9820596"><ele>168.0</ele><time>2026-05-02T09:09:16.01Z</time></trkpt><trkpt lat="45.1682506" lon="7.9820219"><ele>168.0</ele><time>2026-05-02T09:09:22.005Z</time></trkpt><trkpt lat="45.168314" lon="7.9820093"><ele>168.0</ele><time>2026-05-02T09:09:22.996Z</time></trkpt><trkpt lat="45.1683977" lon="7.9820064"><ele>168.0</ele><time>2026-05-02T09:09:23.995Z</time></trkpt><trkpt lat="45.1684704" lon="7.9820089"><ele>168.0</ele><time>2026-05-02T09:09:24.996Z</time></trkpt><trkpt lat="45.1685389" lon="7.9820099"><ele>168.0</ele><time>2026-05-02T09:09:25.997Z</time></trkpt><trkpt lat="45.1686514" lon="7.9820029"><ele>168.0</ele><time>2026-05-02T09:09:27.996Z</time></trkpt><trkpt lat="45.1687678" lon="7.9819961"><ele>168.0</ele><time>2026-05-02T09:09:29.995Z</time></trkpt><trkpt lat="45.1688336" lon="7.9819906"><ele>168.0</ele><time>2026-05-02T09:09:30.998Z</time></trkpt><trkpt lat="45.1689533" lon="7.9819933"><ele>168.0</ele><time>2026-05-02T09:09:33.002Z</time></trkpt><trkpt lat="45.1690354" lon="7.9819886"><ele>168.0</ele><time>2026-05-02T09:09:35.004Z</time></trkpt><trkpt lat="45.169082" lon="7.9818925"><ele>168.0</ele><time>2026-05-02T09:09:37.994Z</time></trkpt><trkpt lat="45.1690852" lon="7.9817818"><ele>168.0</ele><time>2026-05-02T09:09:40.01Z</time></trkpt><trkpt lat="45.1690791" lon="7.9816281"><ele>167.66666666666666</ele><time>2026-05-02T09:09:42.001Z</time></trkpt><trkpt lat="45.169072" lon="7.9814458"><ele>167.33333333333334</ele><time>2026-05-02T09:09:43.993Z</time></trkpt><trkpt lat="45.1690639" lon="7.9813392"><ele>167.0</ele><time>2026-05-02T09:09:45.009Z</time></trkpt><trkpt lat="45.169056" lon="7.9812316"><ele>166.66666666666669</ele><time>2026-05-02T09:09:46.005Z</time></trkpt><trkpt lat="45.16905" lon="7.9811245"><ele>166.33333333333334</ele><time>2026-05-02T09:09:46.999Z</time></trkpt><trkpt lat="45.1690442" lon="7.9810174"><ele>166.0</ele><time>2026-05-02T09:09:48.002Z</time></trkpt><trkpt lat="45.1690376" lon="7.9809123"><ele>166.0</ele><time>2026-05-02T09:09:49Z</time></trkpt><trkpt lat="45.1690319" lon="7.980807"><ele>166.0</ele><time>2026-05-02T09:09:49.998Z</time></trkpt><trkpt lat="45.1690266" lon="7.9807014"><ele>166.0</ele><time>2026-05-02T09:09:50.998Z</time></trkpt><trkpt lat="45.1690238" lon="7.9805938"><ele>166.0</ele><time>2026-05-02T09:09:52.001Z</time></trkpt><trkpt lat="45.1690188" lon="7.980484"><ele>166.0</ele><time>2026-05-02T09:09:53Z</time></trkpt><trkpt lat="45.1690131" lon="7.9803755"><ele>166.0</ele><time>2026-05-02T09:09:54.007Z</time></trkpt><trkpt lat="45.1690043" lon="7.9802668"><ele>166.0</ele><time>2026-05-02T09:09:54.998Z</time></trkpt><trkpt lat="45.1689946" lon="7.9801532"><ele>166.0</ele><time>2026-05-02T09:09:56.005Z</time></trkpt><trkpt lat="45.1689859" lon="7.9800389"><ele>166.0</ele><time>2026-05-02T09:09:56.998Z</time></trkpt><trkpt lat="45.1689762" lon="7.9799211"><ele>166.0</ele><time>2026-05-02T09:09:58.003Z</time></trkpt><trkpt lat="45.1689681" lon="7.9798099"><ele>166.0</ele><time>2026-05-02T09:09:58.997Z</time></trkpt><trkpt lat="45.168959" lon="7.9796955"><ele>166.0</ele><time>2026-05-02T09:10:00.001Z</time></trkpt><trkpt lat="45.1689511" lon="7.9795793"><ele>166.0</ele><time>2026-05-02T09:10:01.001Z</time></trkpt><trkpt lat="45.1689463" lon="7.9794629"><ele>166.0</ele><time>2026-05-02T09:10:02.009Z</time></trkpt><trkpt lat="45.1689416" lon="7.9793486"><ele>166.0</ele><time>2026-05-02T09:10:02.995Z</time></trkpt><trkpt lat="45.1689363" lon="7.9792314"><ele>166.0</ele><time>2026-05-02T09:10:04.002Z</time></trkpt><trkpt lat="45.1689316" lon="7.979109"><ele>166.0</ele><time>2026-05-02T09:10:05.014Z</time></trkpt><trkpt lat="45.1689262" lon="7.9789865"><ele>166.0</ele><time>2026-05-02T09:10:06.006Z</time></trkpt><trkpt lat="45.1689198" lon="7.9788575"><ele>165.8</ele><time>2026-05-02T09:10:07.015Z</time></trkpt><trkpt lat="45.1689125" lon="7.9787226"><ele>165.60000000000002</ele><time>2026-05-02T09:10:08.001Z</time></trkpt><trkpt lat="45.1689032" lon="7.978592"><ele>165.4</ele><time>2026-05-02T09:10:09.015Z</time></trkpt><trkpt lat="45.1688922" lon="7.9784633"><ele>165.2</ele><time>2026-05-02T09:10:09.998Z</time></trkpt><trkpt lat="45.1688819" lon="7.9783252"><ele>165.0</ele><time>2026-05-02T09:10:11.006Z</time></trkpt><trkpt lat="45.1688726" lon="7.9781891"><ele>165.0</ele><time>2026-05-02T09:10:12.009Z</time></trkpt><trkpt lat="45.1688632" lon="7.9780607"><ele>165.0</ele><time>2026-05-02T09:10:13.013Z</time></trkpt><trkpt lat="45.168854" lon="7.9779446"><ele>165.0</ele><time>2026-05-02T09:10:14.008Z</time></trkpt><trkpt lat="45.1688458" lon="7.9778343"><ele>165.0</ele><time>2026-05-02T09:10:15.009Z</time></trkpt><trkpt lat="45.1688373" lon="7.977723"><ele>165.0</ele><time>2026-05-02T09:10:16.014Z</time></trkpt><trkpt lat="45.1688252" lon="7.9776183"><ele>165.0</ele><time>2026-05-02T09:10:17.011Z</time></trkpt><trkpt lat="45.1688101" lon="7.9775227"><ele>165.0</ele><time>2026-05-02T09:10:18.002Z</time></trkpt><trkpt lat="45.168792" lon="7.9774312"><ele>165.0</ele><time>2026-05-02T09:10:18.996Z</time></trkpt><trkpt lat="45.1687726" lon="7.9773439"><ele>165.0</ele><time>2026-05-02T09:10:19.995Z</time></trkpt><trkpt lat="45.1687537" lon="7.977183"><ele>165.0</ele><time>2026-05-02T09:10:22.005Z</time></trkpt><trkpt lat="45.1687442" lon="7.9770507"><ele>165.0</ele><time>2026-05-02T09:10:23.997Z</time></trkpt><trkpt lat="45.168773" lon="7.9769219"><ele>165.0</ele><time>2026-05-02T09:10:25.997Z</time></trkpt><trkpt lat="45.1688635" lon="7.97681"><ele>165.0</ele><time>2026-05-02T09:10:28Z</time></trkpt><trkpt lat="45.1689243" lon="7.9767666"><ele>165.0</ele><time>2026-05-02T09:10:29.008Z</time></trkpt><trkpt lat="45.1689872" lon="7.9767327"><ele>165.0</ele><time>2026-05-02T09:10:29.998Z</time></trkpt><trkpt lat="45.1690487" lon="7.9767046"><ele>165.0</ele><time>2026-05-02T09:10:31Z</time></trkpt><trkpt lat="45.1691552" lon="7.9766673"><ele>165.0</ele><time>2026-05-02T09:10:32.998Z</time></trkpt><trkpt lat="45.1692677" lon="7.9766542"><ele>165.0</ele><time>2026-05-02T09:10:35.003Z</time></trkpt><trkpt lat="45.1693806" lon="7.976658"><ele>165.16666666666666</ele><time>2026-05-02T09:10:36.996Z</time></trkpt><trkpt lat="45.1694416" lon="7.976618"><ele>165.33333333333334</ele><time>2026-05-02T09:10:39.006Z</time></trkpt><trkpt lat="45.1694294" lon="7.9765102"><ele>165.5</ele><time>2026-05-02T09:10:41.005Z</time></trkpt><trkpt lat="45.1693791" lon="7.9763691"><ele>165.66666666666669</ele><time>2026-05-02T09:10:43.003Z</time></trkpt><trkpt lat="45.1693452" lon="7.9762846"><ele>165.83333333333334</ele><time>2026-05-02T09:10:43.998Z</time></trkpt><trkpt lat="45.1693079" lon="7.976201"><ele>166.0</ele><time>2026-05-02T09:10:45.003Z</time></trkpt><trkpt lat="45.1692725" lon="7.976109"><ele>166.0</ele><time>2026-05-02T09:10:46.012Z</time></trkpt><trkpt lat="45.169237" lon="7.976023"><ele>166.0</ele><time>2026-05-02T09:10:46.993Z</time></trkpt><trkpt lat="45.1692029" lon="7.9759206"><ele>166.0</ele><time>2026-05-02T09:10:48.005Z</time></trkpt><trkpt lat="45.1691698" lon="7.9758223"><ele>166.0</ele><time>2026-05-02T09:10:49.002Z</time></trkpt><trkpt lat="45.1691374" lon="7.9757276"><ele>166.0</ele><time>2026-05-02T09:10:49.999Z</time></trkpt><trkpt lat="45.1691014" lon="7.9756319"><ele>166.0</ele><time>2026-05-02T09:10:51.002Z</time></trkpt><trkpt lat="45.1690674" lon="7.9755344"><ele>165.85714285714286</ele><time>2026-05-02T09:10:52.001Z</time></trkpt><trkpt lat="45.1690343" lon="7.9754363"><ele>165.71428571428572</ele><time>2026-05-02T09:10:53.007Z</time></trkpt><trkpt lat="45.1690022" lon="7.9753363"><ele>165.57142857142858</ele><time>2026-05-02T09:10:54.004Z</time></trkpt><trkpt lat="45.168968" lon="7.9752382"><ele>165.42857142857144</ele><time>2026-05-02T09:10:54.996Z</time></trkpt><trkpt lat="45.168938" lon="7.9751438"><ele>165.28571428571428</ele><time>2026-05-02T09:10:56.011Z</time></trkpt><trkpt lat="45.1689139" lon="7.9750466"><ele>165.14285714285717</ele><time>2026-05-02T09:10:57.004Z</time></trkpt><trkpt lat="45.1688928" lon="7.9749494"><ele>165.0</ele><time>2026-05-02T09:10:58.001Z</time></trkpt><trkpt lat="45.1688739" lon="7.9748511"><ele>166.0</ele><time>2026-05-02T09:10:58.999Z</time></trkpt><trkpt lat="45.1688534" lon="7.9747576"><ele>167.0</ele><time>2026-05-02T09:11:00.003Z</time></trkpt><trkpt lat="45.1688202" lon="7.9745939"><ele>168.0</ele><time>2026-05-02T09:11:02.004Z</time></trkpt><trkpt lat="45.1687884" lon="7.9744286"><ele>169.0</ele><time>2026-05-02T09:11:03.999Z</time></trkpt><trkpt lat="45.1687609" lon="7.9743128"><ele>170.0</ele><time>2026-05-02T09:11:05.999Z</time></trkpt><trkpt lat="45.1687557" lon="7.9742023"><ele>170.33333333333331</ele><time>2026-05-02T09:11:07.997Z</time></trkpt><trkpt lat="45.1687677" lon="7.9740751"><ele>170.66666666666666</ele><time>2026-05-02T09:11:11.007Z</time></trkpt><trkpt lat="45.1687879" lon="7.9739775"><ele>171.0</ele><time>2026-05-02T09:11:13.002Z</time></trkpt><trkpt lat="45.1688171" lon="7.9738632"><ele>171.33333333333334</ele><time>2026-05-02T09:11:15.004Z</time></trkpt><trkpt lat="45.168859" lon="7.9737528"><ele>171.66666666666669</ele><time>2026-05-02T09:11:17.012Z</time></trkpt><trkpt lat="45.1689022" lon="7.9736493"><ele>172.0</ele><time>2026-05-02T09:11:18.994Z</time></trkpt><trkpt lat="45.1689518" lon="7.9735619"><ele>172.00000000000003</ele><time>2026-05-02T09:11:21.006Z</time></trkpt><trkpt lat="45.1690043" lon="7.9734838"><ele>172.0</ele><time>2026-05-02T09:11:24.008Z</time></trkpt><trkpt lat="45.1690723" lon="7.9734314"><ele>172.0</ele><time>2026-05-02T09:11:26.999Z</time></trkpt><trkpt lat="45.1691405" lon="7.9734359"><ele>172.0</ele><time>2026-05-02T09:11:35.998Z</time></trkpt><trkpt lat="45.1691928" lon="7.97351"><ele>172.0</ele><time>2026-05-02T09:11:43.011Z</time></trkpt><trkpt lat="45.1692032" lon="7.973402"><ele>172.00000000000003</ele><time>2026-05-02T09:12:05.017Z</time></trkpt><trkpt lat="45.169274" lon="7.9733643"><ele>172.0</ele><time>2026-05-02T09:12:13.021Z</time></trkpt><trkpt lat="45.1693037" lon="7.9732776"><ele>172.2857142857143</ele><time>2026-05-02T09:12:16.994Z</time></trkpt><trkpt lat="45.169344" lon="7.9731979"><ele>172.57142857142858</ele><time>2026-05-02T09:12:21Z</time></trkpt><trkpt lat="45.1693689" lon="7.9730947"><ele>172.85714285714286</ele><time>2026-05-02T09:12:29.059Z</time></trkpt><trkpt lat="45.1694091" lon="7.9730004"><ele>173.14285714285717</ele><time>2026-05-02T09:12:32.003Z</time></trkpt><trkpt lat="45.1694587" lon="7.9729307"><ele>173.42857142857144</ele><time>2026-05-02T09:12:35.101Z</time></trkpt><trkpt lat="45.1695186" lon="7.9729696"><ele>173.71428571428572</ele><time>2026-05-02T09:12:45.997Z</time></trkpt><trkpt lat="45.1694876" lon="7.973051"><ele>174.0</ele><time>2026-05-02T09:12:50.004Z</time></trkpt><trkpt lat="45.1694189" lon="7.9731022"><ele>174.0</ele><time>2026-05-02T09:12:52.001Z</time></trkpt><trkpt lat="45.1693558" lon="7.9731874"><ele>174.0</ele><time>2026-05-02T09:12:55.012Z</time></trkpt><trkpt lat="45.1693173" lon="7.9732707"><ele>174.0</ele><time>2026-05-02T09:12:56.999Z</time></trkpt><trkpt lat="45.1692762" lon="7.9733577"><ele>174.0</ele><time>2026-05-02T09:12:58.996Z</time></trkpt><trkpt lat="45.169214" lon="7.9734107"><ele>174.0</ele><time>2026-05-02T09:13:01.016Z</time></trkpt><trkpt lat="45.1691363" lon="7.9734383"><ele>174.0</ele><time>2026-05-02T09:13:03.008Z</time></trkpt><trkpt lat="45.1690505" lon="7.9734632"><ele>173.6</ele><time>2026-05-02T09:13:05.007Z</time></trkpt><trkpt lat="45.1689753" lon="7.9734858"><ele>173.2</ele><time>2026-05-02T09:13:07.019Z</time></trkpt><trkpt lat="45.1689244" lon="7.9735788"><ele>172.79999999999998</ele><time>2026-05-02T09:13:09.002Z</time></trkpt><trkpt lat="45.1688729" lon="7.9736944"><ele>172.39999999999998</ele><time>2026-05-02T09:13:11.002Z</time></trkpt><trkpt lat="45.1688292" lon="7.9738208"><ele>172.0</ele><time>2026-05-02T09:13:13.011Z</time></trkpt><trkpt lat="45.1687932" lon="7.9739535"><ele>172.0</ele><time>2026-05-02T09:13:15.01Z</time></trkpt><trkpt lat="45.1687732" lon="7.9740949"><ele>172.0</ele><time>2026-05-02T09:13:17.011Z</time></trkpt><trkpt lat="45.168751" lon="7.9742115"><ele>172.0</ele><time>2026-05-02T09:13:19.001Z</time></trkpt><trkpt lat="45.1687613" lon="7.9743177"><ele>172.0</ele><time>2026-05-02T09:13:20.998Z</time></trkpt><trkpt lat="45.1687843" lon="7.9744345"><ele>172.0</ele><time>2026-05-02T09:13:23.005Z</time></trkpt><trkpt lat="45.16881" lon="7.9745497"><ele>172.0</ele><time>2026-05-02T09:13:25.015Z</time></trkpt><trkpt lat="45.1688422" lon="7.9746933"><ele>171.6</ele><time>2026-05-02T09:13:27.017Z</time></trkpt><trkpt lat="45.1688769" lon="7.9748393"><ele>171.2</ele><time>2026-05-02T09:13:29.009Z</time></trkpt><trkpt lat="45.1689113" lon="7.9749851"><ele>170.8</ele><time>2026-05-02T09:13:31.012Z</time></trkpt><trkpt lat="45.1689503" lon="7.975158"><ele>170.4</ele><time>2026-05-02T09:13:33.005Z</time></trkpt><trkpt lat="45.1689768" lon="7.9752548"><ele>170.0</ele><time>2026-05-02T09:13:34.003Z</time></trkpt><trkpt lat="45.1690072" lon="7.9753555"><ele>169.33333333333331</ele><time>2026-05-02T09:13:35.005Z</time></trkpt><trkpt lat="45.1690431" lon="7.9754589"><ele>168.66666666666666</ele><time>2026-05-02T09:13:36.018Z</time></trkpt><trkpt lat="45.1690796" lon="7.9755643"><ele>168.0</ele><time>2026-05-02T09:13:37.009Z</time></trkpt><trkpt lat="45.1691166" lon="7.9756691"><ele>167.33333333333334</ele><time>2026-05-02T09:13:38.007Z</time></trkpt><trkpt lat="45.1691484" lon="7.9757616"><ele>166.66666666666669</ele><time>2026-05-02T09:13:38.997Z</time></trkpt><trkpt lat="45.1691761" lon="7.9758515"><ele>166.0</ele><time>2026-05-02T09:13:40.015Z</time></trkpt><trkpt lat="45.1692028" lon="7.9759445"><ele>166.0</ele><time>2026-05-02T09:13:41.004Z</time></trkpt><trkpt lat="45.1692337" lon="7.9760432"><ele>166.0</ele><time>2026-05-02T09:13:42.011Z</time></trkpt><trkpt lat="45.1692689" lon="7.9761424"><ele>166.0</ele><time>2026-05-02T09:13:43.008Z</time></trkpt><trkpt lat="45.1693049" lon="7.9762329"><ele>166.0</ele><time>2026-05-02T09:13:44.01Z</time></trkpt><trkpt lat="45.1693396" lon="7.976316"><ele>166.0</ele><time>2026-05-02T09:13:45.012Z</time></trkpt><trkpt lat="45.1693886" lon="7.9764583"><ele>166.0</ele><time>2026-05-02T09:13:47.009Z</time></trkpt><trkpt lat="45.1693866" lon="7.9765815"><ele>166.0</ele><time>2026-05-02T09:13:49.011Z</time></trkpt><trkpt lat="45.1693239" lon="7.9766513"><ele>166.0</ele><time>2026-05-02T09:13:51.003Z</time></trkpt><trkpt lat="45.1692144" lon="7.976665"><ele>166.0</ele><time>2026-05-02T09:13:52.993Z</time></trkpt><trkpt lat="45.1690926" lon="7.9766811"><ele>166.0</ele><time>2026-05-02T09:13:55.002Z</time></trkpt><trkpt lat="45.1689762" lon="7.9767315"><ele>166.0</ele><time>2026-05-02T09:13:56.995Z</time></trkpt><trkpt lat="45.1688686" lon="7.9768057"><ele>165.8</ele><time>2026-05-02T09:13:59.017Z</time></trkpt><trkpt lat="45.168788" lon="7.9769021"><ele>165.60000000000002</ele><time>2026-05-02T09:14:01.005Z</time></trkpt><trkpt lat="45.1687382" lon="7.9770066"><ele>165.4</ele><time>2026-05-02T09:14:03.018Z</time></trkpt><trkpt lat="45.1687456" lon="7.9771536"><ele>165.2</ele><time>2026-05-02T09:14:05.01Z</time></trkpt><trkpt lat="45.1687556" lon="7.9772735"><ele>165.0</ele><time>2026-05-02T09:14:07.009Z</time></trkpt><trkpt lat="45.1687419" lon="7.977369"><ele>165.0</ele><time>2026-05-02T09:14:10.997Z</time></trkpt><trkpt lat="45.1687594" lon="7.9774576"><ele>165.0</ele><time>2026-05-02T09:14:17.996Z</time></trkpt><trkpt lat="45.1687303" lon="7.9775774"><ele>165.0</ele><time>2026-05-02T09:14:21.015Z</time></trkpt><trkpt lat="45.1686345" lon="7.9776094"><ele>165.0</ele><time>2026-05-02T09:14:23.003Z</time></trkpt><trkpt lat="45.1685712" lon="7.9776161"><ele>165.0</ele><time>2026-05-02T09:14:24Z</time></trkpt><trkpt lat="45.1685008" lon="7.9776225"><ele>165.0</ele><time>2026-05-02T09:14:25.006Z</time></trkpt><trkpt lat="45.1684206" lon="7.9776298"><ele>165.0</ele><time>2026-05-02T09:14:25.999Z</time></trkpt><trkpt lat="45.1683338" lon="7.9776377"><ele>165.0</ele><time>2026-05-02T09:14:27.001Z</time></trkpt><trkpt lat="45.1682456" lon="7.9776499"><ele>165.0</ele><time>2026-05-02T09:14:27.997Z</time></trkpt><trkpt lat="45.1681514" lon="7.9776585"><ele>165.0</ele><time>2026-05-02T09:14:29.004Z</time></trkpt><trkpt lat="45.1680551" lon="7.9776695"><ele>165.0</ele><time>2026-05-02T09:14:29.995Z</time></trkpt><trkpt lat="45.1679554" lon="7.9776793"><ele>165.16666666666666</ele><time>2026-05-02T09:14:31.005Z</time></trkpt><trkpt lat="45.1678547" lon="7.9776903"><ele>165.33333333333334</ele><time>2026-05-02T09:14:32.003Z</time></trkpt><trkpt lat="45.1677539" lon="7.9777052"><ele>165.5</ele><time>2026-05-02T09:14:33.002Z</time></trkpt><trkpt lat="45.1676581" lon="7.9777208"><ele>165.66666666666669</ele><time>2026-05-02T09:14:34.001Z</time></trkpt><trkpt lat="45.1675763" lon="7.9777311"><ele>165.83333333333334</ele><time>2026-05-02T09:14:35.001Z</time></trkpt><trkpt lat="45.1675118" lon="7.9777343"><ele>166.0</ele><time>2026-05-02T09:14:35.999Z</time></trkpt><trkpt lat="45.1674221" lon="7.9776828"><ele>166.0</ele><time>2026-05-02T09:14:38.009Z</time></trkpt><trkpt lat="45.167385" lon="7.9775369"><ele>166.0</ele><time>2026-05-02T09:14:40.004Z</time></trkpt><trkpt lat="45.1673748" lon="7.9774362"><ele>166.0</ele><time>2026-05-02T09:14:41.004Z</time></trkpt><trkpt lat="45.1673677" lon="7.977324"><ele>166.0</ele><time>2026-05-02T09:14:42.002Z</time></trkpt><trkpt lat="45.1673584" lon="7.9772034"><ele>166.0</ele><time>2026-05-02T09:14:43.003Z</time></trkpt><trkpt lat="45.1673474" lon="7.9770755"><ele>166.0</ele><time>2026-05-02T09:14:44.003Z</time></trkpt><trkpt lat="45.1673353" lon="7.9769474"><ele>167.33333333333334</ele><time>2026-05-02T09:14:44.994Z</time></trkpt><trkpt lat="45.1673217" lon="7.9768237"><ele>168.66666666666669</ele><time>2026-05-02T09:14:46.006Z</time></trkpt><trkpt lat="45.167308" lon="7.9767094"><ele>170.0</ele><time>2026-05-02T09:14:47.003Z</time></trkpt><trkpt lat="45.1672922" lon="7.9766062"><ele>171.33333333333334</ele><time>2026-05-02T09:14:48Z</time></trkpt><trkpt lat="45.1672715" lon="7.9765097"><ele>172.66666666666666</ele><time>2026-05-02T09:14:49Z</time></trkpt><trkpt lat="45.1672474" lon="7.9764173"><ele>174.0</ele><time>2026-05-02T09:14:50.002Z</time></trkpt><trkpt lat="45.1672238" lon="7.9763282"><ele>174.83333333333334</ele><time>2026-05-02T09:14:51.003Z</time></trkpt><trkpt lat="45.1671901" lon="7.976241"><ele>175.66666666666666</ele><time>2026-05-02T09:14:52.008Z</time></trkpt><trkpt lat="45.1671506" lon="7.9761666"><ele>176.5</ele><time>2026-05-02T09:14:53.004Z</time></trkpt><trkpt lat="45.1670651" lon="7.9760925"><ele>177.33333333333331</ele><time>2026-05-02T09:14:55Z</time></trkpt><trkpt lat="45.1669777" lon="7.9760878"><ele>178.16666666666666</ele><time>2026-05-02T09:14:57Z</time></trkpt><trkpt lat="45.1669141" lon="7.9761591"><ele>179.0</ele><time>2026-05-02T09:14:59.005Z</time></trkpt><trkpt lat="45.1668763" lon="7.976247"><ele>179.0</ele><time>2026-05-02T09:15:01.002Z</time></trkpt><trkpt lat="45.1668076" lon="7.9761744"><ele>179.0</ele><time>2026-05-02T09:15:05Z</time></trkpt><trkpt lat="45.1668482" lon="7.976003"><ele>179.0</ele><time>2026-05-02T09:15:07.004Z</time></trkpt><trkpt lat="45.1668794" lon="7.9758768"><ele>179.0</ele><time>2026-05-02T09:15:08.003Z</time></trkpt><trkpt lat="45.1669142" lon="7.9757397"><ele>179.0</ele><time>2026-05-02T09:15:09.005Z</time></trkpt><trkpt lat="45.1669397" lon="7.975562"><ele>180.25</ele><time>2026-05-02T09:15:09.996Z</time></trkpt><trkpt lat="45.1669692" lon="7.9753677"><ele>181.5</ele><time>2026-05-02T09:15:11Z</time></trkpt><trkpt lat="45.1670021" lon="7.9751616"><ele>182.75</ele><time>2026-05-02T09:15:11.995Z</time></trkpt><trkpt lat="45.1670368" lon="7.9749436"><ele>184.0</ele><time>2026-05-02T09:15:12.994Z</time></trkpt><trkpt lat="45.1670755" lon="7.9747138"><ele>188.0</ele><time>2026-05-02T09:15:13.994Z</time></trkpt><trkpt lat="45.1671131" lon="7.9744826"><ele>192.0</ele><time>2026-05-02T09:15:14.998Z</time></trkpt><trkpt lat="45.1671491" lon="7.9742452"><ele>196.0</ele><time>2026-05-02T09:15:15.998Z</time></trkpt><trkpt lat="45.1671866" lon="7.9740089"><ele>198.33333333333331</ele><time>2026-05-02T09:15:17.005Z</time></trkpt><trkpt lat="45.1672229" lon="7.9737785"><ele>200.66666666666669</ele><time>2026-05-02T09:15:18.007Z</time></trkpt><trkpt lat="45.1672558" lon="7.9735581"><ele>203.0</ele><time>2026-05-02T09:15:19.001Z</time></trkpt><trkpt lat="45.1672869" lon="7.9733427"><ele>203.0</ele><time>2026-05-02T09:15:20Z</time></trkpt><trkpt lat="45.1673177" lon="7.9731328"><ele>203.0</ele><time>2026-05-02T09:15:21.002Z</time></trkpt><trkpt lat="45.1673423" lon="7.9729246"><ele>203.0</ele><time>2026-05-02T09:15:22.008Z</time></trkpt><trkpt lat="45.1673566" lon="7.9727184"><ele>203.0</ele><time>2026-05-02T09:15:23.004Z</time></trkpt><trkpt lat="45.1673695" lon="7.9725145"><ele>194.75</ele><time>2026-05-02T09:15:24.003Z</time></trkpt><trkpt lat="45.1673795" lon="7.9723116"><ele>186.5</ele><time>2026-05-02T09:15:24.999Z</time></trkpt><trkpt lat="45.1673892" lon="7.9721091"><ele>178.25</ele><time>2026-05-02T09:15:26.004Z</time></trkpt><trkpt lat="45.1673949" lon="7.9719077"><ele>170.0</ele><time>2026-05-02T09:15:27.003Z</time></trkpt><trkpt lat="45.1673984" lon="7.9717051"><ele>170.0</ele><time>2026-05-02T09:15:28.001Z</time></trkpt><trkpt lat="45.1674008" lon="7.9715029"><ele>170.0</ele><time>2026-05-02T09:15:28.996Z</time></trkpt><trkpt lat="45.1673978" lon="7.9713015"><ele>170.0</ele><time>2026-05-02T09:15:29.997Z</time></trkpt><trkpt lat="45.1673898" lon="7.9711"><ele>170.0</ele><time>2026-05-02T09:15:30.995Z</time></trkpt><trkpt lat="45.1673775" lon="7.9708991"><ele>169.75</ele><time>2026-05-02T09:15:31.999Z</time></trkpt><trkpt lat="45.1673619" lon="7.9706999"><ele>169.5</ele><time>2026-05-02T09:15:32.996Z</time></trkpt><trkpt lat="45.1673424" lon="7.9705013"><ele>169.25</ele><time>2026-05-02T09:15:34.001Z</time></trkpt><trkpt lat="45.1673224" lon="7.9703027"><ele>169.0</ele><time>2026-05-02T09:15:35.002Z</time></trkpt><trkpt lat="45.1673061" lon="7.9701042"><ele>168.75</ele><time>2026-05-02T09:15:36Z</time></trkpt><trkpt lat="45.167294" lon="7.9699043"><ele>168.5</ele><time>2026-05-02T09:15:36.998Z</time></trkpt><trkpt lat="45.1672851" lon="7.9696999"><ele>168.25</ele><time>2026-05-02T09:15:37.997Z</time></trkpt><trkpt lat="45.1672792" lon="7.969492"><ele>168.0</ele><time>2026-05-02T09:15:38.997Z</time></trkpt><trkpt lat="45.1672761" lon="7.9692826"><ele>167.5</ele><time>2026-05-02T09:15:39.995Z</time></trkpt><trkpt lat="45.1672771" lon="7.9690802"><ele>167.0</ele><time>2026-05-02T09:15:40.994Z</time></trkpt><trkpt lat="45.1672847" lon="7.9688664"><ele>166.5</ele><time>2026-05-02T09:15:41.999Z</time></trkpt><trkpt lat="45.1672864" lon="7.9686619"><ele>166.0</ele><time>2026-05-02T09:15:42.999Z</time></trkpt><trkpt lat="45.1672964" lon="7.968437"><ele>166.66666666666669</ele><time>2026-05-02T09:15:43.999Z</time></trkpt><trkpt lat="45.1673123" lon="7.9682257"><ele>167.33333333333334</ele><time>2026-05-02T09:15:45.003Z</time></trkpt><trkpt lat="45.1673253" lon="7.9680152"><ele>168.0</ele><time>2026-05-02T09:15:46.007Z</time></trkpt><trkpt lat="45.1673475" lon="7.9678006"><ele>168.33333333333334</ele><time>2026-05-02T09:15:47.006Z</time></trkpt><trkpt lat="45.1673724" lon="7.9675871"><ele>168.66666666666669</ele><time>2026-05-02T09:15:48.004Z</time></trkpt><trkpt lat="45.1673993" lon="7.9673695"><ele>169.0</ele><time>2026-05-02T09:15:49.004Z</time></trkpt><trkpt lat="45.1674258" lon="7.9671529"><ele>169.0</ele><time>2026-05-02T09:15:50.001Z</time></trkpt><trkpt lat="45.1674517" lon="7.9669341"><ele>169.0</ele><time>2026-05-02T09:15:51.003Z</time></trkpt><trkpt lat="45.1674774" lon="7.9667154"><ele>169.0</ele><time>2026-05-02T09:15:52Z</time></trkpt><trkpt lat="45.1675055" lon="7.9664937"><ele>168.33333333333334</ele><time>2026-05-02T09:15:53Z</time></trkpt><trkpt lat="45.1675331" lon="7.966272"><ele>167.66666666666666</ele><time>2026-05-02T09:15:54.001Z</time></trkpt><trkpt lat="45.1675595" lon="7.9660518"><ele>167.0</ele><time>2026-05-02T09:15:55.005Z</time></trkpt><trkpt lat="45.1675859" lon="7.9658288"><ele>166.66666666666666</ele><time>2026-05-02T09:15:56.002Z</time></trkpt><trkpt lat="45.1676126" lon="7.9656078"><ele>166.33333333333334</ele><time>2026-05-02T09:15:56.993Z</time></trkpt><trkpt lat="45.1676374" lon="7.9653862"><ele>166.0</ele><time>2026-05-02T09:15:58.006Z</time></trkpt><trkpt lat="45.1676653" lon="7.9651601"><ele>167.0</ele><time>2026-05-02T09:15:59.012Z</time></trkpt><trkpt lat="45.1676938" lon="7.9649378"><ele>168.0</ele><time>2026-05-02T09:16:00Z</time></trkpt><trkpt lat="45.1677208" lon="7.9647155"><ele>169.0</ele><time>2026-05-02T09:16:01.004Z</time></trkpt><trkpt lat="45.1677493" lon="7.9644911"><ele>169.0</ele><time>2026-05-02T09:16:02.007Z</time></trkpt><trkpt lat="45.167779" lon="7.9642711"><ele>169.0</ele><time>2026-05-02T09:16:03.004Z</time></trkpt><trkpt lat="45.1678058" lon="7.9640503"><ele>169.0</ele><time>2026-05-02T09:16:04.005Z</time></trkpt><trkpt lat="45.1678322" lon="7.9638279"><ele>168.66666666666669</ele><time>2026-05-02T09:16:05.007Z</time></trkpt><trkpt lat="45.1678591" lon="7.9636058"><ele>168.33333333333334</ele><time>2026-05-02T09:16:06.004Z</time></trkpt><trkpt lat="45.1678861" lon="7.9633833"><ele>168.0</ele><time>2026-05-02T09:16:06.99Z</time></trkpt><trkpt lat="45.1679149" lon="7.9631633"><ele>167.66666666666666</ele><time>2026-05-02T09:16:08.003Z</time></trkpt><trkpt lat="45.1679434" lon="7.9629445"><ele>167.33333333333331</ele><time>2026-05-02T09:16:09.002Z</time></trkpt><trkpt lat="45.1679711" lon="7.9627274"><ele>167.0</ele><time>2026-05-02T09:16:09.997Z</time></trkpt><trkpt lat="45.1679981" lon="7.9625099"><ele>167.0</ele><time>2026-05-02T09:16:11.006Z</time></trkpt><trkpt lat="45.1680232" lon="7.9622924"><ele>167.0</ele><time>2026-05-02T09:16:12Z</time></trkpt><trkpt lat="45.1680495" lon="7.9620769"><ele>167.0</ele><time>2026-05-02T09:16:12.996Z</time></trkpt><trkpt lat="45.1680774" lon="7.9618618"><ele>168.0</ele><time>2026-05-02T09:16:13.997Z</time></trkpt><trkpt lat="45.1681043" lon="7.9616473"><ele>169.0</ele><time>2026-05-02T09:16:15.007Z</time></trkpt><trkpt lat="45.1681301" lon="7.9614346"><ele>170.0</ele><time>2026-05-02T09:16:15.991Z</time></trkpt><trkpt lat="45.1681576" lon="7.9612226"><ele>170.0</ele><time>2026-05-02T09:16:17Z</time></trkpt><trkpt lat="45.1681854" lon="7.9610122"><ele>170.0</ele><time>2026-05-02T09:16:18.005Z</time></trkpt><trkpt lat="45.1682109" lon="7.9608009"><ele>170.0</ele><time>2026-05-02T09:16:18.994Z</time></trkpt><trkpt lat="45.1682353" lon="7.9605881"><ele>169.66666666666666</ele><time>2026-05-02T09:16:19.993Z</time></trkpt><trkpt lat="45.168259" lon="7.9603743"><ele>169.33333333333334</ele><time>2026-05-02T09:16:21.001Z</time></trkpt><trkpt lat="45.1682831" lon="7.960161"><ele>169.0</ele><time>2026-05-02T09:16:21.994Z</time></trkpt><trkpt lat="45.1683075" lon="7.9599479"><ele>169.0</ele><time>2026-05-02T09:16:23Z</time></trkpt><trkpt lat="45.1683334" lon="7.9597363"><ele>169.0</ele><time>2026-05-02T09:16:24.006Z</time></trkpt><trkpt lat="45.1683611" lon="7.9595268"><ele>169.0</ele><time>2026-05-02T09:16:24.996Z</time></trkpt><trkpt lat="45.1683873" lon="7.959325"><ele>169.0</ele><time>2026-05-02T09:16:25.994Z</time></trkpt><trkpt lat="45.1684106" lon="7.9591371"><ele>169.0</ele><time>2026-05-02T09:16:27.007Z</time></trkpt><trkpt lat="45.1684316" lon="7.9589624"><ele>169.0</ele><time>2026-05-02T09:16:28.007Z</time></trkpt><trkpt lat="45.1684514" lon="7.9588014"><ele>169.0</ele><time>2026-05-02T09:16:29.011Z</time></trkpt><trkpt lat="45.1684712" lon="7.9586534"><ele>169.0</ele><time>2026-05-02T09:16:30.002Z</time></trkpt><trkpt lat="45.1684891" lon="7.9585162"><ele>169.0</ele><time>2026-05-02T09:16:31.005Z</time></trkpt><trkpt lat="45.1685047" lon="7.9583845"><ele>168.66666666666669</ele><time>2026-05-02T09:16:32.007Z</time></trkpt><trkpt lat="45.1685212" lon="7.9582505"><ele>168.33333333333334</ele><time>2026-05-02T09:16:32.999Z</time></trkpt><trkpt lat="45.1685378" lon="7.9581225"><ele>168.0</ele><time>2026-05-02T09:16:34.009Z</time></trkpt><trkpt lat="45.1685539" lon="7.9579928"><ele>167.66666666666666</ele><time>2026-05-02T09:16:35.004Z</time></trkpt><trkpt lat="45.1685688" lon="7.9578723"><ele>167.33333333333331</ele><time>2026-05-02T09:16:36Z</time></trkpt><trkpt lat="45.1685838" lon="7.9577612"><ele>167.0</ele><time>2026-05-02T09:16:36.999Z</time></trkpt><trkpt lat="45.168601" lon="7.9576594"><ele>167.0</ele><time>2026-05-02T09:16:37.995Z</time></trkpt><trkpt lat="45.1686207" lon="7.9575687"><ele>167.0</ele><time>2026-05-02T09:16:39.006Z</time></trkpt><trkpt lat="45.1686344" lon="7.9574072"><ele>167.0</ele><time>2026-05-02T09:16:40.998Z</time></trkpt><trkpt lat="45.1685683" lon="7.9573009"><ele>167.0</ele><time>2026-05-02T09:16:43.007Z</time></trkpt><trkpt lat="45.1684452" lon="7.9572233"><ele>167.0</ele><time>2026-05-02T09:16:45.006Z</time></trkpt><trkpt lat="45.1683721" lon="7.9571644"><ele>167.6</ele><time>2026-05-02T09:16:46.008Z</time></trkpt><trkpt lat="45.1682895" lon="7.9570947"><ele>168.2</ele><time>2026-05-02T09:16:47.006Z</time></trkpt><trkpt lat="45.1681927" lon="7.9570254"><ele>168.8</ele><time>2026-05-02T09:16:48.01Z</time></trkpt><trkpt lat="45.1680859" lon="7.9569593"><ele>169.4</ele><time>2026-05-02T09:16:49.001Z</time></trkpt><trkpt lat="45.1679689" lon="7.9568898"><ele>170.0</ele><time>2026-05-02T09:16:49.997Z</time></trkpt><trkpt lat="45.1678477" lon="7.956819"><ele>170.25</ele><time>2026-05-02T09:16:50.993Z</time></trkpt><trkpt lat="45.1677334" lon="7.9567518"><ele>170.5</ele><time>2026-05-02T09:16:52.003Z</time></trkpt><trkpt lat="45.1676209" lon="7.9566831"><ele>170.75</ele><time>2026-05-02T09:16:52.996Z</time></trkpt><trkpt lat="45.1675035" lon="7.9566101"><ele>171.0</ele><time>2026-05-02T09:16:54.003Z</time></trkpt><trkpt lat="45.1673828" lon="7.9565357"><ele>171.25</ele><time>2026-05-02T09:16:55.001Z</time></trkpt><trkpt lat="45.1672604" lon="7.9564615"><ele>171.5</ele><time>2026-05-02T09:16:55.991Z</time></trkpt><trkpt lat="45.1671443" lon="7.9563936"><ele>171.75</ele><time>2026-05-02T09:16:56.998Z</time></trkpt><trkpt lat="45.1670399" lon="7.9563312"><ele>172.0</ele><time>2026-05-02T09:16:58.002Z</time></trkpt><trkpt lat="45.166945" lon="7.9562741"><ele>172.0</ele><time>2026-05-02T09:16:59Z</time></trkpt><trkpt lat="45.1668583" lon="7.9562211"><ele>172.0</ele><time>2026-05-02T09:17:00.001Z</time></trkpt><trkpt lat="45.1667803" lon="7.9561742"><ele>172.0</ele><time>2026-05-02T09:17:00.998Z</time></trkpt><trkpt lat="45.1667164" lon="7.9561313"><ele>172.0</ele><time>2026-05-02T09:17:02.002Z</time></trkpt><trkpt lat="45.166659" lon="7.9560208"><ele>172.0</ele><time>2026-05-02T09:17:03.996Z</time></trkpt><trkpt lat="45.1666828" lon="7.9558678"><ele>171.8</ele><time>2026-05-02T09:17:06.005Z</time></trkpt><trkpt lat="45.1667048" lon="7.9557679"><ele>171.6</ele><time>2026-05-02T09:17:07.002Z</time></trkpt><trkpt lat="45.1667257" lon="7.9556526"><ele>171.4</ele><time>2026-05-02T09:17:08.001Z</time></trkpt><trkpt lat="45.1667437" lon="7.9555215"><ele>171.20000000000002</ele><time>2026-05-02T09:17:08.998Z</time></trkpt><trkpt lat="45.1667602" lon="7.9553825"><ele>171.0</ele><time>2026-05-02T09:17:09.996Z</time></trkpt><trkpt lat="45.1667737" lon="7.9552382"><ele>171.0</ele><time>2026-05-02T09:17:11.002Z</time></trkpt><trkpt lat="45.1667868" lon="7.9550895"><ele>171.0</ele><time>2026-05-02T09:17:12.009Z</time></trkpt><trkpt lat="45.1668002" lon="7.954938"><ele>171.0</ele><time>2026-05-02T09:17:12.998Z</time></trkpt><trkpt lat="45.1668151" lon="7.9547859"><ele>171.0</ele><time>2026-05-02T09:17:14.006Z</time></trkpt><trkpt lat="45.1668317" lon="7.9546358"><ele>171.0</ele><time>2026-05-02T09:17:15.004Z</time></trkpt><trkpt lat="45.1668501" lon="7.95449"><ele>171.20000000000002</ele><time>2026-05-02T09:17:16Z</time></trkpt><trkpt lat="45.1668655" lon="7.9543483"><ele>171.4</ele><time>2026-05-02T09:17:17.016Z</time></trkpt><trkpt lat="45.1668727" lon="7.9542056"><ele>171.6</ele><time>2026-05-02T09:17:18.005Z</time></trkpt><trkpt lat="45.1668793" lon="7.9540721"><ele>171.8</ele><time>2026-05-02T09:17:19.01Z</time></trkpt><trkpt lat="45.1668605" lon="7.9539349"><ele>172.0</ele><time>2026-05-02T09:17:20.002Z</time></trkpt><trkpt lat="45.1668411" lon="7.9537943"><ele>172.0</ele><time>2026-05-02T09:17:21.008Z</time></trkpt><trkpt lat="45.1668271" lon="7.9536598"><ele>172.0</ele><time>2026-05-02T09:17:22Z</time></trkpt><trkpt lat="45.1668213" lon="7.9535287"><ele>172.0</ele><time>2026-05-02T09:17:23.003Z</time></trkpt><trkpt lat="45.166829" lon="7.9533911"><ele>172.0</ele><time>2026-05-02T09:17:24.008Z</time></trkpt><trkpt lat="45.1668414" lon="7.9532521"><ele>172.0</ele><time>2026-05-02T09:17:25.008Z</time></trkpt><trkpt lat="45.1668596" lon="7.9531043"><ele>171.25</ele><time>2026-05-02T09:17:25.998Z</time></trkpt><trkpt lat="45.166878" lon="7.9529482"><ele>170.5</ele><time>2026-05-02T09:17:26.998Z</time></trkpt><trkpt lat="45.1668969" lon="7.9527813"><ele>169.75</ele><time>2026-05-02T09:17:28.012Z</time></trkpt><trkpt lat="45.166919" lon="7.9526074"><ele>169.0</ele><time>2026-05-02T09:17:29.012Z</time></trkpt><trkpt lat="45.1669409" lon="7.9524257"><ele>168.75</ele><time>2026-05-02T09:17:30.012Z</time></trkpt><trkpt lat="45.1669633" lon="7.9522413"><ele>168.5</ele><time>2026-05-02T09:17:31.01Z</time></trkpt><trkpt lat="45.1669846" lon="7.9520578"><ele>168.25</ele><time>2026-05-02T09:17:32.013Z</time></trkpt><trkpt lat="45.1670039" lon="7.9518754"><ele>168.0</ele><time>2026-05-02T09:17:33.007Z</time></trkpt><trkpt lat="45.1670236" lon="7.951693"><ele>168.0</ele><time>2026-05-02T09:17:34.016Z</time></trkpt><trkpt lat="45.1670451" lon="7.9515097"><ele>168.0</ele><time>2026-05-02T09:17:34.995Z</time></trkpt><trkpt lat="45.1670689" lon="7.9513241"><ele>168.0</ele><time>2026-05-02T09:17:35.999Z</time></trkpt><trkpt lat="45.1670922" lon="7.951134"><ele>168.0</ele><time>2026-05-02T09:17:37.014Z</time></trkpt><trkpt lat="45.1671155" lon="7.9509398"><ele>168.75</ele><time>2026-05-02T09:17:38.002Z</time></trkpt><trkpt lat="45.167139" lon="7.9507477"><ele>169.5</ele><time>2026-05-02T09:17:39.007Z</time></trkpt><trkpt lat="45.1671583" lon="7.9505539"><ele>170.25</ele><time>2026-05-02T09:17:39.997Z</time></trkpt><trkpt lat="45.1671799" lon="7.9503528"><ele>171.0</ele><time>2026-05-02T09:17:40.999Z</time></trkpt><trkpt lat="45.1672002" lon="7.9501466"><ele>172.0</ele><time>2026-05-02T09:17:41.998Z</time></trkpt><trkpt lat="45.1672189" lon="7.949934"><ele>173.0</ele><time>2026-05-02T09:17:42.999Z</time></trkpt><trkpt lat="45.1672349" lon="7.9497188"><ele>174.0</ele><time>2026-05-02T09:17:43.998Z</time></trkpt><trkpt lat="45.1672513" lon="7.9495014"><ele>174.0</ele><time>2026-05-02T09:17:45.004Z</time></trkpt><trkpt lat="45.1672659" lon="7.9492847"><ele>174.0</ele><time>2026-05-02T09:17:46.01Z</time></trkpt><trkpt lat="45.1672787" lon="7.9490644"><ele>174.0</ele><time>2026-05-02T09:17:46.999Z</time></trkpt><trkpt lat="45.1672916" lon="7.9488399"><ele>173.33333333333334</ele><time>2026-05-02T09:17:47.999Z</time></trkpt><trkpt lat="45.1673035" lon="7.9486148"><ele>172.66666666666669</ele><time>2026-05-02T09:17:49.007Z</time></trkpt><trkpt lat="45.1673151" lon="7.9483904"><ele>172.0</ele><time>2026-05-02T09:17:49.999Z</time></trkpt><trkpt lat="45.1673253" lon="7.9481616"><ele>171.33333333333334</ele><time>2026-05-02T09:17:50.995Z</time></trkpt><trkpt lat="45.1673378" lon="7.9479309"><ele>170.66666666666666</ele><time>2026-05-02T09:17:51.997Z</time></trkpt><trkpt lat="45.1673523" lon="7.9476987"><ele>170.0</ele><time>2026-05-02T09:17:53.008Z</time></trkpt><trkpt lat="45.1673648" lon="7.9474687"><ele>170.0</ele><time>2026-05-02T09:17:54Z</time></trkpt><trkpt lat="45.167376" lon="7.9472395"><ele>170.0</ele><time>2026-05-02T09:17:55.001Z</time></trkpt><trkpt lat="45.1673863" lon="7.9470094"><ele>170.0</ele><time>2026-05-02T09:17:55.997Z</time></trkpt><trkpt lat="45.1673973" lon="7.9467811"><ele>169.66666666666666</ele><time>2026-05-02T09:17:56.995Z</time></trkpt><trkpt lat="45.1674087" lon="7.9465519"><ele>169.33333333333334</ele><time>2026-05-02T09:17:57.997Z</time></trkpt><trkpt lat="45.1674195" lon="7.9463225"><ele>169.0</ele><time>2026-05-02T09:17:59.002Z</time></trkpt><trkpt lat="45.1674285" lon="7.9460869"><ele>169.0</ele><time>2026-05-02T09:18:00.002Z</time></trkpt><trkpt lat="45.167438" lon="7.9458468"><ele>169.0</ele><time>2026-05-02T09:18:00.997Z</time></trkpt><trkpt lat="45.1674483" lon="7.945602"><ele>169.0</ele><time>2026-05-02T09:18:01.998Z</time></trkpt><trkpt lat="45.1674597" lon="7.9453528"><ele>169.0</ele><time>2026-05-02T09:18:02.997Z</time></trkpt><trkpt lat="45.1674706" lon="7.9451008"><ele>169.0</ele><time>2026-05-02T09:18:04.003Z</time></trkpt><trkpt lat="45.1674817" lon="7.9448466"><ele>169.0</ele><time>2026-05-02T09:18:04.999Z</time></trkpt><trkpt lat="45.1674936" lon="7.9445899"><ele>169.66666666666669</ele><time>2026-05-02T09:18:05.998Z</time></trkpt><trkpt lat="45.1675057" lon="7.9443323"><ele>170.33333333333334</ele><time>2026-05-02T09:18:07.017Z</time></trkpt><trkpt lat="45.1675171" lon="7.9440734"><ele>171.0</ele><time>2026-05-02T09:18:07.996Z</time></trkpt><trkpt lat="45.1675271" lon="7.943814"><ele>171.0</ele><time>2026-05-02T09:18:09.003Z</time></trkpt><trkpt lat="45.167536" lon="7.9435543"><ele>171.0</ele><time>2026-05-02T09:18:09.999Z</time></trkpt><trkpt lat="45.1675448" lon="7.9432981"><ele>171.0</ele><time>2026-05-02T09:18:11.013Z</time></trkpt><trkpt lat="45.1675547" lon="7.9430492"><ele>171.0</ele><time>2026-05-02T09:18:12.01Z</time></trkpt><trkpt lat="45.1675645" lon="7.9428054"><ele>171.0</ele><time>2026-05-02T09:18:12.998Z</time></trkpt><trkpt lat="45.1675738" lon="7.9425675"><ele>171.0</ele><time>2026-05-02T09:18:14.013Z</time></trkpt><trkpt lat="45.1675819" lon="7.9423441"><ele>171.0</ele><time>2026-05-02T09:18:15.009Z</time></trkpt><trkpt lat="45.1675893" lon="7.9421364"><ele>171.0</ele><time>2026-05-02T09:18:16.002Z</time></trkpt><trkpt lat="45.1675961" lon="7.9419435"><ele>171.0</ele><time>2026-05-02T09:18:17.003Z</time></trkpt><trkpt lat="45.1676035" lon="7.9417678"><ele>171.0</ele><time>2026-05-02T09:18:18.014Z</time></trkpt><trkpt lat="45.1676116" lon="7.9416093"><ele>171.0</ele><time>2026-05-02T09:18:18.998Z</time></trkpt><trkpt lat="45.1676185" lon="7.9414704"><ele>171.0</ele><time>2026-05-02T09:18:20.015Z</time></trkpt><trkpt lat="45.1676248" lon="7.9413519"><ele>171.0</ele><time>2026-05-02T09:18:21.005Z</time></trkpt><trkpt lat="45.1676303" lon="7.9412444"><ele>171.0</ele><time>2026-05-02T09:18:22.004Z</time></trkpt><trkpt lat="45.1676355" lon="7.9411516"><ele>171.0</ele><time>2026-05-02T09:18:23.006Z</time></trkpt><trkpt lat="45.1676119" lon="7.9409983"><ele>171.0</ele><time>2026-05-02T09:18:24.997Z</time></trkpt><trkpt lat="45.1675156" lon="7.9408676"><ele>171.0</ele><time>2026-05-02T09:18:27.007Z</time></trkpt><trkpt lat="45.1674473" lon="7.9407956"><ele>171.0</ele><time>2026-05-02T09:18:28.002Z</time></trkpt><trkpt lat="45.1673604" lon="7.9407129"><ele>171.0</ele><time>2026-05-02T09:18:29.013Z</time></trkpt><trkpt lat="45.1672551" lon="7.9406113"><ele>171.0</ele><time>2026-05-02T09:18:30.009Z</time></trkpt><trkpt lat="45.1671443" lon="7.9405023"><ele>171.0</ele><time>2026-05-02T09:18:31.003Z</time></trkpt><trkpt lat="45.1670303" lon="7.940371"><ele>171.0</ele><time>2026-05-02T09:18:32.01Z</time></trkpt><trkpt lat="45.1669242" lon="7.9402185"><ele>171.0</ele><time>2026-05-02T09:18:33.008Z</time></trkpt><trkpt lat="45.1668182" lon="7.9400481"><ele>171.33333333333334</ele><time>2026-05-02T09:18:34.003Z</time></trkpt><trkpt lat="45.1667115" lon="7.9398605"><ele>171.66666666666669</ele><time>2026-05-02T09:18:35.011Z</time></trkpt><trkpt lat="45.1666051" lon="7.9396623"><ele>172.0</ele><time>2026-05-02T09:18:36.009Z</time></trkpt><trkpt lat="45.1664981" lon="7.9394609"><ele>172.0</ele><time>2026-05-02T09:18:37.009Z</time></trkpt><trkpt lat="45.1663897" lon="7.9392544"><ele>172.0</ele><time>2026-05-02T09:18:38.02Z</time></trkpt><trkpt lat="45.1662818" lon="7.9390494"><ele>172.0</ele><time>2026-05-02T09:18:39.012Z</time></trkpt><trkpt lat="45.1661746" lon="7.9388472"><ele>172.33333333333334</ele><time>2026-05-02T09:18:40.005Z</time></trkpt><trkpt lat="45.1660678" lon="7.938648"><ele>172.66666666666666</ele><time>2026-05-02T09:18:41.008Z</time></trkpt><trkpt lat="45.1659627" lon="7.9384548"><ele>173.0</ele><time>2026-05-02T09:18:42.012Z</time></trkpt><trkpt lat="45.1658617" lon="7.9382669"><ele>173.66666666666666</ele><time>2026-05-02T09:18:43.018Z</time></trkpt><trkpt lat="45.1657667" lon="7.938083"><ele>174.33333333333334</ele><time>2026-05-02T09:18:44.004Z</time></trkpt><trkpt lat="45.1656806" lon="7.9379029"><ele>175.0</ele><time>2026-05-02T09:18:45.004Z</time></trkpt><trkpt lat="45.1656062" lon="7.9377252"><ele>174.5</ele><time>2026-05-02T09:18:46.006Z</time></trkpt><trkpt lat="45.1655404" lon="7.9375565"><ele>174.0</ele><time>2026-05-02T09:18:47Z</time></trkpt><trkpt lat="45.1654708" lon="7.9373945"><ele>173.5</ele><time>2026-05-02T09:18:48.008Z</time></trkpt><trkpt lat="45.1653901" lon="7.9372414"><ele>173.0</ele><time>2026-05-02T09:18:49.005Z</time></trkpt><trkpt lat="45.1652974" lon="7.9370989"><ele>173.0</ele><time>2026-05-02T09:18:50Z</time></trkpt><trkpt lat="45.1651959" lon="7.9369644"><ele>173.0</ele><time>2026-05-02T09:18:51.011Z</time></trkpt><trkpt lat="45.1650906" lon="7.9368328"><ele>173.0</ele><time>2026-05-02T09:18:52.012Z</time></trkpt><trkpt lat="45.1649942" lon="7.9367037"><ele>173.0</ele><time>2026-05-02T09:18:53.023Z</time></trkpt><trkpt lat="45.1649138" lon="7.9365712"><ele>173.0</ele><time>2026-05-02T09:18:54.003Z</time></trkpt><trkpt lat="45.1648531" lon="7.9364254"><ele>173.0</ele><time>2026-05-02T09:18:55.005Z</time></trkpt><trkpt lat="45.1648158" lon="7.9362648"><ele>173.0</ele><time>2026-05-02T09:18:56.018Z</time></trkpt><trkpt lat="45.164803" lon="7.9360952"><ele>173.0</ele><time>2026-05-02T09:18:57.002Z</time></trkpt><trkpt lat="45.1648084" lon="7.9359234"><ele>173.0</ele><time>2026-05-02T09:18:58.012Z</time></trkpt><trkpt lat="45.1648242" lon="7.9357508"><ele>173.0</ele><time>2026-05-02T09:18:59.007Z</time></trkpt><trkpt lat="45.1648416" lon="7.9355814"><ele>173.0</ele><time>2026-05-02T09:19:00.001Z</time></trkpt><trkpt lat="45.1648449" lon="7.9354215"><ele>173.0</ele><time>2026-05-02T09:19:00.998Z</time></trkpt><trkpt lat="45.1648244" lon="7.9352689"><ele>173.0</ele><time>2026-05-02T09:19:02.016Z</time></trkpt><trkpt lat="45.1647763" lon="7.9351289"><ele>173.0</ele><time>2026-05-02T09:19:03.008Z</time></trkpt><trkpt lat="45.1647032" lon="7.9350054"><ele>173.0</ele><time>2026-05-02T09:19:04.002Z</time></trkpt><trkpt lat="45.1646097" lon="7.9348984"><ele>173.0</ele><time>2026-05-02T09:19:05.01Z</time></trkpt><trkpt lat="45.1645007" lon="7.934802"><ele>173.0</ele><time>2026-05-02T09:19:06.001Z</time></trkpt><trkpt lat="45.164381" lon="7.9347058"><ele>173.0</ele><time>2026-05-02T09:19:07.003Z</time></trkpt><trkpt lat="45.1642536" lon="7.9346024"><ele>173.0</ele><time>2026-05-02T09:19:08.002Z</time></trkpt><trkpt lat="45.1641178" lon="7.9344958"><ele>173.0</ele><time>2026-05-02T09:19:09.001Z</time></trkpt><trkpt lat="45.1639807" lon="7.9343901"><ele>173.0</ele><time>2026-05-02T09:19:10.01Z</time></trkpt><trkpt lat="45.163841" lon="7.9342814"><ele>173.0</ele><time>2026-05-02T09:19:11.008Z</time></trkpt><trkpt lat="45.163699" lon="7.9341676"><ele>173.0</ele><time>2026-05-02T09:19:12.007Z</time></trkpt><trkpt lat="45.1635578" lon="7.9340527"><ele>173.66666666666666</ele><time>2026-05-02T09:19:13.01Z</time></trkpt><trkpt lat="45.1634175" lon="7.9339411"><ele>174.33333333333334</ele><time>2026-05-02T09:19:14.004Z</time></trkpt><trkpt lat="45.1632771" lon="7.9338345"><ele>175.0</ele><time>2026-05-02T09:19:14.995Z</time></trkpt><trkpt lat="45.1631376" lon="7.9337306"><ele>177.0</ele><time>2026-05-02T09:19:16.003Z</time></trkpt><trkpt lat="45.1630042" lon="7.9336195"><ele>179.0</ele><time>2026-05-02T09:19:17Z</time></trkpt><trkpt lat="45.1628785" lon="7.9334933"><ele>181.0</ele><time>2026-05-02T09:19:17.996Z</time></trkpt><trkpt lat="45.1627565" lon="7.9333576"><ele>182.0</ele><time>2026-05-02T09:19:18.999Z</time></trkpt><trkpt lat="45.1626331" lon="7.933219"><ele>183.0</ele><time>2026-05-02T09:19:19.998Z</time></trkpt><trkpt lat="45.1625067" lon="7.9330879"><ele>184.0</ele><time>2026-05-02T09:19:20.996Z</time></trkpt><trkpt lat="45.1623809" lon="7.9329717"><ele>184.75</ele><time>2026-05-02T09:19:22.001Z</time></trkpt><trkpt lat="45.1622609" lon="7.9328696"><ele>185.5</ele><time>2026-05-02T09:19:23.003Z</time></trkpt><trkpt lat="45.1621421" lon="7.9327732"><ele>186.25</ele><time>2026-05-02T09:19:23.996Z</time></trkpt><trkpt lat="45.1620354" lon="7.9326662"><ele>187.0</ele><time>2026-05-02T09:19:24.999Z</time></trkpt><trkpt lat="45.1619336" lon="7.9325471"><ele>187.0</ele><time>2026-05-02T09:19:26.004Z</time></trkpt><trkpt lat="45.1618403" lon="7.9324058"><ele>187.0</ele><time>2026-05-02T09:19:27.004Z</time></trkpt><trkpt lat="45.1617472" lon="7.932257"><ele>187.0</ele><time>2026-05-02T09:19:28.004Z</time></trkpt><trkpt lat="45.1616558" lon="7.9321099"><ele>187.0</ele><time>2026-05-02T09:19:29.012Z</time></trkpt><trkpt lat="45.1615694" lon="7.9319703"><ele>188.39999999999998</ele><time>2026-05-02T09:19:29.997Z</time></trkpt><trkpt lat="45.1614986" lon="7.9318409"><ele>189.79999999999998</ele><time>2026-05-02T09:19:31Z</time></trkpt><trkpt lat="45.1614513" lon="7.9317145"><ele>191.2</ele><time>2026-05-02T09:19:31.998Z</time></trkpt><trkpt lat="45.1614131" lon="7.9315949"><ele>192.6</ele><time>2026-05-02T09:19:32.997Z</time></trkpt><trkpt lat="45.1614262" lon="7.9314604"><ele>194.0</ele><time>2026-05-02T09:19:33.994Z</time></trkpt><trkpt lat="45.1614447" lon="7.9313151"><ele>194.0</ele><time>2026-05-02T09:19:35.005Z</time></trkpt><trkpt lat="45.1614754" lon="7.9311722"><ele>194.0</ele><time>2026-05-02T09:19:35.995Z</time></trkpt><trkpt lat="45.1614932" lon="7.9310296"><ele>194.0</ele><time>2026-05-02T09:19:36.996Z</time></trkpt><trkpt lat="45.1614931" lon="7.9308984"><ele>194.0</ele><time>2026-05-02T09:19:38.003Z</time></trkpt><trkpt lat="45.1614886" lon="7.9307698"><ele>194.0</ele><time>2026-05-02T09:19:39.005Z</time></trkpt><trkpt lat="45.1614413" lon="7.9306538"><ele>193.2</ele><time>2026-05-02T09:19:40.003Z</time></trkpt><trkpt lat="45.1613747" lon="7.9305478"><ele>192.39999999999998</ele><time>2026-05-02T09:19:41Z</time></trkpt><trkpt lat="45.1613061" lon="7.9304457"><ele>191.6</ele><time>2026-05-02T09:19:42Z</time></trkpt><trkpt lat="45.1612361" lon="7.9303424"><ele>190.8</ele><time>2026-05-02T09:19:43.006Z</time></trkpt><trkpt lat="45.1611675" lon="7.9302323"><ele>190.0</ele><time>2026-05-02T09:19:43.996Z</time></trkpt><trkpt lat="45.1611037" lon="7.93012"><ele>190.4</ele><time>2026-05-02T09:19:45Z</time></trkpt><trkpt lat="45.161041" lon="7.9300097"><ele>190.8</ele><time>2026-05-02T09:19:46Z</time></trkpt><trkpt lat="45.1609807" lon="7.9298944"><ele>191.2</ele><time>2026-05-02T09:19:46.996Z</time></trkpt><trkpt lat="45.1609196" lon="7.9297747"><ele>191.6</ele><time>2026-05-02T09:19:48.012Z</time></trkpt><trkpt lat="45.1608537" lon="7.9296481"><ele>192.0</ele><time>2026-05-02T09:19:49.005Z</time></trkpt><trkpt lat="45.1607912" lon="7.9295186"><ele>192.0</ele><time>2026-05-02T09:19:50.011Z</time></trkpt><trkpt lat="45.1607333" lon="7.9293887"><ele>192.0</ele><time>2026-05-02T09:19:51.001Z</time></trkpt><trkpt lat="45.1606792" lon="7.9292741"><ele>192.0</ele><time>2026-05-02T09:19:51.998Z</time></trkpt><trkpt lat="45.1606167" lon="7.929187"><ele>192.0</ele><time>2026-05-02T09:19:53.013Z</time></trkpt><trkpt lat="45.1605513" lon="7.9291165"><ele>192.0</ele><time>2026-05-02T09:19:54.002Z</time></trkpt><trkpt lat="45.1604805" lon="7.9290726"><ele>192.0</ele><time>2026-05-02T09:19:55.004Z</time></trkpt><trkpt lat="45.1604035" lon="7.9290558"><ele>192.0</ele><time>2026-05-02T09:19:55.998Z</time></trkpt><trkpt lat="45.1603179" lon="7.9290667"><ele>192.0</ele><time>2026-05-02T09:19:57.003Z</time></trkpt><trkpt lat="45.1602287" lon="7.9291062"><ele>192.0</ele><time>2026-05-02T09:19:58.007Z</time></trkpt><trkpt lat="45.1601371" lon="7.9291661"><ele>192.0</ele><time>2026-05-02T09:19:58.995Z</time></trkpt><trkpt lat="45.1600443" lon="7.9292259"><ele>191.6</ele><time>2026-05-02T09:20:00.007Z</time></trkpt><trkpt lat="45.1599426" lon="7.9292865"><ele>191.2</ele><time>2026-05-02T09:20:01.008Z</time></trkpt><trkpt lat="45.1598429" lon="7.9293503"><ele>190.8</ele><time>2026-05-02T09:20:02.002Z</time></trkpt><trkpt lat="45.1597416" lon="7.929417"><ele>190.4</ele><time>2026-05-02T09:20:03Z</time></trkpt><trkpt lat="45.1596432" lon="7.9294797"><ele>190.0</ele><time>2026-05-02T09:20:04.009Z</time></trkpt><trkpt lat="45.1595491" lon="7.9295291"><ele>193.0</ele><time>2026-05-02T09:20:05.011Z</time></trkpt><trkpt lat="45.1594589" lon="7.9295591"><ele>196.0</ele><time>2026-05-02T09:20:05.996Z</time></trkpt><trkpt lat="45.159371" lon="7.9295659"><ele>199.0</ele><time>2026-05-02T09:20:07.005Z</time></trkpt><trkpt lat="45.1592837" lon="7.9295437"><ele>202.0</ele><time>2026-05-02T09:20:08.002Z</time></trkpt><trkpt lat="45.1592048" lon="7.9294954"><ele>204.99999999999997</ele><time>2026-05-02T09:20:08.998Z</time></trkpt><trkpt lat="45.1591373" lon="7.9294136"><ele>208.0</ele><time>2026-05-02T09:20:09.999Z</time></trkpt><trkpt lat="45.1590839" lon="7.9293057"><ele>207.8</ele><time>2026-05-02T09:20:11.003Z</time></trkpt><trkpt lat="45.1590265" lon="7.9291932"><ele>207.60000000000002</ele><time>2026-05-02T09:20:11.992Z</time></trkpt><trkpt lat="45.1589739" lon="7.9290645"><ele>207.39999999999998</ele><time>2026-05-02T09:20:13Z</time></trkpt><trkpt lat="45.1589191" lon="7.9289377"><ele>207.2</ele><time>2026-05-02T09:20:14.003Z</time></trkpt><trkpt lat="45.1588495" lon="7.9288239"><ele>207.0</ele><time>2026-05-02T09:20:14.996Z</time></trkpt><trkpt lat="45.1587836" lon="7.9287209"><ele>207.0</ele><time>2026-05-02T09:20:16.002Z</time></trkpt><trkpt lat="45.1586981" lon="7.9286403"><ele>207.0</ele><time>2026-05-02T09:20:17.002Z</time></trkpt><trkpt lat="45.1585993" lon="7.9285854"><ele>207.0</ele><time>2026-05-02T09:20:18.002Z</time></trkpt><trkpt lat="45.158488" lon="7.9285484"><ele>207.0</ele><time>2026-05-02T09:20:18.998Z</time></trkpt><trkpt lat="45.1583769" lon="7.9285041"><ele>207.0</ele><time>2026-05-02T09:20:19.997Z</time></trkpt><trkpt lat="45.1582639" lon="7.9284584"><ele>206.75</ele><time>2026-05-02T09:20:21.006Z</time></trkpt><trkpt lat="45.1581512" lon="7.9284065"><ele>206.5</ele><time>2026-05-02T09:20:21.999Z</time></trkpt><trkpt lat="45.1580355" lon="7.9283448"><ele>206.25</ele><time>2026-05-02T09:20:23.008Z</time></trkpt><trkpt lat="45.1579229" lon="7.9282689"><ele>206.0</ele><time>2026-05-02T09:20:24Z</time></trkpt><trkpt lat="45.1578151" lon="7.9281814"><ele>206.0</ele><time>2026-05-02T09:20:25.002Z</time></trkpt><trkpt lat="45.1577101" lon="7.9280885"><ele>206.0</ele><time>2026-05-02T09:20:26.006Z</time></trkpt><trkpt lat="45.1576006" lon="7.9279944"><ele>206.0</ele><time>2026-05-02T09:20:27.009Z</time></trkpt><trkpt lat="45.1574907" lon="7.9278979"><ele>206.0</ele><time>2026-05-02T09:20:27.997Z</time></trkpt><trkpt lat="45.1573799" lon="7.9278004"><ele>205.5</ele><time>2026-05-02T09:20:29.009Z</time></trkpt><trkpt lat="45.1572683" lon="7.927702"><ele>205.0</ele><time>2026-05-02T09:20:30.008Z</time></trkpt><trkpt lat="45.1571615" lon="7.9276052"><ele>204.5</ele><time>2026-05-02T09:20:30.997Z</time></trkpt><trkpt lat="45.1570663" lon="7.9275148"><ele>204.0</ele><time>2026-05-02T09:20:32.021Z</time></trkpt><trkpt lat="45.1569803" lon="7.9274287"><ele>204.0</ele><time>2026-05-02T09:20:33.015Z</time></trkpt><trkpt lat="45.156907" lon="7.9273306"><ele>204.0</ele><time>2026-05-02T09:20:33.995Z</time></trkpt><trkpt lat="45.156844" lon="7.9272198"><ele>204.0</ele><time>2026-05-02T09:20:35.005Z</time></trkpt><trkpt lat="45.1567849" lon="7.9270937"><ele>204.0</ele><time>2026-05-02T09:20:36.002Z</time></trkpt><trkpt lat="45.1567203" lon="7.9269714"><ele>204.0</ele><time>2026-05-02T09:20:37.007Z</time></trkpt><trkpt lat="45.1566494" lon="7.9268431"><ele>203.2</ele><time>2026-05-02T09:20:38.01Z</time></trkpt><trkpt lat="45.1565779" lon="7.9267141"><ele>202.39999999999998</ele><time>2026-05-02T09:20:39.01Z</time></trkpt><trkpt lat="45.1565092" lon="7.926585"><ele>201.6</ele><time>2026-05-02T09:20:40.004Z</time></trkpt><trkpt lat="45.1564466" lon="7.9264705"><ele>200.8</ele><time>2026-05-02T09:20:41.009Z</time></trkpt><trkpt lat="45.1563819" lon="7.9263753"><ele>200.0</ele><time>2026-05-02T09:20:42.019Z</time></trkpt><trkpt lat="45.156312" lon="7.9263079"><ele>200.66666666666669</ele><time>2026-05-02T09:20:43.007Z</time></trkpt><trkpt lat="45.1562414" lon="7.926258"><ele>201.33333333333334</ele><time>2026-05-02T09:20:44Z</time></trkpt><trkpt lat="45.1561825" lon="7.9262138"><ele>202.0</ele><time>2026-05-02T09:20:45Z</time></trkpt><trkpt lat="45.1561225" lon="7.9261445"><ele>202.66666666666669</ele><time>2026-05-02T09:20:47.006Z</time></trkpt><trkpt lat="45.156056" lon="7.9260362"><ele>203.33333333333334</ele><time>2026-05-02T09:20:51.002Z</time></trkpt><trkpt lat="45.1560137" lon="7.925879"><ele>204.0</ele><time>2026-05-02T09:20:53.002Z</time></trkpt><trkpt lat="45.1559919" lon="7.9257671"><ele>204.0</ele><time>2026-05-02T09:20:54.005Z</time></trkpt><trkpt lat="45.155974" lon="7.9256582"><ele>204.0</ele><time>2026-05-02T09:20:55.002Z</time></trkpt><trkpt lat="45.1559608" lon="7.9255684"><ele>204.0</ele><time>2026-05-02T09:20:56.001Z</time></trkpt><trkpt lat="45.1559378" lon="7.9254328"><ele>204.0</ele><time>2026-05-02T09:20:57.996Z</time></trkpt><trkpt lat="45.1559756" lon="7.9255714"><ele>204.0</ele><time>2026-05-02T09:21:08.998Z</time></trkpt><trkpt lat="45.1560074" lon="7.9257622"><ele>204.0</ele><time>2026-05-02T09:21:10.998Z</time></trkpt><trkpt lat="45.1560265" lon="7.9258623"><ele>204.0</ele><time>2026-05-02T09:21:12.013Z</time></trkpt><trkpt lat="45.1560428" lon="7.9259547"><ele>204.0</ele><time>2026-05-02T09:21:13Z</time></trkpt><trkpt lat="45.1560802" lon="7.9260833"><ele>204.0</ele><time>2026-05-02T09:21:15.001Z</time></trkpt><trkpt lat="45.1561101" lon="7.9261901"><ele>204.0</ele><time>2026-05-02T09:21:17.012Z</time></trkpt><trkpt lat="45.1561821" lon="7.9262716"><ele>204.0</ele><time>2026-05-02T09:21:22.997Z</time></trkpt><trkpt lat="45.1561573" lon="7.9261697"><ele>204.0</ele><time>2026-05-02T09:21:27Z</time></trkpt><trkpt lat="45.1561004" lon="7.926089"><ele>204.0</ele><time>2026-05-02T09:21:51.999Z</time></trkpt><trkpt lat="45.1560543" lon="7.9259854"><ele>204.0</ele><time>2026-05-02T09:21:54.006Z</time></trkpt><trkpt lat="45.1560069" lon="7.9258234"><ele>204.0</ele><time>2026-05-02T09:21:56.016Z</time></trkpt><trkpt lat="45.1559876" lon="7.925708"><ele>204.0</ele><time>2026-05-02T09:21:56.999Z</time></trkpt><trkpt lat="45.1559672" lon="7.925592"><ele>204.0</ele><time>2026-05-02T09:21:58.004Z</time></trkpt><trkpt lat="45.1559425" lon="7.9254692"><ele>204.0</ele><time>2026-05-02T09:21:59.005Z</time></trkpt><trkpt lat="45.155909" lon="7.925349"><ele>204.0</ele><time>2026-05-02T09:21:59.997Z</time></trkpt><trkpt lat="45.1558736" lon="7.9252343"><ele>204.0</ele><time>2026-05-02T09:22:00.998Z</time></trkpt><trkpt lat="45.1558373" lon="7.9251264"><ele>204.0</ele><time>2026-05-02T09:22:02.005Z</time></trkpt><trkpt lat="45.1558005" lon="7.9250204"><ele>204.0</ele><time>2026-05-02T09:22:02.997Z</time></trkpt><trkpt lat="45.1557684" lon="7.924916"><ele>204.5</ele><time>2026-05-02T09:22:03.998Z</time></trkpt><trkpt lat="45.1557392" lon="7.9248113"><ele>205.0</ele><time>2026-05-02T09:22:05.002Z</time></trkpt><trkpt lat="45.1557112" lon="7.9247087"><ele>205.5</ele><time>2026-05-02T09:22:06.007Z</time></trkpt><trkpt lat="45.1556859" lon="7.9246081"><ele>206.0</ele><time>2026-05-02T09:22:07.001Z</time></trkpt><trkpt lat="45.1556692" lon="7.924505"><ele>206.5</ele><time>2026-05-02T09:22:08.003Z</time></trkpt><trkpt lat="45.1556635" lon="7.9243982"><ele>207.0</ele><time>2026-05-02T09:22:09.001Z</time></trkpt><trkpt lat="45.1556685" lon="7.924287"><ele>207.6</ele><time>2026-05-02T09:22:10.007Z</time></trkpt><trkpt lat="45.1556839" lon="7.9241725"><ele>208.2</ele><time>2026-05-02T09:22:11Z</time></trkpt><trkpt lat="45.1557109" lon="7.9240533"><ele>208.8</ele><time>2026-05-02T09:22:11.998Z</time></trkpt><trkpt lat="45.1557445" lon="7.9239287"><ele>209.4</ele><time>2026-05-02T09:22:13.002Z</time></trkpt><trkpt lat="45.1557829" lon="7.9237967"><ele>210.0</ele><time>2026-05-02T09:22:14.019Z</time></trkpt><trkpt lat="45.1558188" lon="7.9236615"><ele>210.0</ele><time>2026-05-02T09:22:14.999Z</time></trkpt><trkpt lat="45.155852" lon="7.9235201"><ele>210.0</ele><time>2026-05-02T09:22:16.003Z</time></trkpt><trkpt lat="45.1558858" lon="7.9233873"><ele>210.0</ele><time>2026-05-02T09:22:16.991Z</time></trkpt><trkpt lat="45.1559242" lon="7.9232711"><ele>210.0</ele><time>2026-05-02T09:22:17.996Z</time></trkpt><trkpt lat="45.1559723" lon="7.9231735"><ele>210.0</ele><time>2026-05-02T09:22:18.997Z</time></trkpt><trkpt lat="45.1560206" lon="7.9230778"><ele>210.16666666666666</ele><time>2026-05-02T09:22:20.001Z</time></trkpt><trkpt lat="45.1560857" lon="7.9230024"><ele>210.33333333333331</ele><time>2026-05-02T09:22:20.996Z</time></trkpt><trkpt lat="45.1561597" lon="7.9229412"><ele>210.5</ele><time>2026-05-02T09:22:22.001Z</time></trkpt><trkpt lat="45.1562361" lon="7.9228885"><ele>210.66666666666666</ele><time>2026-05-02T09:22:22.998Z</time></trkpt><trkpt lat="45.1563128" lon="7.9228342"><ele>210.83333333333331</ele><time>2026-05-02T09:22:24Z</time></trkpt><trkpt lat="45.1563879" lon="7.9227704"><ele>211.0</ele><time>2026-05-02T09:22:24.995Z</time></trkpt><trkpt lat="45.1564664" lon="7.9226954"><ele>212.8</ele><time>2026-05-02T09:22:26.001Z</time></trkpt><trkpt lat="45.1565478" lon="7.9226167"><ele>214.60000000000002</ele><time>2026-05-02T09:22:26.999Z</time></trkpt><trkpt lat="45.1566187" lon="7.9225065"><ele>216.4</ele><time>2026-05-02T09:22:27.993Z</time></trkpt><trkpt lat="45.1566803" lon="7.9223838"><ele>218.2</ele><time>2026-05-02T09:22:29.003Z</time></trkpt><trkpt lat="45.1567328" lon="7.9222542"><ele>220.0</ele><time>2026-05-02T09:22:29.998Z</time></trkpt><trkpt lat="45.1567743" lon="7.9221286"><ele>219.99999999999997</ele><time>2026-05-02T09:22:31.01Z</time></trkpt><trkpt lat="45.1568132" lon="7.9220078"><ele>220.0</ele><time>2026-05-02T09:22:31.999Z</time></trkpt><trkpt lat="45.1568476" lon="7.9218873"><ele>220.0</ele><time>2026-05-02T09:22:33.002Z</time></trkpt><trkpt lat="45.1568774" lon="7.9217662"><ele>220.0</ele><time>2026-05-02T09:22:34.008Z</time></trkpt><trkpt lat="45.1568989" lon="7.9216449"><ele>219.99999999999997</ele><time>2026-05-02T09:22:34.993Z</time></trkpt><trkpt lat="45.1569128" lon="7.921528"><ele>220.0</ele><time>2026-05-02T09:22:36.003Z</time></trkpt><trkpt lat="45.1569317" lon="7.9214178"><ele>220.49999999999997</ele><time>2026-05-02T09:22:37.003Z</time></trkpt><trkpt lat="45.1569493" lon="7.9213113"><ele>221.0</ele><time>2026-05-02T09:22:37.997Z</time></trkpt><trkpt lat="45.1569883" lon="7.9212097"><ele>221.5</ele><time>2026-05-02T09:22:39.005Z</time></trkpt><trkpt lat="45.1570418" lon="7.9211175"><ele>222.0</ele><time>2026-05-02T09:22:40.004Z</time></trkpt><trkpt lat="45.1571059" lon="7.921036"><ele>222.49999999999997</ele><time>2026-05-02T09:22:40.999Z</time></trkpt><trkpt lat="45.1571783" lon="7.920963"><ele>223.0</ele><time>2026-05-02T09:22:41.998Z</time></trkpt><trkpt lat="45.1572528" lon="7.9208922"><ele>222.2</ele><time>2026-05-02T09:22:42.994Z</time></trkpt><trkpt lat="45.1573211" lon="7.92081"><ele>221.4</ele><time>2026-05-02T09:22:44.001Z</time></trkpt><trkpt lat="45.1573886" lon="7.9207264"><ele>220.59999999999997</ele><time>2026-05-02T09:22:44.998Z</time></trkpt><trkpt lat="45.1574424" lon="7.9206186"><ele>219.79999999999998</ele><time>2026-05-02T09:22:46.001Z</time></trkpt><trkpt lat="45.1575017" lon="7.9205196"><ele>219.0</ele><time>2026-05-02T09:22:46.999Z</time></trkpt><trkpt lat="45.1575717" lon="7.9204354"><ele>219.0</ele><time>2026-05-02T09:22:47.998Z</time></trkpt><trkpt lat="45.1576521" lon="7.9203603"><ele>218.99999999999997</ele><time>2026-05-02T09:22:49Z</time></trkpt><trkpt lat="45.1577263" lon="7.9202751"><ele>218.99999999999997</ele><time>2026-05-02T09:22:50.008Z</time></trkpt><trkpt lat="45.1577937" lon="7.9201803"><ele>219.0</ele><time>2026-05-02T09:22:51.001Z</time></trkpt><trkpt lat="45.1578588" lon="7.9200759"><ele>219.0</ele><time>2026-05-02T09:22:51.998Z</time></trkpt><trkpt lat="45.1579227" lon="7.919967"><ele>219.79999999999998</ele><time>2026-05-02T09:22:53.002Z</time></trkpt><trkpt lat="45.1579832" lon="7.9198555"><ele>220.59999999999997</ele><time>2026-05-02T09:22:54.002Z</time></trkpt><trkpt lat="45.1580412" lon="7.9197382"><ele>221.4</ele><time>2026-05-02T09:22:55.009Z</time></trkpt><trkpt lat="45.158099" lon="7.9196213"><ele>222.2</ele><time>2026-05-02T09:22:56Z</time></trkpt><trkpt lat="45.158155" lon="7.9195076"><ele>223.0</ele><time>2026-05-02T09:22:57.012Z</time></trkpt><trkpt lat="45.1582126" lon="7.9193971"><ele>223.0</ele><time>2026-05-02T09:22:58.006Z</time></trkpt><trkpt lat="45.1582746" lon="7.9192916"><ele>223.0</ele><time>2026-05-02T09:22:58.999Z</time></trkpt><trkpt lat="45.1583426" lon="7.9191943"><ele>223.0</ele><time>2026-05-02T09:23:00.001Z</time></trkpt><trkpt lat="45.1584166" lon="7.9191035"><ele>223.0</ele><time>2026-05-02T09:23:01.007Z</time></trkpt><trkpt lat="45.158495" lon="7.9190187"><ele>223.0</ele><time>2026-05-02T09:23:02.016Z</time></trkpt><trkpt lat="45.1585749" lon="7.9189338"><ele>223.4</ele><time>2026-05-02T09:23:02.997Z</time></trkpt><trkpt lat="45.1586533" lon="7.9188444"><ele>223.8</ele><time>2026-05-02T09:23:04.01Z</time></trkpt><trkpt lat="45.158729" lon="7.9187489"><ele>224.2</ele><time>2026-05-02T09:23:05.015Z</time></trkpt><trkpt lat="45.1588018" lon="7.9186493"><ele>224.6</ele><time>2026-05-02T09:23:06.007Z</time></trkpt><trkpt lat="45.158873" lon="7.9185656"><ele>225.0</ele><time>2026-05-02T09:23:07.012Z</time></trkpt><trkpt lat="45.1589454" lon="7.9185008"><ele>225.0</ele><time>2026-05-02T09:23:08.007Z</time></trkpt><trkpt lat="45.1590176" lon="7.9184444"><ele>225.0</ele><time>2026-05-02T09:23:08.999Z</time></trkpt><trkpt lat="45.1590828" lon="7.9183755"><ele>225.0</ele><time>2026-05-02T09:23:10.01Z</time></trkpt><trkpt lat="45.1591463" lon="7.9183077"><ele>225.0</ele><time>2026-05-02T09:23:11.005Z</time></trkpt><trkpt lat="45.1591849" lon="7.9182046"><ele>225.0</ele><time>2026-05-02T09:23:12.011Z</time></trkpt><trkpt lat="45.1592214" lon="7.9181062"><ele>225.0</ele><time>2026-05-02T09:23:13.015Z</time></trkpt><trkpt lat="45.1592549" lon="7.9180121"><ele>225.16666666666666</ele><time>2026-05-02T09:23:14.006Z</time></trkpt><trkpt lat="45.1592991" lon="7.9179226"><ele>225.33333333333331</ele><time>2026-05-02T09:23:15.009Z</time></trkpt><trkpt lat="45.1593587" lon="7.9178518"><ele>225.5</ele><time>2026-05-02T09:23:16.001Z</time></trkpt><trkpt lat="45.1594269" lon="7.9177952"><ele>225.66666666666666</ele><time>2026-05-02T09:23:17.007Z</time></trkpt><trkpt lat="45.1594898" lon="7.9177414"><ele>225.83333333333331</ele><time>2026-05-02T09:23:18.003Z</time></trkpt><trkpt lat="45.1595415" lon="7.9176667"><ele>226.0</ele><time>2026-05-02T09:23:19.001Z</time></trkpt><trkpt lat="45.1595906" lon="7.9175926"><ele>226.99999999999997</ele><time>2026-05-02T09:23:20.009Z</time></trkpt><trkpt lat="45.1596132" lon="7.9174866"><ele>228.0</ele><time>2026-05-02T09:23:21.002Z</time></trkpt><trkpt lat="45.1596213" lon="7.9173693"><ele>229.0</ele><time>2026-05-02T09:23:22.002Z</time></trkpt><trkpt lat="45.1596196" lon="7.9172438"><ele>230.0</ele><time>2026-05-02T09:23:22.998Z</time></trkpt><trkpt lat="45.1596109" lon="7.9171199"><ele>230.99999999999997</ele><time>2026-05-02T09:23:23.996Z</time></trkpt><trkpt lat="45.1595994" lon="7.9169997"><ele>232.0</ele><time>2026-05-02T09:23:24.999Z</time></trkpt><trkpt lat="45.1595927" lon="7.9168902"><ele>231.99999999999997</ele><time>2026-05-02T09:23:26.006Z</time></trkpt><trkpt lat="45.1595946" lon="7.9167879"><ele>232.0</ele><time>2026-05-02T09:23:26.996Z</time></trkpt><trkpt lat="45.1596127" lon="7.9166913"><ele>232.0</ele><time>2026-05-02T09:23:27.996Z</time></trkpt><trkpt lat="45.1596495" lon="7.9166004"><ele>232.0</ele><time>2026-05-02T09:23:29.004Z</time></trkpt><trkpt lat="45.1597006" lon="7.9165136"><ele>231.99999999999997</ele><time>2026-05-02T09:23:30.001Z</time></trkpt><trkpt lat="45.1597561" lon="7.9164207"><ele>232.0</ele><time>2026-05-02T09:23:30.996Z</time></trkpt><trkpt lat="45.1598274" lon="7.9163262"><ele>231.8</ele><time>2026-05-02T09:23:32.001Z</time></trkpt><trkpt lat="45.1599002" lon="7.9162298"><ele>231.6</ele><time>2026-05-02T09:23:32.998Z</time></trkpt><trkpt lat="45.1599697" lon="7.9161269"><ele>231.40000000000003</ele><time>2026-05-02T09:23:34.001Z</time></trkpt><trkpt lat="45.1600305" lon="7.9160138"><ele>231.20000000000002</ele><time>2026-05-02T09:23:34.998Z</time></trkpt><trkpt lat="45.1600927" lon="7.915904"><ele>231.0</ele><time>2026-05-02T09:23:36.009Z</time></trkpt><trkpt lat="45.1601626" lon="7.9157968"><ele>231.0</ele><time>2026-05-02T09:23:37.002Z</time></trkpt><trkpt lat="45.1602419" lon="7.9157075"><ele>231.00000000000003</ele><time>2026-05-02T09:23:37.996Z</time></trkpt><trkpt lat="45.160329" lon="7.9156233"><ele>231.00000000000003</ele><time>2026-05-02T09:23:39.002Z</time></trkpt><trkpt lat="45.1604225" lon="7.915544"><ele>231.0</ele><time>2026-05-02T09:23:40.009Z</time></trkpt><trkpt lat="45.1605223" lon="7.9154708"><ele>231.0</ele><time>2026-05-02T09:23:41.003Z</time></trkpt><trkpt lat="45.1606193" lon="7.915404"><ele>232.33333333333334</ele><time>2026-05-02T09:23:41.995Z</time></trkpt><trkpt lat="45.1607089" lon="7.915341"><ele>233.66666666666669</ele><time>2026-05-02T09:23:43.003Z</time></trkpt><trkpt lat="45.1607882" lon="7.9152764"><ele>235.0</ele><time>2026-05-02T09:23:44.013Z</time></trkpt><trkpt lat="45.1608632" lon="7.9152142"><ele>236.33333333333334</ele><time>2026-05-02T09:23:44.991Z</time></trkpt><trkpt lat="45.1609308" lon="7.9151464"><ele>237.66666666666669</ele><time>2026-05-02T09:23:46.014Z</time></trkpt><trkpt lat="45.1609947" lon="7.91507"><ele>239.0</ele><time>2026-05-02T09:23:47.002Z</time></trkpt><trkpt lat="45.1610615" lon="7.914979"><ele>239.71428571428575</ele><time>2026-05-02T09:23:47.999Z</time></trkpt><trkpt lat="45.1611246" lon="7.9149124"><ele>240.42857142857144</ele><time>2026-05-02T09:23:49.001Z</time></trkpt><trkpt lat="45.1611895" lon="7.9148768"><ele>241.14285714285714</ele><time>2026-05-02T09:23:50Z</time></trkpt><trkpt lat="45.1612556" lon="7.9148531"><ele>241.85714285714286</ele><time>2026-05-02T09:23:51.002Z</time></trkpt><trkpt lat="45.1613265" lon="7.9148407"><ele>242.57142857142856</ele><time>2026-05-02T09:23:52.011Z</time></trkpt><trkpt lat="45.1614005" lon="7.9148318"><ele>243.28571428571425</ele><time>2026-05-02T09:23:53.006Z</time></trkpt><trkpt lat="45.1614776" lon="7.9148162"><ele>243.99999999999997</ele><time>2026-05-02T09:23:54.004Z</time></trkpt><trkpt lat="45.1615485" lon="7.914796"><ele>244.99999999999997</ele><time>2026-05-02T09:23:55.002Z</time></trkpt><trkpt lat="45.1616205" lon="7.9147585"><ele>246.0</ele><time>2026-05-02T09:23:55.997Z</time></trkpt><trkpt lat="45.1616873" lon="7.9146978"><ele>247.0</ele><time>2026-05-02T09:23:57.007Z</time></trkpt><trkpt lat="45.1617499" lon="7.9146214"><ele>248.0</ele><time>2026-05-02T09:23:57.998Z</time></trkpt><trkpt lat="45.1618011" lon="7.9145275"><ele>248.99999999999997</ele><time>2026-05-02T09:23:59.004Z</time></trkpt><trkpt lat="45.1618451" lon="7.9144251"><ele>250.0</ele><time>2026-05-02T09:24:00.002Z</time></trkpt><trkpt lat="45.1618861" lon="7.9143147"><ele>250.0</ele><time>2026-05-02T09:24:01Z</time></trkpt><trkpt lat="45.1619252" lon="7.9141959"><ele>250.0</ele><time>2026-05-02T09:24:02Z</time></trkpt><trkpt lat="45.1619646" lon="7.914071"><ele>250.0</ele><time>2026-05-02T09:24:03.004Z</time></trkpt><trkpt lat="45.1620043" lon="7.9139462"><ele>250.0</ele><time>2026-05-02T09:24:04.014Z</time></trkpt><trkpt lat="45.1620403" lon="7.9138312"><ele>250.0</ele><time>2026-05-02T09:24:05.009Z</time></trkpt><trkpt lat="45.162077" lon="7.9137137"><ele>250.0</ele><time>2026-05-02T09:24:06.004Z</time></trkpt><trkpt lat="45.1621108" lon="7.9135941"><ele>250.0</ele><time>2026-05-02T09:24:06.999Z</time></trkpt><trkpt lat="45.1621398" lon="7.9134669"><ele>250.0</ele><time>2026-05-02T09:24:08.005Z</time></trkpt><trkpt lat="45.1621649" lon="7.9133376"><ele>250.0</ele><time>2026-05-02T09:24:09.007Z</time></trkpt><trkpt lat="45.162189" lon="7.9132066"><ele>250.0</ele><time>2026-05-02T09:24:10.002Z</time></trkpt><trkpt lat="45.1622079" lon="7.9130791"><ele>252.33333333333331</ele><time>2026-05-02T09:24:11.006Z</time></trkpt><trkpt lat="45.1622228" lon="7.9129582"><ele>254.66666666666666</ele><time>2026-05-02T09:24:12.006Z</time></trkpt><trkpt lat="45.1622327" lon="7.9128578"><ele>257.0</ele><time>2026-05-02T09:24:13.002Z</time></trkpt><trkpt lat="45.1622605" lon="7.912735"><ele>259.3333333333333</ele><time>2026-05-02T09:24:15.008Z</time></trkpt><trkpt lat="45.1623418" lon="7.9127131"><ele>261.6666666666667</ele><time>2026-05-02T09:24:18.005Z</time></trkpt><trkpt lat="45.1623487" lon="7.9128548"><ele>264.0</ele><time>2026-05-02T09:24:20.007Z</time></trkpt><trkpt lat="45.1623422" lon="7.9130105"><ele>264.0</ele><time>2026-05-02T09:24:22.001Z</time></trkpt><trkpt lat="45.162349" lon="7.9131597"><ele>264.0</ele><time>2026-05-02T09:24:24.005Z</time></trkpt><trkpt lat="45.1623673" lon="7.9132942"><ele>264.0</ele><time>2026-05-02T09:24:26.009Z</time></trkpt><trkpt lat="45.162384" lon="7.9134033"><ele>264.0</ele><time>2026-05-02T09:24:28.008Z</time></trkpt><trkpt lat="45.1624162" lon="7.9134948"><ele>264.0</ele><time>2026-05-02T09:24:30.01Z</time></trkpt><trkpt lat="45.1624737" lon="7.913533"><ele>264.0</ele><time>2026-05-02T09:24:32.011Z</time></trkpt><trkpt lat="45.1625383" lon="7.913477"><ele>263.8</ele><time>2026-05-02T09:24:34.006Z</time></trkpt><trkpt lat="45.1625682" lon="7.9133433"><ele>263.59999999999997</ele><time>2026-05-02T09:24:36.008Z</time></trkpt><trkpt lat="45.162591" lon="7.9132053"><ele>263.4</ele><time>2026-05-02T09:24:38.003Z</time></trkpt><trkpt lat="45.1626257" lon="7.9130609"><ele>263.2</ele><time>2026-05-02T09:24:40.011Z</time></trkpt><trkpt lat="45.1626698" lon="7.9129157"><ele>263.0</ele><time>2026-05-02T09:24:42.011Z</time></trkpt><trkpt lat="45.1627415" lon="7.9127807"><ele>263.0</ele><time>2026-05-02T09:24:44.008Z</time></trkpt><trkpt lat="45.1627886" lon="7.9127087"><ele>263.0</ele><time>2026-05-02T09:24:45.004Z</time></trkpt><trkpt lat="45.1628437" lon="7.9126314"><ele>263.0</ele><time>2026-05-02T09:24:45.999Z</time></trkpt><trkpt lat="45.1629048" lon="7.9125551"><ele>263.0</ele><time>2026-05-02T09:24:47Z</time></trkpt><trkpt lat="45.1629672" lon="7.912482"><ele>263.0</ele><time>2026-05-02T09:24:48.009Z</time></trkpt><trkpt lat="45.1630332" lon="7.9124097"><ele>263.0</ele><time>2026-05-02T09:24:49.002Z</time></trkpt><trkpt lat="45.1631035" lon="7.9123401"><ele>264.6666666666667</ele><time>2026-05-02T09:24:50.005Z</time></trkpt><trkpt lat="45.1631748" lon="7.9122731"><ele>266.33333333333337</ele><time>2026-05-02T09:24:51.011Z</time></trkpt><trkpt lat="45.1632482" lon="7.9122154"><ele>268.0</ele><time>2026-05-02T09:24:52.002Z</time></trkpt><trkpt lat="45.1633192" lon="7.912171"><ele>269.6666666666667</ele><time>2026-05-02T09:24:53.007Z</time></trkpt><trkpt lat="45.1633864" lon="7.9121478"><ele>271.3333333333333</ele><time>2026-05-02T09:24:54.01Z</time></trkpt><trkpt lat="45.163509" lon="7.9121509"><ele>273.0</ele><time>2026-05-02T09:24:56.006Z</time></trkpt><trkpt lat="45.163628" lon="7.9121841"><ele>273.75</ele><time>2026-05-02T09:24:58.007Z</time></trkpt><trkpt lat="45.1637446" lon="7.9121857"><ele>274.5</ele><time>2026-05-02T09:25:00.015Z</time></trkpt><trkpt lat="45.163833" lon="7.9120794"><ele>275.25</ele><time>2026-05-02T09:25:02.005Z</time></trkpt><trkpt lat="45.16388" lon="7.9119284"><ele>276.0</ele><time>2026-05-02T09:25:04.01Z</time></trkpt><trkpt lat="45.1638188" lon="7.9117938"><ele>279.8</ele><time>2026-05-02T09:25:06.012Z</time></trkpt><trkpt lat="45.1637359" lon="7.9116825"><ele>283.6</ele><time>2026-05-02T09:25:08.001Z</time></trkpt><trkpt lat="45.1637213" lon="7.9115517"><ele>287.4</ele><time>2026-05-02T09:25:10Z</time></trkpt><trkpt lat="45.1637354" lon="7.911407"><ele>291.2</ele><time>2026-05-02T09:25:12.005Z</time></trkpt><trkpt lat="45.1637538" lon="7.9112358"><ele>295.0</ele><time>2026-05-02T09:25:14.001Z</time></trkpt><trkpt lat="45.1637631" lon="7.911132"><ele>295.00000000000006</ele><time>2026-05-02T09:25:15.006Z</time></trkpt><trkpt lat="45.1637759" lon="7.9110258"><ele>295.0</ele><time>2026-05-02T09:25:16.015Z</time></trkpt><trkpt lat="45.1637879" lon="7.9109252"><ele>295.0</ele><time>2026-05-02T09:25:17.001Z</time></trkpt><trkpt lat="45.1637994" lon="7.910822"><ele>295.0</ele><time>2026-05-02T09:25:18.003Z</time></trkpt><trkpt lat="45.1638126" lon="7.9107211"><ele>295.0</ele><time>2026-05-02T09:25:19.007Z</time></trkpt><trkpt lat="45.1638349" lon="7.9106137"><ele>295.00000000000006</ele><time>2026-05-02T09:25:19.999Z</time></trkpt><trkpt lat="45.1638651" lon="7.910523"><ele>295.0</ele><time>2026-05-02T09:25:20.998Z</time></trkpt><trkpt lat="45.1639041" lon="7.9104443"><ele>295.8333333333333</ele><time>2026-05-02T09:25:22.007Z</time></trkpt><trkpt lat="45.1639492" lon="7.9103792"><ele>296.66666666666663</ele><time>2026-05-02T09:25:23.001Z</time></trkpt><trkpt lat="45.1640475" lon="7.9102733"><ele>297.5</ele><time>2026-05-02T09:25:25.007Z</time></trkpt><trkpt lat="45.1641334" lon="7.9101956"><ele>298.3333333333333</ele><time>2026-05-02T09:25:26.995Z</time></trkpt><trkpt lat="45.1641451" lon="7.9101077"><ele>299.1666666666667</ele><time>2026-05-02T09:25:29.01Z</time></trkpt><trkpt lat="45.1640935" lon="7.9100544"><ele>300.0</ele><time>2026-05-02T09:25:31.001Z</time></trkpt><trkpt lat="45.1640137" lon="7.9101232"><ele>302.4</ele><time>2026-05-02T09:25:33.007Z</time></trkpt><trkpt lat="45.1639086" lon="7.910191"><ele>304.8</ele><time>2026-05-02T09:25:35Z</time></trkpt><trkpt lat="45.1637991" lon="7.9102439"><ele>307.2</ele><time>2026-05-02T09:25:37Z</time></trkpt><trkpt lat="45.1637162" lon="7.9102745"><ele>309.6</ele><time>2026-05-02T09:25:39.001Z</time></trkpt><trkpt lat="45.1636675" lon="7.9102013"><ele>312.0</ele><time>2026-05-02T09:25:42.01Z</time></trkpt><trkpt lat="45.1637652" lon="7.9101272"><ele>313.6</ele><time>2026-05-02T09:25:44.998Z</time></trkpt><trkpt lat="45.1638867" lon="7.9100732"><ele>315.2</ele><time>2026-05-02T09:25:47.001Z</time></trkpt><trkpt lat="45.1639498" lon="7.9100357"><ele>316.8</ele><time>2026-05-02T09:25:48.005Z</time></trkpt><trkpt lat="45.1640071" lon="7.9099896"><ele>318.4</ele><time>2026-05-02T09:25:48.998Z</time></trkpt><trkpt lat="45.1640946" lon="7.9098721"><ele>320.0</ele><time>2026-05-02T09:25:51.005Z</time></trkpt><trkpt lat="45.1641444" lon="7.9097165"><ele>320.0</ele><time>2026-05-02T09:25:53.003Z</time></trkpt><trkpt lat="45.1641896" lon="7.9095691"><ele>320.0</ele><time>2026-05-02T09:25:55Z</time></trkpt><trkpt lat="45.1642338" lon="7.90942"><ele>320.0</ele><time>2026-05-02T09:25:56.997Z</time></trkpt><trkpt lat="45.1642795" lon="7.9092723"><ele>320.0</ele><time>2026-05-02T09:25:59.007Z</time></trkpt><trkpt lat="45.1643297" lon="7.9091247"><ele>323.8</ele><time>2026-05-02T09:26:01Z</time></trkpt><trkpt lat="45.1643752" lon="7.9089779"><ele>327.6</ele><time>2026-05-02T09:26:03.007Z</time></trkpt><trkpt lat="45.1644253" lon="7.9088481"><ele>331.4</ele><time>2026-05-02T09:26:05.014Z</time></trkpt><trkpt lat="45.1645056" lon="7.9087812"><ele>335.2</ele><time>2026-05-02T09:26:07.006Z</time></trkpt><trkpt lat="45.1646132" lon="7.9087606"><ele>339.0</ele><time>2026-05-02T09:26:09.014Z</time></trkpt><trkpt lat="45.1646891" lon="7.9087688"><ele>339.0</ele><time>2026-05-02T09:26:09.997Z</time></trkpt><trkpt lat="45.1647508" lon="7.9087908"><ele>339.0</ele><time>2026-05-02T09:26:11.005Z</time></trkpt><trkpt lat="45.1648572" lon="7.9087998"><ele>339.0</ele><time>2026-05-02T09:26:13.01Z</time></trkpt><trkpt lat="45.1649413" lon="7.9087475"><ele>339.0</ele><time>2026-05-02T09:26:15.008Z</time></trkpt><trkpt lat="45.1649856" lon="7.9086787"><ele>339.0</ele><time>2026-05-02T09:26:16.012Z</time></trkpt><trkpt lat="45.1650318" lon="7.908599"><ele>339.0</ele><time>2026-05-02T09:26:17.007Z</time></trkpt><trkpt lat="45.1650838" lon="7.9085206"><ele>337.85714285714283</ele><time>2026-05-02T09:26:18.005Z</time></trkpt><trkpt lat="45.1651367" lon="7.9084463"><ele>336.7142857142857</ele><time>2026-05-02T09:26:19.007Z</time></trkpt><trkpt lat="45.1651938" lon="7.9083861"><ele>335.57142857142856</ele><time>2026-05-02T09:26:20.014Z</time></trkpt><trkpt lat="45.1652547" lon="7.9083427"><ele>334.42857142857144</ele><time>2026-05-02T09:26:21.005Z</time></trkpt><trkpt lat="45.1653187" lon="7.9083255"><ele>333.2857142857143</ele><time>2026-05-02T09:26:21.998Z</time></trkpt><trkpt lat="45.1653827" lon="7.9083359"><ele>332.14285714285717</ele><time>2026-05-02T09:26:23.001Z</time></trkpt><trkpt lat="45.1654415" lon="7.9083692"><ele>331.0</ele><time>2026-05-02T09:26:24.009Z</time></trkpt><trkpt lat="45.1655197" lon="7.908467"><ele>331.0</ele><time>2026-05-02T09:26:25.998Z</time></trkpt><trkpt lat="45.1655802" lon="7.9085"><ele>331.0</ele><time>2026-05-02T09:26:29.014Z</time></trkpt><trkpt lat="45.1655669" lon="7.9084047"><ele>331.0</ele><time>2026-05-02T09:27:00.012Z</time></trkpt><trkpt lat="45.1655167" lon="7.9082951"><ele>331.0</ele><time>2026-05-02T09:27:01.996Z</time></trkpt><trkpt lat="45.1654504" lon="7.9081771"><ele>331.0</ele><time>2026-05-02T09:27:04.004Z</time></trkpt><trkpt lat="45.1653449" lon="7.9080753"><ele>335.0</ele><time>2026-05-02T09:27:05.996Z</time></trkpt><trkpt lat="45.1652705" lon="7.9080342"><ele>339.0</ele><time>2026-05-02T09:27:07.013Z</time></trkpt><trkpt lat="45.1651869" lon="7.9079967"><ele>343.0</ele><time>2026-05-02T09:27:07.999Z</time></trkpt><trkpt lat="45.1650964" lon="7.9079631"><ele>347.0</ele><time>2026-05-02T09:27:09.004Z</time></trkpt><trkpt lat="45.1650131" lon="7.9079304"><ele>351.0</ele><time>2026-05-02T09:27:10.001Z</time></trkpt><trkpt lat="45.16495" lon="7.9079171"><ele>355.0</ele><time>2026-05-02T09:27:11.005Z</time></trkpt><trkpt lat="45.1648605" lon="7.9078734"><ele>355.0</ele><time>2026-05-02T09:27:13Z</time></trkpt><trkpt lat="45.1648594" lon="7.9077464"><ele>355.0</ele><time>2026-05-02T09:27:16.008Z</time></trkpt><trkpt lat="45.1649457" lon="7.9076304"><ele>355.0</ele><time>2026-05-02T09:27:18.004Z</time></trkpt><trkpt lat="45.1650021" lon="7.9075647"><ele>355.0</ele><time>2026-05-02T09:27:19.007Z</time></trkpt><trkpt lat="45.1650507" lon="7.9074996"><ele>355.0</ele><time>2026-05-02T09:27:20.011Z</time></trkpt><trkpt lat="45.1651141" lon="7.9073585"><ele>357.8</ele><time>2026-05-02T09:27:22.009Z</time></trkpt><trkpt lat="45.1651386" lon="7.9072516"><ele>360.6</ele><time>2026-05-02T09:27:24.008Z</time></trkpt><trkpt lat="45.1651078" lon="7.9071319"><ele>363.4</ele><time>2026-05-02T09:27:27.016Z</time></trkpt><trkpt lat="45.1650174" lon="7.9070898"><ele>366.2</ele><time>2026-05-02T09:27:29.011Z</time></trkpt><trkpt lat="45.164912" lon="7.9070291"><ele>369.0</ele><time>2026-05-02T09:27:31.006Z</time></trkpt><trkpt lat="45.1648435" lon="7.9068663"><ele>372.0</ele><time>2026-05-02T09:27:33.004Z</time></trkpt><trkpt lat="45.1648119" lon="7.9067705"><ele>375.0</ele><time>2026-05-02T09:27:34.005Z</time></trkpt><trkpt lat="45.164795" lon="7.9066651"><ele>378.0</ele><time>2026-05-02T09:27:35.008Z</time></trkpt><trkpt lat="45.164777" lon="7.9065384"><ele>381.0</ele><time>2026-05-02T09:27:36.031Z</time></trkpt><trkpt lat="45.1647661" lon="7.9064025"><ele>384.0</ele><time>2026-05-02T09:27:37.013Z</time></trkpt><trkpt lat="45.1647816" lon="7.9062701"><ele>387.0</ele><time>2026-05-02T09:27:38.006Z</time></trkpt><trkpt lat="45.16482" lon="7.906146"><ele>388.0</ele><time>2026-05-02T09:27:39.004Z</time></trkpt><trkpt lat="45.1648761" lon="7.9060486"><ele>389.0</ele><time>2026-05-02T09:27:39.998Z</time></trkpt><trkpt lat="45.164933" lon="7.9059531"><ele>390.0</ele><time>2026-05-02T09:27:41.001Z</time></trkpt><trkpt lat="45.1649874" lon="7.9058619"><ele>391.0</ele><time>2026-05-02T09:27:41.992Z</time></trkpt><trkpt lat="45.1650365" lon="7.9057803"><ele>392.0</ele><time>2026-05-02T09:27:43Z</time></trkpt><trkpt lat="45.1651104" lon="7.9056413"><ele>391.99999999999994</ele><time>2026-05-02T09:27:45.009Z</time></trkpt><trkpt lat="45.1651438" lon="7.9054717"><ele>392.0</ele><time>2026-05-02T09:27:47.001Z</time></trkpt><trkpt lat="45.1651464" lon="7.905372"><ele>392.0</ele><time>2026-05-02T09:27:47.994Z</time></trkpt><trkpt lat="45.1651667" lon="7.9052754"><ele>392.0</ele><time>2026-05-02T09:27:48.999Z</time></trkpt><trkpt lat="45.165184" lon="7.9051794"><ele>391.99999999999994</ele><time>2026-05-02T09:27:50.004Z</time></trkpt><trkpt lat="45.165227" lon="7.9050857"><ele>392.0</ele><time>2026-05-02T09:27:51.002Z</time></trkpt><trkpt lat="45.1652855" lon="7.9050016"><ele>393.66666666666663</ele><time>2026-05-02T09:27:52.003Z</time></trkpt><trkpt lat="45.1653515" lon="7.9049245"><ele>395.3333333333333</ele><time>2026-05-02T09:27:53.007Z</time></trkpt><trkpt lat="45.165417" lon="7.9048617"><ele>397.0</ele><time>2026-05-02T09:27:54.002Z</time></trkpt><trkpt lat="45.1654762" lon="7.9048071"><ele>398.66666666666663</ele><time>2026-05-02T09:27:55.005Z</time></trkpt><trkpt lat="45.1655402" lon="7.9047009"><ele>400.3333333333333</ele><time>2026-05-02T09:27:57.007Z</time></trkpt><trkpt lat="45.1654797" lon="7.9046109"><ele>402.0</ele><time>2026-05-02T09:28:00.003Z</time></trkpt><trkpt lat="45.1653999" lon="7.9046789"><ele>402.0</ele><time>2026-05-02T09:28:02.016Z</time></trkpt><trkpt lat="45.1652906" lon="7.9047573"><ele>402.0</ele><time>2026-05-02T09:28:04.007Z</time></trkpt><trkpt lat="45.1652045" lon="7.9047757"><ele>402.0</ele><time>2026-05-02T09:28:06.007Z</time></trkpt><trkpt lat="45.1651575" lon="7.9046798"><ele>402.0</ele><time>2026-05-02T09:28:08.015Z</time></trkpt><trkpt lat="45.1651303" lon="7.9045555"><ele>402.0</ele><time>2026-05-02T09:28:10.004Z</time></trkpt><trkpt lat="45.1650885" lon="7.9044479"><ele>402.0</ele><time>2026-05-02T09:28:12.006Z</time></trkpt><trkpt lat="45.1650168" lon="7.9043456"><ele>402.0</ele><time>2026-05-02T09:28:14.01Z</time></trkpt><trkpt lat="45.1649554" lon="7.9042623"><ele>402.0</ele><time>2026-05-02T09:28:16.003Z</time></trkpt><trkpt lat="45.1648912" lon="7.9041897"><ele>402.0</ele><time>2026-05-02T09:28:18.007Z</time></trkpt><trkpt lat="45.1648371" lon="7.9041281"><ele>402.0</ele><time>2026-05-02T09:28:20.001Z</time></trkpt><trkpt lat="45.1647983" lon="7.9040508"><ele>402.0</ele><time>2026-05-02T09:28:22.013Z</time></trkpt><trkpt lat="45.1647723" lon="7.9039482"><ele>397.8</ele><time>2026-05-02T09:28:24.001Z</time></trkpt><trkpt lat="45.1647561" lon="7.9038111"><ele>393.6</ele><time>2026-05-02T09:28:26.001Z</time></trkpt><trkpt lat="45.1647465" lon="7.9036683"><ele>389.40000000000003</ele><time>2026-05-02T09:28:28.012Z</time></trkpt><trkpt lat="45.1647539" lon="7.9034876"><ele>385.20000000000005</ele><time>2026-05-02T09:28:30.01Z</time></trkpt><trkpt lat="45.164763" lon="7.9033913"><ele>381.0</ele><time>2026-05-02T09:28:31.007Z</time></trkpt><trkpt lat="45.1647739" lon="7.9032951"><ele>380.57142857142856</ele><time>2026-05-02T09:28:32.008Z</time></trkpt><trkpt lat="45.1647866" lon="7.9032053"><ele>380.14285714285717</ele><time>2026-05-02T09:28:33.005Z</time></trkpt><trkpt lat="45.1648009" lon="7.9031147"><ele>379.7142857142857</ele><time>2026-05-02T09:28:34.007Z</time></trkpt><trkpt lat="45.1648155" lon="7.9030193"><ele>379.2857142857143</ele><time>2026-05-02T09:28:35Z</time></trkpt><trkpt lat="45.1648298" lon="7.9029195"><ele>378.8571428571429</ele><time>2026-05-02T09:28:36.008Z</time></trkpt><trkpt lat="45.1648447" lon="7.9028197"><ele>378.42857142857144</ele><time>2026-05-02T09:28:37.008Z</time></trkpt><trkpt lat="45.1648576" lon="7.9027166"><ele>378.0</ele><time>2026-05-02T09:28:37.998Z</time></trkpt><trkpt lat="45.1648624" lon="7.9026014"><ele>380.0</ele><time>2026-05-02T09:28:39Z</time></trkpt><trkpt lat="45.1648669" lon="7.9024915"><ele>382.0</ele><time>2026-05-02T09:28:40.011Z</time></trkpt><trkpt lat="45.164872" lon="7.9023792"><ele>384.0</ele><time>2026-05-02T09:28:41.004Z</time></trkpt><trkpt lat="45.1648821" lon="7.9022636"><ele>386.0</ele><time>2026-05-02T09:28:42.001Z</time></trkpt><trkpt lat="45.1648936" lon="7.9021558"><ele>388.0</ele><time>2026-05-02T09:28:43.005Z</time></trkpt><trkpt lat="45.1649127" lon="7.9020499"><ele>390.0</ele><time>2026-05-02T09:28:43.998Z</time></trkpt><trkpt lat="45.164934" lon="7.901943"><ele>390.0</ele><time>2026-05-02T09:28:45.011Z</time></trkpt><trkpt lat="45.1649545" lon="7.9018318"><ele>390.0</ele><time>2026-05-02T09:28:45.999Z</time></trkpt><trkpt lat="45.1649674" lon="7.9017173"><ele>390.0</ele><time>2026-05-02T09:28:47.007Z</time></trkpt><trkpt lat="45.1649734" lon="7.901597"><ele>390.0</ele><time>2026-05-02T09:28:48Z</time></trkpt><trkpt lat="45.1649749" lon="7.9014723"><ele>390.0</ele><time>2026-05-02T09:28:49.011Z</time></trkpt><trkpt lat="45.1649781" lon="7.9013491"><ele>390.0</ele><time>2026-05-02T09:28:50.002Z</time></trkpt><trkpt lat="45.1649823" lon="7.901233"><ele>390.8333333333333</ele><time>2026-05-02T09:28:51.011Z</time></trkpt><trkpt lat="45.1649851" lon="7.9011216"><ele>391.66666666666663</ele><time>2026-05-02T09:28:51.999Z</time></trkpt><trkpt lat="45.1649852" lon="7.9010105"><ele>392.5</ele><time>2026-05-02T09:28:52.997Z</time></trkpt><trkpt lat="45.1649858" lon="7.9009028"><ele>393.3333333333333</ele><time>2026-05-02T09:28:54.018Z</time></trkpt><trkpt lat="45.1649842" lon="7.9007949"><ele>394.16666666666663</ele><time>2026-05-02T09:28:55.012Z</time></trkpt><trkpt lat="45.164983" lon="7.9006881"><ele>395.0</ele><time>2026-05-02T09:28:56.013Z</time></trkpt><trkpt lat="45.1649859" lon="7.9005817"><ele>395.49999999999994</ele><time>2026-05-02T09:28:57.01Z</time></trkpt><trkpt lat="45.1649928" lon="7.900473"><ele>396.0</ele><time>2026-05-02T09:28:58.004Z</time></trkpt><trkpt lat="45.1650049" lon="7.9003613"><ele>396.5</ele><time>2026-05-02T09:28:59.019Z</time></trkpt><trkpt lat="45.1650251" lon="7.9002461"><ele>397.0</ele><time>2026-05-02T09:29:00.007Z</time></trkpt><trkpt lat="45.1650508" lon="7.9001333"><ele>397.49999999999994</ele><time>2026-05-02T09:29:01.005Z</time></trkpt><trkpt lat="45.165072" lon="7.9000252"><ele>398.0</ele><time>2026-05-02T09:29:02.016Z</time></trkpt><trkpt lat="45.1650926" lon="7.899919"><ele>398.85714285714283</ele><time>2026-05-02T09:29:03.003Z</time></trkpt><trkpt lat="45.1650986" lon="7.8998182"><ele>399.7142857142857</ele><time>2026-05-02T09:29:04.008Z</time></trkpt><trkpt lat="45.1650838" lon="7.8997216"><ele>400.57142857142856</ele><time>2026-05-02T09:29:05.023Z</time></trkpt><trkpt lat="45.1650468" lon="7.8996204"><ele>401.42857142857144</ele><time>2026-05-02T09:29:06.007Z</time></trkpt><trkpt lat="45.1650121" lon="7.8995316"><ele>402.2857142857143</ele><time>2026-05-02T09:29:07.004Z</time></trkpt><trkpt lat="45.1649677" lon="7.8994399"><ele>403.1428571428571</ele><time>2026-05-02T09:29:08.012Z</time></trkpt><trkpt lat="45.1649259" lon="7.8993484"><ele>404.0</ele><time>2026-05-02T09:29:09.004Z</time></trkpt><trkpt lat="45.1648831" lon="7.8992399"><ele>404.66666666666663</ele><time>2026-05-02T09:29:10.008Z</time></trkpt><trkpt lat="45.1648535" lon="7.8991375"><ele>405.3333333333333</ele><time>2026-05-02T09:29:11.01Z</time></trkpt><trkpt lat="45.164826" lon="7.8990335"><ele>406.0</ele><time>2026-05-02T09:29:12.006Z</time></trkpt><trkpt lat="45.1647986" lon="7.8989283"><ele>406.66666666666663</ele><time>2026-05-02T09:29:13.022Z</time></trkpt><trkpt lat="45.1647686" lon="7.8988217"><ele>407.3333333333333</ele><time>2026-05-02T09:29:14.007Z</time></trkpt><trkpt lat="45.1647387" lon="7.8987257"><ele>408.0</ele><time>2026-05-02T09:29:15.012Z</time></trkpt><trkpt lat="45.1647118" lon="7.898635"><ele>408.0</ele><time>2026-05-02T09:29:16.012Z</time></trkpt><trkpt lat="45.1646896" lon="7.8985412"><ele>408.0</ele><time>2026-05-02T09:29:17.014Z</time></trkpt><trkpt lat="45.1646666" lon="7.8984513"><ele>408.0</ele><time>2026-05-02T09:29:18.008Z</time></trkpt><trkpt lat="45.1646473" lon="7.8983516"><ele>408.0</ele><time>2026-05-02T09:29:19.004Z</time></trkpt><trkpt lat="45.1646379" lon="7.8982211"><ele>408.0</ele><time>2026-05-02T09:29:20.01Z</time></trkpt><trkpt lat="45.1646241" lon="7.8980878"><ele>408.0</ele><time>2026-05-02T09:29:21.007Z</time></trkpt><trkpt lat="45.1645992" lon="7.8979576"><ele>411.2</ele><time>2026-05-02T09:29:22.009Z</time></trkpt><trkpt lat="45.1645713" lon="7.8978189"><ele>414.4</ele><time>2026-05-02T09:29:23.004Z</time></trkpt><trkpt lat="45.1645428" lon="7.8976783"><ele>417.59999999999997</ele><time>2026-05-02T09:29:24.021Z</time></trkpt><trkpt lat="45.1645126" lon="7.8975362"><ele>420.79999999999995</ele><time>2026-05-02T09:29:25.004Z</time></trkpt><trkpt lat="45.1644701" lon="7.8973953"><ele>424.0</ele><time>2026-05-02T09:29:26.008Z</time></trkpt><trkpt lat="45.1644267" lon="7.8972569"><ele>426.75</ele><time>2026-05-02T09:29:27.005Z</time></trkpt><trkpt lat="45.1643792" lon="7.8970977"><ele>429.5</ele><time>2026-05-02T09:29:28.006Z</time></trkpt><trkpt lat="45.1643332" lon="7.8969448"><ele>432.25</ele><time>2026-05-02T09:29:29.003Z</time></trkpt><trkpt lat="45.1642913" lon="7.896799"><ele>435.0</ele><time>2026-05-02T09:29:29.997Z</time></trkpt><trkpt lat="45.1642507" lon="7.8966618"><ele>435.0</ele><time>2026-05-02T09:29:31.005Z</time></trkpt><trkpt lat="45.1642085" lon="7.8965122"><ele>435.0</ele><time>2026-05-02T09:29:32.006Z</time></trkpt><trkpt lat="45.1641658" lon="7.8963627"><ele>435.0</ele><time>2026-05-02T09:29:33.001Z</time></trkpt><trkpt lat="45.1641242" lon="7.8962036"><ele>435.0</ele><time>2026-05-02T09:29:34.003Z</time></trkpt><trkpt lat="45.164085" lon="7.8960368"><ele>434.2</ele><time>2026-05-02T09:29:35.001Z</time></trkpt><trkpt lat="45.1640475" lon="7.8958726"><ele>433.4</ele><time>2026-05-02T09:29:36.003Z</time></trkpt><trkpt lat="45.1640054" lon="7.8957216"><ele>432.6</ele><time>2026-05-02T09:29:37.01Z</time></trkpt><trkpt lat="45.163959" lon="7.895581"><ele>431.8</ele><time>2026-05-02T09:29:38.012Z</time></trkpt><trkpt lat="45.1639144" lon="7.8954515"><ele>431.0</ele><time>2026-05-02T09:29:39.005Z</time></trkpt><trkpt lat="45.1638807" lon="7.8953361"><ele>431.16666666666663</ele><time>2026-05-02T09:29:40.01Z</time></trkpt><trkpt lat="45.1638669" lon="7.8952164"><ele>431.3333333333333</ele><time>2026-05-02T09:29:41.002Z</time></trkpt><trkpt lat="45.1638456" lon="7.8951021"><ele>431.5</ele><time>2026-05-02T09:29:42.011Z</time></trkpt><trkpt lat="45.1638393" lon="7.8949824"><ele>431.66666666666663</ele><time>2026-05-02T09:29:43.015Z</time></trkpt><trkpt lat="45.163837" lon="7.8948721"><ele>431.8333333333333</ele><time>2026-05-02T09:29:44.005Z</time></trkpt><trkpt lat="45.1638286" lon="7.8947577"><ele>432.0</ele><time>2026-05-02T09:29:45.023Z</time></trkpt><trkpt lat="45.1638193" lon="7.8946352"><ele>432.0</ele><time>2026-05-02T09:29:46.004Z</time></trkpt><trkpt lat="45.1638028" lon="7.8945044"><ele>432.00000000000006</ele><time>2026-05-02T09:29:47.004Z</time></trkpt><trkpt lat="45.1637764" lon="7.8943672"><ele>432.00000000000006</ele><time>2026-05-02T09:29:48.006Z</time></trkpt><trkpt lat="45.163746" lon="7.8942229"><ele>432.0</ele><time>2026-05-02T09:29:49.004Z</time></trkpt><trkpt lat="45.1637126" lon="7.8940814"><ele>432.0</ele><time>2026-05-02T09:29:50Z</time></trkpt><trkpt lat="45.1636821" lon="7.8939473"><ele>433.20000000000005</ele><time>2026-05-02T09:29:51.008Z</time></trkpt><trkpt lat="45.1636535" lon="7.8938257"><ele>434.40000000000003</ele><time>2026-05-02T09:29:51.998Z</time></trkpt><trkpt lat="45.1636226" lon="7.8937216"><ele>435.59999999999997</ele><time>2026-05-02T09:29:52.998Z</time></trkpt><trkpt lat="45.1635878" lon="7.8936354"><ele>436.79999999999995</ele><time>2026-05-02T09:29:54.008Z</time></trkpt><trkpt lat="45.1635071" lon="7.8935205"><ele>438.0</ele><time>2026-05-02T09:29:56.008Z</time></trkpt><trkpt lat="45.1634207" lon="7.8934379"><ele>438.2</ele><time>2026-05-02T09:29:58.001Z</time></trkpt><trkpt lat="45.1633425" lon="7.8933513"><ele>438.4</ele><time>2026-05-02T09:30:00.006Z</time></trkpt><trkpt lat="45.1633205" lon="7.8932469"><ele>438.59999999999997</ele><time>2026-05-02T09:30:02.003Z</time></trkpt><trkpt lat="45.1633663" lon="7.8930693"><ele>438.79999999999995</ele><time>2026-05-02T09:30:04.002Z</time></trkpt><trkpt lat="45.163401" lon="7.892964"><ele>439.0</ele><time>2026-05-02T09:30:05.003Z</time></trkpt><trkpt lat="45.1634441" lon="7.892863"><ele>439.0</ele><time>2026-05-02T09:30:06.006Z</time></trkpt><trkpt lat="45.1634831" lon="7.8927471"><ele>439.0</ele><time>2026-05-02T09:30:07.014Z</time></trkpt><trkpt lat="45.1635169" lon="7.8926108"><ele>439.0</ele><time>2026-05-02T09:30:07.994Z</time></trkpt><trkpt lat="45.1635516" lon="7.8924724"><ele>439.0</ele><time>2026-05-02T09:30:09.002Z</time></trkpt><trkpt lat="45.1635803" lon="7.8923274"><ele>439.0</ele><time>2026-05-02T09:30:10.007Z</time></trkpt><trkpt lat="45.1636126" lon="7.8921684"><ele>440.4</ele><time>2026-05-02T09:30:11.005Z</time></trkpt><trkpt lat="45.1636472" lon="7.8920088"><ele>441.79999999999995</ele><time>2026-05-02T09:30:12.005Z</time></trkpt><trkpt lat="45.1636849" lon="7.8918598"><ele>443.20000000000005</ele><time>2026-05-02T09:30:13.005Z</time></trkpt><trkpt lat="45.1637225" lon="7.891727"><ele>444.6</ele><time>2026-05-02T09:30:14.005Z</time></trkpt><trkpt lat="45.1637536" lon="7.8916104"><ele>446.0</ele><time>2026-05-02T09:30:14.999Z</time></trkpt><trkpt lat="45.163785" lon="7.8915078"><ele>447.99999999999994</ele><time>2026-05-02T09:30:16.011Z</time></trkpt><trkpt lat="45.1638248" lon="7.8914164"><ele>450.0</ele><time>2026-05-02T09:30:17.006Z</time></trkpt><trkpt lat="45.163882" lon="7.8913334"><ele>452.0</ele><time>2026-05-02T09:30:18.009Z</time></trkpt><trkpt lat="45.1639519" lon="7.8912739"><ele>454.0</ele><time>2026-05-02T09:30:19.003Z</time></trkpt><trkpt lat="45.1640372" lon="7.8912317"><ele>455.99999999999994</ele><time>2026-05-02T09:30:20.002Z</time></trkpt><trkpt lat="45.164133" lon="7.8912103"><ele>458.0</ele><time>2026-05-02T09:30:21.002Z</time></trkpt><trkpt lat="45.1642341" lon="7.8911986"><ele>452.79999999999995</ele><time>2026-05-02T09:30:22.003Z</time></trkpt><trkpt lat="45.1643383" lon="7.8911994"><ele>447.59999999999997</ele><time>2026-05-02T09:30:23.002Z</time></trkpt><trkpt lat="45.1644444" lon="7.891207"><ele>442.40000000000003</ele><time>2026-05-02T09:30:23.997Z</time></trkpt><trkpt lat="45.1645452" lon="7.8912101"><ele>437.20000000000005</ele><time>2026-05-02T09:30:25Z</time></trkpt><trkpt lat="45.1646373" lon="7.8912042"><ele>432.0</ele><time>2026-05-02T09:30:26.004Z</time></trkpt><trkpt lat="45.1647178" lon="7.8911909"><ele>432.0</ele><time>2026-05-02T09:30:27.004Z</time></trkpt><trkpt lat="45.1647942" lon="7.8911619"><ele>432.0</ele><time>2026-05-02T09:30:28.002Z</time></trkpt><trkpt lat="45.1648649" lon="7.8911204"><ele>432.0</ele><time>2026-05-02T09:30:29.004Z</time></trkpt><trkpt lat="45.1649322" lon="7.8910654"><ele>432.0</ele><time>2026-05-02T09:30:29.998Z</time></trkpt><trkpt lat="45.1649966" lon="7.8910093"><ele>432.0</ele><time>2026-05-02T09:30:31.007Z</time></trkpt><trkpt lat="45.1650624" lon="7.890943"><ele>432.0</ele><time>2026-05-02T09:30:32.002Z</time></trkpt><trkpt lat="45.165131" lon="7.8908825"><ele>435.3333333333333</ele><time>2026-05-02T09:30:33.004Z</time></trkpt><trkpt lat="45.1652062" lon="7.8908277"><ele>438.66666666666663</ele><time>2026-05-02T09:30:33.996Z</time></trkpt><trkpt lat="45.1652893" lon="7.8907809"><ele>442.0</ele><time>2026-05-02T09:30:35.006Z</time></trkpt><trkpt lat="45.1653776" lon="7.8907502"><ele>445.3333333333333</ele><time>2026-05-02T09:30:35.999Z</time></trkpt><trkpt lat="45.1654656" lon="7.890724"><ele>448.66666666666663</ele><time>2026-05-02T09:30:37.02Z</time></trkpt><trkpt lat="45.1655522" lon="7.890697"><ele>452.0</ele><time>2026-05-02T09:30:38.003Z</time></trkpt><trkpt lat="45.1656351" lon="7.8906711"><ele>449.8333333333333</ele><time>2026-05-02T09:30:39.003Z</time></trkpt><trkpt lat="45.1657131" lon="7.8906465"><ele>447.66666666666663</ele><time>2026-05-02T09:30:40Z</time></trkpt><trkpt lat="45.1657894" lon="7.8906266"><ele>445.5</ele><time>2026-05-02T09:30:41.01Z</time></trkpt><trkpt lat="45.1658644" lon="7.8906105"><ele>443.33333333333337</ele><time>2026-05-02T09:30:41.999Z</time></trkpt><trkpt lat="45.1659394" lon="7.8905956"><ele>441.1666666666667</ele><time>2026-05-02T09:30:43.018Z</time></trkpt><trkpt lat="45.166022" lon="7.8906041"><ele>439.0</ele><time>2026-05-02T09:30:44.006Z</time></trkpt><trkpt lat="45.1661097" lon="7.8906341"><ele>439.0</ele><time>2026-05-02T09:30:45.008Z</time></trkpt><trkpt lat="45.1662026" lon="7.8906895"><ele>439.0</ele><time>2026-05-02T09:30:46.003Z</time></trkpt><trkpt lat="45.1662997" lon="7.8907495"><ele>439.0</ele><time>2026-05-02T09:30:47.011Z</time></trkpt><trkpt lat="45.1664072" lon="7.8908316"><ele>439.0</ele><time>2026-05-02T09:30:48.011Z</time></trkpt><trkpt lat="45.166518" lon="7.8909084"><ele>432.5</ele><time>2026-05-02T09:30:49.008Z</time></trkpt><trkpt lat="45.166638" lon="7.8909674"><ele>426.0</ele><time>2026-05-02T09:30:49.998Z</time></trkpt><trkpt lat="45.1667612" lon="7.8910016"><ele>419.5</ele><time>2026-05-02T09:30:51.011Z</time></trkpt><trkpt lat="45.1668771" lon="7.8910171"><ele>413.0</ele><time>2026-05-02T09:30:52.011Z</time></trkpt><trkpt lat="45.1669914" lon="7.891023"><ele>413.0</ele><time>2026-05-02T09:30:53.011Z</time></trkpt><trkpt lat="45.167102" lon="7.8910321"><ele>413.0</ele><time>2026-05-02T09:30:54.01Z</time></trkpt><trkpt lat="45.1672094" lon="7.8910536"><ele>413.0</ele><time>2026-05-02T09:30:55.013Z</time></trkpt><trkpt lat="45.1673107" lon="7.891076"><ele>413.0</ele><time>2026-05-02T09:30:56.011Z</time></trkpt><trkpt lat="45.1673972" lon="7.8911352"><ele>413.0</ele><time>2026-05-02T09:30:57.014Z</time></trkpt><trkpt lat="45.1674704" lon="7.8912424"><ele>411.4</ele><time>2026-05-02T09:30:58.003Z</time></trkpt><trkpt lat="45.1675401" lon="7.8913812"><ele>409.79999999999995</ele><time>2026-05-02T09:30:59.01Z</time></trkpt><trkpt lat="45.1676057" lon="7.8915169"><ele>408.2</ele><time>2026-05-02T09:31:00.007Z</time></trkpt><trkpt lat="45.1676672" lon="7.8916312"><ele>406.6</ele><time>2026-05-02T09:31:01Z</time></trkpt><trkpt lat="45.1677232" lon="7.8917269"><ele>405.0</ele><time>2026-05-02T09:31:02.002Z</time></trkpt><trkpt lat="45.1677746" lon="7.8918004"><ele>405.0</ele><time>2026-05-02T09:31:03.009Z</time></trkpt><trkpt lat="45.16784" lon="7.8918452"><ele>405.0</ele><time>2026-05-02T09:31:04.014Z</time></trkpt><trkpt lat="45.1679146" lon="7.8918619"><ele>405.0</ele><time>2026-05-02T09:31:05.008Z</time></trkpt><trkpt lat="45.1679931" lon="7.8918623"><ele>405.0</ele><time>2026-05-02T09:31:06.002Z</time></trkpt><trkpt lat="45.1680688" lon="7.8918625"><ele>405.0</ele><time>2026-05-02T09:31:06.998Z</time></trkpt><trkpt lat="45.168142" lon="7.8918806"><ele>405.0</ele><time>2026-05-02T09:31:08.008Z</time></trkpt><trkpt lat="45.1682123" lon="7.8919092"><ele>405.5</ele><time>2026-05-02T09:31:09.002Z</time></trkpt><trkpt lat="45.1682819" lon="7.8919373"><ele>406.0</ele><time>2026-05-02T09:31:10.009Z</time></trkpt><trkpt lat="45.16835" lon="7.8919457"><ele>406.5</ele><time>2026-05-02T09:31:11.016Z</time></trkpt><trkpt lat="45.168411" lon="7.8918998"><ele>407.0</ele><time>2026-05-02T09:31:12.017Z</time></trkpt><trkpt lat="45.1684653" lon="7.8918186"><ele>407.5</ele><time>2026-05-02T09:31:13.003Z</time></trkpt><trkpt lat="45.1685277" lon="7.8917327"><ele>408.0</ele><time>2026-05-02T09:31:14.012Z</time></trkpt><trkpt lat="45.1685903" lon="7.8916431"><ele>411.0</ele><time>2026-05-02T09:31:15.003Z</time></trkpt><trkpt lat="45.1686771" lon="7.891587"><ele>414.0</ele><time>2026-05-02T09:31:16.009Z</time></trkpt><trkpt lat="45.1687699" lon="7.8915542"><ele>417.0</ele><time>2026-05-02T09:31:17.018Z</time></trkpt><trkpt lat="45.1688593" lon="7.8915235"><ele>420.0</ele><time>2026-05-02T09:31:18.008Z</time></trkpt><trkpt lat="45.1689455" lon="7.8915278"><ele>423.0</ele><time>2026-05-02T09:31:19.012Z</time></trkpt><trkpt lat="45.1690492" lon="7.8915842"><ele>423.0</ele><time>2026-05-02T09:31:20.008Z</time></trkpt><trkpt lat="45.1691548" lon="7.8916418"><ele>423.0</ele><time>2026-05-02T09:31:20.998Z</time></trkpt><trkpt lat="45.1692674" lon="7.8917359"><ele>423.0</ele><time>2026-05-02T09:31:22.014Z</time></trkpt><trkpt lat="45.1693777" lon="7.891832"><ele>423.0</ele><time>2026-05-02T09:31:23.04Z</time></trkpt><trkpt lat="45.169479" lon="7.8919314"><ele>418.4</ele><time>2026-05-02T09:31:24.012Z</time></trkpt><trkpt lat="45.1695776" lon="7.8920243"><ele>413.79999999999995</ele><time>2026-05-02T09:31:24.991Z</time></trkpt><trkpt lat="45.1696688" lon="7.8921199"><ele>409.2</ele><time>2026-05-02T09:31:26.009Z</time></trkpt><trkpt lat="45.1697444" lon="7.892223"><ele>404.6</ele><time>2026-05-02T09:31:27.015Z</time></trkpt><trkpt lat="45.1697966" lon="7.8923376"><ele>400.0</ele><time>2026-05-02T09:31:28.017Z</time></trkpt><trkpt lat="45.1698246" lon="7.8924684"><ele>394.75</ele><time>2026-05-02T09:31:29.008Z</time></trkpt><trkpt lat="45.1698296" lon="7.8926193"><ele>389.5</ele><time>2026-05-02T09:31:30.006Z</time></trkpt><trkpt lat="45.1698288" lon="7.8927797"><ele>384.25</ele><time>2026-05-02T09:31:31Z</time></trkpt><trkpt lat="45.1698308" lon="7.8929488"><ele>379.0</ele><time>2026-05-02T09:31:32.007Z</time></trkpt><trkpt lat="45.1698343" lon="7.8931207"><ele>379.0</ele><time>2026-05-02T09:31:33.002Z</time></trkpt><trkpt lat="45.1698434" lon="7.8932922"><ele>379.0</ele><time>2026-05-02T09:31:34.007Z</time></trkpt><trkpt lat="45.1698424" lon="7.893472"><ele>379.0</ele><time>2026-05-02T09:31:35.002Z</time></trkpt><trkpt lat="45.16983" lon="7.8936536"><ele>379.0</ele><time>2026-05-02T09:31:36.004Z</time></trkpt><trkpt lat="45.1698092" lon="7.8938395"><ele>376.75</ele><time>2026-05-02T09:31:36.998Z</time></trkpt><trkpt lat="45.1697865" lon="7.8940236"><ele>374.5</ele><time>2026-05-02T09:31:38.006Z</time></trkpt><trkpt lat="45.1697678" lon="7.8942038"><ele>372.25</ele><time>2026-05-02T09:31:39.007Z</time></trkpt><trkpt lat="45.1697563" lon="7.8943793"><ele>370.0</ele><time>2026-05-02T09:31:40Z</time></trkpt><trkpt lat="45.1697484" lon="7.8945514"><ele>366.5</ele><time>2026-05-02T09:31:41.005Z</time></trkpt><trkpt lat="45.1697452" lon="7.8947136"><ele>363.0</ele><time>2026-05-02T09:31:42.014Z</time></trkpt><trkpt lat="45.1697526" lon="7.8948699"><ele>359.5</ele><time>2026-05-02T09:31:43.003Z</time></trkpt><trkpt lat="45.169776" lon="7.8950314"><ele>356.0</ele><time>2026-05-02T09:31:44Z</time></trkpt><trkpt lat="45.1698159" lon="7.8951916"><ele>359.6</ele><time>2026-05-02T09:31:45.009Z</time></trkpt><trkpt lat="45.1698653" lon="7.8953418"><ele>363.20000000000005</ele><time>2026-05-02T09:31:46.011Z</time></trkpt><trkpt lat="45.1699148" lon="7.8954877"><ele>366.79999999999995</ele><time>2026-05-02T09:31:46.998Z</time></trkpt><trkpt lat="45.1699748" lon="7.8956122"><ele>370.4</ele><time>2026-05-02T09:31:47.999Z</time></trkpt><trkpt lat="45.170047" lon="7.8957304"><ele>374.0</ele><time>2026-05-02T09:31:48.997Z</time></trkpt><trkpt lat="45.1701352" lon="7.8958261"><ele>368.0</ele><time>2026-05-02T09:31:49.998Z</time></trkpt><trkpt lat="45.1702246" lon="7.895921"><ele>362.0</ele><time>2026-05-02T09:31:51.003Z</time></trkpt><trkpt lat="45.1703321" lon="7.8960024"><ele>356.0</ele><time>2026-05-02T09:31:52.001Z</time></trkpt><trkpt lat="45.1704375" lon="7.8960921"><ele>350.0</ele><time>2026-05-02T09:31:53Z</time></trkpt><trkpt lat="45.1705384" lon="7.8961836"><ele>350.0</ele><time>2026-05-02T09:31:54.007Z</time></trkpt><trkpt lat="45.1706468" lon="7.8962741"><ele>350.0</ele><time>2026-05-02T09:31:55.002Z</time></trkpt><trkpt lat="45.1707557" lon="7.8963594"><ele>350.0</ele><time>2026-05-02T09:31:55.999Z</time></trkpt><trkpt lat="45.1708615" lon="7.8964409"><ele>350.0</ele><time>2026-05-02T09:31:57.012Z</time></trkpt><trkpt lat="45.1709624" lon="7.8965191"><ele>350.2</ele><time>2026-05-02T09:31:58.02Z</time></trkpt><trkpt lat="45.1710593" lon="7.896599"><ele>350.4</ele><time>2026-05-02T09:31:59.008Z</time></trkpt><trkpt lat="45.1711548" lon="7.8966732"><ele>350.6</ele><time>2026-05-02T09:32:00.013Z</time></trkpt><trkpt lat="45.171252" lon="7.8967361"><ele>350.8</ele><time>2026-05-02T09:32:01.001Z</time></trkpt><trkpt lat="45.1713472" lon="7.8967969"><ele>351.0</ele><time>2026-05-02T09:32:02.013Z</time></trkpt><trkpt lat="45.171439" lon="7.896848"><ele>351.0</ele><time>2026-05-02T09:32:03.004Z</time></trkpt><trkpt lat="45.1715194" lon="7.896912"><ele>351.0</ele><time>2026-05-02T09:32:03.998Z</time></trkpt><trkpt lat="45.1715877" lon="7.8969748"><ele>351.0</ele><time>2026-05-02T09:32:05.01Z</time></trkpt><trkpt lat="45.1716448" lon="7.8970219"><ele>351.0</ele><time>2026-05-02T09:32:06.018Z</time></trkpt><trkpt lat="45.1717362" lon="7.897005"><ele>351.0</ele><time>2026-05-02T09:32:08.001Z</time></trkpt><trkpt lat="45.1717646" lon="7.8968476"><ele>351.0</ele><time>2026-05-02T09:32:10.011Z</time></trkpt><trkpt lat="45.1717586" lon="7.8967325"><ele>354.8</ele><time>2026-05-02T09:32:11.007Z</time></trkpt><trkpt lat="45.1717547" lon="7.8965976"><ele>358.6</ele><time>2026-05-02T09:32:12.009Z</time></trkpt><trkpt lat="45.1717504" lon="7.8964621"><ele>362.4</ele><time>2026-05-02T09:32:13.003Z</time></trkpt><trkpt lat="45.1717513" lon="7.8963247"><ele>366.2</ele><time>2026-05-02T09:32:14.006Z</time></trkpt><trkpt lat="45.1717595" lon="7.8961768"><ele>370.0</ele><time>2026-05-02T09:32:15.003Z</time></trkpt><trkpt lat="45.1717818" lon="7.8960297"><ele>371.2</ele><time>2026-05-02T09:32:16.005Z</time></trkpt><trkpt lat="45.1718153" lon="7.8958887"><ele>372.4</ele><time>2026-05-02T09:32:16.998Z</time></trkpt><trkpt lat="45.1718809" lon="7.8957597"><ele>373.6</ele><time>2026-05-02T09:32:18.011Z</time></trkpt><trkpt lat="45.171947" lon="7.8956267"><ele>374.8</ele><time>2026-05-02T09:32:19.003Z</time></trkpt><trkpt lat="45.1720156" lon="7.8954919"><ele>376.0</ele><time>2026-05-02T09:32:20.011Z</time></trkpt><trkpt lat="45.1720905" lon="7.895375"><ele>376.0</ele><time>2026-05-02T09:32:21.007Z</time></trkpt><trkpt lat="45.1721672" lon="7.8952813"><ele>376.0</ele><time>2026-05-02T09:32:22.004Z</time></trkpt><trkpt lat="45.1722485" lon="7.8952216"><ele>376.0</ele><time>2026-05-02T09:32:23.002Z</time></trkpt><trkpt lat="45.1723281" lon="7.8951679"><ele>376.0</ele><time>2026-05-02T09:32:24.013Z</time></trkpt><trkpt lat="45.1724117" lon="7.8951597"><ele>376.0</ele><time>2026-05-02T09:32:25.002Z</time></trkpt><trkpt lat="45.1724937" lon="7.8951271"><ele>371.85714285714283</ele><time>2026-05-02T09:32:26.003Z</time></trkpt><trkpt lat="45.1725623" lon="7.8950671"><ele>367.71428571428567</ele><time>2026-05-02T09:32:27.009Z</time></trkpt><trkpt lat="45.1726083" lon="7.8949799"><ele>363.57142857142856</ele><time>2026-05-02T09:32:28.001Z</time></trkpt><trkpt lat="45.1726299" lon="7.8948799"><ele>359.42857142857144</ele><time>2026-05-02T09:32:28.998Z</time></trkpt><trkpt lat="45.1726506" lon="7.8947844"><ele>355.2857142857143</ele><time>2026-05-02T09:32:30.027Z</time></trkpt><trkpt lat="45.1726422" lon="7.8946925"><ele>351.14285714285717</ele><time>2026-05-02T09:32:31.006Z</time></trkpt><trkpt lat="45.1725933" lon="7.8946212"><ele>347.0</ele><time>2026-05-02T09:32:32.012Z</time></trkpt><trkpt lat="45.1725168" lon="7.8945814"><ele>347.0</ele><time>2026-05-02T09:32:33.004Z</time></trkpt><trkpt lat="45.1724341" lon="7.8945574"><ele>347.0</ele><time>2026-05-02T09:32:34.008Z</time></trkpt><trkpt lat="45.1723544" lon="7.8945318"><ele>347.0</ele><time>2026-05-02T09:32:34.998Z</time></trkpt><trkpt lat="45.172282" lon="7.8945068"><ele>347.0</ele><time>2026-05-02T09:32:35.998Z</time></trkpt><trkpt lat="45.172227" lon="7.8944609"><ele>347.0</ele><time>2026-05-02T09:32:37Z</time></trkpt><trkpt lat="45.1721902" lon="7.8943115"><ele>347.0</ele><time>2026-05-02T09:32:39.012Z</time></trkpt><trkpt lat="45.1722343" lon="7.8942376"><ele>345.8</ele><time>2026-05-02T09:32:40.003Z</time></trkpt><trkpt lat="45.1723068" lon="7.894177"><ele>344.6</ele><time>2026-05-02T09:32:41.016Z</time></trkpt><trkpt lat="45.1723908" lon="7.8941056"><ele>343.40000000000003</ele><time>2026-05-02T09:32:42.006Z</time></trkpt><trkpt lat="45.1724808" lon="7.8940231"><ele>342.20000000000005</ele><time>2026-05-02T09:32:43.01Z</time></trkpt><trkpt lat="45.1725787" lon="7.8939243"><ele>341.0</ele><time>2026-05-02T09:32:44.008Z</time></trkpt><trkpt lat="45.1726729" lon="7.8938192"><ele>341.0</ele><time>2026-05-02T09:32:44.998Z</time></trkpt><trkpt lat="45.1727699" lon="7.8937168"><ele>341.0</ele><time>2026-05-02T09:32:46.001Z</time></trkpt><trkpt lat="45.1728703" lon="7.893628"><ele>341.0</ele><time>2026-05-02T09:32:47Z</time></trkpt><trkpt lat="45.1729785" lon="7.8935646"><ele>341.0</ele><time>2026-05-02T09:32:47.998Z</time></trkpt><trkpt lat="45.1730933" lon="7.8935359"><ele>334.0</ele><time>2026-05-02T09:32:48.998Z</time></trkpt><trkpt lat="45.1732008" lon="7.8935257"><ele>327.0</ele><time>2026-05-02T09:32:50.002Z</time></trkpt><trkpt lat="45.1732988" lon="7.8935095"><ele>320.0</ele><time>2026-05-02T09:32:51.001Z</time></trkpt><trkpt lat="45.1733799" lon="7.8934833"><ele>313.0</ele><time>2026-05-02T09:32:52.01Z</time></trkpt><trkpt lat="45.1734849" lon="7.8934748"><ele>306.0</ele><time>2026-05-02T09:32:54.004Z</time></trkpt><trkpt lat="45.1735239" lon="7.8935518"><ele>306.0</ele><time>2026-05-02T09:32:56.005Z</time></trkpt><trkpt lat="45.173457" lon="7.8936709"><ele>306.0</ele><time>2026-05-02T09:32:58.017Z</time></trkpt><trkpt lat="45.1733845" lon="7.8937364"><ele>306.0</ele><time>2026-05-02T09:32:59.018Z</time></trkpt><trkpt lat="45.1733012" lon="7.8938038"><ele>306.0</ele><time>2026-05-02T09:33:00.009Z</time></trkpt><trkpt lat="45.1732241" lon="7.8938798"><ele>306.0</ele><time>2026-05-02T09:33:01.005Z</time></trkpt><trkpt lat="45.1731595" lon="7.8939479"><ele>306.0</ele><time>2026-05-02T09:33:02.002Z</time></trkpt><trkpt lat="45.1731052" lon="7.8940031"><ele>306.0</ele><time>2026-05-02T09:33:03.012Z</time></trkpt><trkpt lat="45.1731021" lon="7.8941294"><ele>306.0</ele><time>2026-05-02T09:33:05.011Z</time></trkpt><trkpt lat="45.1732073" lon="7.8941572"><ele>306.0</ele><time>2026-05-02T09:33:07.002Z</time></trkpt><trkpt lat="45.1732863" lon="7.8941268"><ele>306.0</ele><time>2026-05-02T09:33:08.008Z</time></trkpt><trkpt lat="45.173379" lon="7.8940875"><ele>306.0</ele><time>2026-05-02T09:33:09.002Z</time></trkpt><trkpt lat="45.1734789" lon="7.8940497"><ele>306.0</ele><time>2026-05-02T09:33:10.002Z</time></trkpt><trkpt lat="45.1735809" lon="7.8940098"><ele>306.0</ele><time>2026-05-02T09:33:11.006Z</time></trkpt><trkpt lat="45.1736817" lon="7.8939681"><ele>306.0</ele><time>2026-05-02T09:33:12.012Z</time></trkpt><trkpt lat="45.1737843" lon="7.8939245"><ele>306.0</ele><time>2026-05-02T09:33:13.006Z</time></trkpt><trkpt lat="45.1738896" lon="7.8938922"><ele>306.0</ele><time>2026-05-02T09:33:14.013Z</time></trkpt><trkpt lat="45.1739988" lon="7.893876"><ele>301.40000000000003</ele><time>2026-05-02T09:33:15.008Z</time></trkpt><trkpt lat="45.1741109" lon="7.8938812"><ele>296.8</ele><time>2026-05-02T09:33:16.011Z</time></trkpt><trkpt lat="45.1742206" lon="7.8939019"><ele>292.20000000000005</ele><time>2026-05-02T09:33:17.007Z</time></trkpt><trkpt lat="45.1743314" lon="7.8939283"><ele>287.6</ele><time>2026-05-02T09:33:17.999Z</time></trkpt><trkpt lat="45.1744411" lon="7.8939473"><ele>283.0</ele><time>2026-05-02T09:33:19.006Z</time></trkpt><trkpt lat="45.1745511" lon="7.8939556"><ele>283.0</ele><time>2026-05-02T09:33:20.008Z</time></trkpt><trkpt lat="45.1746605" lon="7.8939623"><ele>283.0</ele><time>2026-05-02T09:33:21.006Z</time></trkpt><trkpt lat="45.1747729" lon="7.8939301"><ele>283.0</ele><time>2026-05-02T09:33:22.01Z</time></trkpt><trkpt lat="45.1748927" lon="7.8938887"><ele>283.0</ele><time>2026-05-02T09:33:23.001Z</time></trkpt><trkpt lat="45.1750132" lon="7.8938474"><ele>281.75</ele><time>2026-05-02T09:33:23.999Z</time></trkpt><trkpt lat="45.1751324" lon="7.8938181"><ele>280.5</ele><time>2026-05-02T09:33:25.003Z</time></trkpt><trkpt lat="45.1752471" lon="7.893794"><ele>279.25</ele><time>2026-05-02T09:33:26.014Z</time></trkpt><trkpt lat="45.1753585" lon="7.8937659"><ele>278.0</ele><time>2026-05-02T09:33:26.999Z</time></trkpt><trkpt lat="45.1754649" lon="7.893727"><ele>278.0</ele><time>2026-05-02T09:33:28Z</time></trkpt><trkpt lat="45.1755591" lon="7.8936895"><ele>278.0</ele><time>2026-05-02T09:33:29.014Z</time></trkpt><trkpt lat="45.1756426" lon="7.8936601"><ele>278.0</ele><time>2026-05-02T09:33:30.007Z</time></trkpt><trkpt lat="45.1757242" lon="7.8936077"><ele>278.0</ele><time>2026-05-02T09:33:31.003Z</time></trkpt><trkpt lat="45.1757893" lon="7.8935324"><ele>278.0</ele><time>2026-05-02T09:33:32.008Z</time></trkpt><trkpt lat="45.1758522" lon="7.8934533"><ele>278.0</ele><time>2026-05-02T09:33:33.007Z</time></trkpt><trkpt lat="45.1758973" lon="7.8933197"><ele>277.5</ele><time>2026-05-02T09:33:34.005Z</time></trkpt><trkpt lat="45.1759432" lon="7.8931781"><ele>277.0</ele><time>2026-05-02T09:33:35.001Z</time></trkpt><trkpt lat="45.1759972" lon="7.8930352"><ele>276.5</ele><time>2026-05-02T09:33:36.012Z</time></trkpt><trkpt lat="45.1760584" lon="7.8928943"><ele>276.0</ele><time>2026-05-02T09:33:37.002Z</time></trkpt><trkpt lat="45.1761264" lon="7.8927568"><ele>276.0</ele><time>2026-05-02T09:33:37.998Z</time></trkpt><trkpt lat="45.1761981" lon="7.8926286"><ele>276.0</ele><time>2026-05-02T09:33:39.004Z</time></trkpt><trkpt lat="45.1762645" lon="7.8925115"><ele>276.0</ele><time>2026-05-02T09:33:40.006Z</time></trkpt><trkpt lat="45.1763224" lon="7.892409"><ele>276.0</ele><time>2026-05-02T09:33:41.001Z</time></trkpt><trkpt lat="45.1763689" lon="7.8923163"><ele>276.0</ele><time>2026-05-02T09:33:42.011Z</time></trkpt><trkpt lat="45.1763952" lon="7.8922144"><ele>275.8</ele><time>2026-05-02T09:33:43.003Z</time></trkpt><trkpt lat="45.1763983" lon="7.8921006"><ele>275.6</ele><time>2026-05-02T09:33:44.009Z</time></trkpt><trkpt lat="45.1763991" lon="7.891976"><ele>275.4</ele><time>2026-05-02T09:33:45.012Z</time></trkpt><trkpt lat="45.1763676" lon="7.8918335"><ele>275.2</ele><time>2026-05-02T09:33:46.002Z</time></trkpt><trkpt lat="45.176333" lon="7.8916816"><ele>275.0</ele><time>2026-05-02T09:33:47.003Z</time></trkpt><trkpt lat="45.1763004" lon="7.8915299"><ele>275.0</ele><time>2026-05-02T09:33:48.011Z</time></trkpt><trkpt lat="45.176272" lon="7.8913927"><ele>275.0</ele><time>2026-05-02T09:33:48.994Z</time></trkpt><trkpt lat="45.1762473" lon="7.8912669"><ele>275.0</ele><time>2026-05-02T09:33:50.008Z</time></trkpt><trkpt lat="45.1762246" lon="7.8911555"><ele>275.0</ele><time>2026-05-02T09:33:51Z</time></trkpt><trkpt lat="45.1762005" lon="7.8910504"><ele>275.0</ele><time>2026-05-02T09:33:51.994Z</time></trkpt><trkpt lat="45.1761484" lon="7.8909769"><ele>275.0</ele><time>2026-05-02T09:33:53.003Z</time></trkpt><trkpt lat="45.1760759" lon="7.8909358"><ele>271.8571428571429</ele><time>2026-05-02T09:33:54.009Z</time></trkpt><trkpt lat="45.175994" lon="7.8909147"><ele>268.7142857142857</ele><time>2026-05-02T09:33:55.013Z</time></trkpt><trkpt lat="45.1759155" lon="7.8908901"><ele>265.57142857142856</ele><time>2026-05-02T09:33:56.002Z</time></trkpt><trkpt lat="45.1758431" lon="7.8908685"><ele>262.42857142857144</ele><time>2026-05-02T09:33:57.003Z</time></trkpt><trkpt lat="45.1757851" lon="7.8908226"><ele>259.2857142857143</ele><time>2026-05-02T09:33:58.014Z</time></trkpt><trkpt lat="45.1757429" lon="7.8907413"><ele>256.14285714285717</ele><time>2026-05-02T09:33:59.007Z</time></trkpt><trkpt lat="45.175717" lon="7.8906452"><ele>253.00000000000003</ele><time>2026-05-02T09:34:00.002Z</time></trkpt><trkpt lat="45.1757216" lon="7.8905364"><ele>253.0</ele><time>2026-05-02T09:34:00.998Z</time></trkpt><trkpt lat="45.1757275" lon="7.8904279"><ele>253.0</ele><time>2026-05-02T09:34:02Z</time></trkpt><trkpt lat="45.1757119" lon="7.8903084"><ele>253.0</ele><time>2026-05-02T09:34:03.001Z</time></trkpt><trkpt lat="45.1756831" lon="7.8901765"><ele>253.0</ele><time>2026-05-02T09:34:04.01Z</time></trkpt><trkpt lat="45.1756382" lon="7.8900527"><ele>253.0</ele><time>2026-05-02T09:34:04.997Z</time></trkpt><trkpt lat="45.1755833" lon="7.8899367"><ele>254.8</ele><time>2026-05-02T09:34:05.997Z</time></trkpt><trkpt lat="45.175513" lon="7.889839"><ele>256.6</ele><time>2026-05-02T09:34:06.996Z</time></trkpt><trkpt lat="45.1754291" lon="7.8897556"><ele>258.4</ele><time>2026-05-02T09:34:08.003Z</time></trkpt><trkpt lat="45.1753481" lon="7.8896867"><ele>260.2</ele><time>2026-05-02T09:34:08.998Z</time></trkpt><trkpt lat="45.1752797" lon="7.8896172"><ele>262.0</ele><time>2026-05-02T09:34:10.015Z</time></trkpt><trkpt lat="45.1752218" lon="7.8895504"><ele>262.0</ele><time>2026-05-02T09:34:10.998Z</time></trkpt><trkpt lat="45.1751838" lon="7.8894708"><ele>262.0</ele><time>2026-05-02T09:34:12.001Z</time></trkpt><trkpt lat="45.1751627" lon="7.8893768"><ele>262.0</ele><time>2026-05-02T09:34:12.994Z</time></trkpt><trkpt lat="45.1751821" lon="7.8892718"><ele>262.0</ele><time>2026-05-02T09:34:14.001Z</time></trkpt><trkpt lat="45.1752531" lon="7.8891461"><ele>262.0</ele><time>2026-05-02T09:34:16Z</time></trkpt><trkpt lat="45.1753271" lon="7.8891372"><ele>262.0</ele><time>2026-05-02T09:34:17.013Z</time></trkpt><trkpt lat="45.1754184" lon="7.8891452"><ele>261.75</ele><time>2026-05-02T09:34:18.01Z</time></trkpt><trkpt lat="45.1755331" lon="7.8891888"><ele>261.5</ele><time>2026-05-02T09:34:19.008Z</time></trkpt><trkpt lat="45.1756486" lon="7.8892052"><ele>261.25</ele><time>2026-05-02T09:34:20.006Z</time></trkpt><trkpt lat="45.1757567" lon="7.8892195"><ele>261.0</ele><time>2026-05-02T09:34:21.004Z</time></trkpt><trkpt lat="45.1758653" lon="7.8892296"><ele>256.0</ele><time>2026-05-02T09:34:22.003Z</time></trkpt><trkpt lat="45.1759699" lon="7.8892346"><ele>251.00000000000003</ele><time>2026-05-02T09:34:23.003Z</time></trkpt><trkpt lat="45.1760713" lon="7.8892191"><ele>246.00000000000003</ele><time>2026-05-02T09:34:24.003Z</time></trkpt><trkpt lat="45.1761705" lon="7.8891816"><ele>241.0</ele><time>2026-05-02T09:34:25Z</time></trkpt><trkpt lat="45.1762611" lon="7.8890925"><ele>236.0</ele><time>2026-05-02T09:34:26.007Z</time></trkpt><trkpt lat="45.1763524" lon="7.8889979"><ele>236.0</ele><time>2026-05-02T09:34:27.006Z</time></trkpt><trkpt lat="45.176417" lon="7.8888672"><ele>236.0</ele><time>2026-05-02T09:34:28.002Z</time></trkpt><trkpt lat="45.1764821" lon="7.8887186"><ele>236.0</ele><time>2026-05-02T09:34:29.003Z</time></trkpt><trkpt lat="45.1765409" lon="7.8885476"><ele>236.0</ele><time>2026-05-02T09:34:30.003Z</time></trkpt><trkpt lat="45.1765994" lon="7.8883537"><ele>229.0</ele><time>2026-05-02T09:34:31.003Z</time></trkpt><trkpt lat="45.1766589" lon="7.8881586"><ele>222.0</ele><time>2026-05-02T09:34:32.009Z</time></trkpt><trkpt lat="45.1767182" lon="7.8879623"><ele>215.0</ele><time>2026-05-02T09:34:33.008Z</time></trkpt><trkpt lat="45.1767741" lon="7.8877796"><ele>208.0</ele><time>2026-05-02T09:34:34.006Z</time></trkpt><trkpt lat="45.1768286" lon="7.8876035"><ele>208.0</ele><time>2026-05-02T09:34:35.006Z</time></trkpt><trkpt lat="45.1768761" lon="7.8874423"><ele>208.0</ele><time>2026-05-02T09:34:36.025Z</time></trkpt><trkpt lat="45.1769154" lon="7.8872935"><ele>208.0</ele><time>2026-05-02T09:34:37.004Z</time></trkpt><trkpt lat="45.1769408" lon="7.8871576"><ele>208.0</ele><time>2026-05-02T09:34:38.004Z</time></trkpt><trkpt lat="45.1769557" lon="7.8870326"><ele>208.0</ele><time>2026-05-02T09:34:39.01Z</time></trkpt><trkpt lat="45.1769691" lon="7.8869169"><ele>207.99999999999997</ele><time>2026-05-02T09:34:40.008Z</time></trkpt><trkpt lat="45.1769812" lon="7.8868119"><ele>208.0</ele><time>2026-05-02T09:34:41.005Z</time></trkpt><trkpt lat="45.1769907" lon="7.8867218"><ele>208.0</ele><time>2026-05-02T09:34:42.007Z</time></trkpt><trkpt lat="45.1770453" lon="7.8866111"><ele>208.0</ele><time>2026-05-02T09:34:44.006Z</time></trkpt><trkpt lat="45.177127" lon="7.8866322"><ele>207.99999999999997</ele><time>2026-05-02T09:34:46.013Z</time></trkpt><trkpt lat="45.1771663" lon="7.8867822"><ele>208.0</ele><time>2026-05-02T09:34:48.006Z</time></trkpt><trkpt lat="45.1771709" lon="7.8869008"><ele>208.0</ele><time>2026-05-02T09:34:49.004Z</time></trkpt><trkpt lat="45.1771741" lon="7.8870502"><ele>208.0</ele><time>2026-05-02T09:34:50.003Z</time></trkpt><trkpt lat="45.1771777" lon="7.8872109"><ele>208.0</ele><time>2026-05-02T09:34:51.017Z</time></trkpt><trkpt lat="45.177186" lon="7.8873948"><ele>208.0</ele><time>2026-05-02T09:34:51.999Z</time></trkpt><trkpt lat="45.1771942" lon="7.8876069"><ele>208.0</ele><time>2026-05-02T09:34:53.006Z</time></trkpt><trkpt lat="45.1772015" lon="7.887828"><ele>208.0</ele><time>2026-05-02T09:34:54.005Z</time></trkpt><trkpt lat="45.1772078" lon="7.8880619"><ele>208.0</ele><time>2026-05-02T09:34:55.003Z</time></trkpt><trkpt lat="45.1772178" lon="7.8883055"><ele>205.33333333333331</ele><time>2026-05-02T09:34:56.016Z</time></trkpt><trkpt lat="45.1772295" lon="7.8885484"><ele>202.66666666666669</ele><time>2026-05-02T09:34:57.005Z</time></trkpt><trkpt lat="45.1772424" lon="7.8887771"><ele>200.0</ele><time>2026-05-02T09:34:58.007Z</time></trkpt><trkpt lat="45.1772557" lon="7.8889903"><ele>200.0</ele><time>2026-05-02T09:34:59.01Z</time></trkpt><trkpt lat="45.1772722" lon="7.8891867"><ele>200.0</ele><time>2026-05-02T09:35:00.005Z</time></trkpt><trkpt lat="45.1772858" lon="7.8893689"><ele>200.0</ele><time>2026-05-02T09:35:01.006Z</time></trkpt><trkpt lat="45.1772992" lon="7.8895363"><ele>200.0</ele><time>2026-05-02T09:35:02.007Z</time></trkpt><trkpt lat="45.1773132" lon="7.8896924"><ele>201.4</ele><time>2026-05-02T09:35:03.015Z</time></trkpt><trkpt lat="45.1773241" lon="7.8898452"><ele>202.8</ele><time>2026-05-02T09:35:04.002Z</time></trkpt><trkpt lat="45.1773315" lon="7.8899971"><ele>204.2</ele><time>2026-05-02T09:35:05.005Z</time></trkpt><trkpt lat="45.177338" lon="7.8901487"><ele>205.6</ele><time>2026-05-02T09:35:06.008Z</time></trkpt><trkpt lat="45.1773445" lon="7.8902979"><ele>207.0</ele><time>2026-05-02T09:35:07.007Z</time></trkpt><trkpt lat="45.1773494" lon="7.8904389"><ele>210.8</ele><time>2026-05-02T09:35:08.003Z</time></trkpt><trkpt lat="45.1773469" lon="7.89057"><ele>214.6</ele><time>2026-05-02T09:35:08.999Z</time></trkpt><trkpt lat="45.1773406" lon="7.8906827"><ele>218.40000000000003</ele><time>2026-05-02T09:35:10.006Z</time></trkpt><trkpt lat="45.1773813" lon="7.8908226"><ele>222.20000000000002</ele><time>2026-05-02T09:35:11.996Z</time></trkpt><trkpt lat="45.1774864" lon="7.8908346"><ele>226.0</ele><time>2026-05-02T09:35:14.004Z</time></trkpt><trkpt lat="45.1775508" lon="7.8907972"><ele>218.4</ele><time>2026-05-02T09:35:15.004Z</time></trkpt><trkpt lat="45.1776212" lon="7.8907571"><ele>210.8</ele><time>2026-05-02T09:35:16.006Z</time></trkpt><trkpt lat="45.1777144" lon="7.8907236"><ele>203.20000000000002</ele><time>2026-05-02T09:35:17Z</time></trkpt><trkpt lat="45.1778204" lon="7.8907043"><ele>195.60000000000002</ele><time>2026-05-02T09:35:18.006Z</time></trkpt><trkpt lat="45.1779365" lon="7.8906957"><ele>188.0</ele><time>2026-05-02T09:35:18.998Z</time></trkpt><trkpt lat="45.1780638" lon="7.8906817"><ele>186.5</ele><time>2026-05-02T09:35:20.006Z</time></trkpt><trkpt lat="45.1782023" lon="7.8906711"><ele>185.0</ele><time>2026-05-02T09:35:21Z</time></trkpt><trkpt lat="45.1783459" lon="7.8906535"><ele>183.5</ele><time>2026-05-02T09:35:22.006Z</time></trkpt><trkpt lat="45.1784945" lon="7.8906343"><ele>182.0</ele><time>2026-05-02T09:35:23.009Z</time></trkpt><trkpt lat="45.1786401" lon="7.890616"><ele>182.0</ele><time>2026-05-02T09:35:24.004Z</time></trkpt><trkpt lat="45.1787859" lon="7.890597"><ele>182.0</ele><time>2026-05-02T09:35:25.001Z</time></trkpt><trkpt lat="45.1789264" lon="7.8905837"><ele>182.0</ele><time>2026-05-02T09:35:26.007Z</time></trkpt><trkpt lat="45.1790657" lon="7.8905725"><ele>182.0</ele><time>2026-05-02T09:35:27Z</time></trkpt><trkpt lat="45.179204" lon="7.8905588"><ele>181.75</ele><time>2026-05-02T09:35:28.009Z</time></trkpt><trkpt lat="45.1793401" lon="7.8905465"><ele>181.5</ele><time>2026-05-02T09:35:29Z</time></trkpt><trkpt lat="45.1794767" lon="7.8905346"><ele>181.25</ele><time>2026-05-02T09:35:30.001Z</time></trkpt><trkpt lat="45.1796132" lon="7.8905234"><ele>181.0</ele><time>2026-05-02T09:35:30.996Z</time></trkpt><trkpt lat="45.1797495" lon="7.8905111"><ele>180.5</ele><time>2026-05-02T09:35:31.999Z</time></trkpt><trkpt lat="45.1798829" lon="7.8904948"><ele>180.0</ele><time>2026-05-02T09:35:32.998Z</time></trkpt><trkpt lat="45.1800149" lon="7.8904783"><ele>179.5</ele><time>2026-05-02T09:35:34.001Z</time></trkpt><trkpt lat="45.1801447" lon="7.8904646"><ele>179.0</ele><time>2026-05-02T09:35:35.018Z</time></trkpt><trkpt lat="45.1802737" lon="7.8904523"><ele>179.0</ele><time>2026-05-02T09:35:36.011Z</time></trkpt><trkpt lat="45.1804021" lon="7.8904387"><ele>179.0</ele><time>2026-05-02T09:35:37.009Z</time></trkpt><trkpt lat="45.1805318" lon="7.8904261"><ele>179.0</ele><time>2026-05-02T09:35:38.018Z</time></trkpt><trkpt lat="45.1806623" lon="7.8904101"><ele>179.0</ele><time>2026-05-02T09:35:38.998Z</time></trkpt><trkpt lat="45.1807966" lon="7.8903946"><ele>178.5</ele><time>2026-05-02T09:35:40.017Z</time></trkpt><trkpt lat="45.1809345" lon="7.8903791"><ele>178.0</ele><time>2026-05-02T09:35:41.011Z</time></trkpt><trkpt lat="45.1810746" lon="7.8903652"><ele>177.5</ele><time>2026-05-02T09:35:42.016Z</time></trkpt><trkpt lat="45.1812101" lon="7.890359"><ele>177.0</ele><time>2026-05-02T09:35:43.013Z</time></trkpt><trkpt lat="45.1813461" lon="7.8903336"><ele>177.0</ele><time>2026-05-02T09:35:44.004Z</time></trkpt><trkpt lat="45.1814826" lon="7.8903168"><ele>177.0</ele><time>2026-05-02T09:35:45.014Z</time></trkpt><trkpt lat="45.1816181" lon="7.8903014"><ele>177.0</ele><time>2026-05-02T09:35:46.015Z</time></trkpt><trkpt lat="45.1817534" lon="7.8902898"><ele>177.0</ele><time>2026-05-02T09:35:47.01Z</time></trkpt><trkpt lat="45.1818845" lon="7.890277"><ele>176.8</ele><time>2026-05-02T09:35:48.004Z</time></trkpt><trkpt lat="45.182007" lon="7.8902642"><ele>176.6</ele><time>2026-05-02T09:35:49.009Z</time></trkpt><trkpt lat="45.1821207" lon="7.890253"><ele>176.4</ele><time>2026-05-02T09:35:50.017Z</time></trkpt><trkpt lat="45.1822287" lon="7.8902427"><ele>176.20000000000002</ele><time>2026-05-02T09:35:51.012Z</time></trkpt><trkpt lat="45.1823318" lon="7.8902338"><ele>176.0</ele><time>2026-05-02T09:35:52.014Z</time></trkpt><trkpt lat="45.1824361" lon="7.8902232"><ele>176.8</ele><time>2026-05-02T09:35:53Z</time></trkpt><trkpt lat="45.182543" lon="7.89021"><ele>177.60000000000002</ele><time>2026-05-02T09:35:54.015Z</time></trkpt><trkpt lat="45.1826495" lon="7.8901977"><ele>178.4</ele><time>2026-05-02T09:35:55.009Z</time></trkpt><trkpt lat="45.1827593" lon="7.8901858"><ele>179.2</ele><time>2026-05-02T09:35:56.019Z</time></trkpt><trkpt lat="45.1828628" lon="7.8901783"><ele>180.0</ele><time>2026-05-02T09:35:57.011Z</time></trkpt><trkpt lat="45.1829576" lon="7.890166"><ele>180.0</ele><time>2026-05-02T09:35:58.001Z</time></trkpt><trkpt lat="45.1830452" lon="7.8901587"><ele>180.0</ele><time>2026-05-02T09:35:59.006Z</time></trkpt><trkpt lat="45.1831315" lon="7.890152"><ele>180.0</ele><time>2026-05-02T09:36:00.006Z</time></trkpt><trkpt lat="45.1832156" lon="7.8901484"><ele>180.0</ele><time>2026-05-02T09:36:01.011Z</time></trkpt><trkpt lat="45.1833016" lon="7.8901376"><ele>180.0</ele><time>2026-05-02T09:36:02.019Z</time></trkpt><trkpt lat="45.1833889" lon="7.8901283"><ele>180.0</ele><time>2026-05-02T09:36:03.019Z</time></trkpt><trkpt lat="45.1834788" lon="7.8901185"><ele>180.0</ele><time>2026-05-02T09:36:04.011Z</time></trkpt><trkpt lat="45.1835698" lon="7.8901095"><ele>180.0</ele><time>2026-05-02T09:36:05.002Z</time></trkpt><trkpt lat="45.1836629" lon="7.8901009"><ele>180.0</ele><time>2026-05-02T09:36:06.016Z</time></trkpt><trkpt lat="45.1837571" lon="7.8900921"><ele>180.0</ele><time>2026-05-02T09:36:07.012Z</time></trkpt><trkpt lat="45.183849" lon="7.8900816"><ele>180.0</ele><time>2026-05-02T09:36:08.008Z</time></trkpt><trkpt lat="45.1839394" lon="7.8900708"><ele>179.83333333333334</ele><time>2026-05-02T09:36:09.012Z</time></trkpt><trkpt lat="45.184027" lon="7.8900604"><ele>179.66666666666666</ele><time>2026-05-02T09:36:10.013Z</time></trkpt><trkpt lat="45.1841101" lon="7.8900496"><ele>179.5</ele><time>2026-05-02T09:36:11.002Z</time></trkpt><trkpt lat="45.1841895" lon="7.8900418"><ele>179.33333333333331</ele><time>2026-05-02T09:36:12.001Z</time></trkpt><trkpt lat="45.1842644" lon="7.8900343"><ele>179.16666666666666</ele><time>2026-05-02T09:36:13.021Z</time></trkpt><trkpt lat="45.1843369" lon="7.8900262"><ele>179.0</ele><time>2026-05-02T09:36:14.008Z</time></trkpt><trkpt lat="45.1844057" lon="7.8900173"><ele>179.0</ele><time>2026-05-02T09:36:15.013Z</time></trkpt><trkpt lat="45.1844738" lon="7.8900073"><ele>179.0</ele><time>2026-05-02T09:36:16.005Z</time></trkpt><trkpt lat="45.1845891" lon="7.8900135"><ele>179.0</ele><time>2026-05-02T09:36:18.014Z</time></trkpt><trkpt lat="45.1846881" lon="7.8900201"><ele>179.0</ele><time>2026-05-02T09:36:20.012Z</time></trkpt><trkpt lat="45.1847824" lon="7.8900389"><ele>179.0</ele><time>2026-05-02T09:36:22.002Z</time></trkpt><trkpt lat="45.1848959" lon="7.8901058"><ele>179.33333333333331</ele><time>2026-05-02T09:36:24.003Z</time></trkpt><trkpt lat="45.1849575" lon="7.8901469"><ele>179.66666666666666</ele><time>2026-05-02T09:36:25.01Z</time></trkpt><trkpt lat="45.1850198" lon="7.8901982"><ele>180.0</ele><time>2026-05-02T09:36:26.013Z</time></trkpt><trkpt lat="45.1850797" lon="7.8902537"><ele>180.33333333333334</ele><time>2026-05-02T09:36:27.015Z</time></trkpt><trkpt lat="45.1851209" lon="7.8903267"><ele>180.66666666666669</ele><time>2026-05-02T09:36:28.013Z</time></trkpt><trkpt lat="45.1851738" lon="7.8904361"><ele>181.0</ele><time>2026-05-02T09:36:30.014Z</time></trkpt><trkpt lat="45.1852197" lon="7.8905534"><ele>181.0</ele><time>2026-05-02T09:36:32.008Z</time></trkpt><trkpt lat="45.1852703" lon="7.8907312"><ele>181.0</ele><time>2026-05-02T09:36:34.011Z</time></trkpt><trkpt lat="45.1852909" lon="7.8908538"><ele>181.0</ele><time>2026-05-02T09:36:35.001Z</time></trkpt><trkpt lat="45.1853059" lon="7.8909954"><ele>181.0</ele><time>2026-05-02T09:36:36.003Z</time></trkpt><trkpt lat="45.1853178" lon="7.8911495"><ele>181.0</ele><time>2026-05-02T09:36:37.005Z</time></trkpt><trkpt lat="45.1853314" lon="7.8913068"><ele>181.0</ele><time>2026-05-02T09:36:38.003Z</time></trkpt><trkpt lat="45.1853449" lon="7.8914595"><ele>181.0</ele><time>2026-05-02T09:36:39.004Z</time></trkpt><trkpt lat="45.1853596" lon="7.8916069"><ele>181.0</ele><time>2026-05-02T09:36:40.004Z</time></trkpt><trkpt lat="45.1853718" lon="7.8917561"><ele>181.0</ele><time>2026-05-02T09:36:41.011Z</time></trkpt><trkpt lat="45.1853829" lon="7.8918912"><ele>181.0</ele><time>2026-05-02T09:36:42.003Z</time></trkpt><trkpt lat="45.1853962" lon="7.8920221"><ele>180.83333333333334</ele><time>2026-05-02T09:36:42.999Z</time></trkpt><trkpt lat="45.1854076" lon="7.8921509"><ele>180.66666666666669</ele><time>2026-05-02T09:36:44.004Z</time></trkpt><trkpt lat="45.1854189" lon="7.8922825"><ele>180.5</ele><time>2026-05-02T09:36:45.004Z</time></trkpt><trkpt lat="45.1854295" lon="7.8924098"><ele>180.33333333333334</ele><time>2026-05-02T09:36:46.014Z</time></trkpt><trkpt lat="45.1854395" lon="7.8925225"><ele>180.16666666666666</ele><time>2026-05-02T09:36:47.012Z</time></trkpt><trkpt lat="45.185447" lon="7.892615"><ele>180.0</ele><time>2026-05-02T09:36:47.997Z</time></trkpt><trkpt lat="45.1854602" lon="7.8927644"><ele>180.0</ele><time>2026-05-02T09:36:50.006Z</time></trkpt><trkpt lat="45.1854494" lon="7.8929031"><ele>180.0</ele><time>2026-05-02T09:36:52Z</time></trkpt><trkpt lat="45.1854134" lon="7.8930544"><ele>180.0</ele><time>2026-05-02T09:36:54.015Z</time></trkpt><trkpt lat="45.1854388" lon="7.8932304"><ele>180.0</ele><time>2026-05-02T09:36:56.006Z</time></trkpt><trkpt lat="45.1854685" lon="7.8933275"><ele>180.0</ele><time>2026-05-02T09:36:57.005Z</time></trkpt><trkpt lat="45.1854969" lon="7.8934341"><ele>180.0</ele><time>2026-05-02T09:36:58.011Z</time></trkpt><trkpt lat="45.1855202" lon="7.8935497"><ele>180.0</ele><time>2026-05-02T09:36:59.007Z</time></trkpt><trkpt lat="45.185538" lon="7.8936644"><ele>180.0</ele><time>2026-05-02T09:37:00.013Z</time></trkpt><trkpt lat="45.1855547" lon="7.8937725"><ele>180.0</ele><time>2026-05-02T09:37:01.013Z</time></trkpt><trkpt lat="45.1855707" lon="7.8938814"><ele>180.0</ele><time>2026-05-02T09:37:02.004Z</time></trkpt><trkpt lat="45.185584" lon="7.8939887"><ele>180.0</ele><time>2026-05-02T09:37:03.008Z</time></trkpt><trkpt lat="45.1855921" lon="7.894088"><ele>180.0</ele><time>2026-05-02T09:37:04.008Z</time></trkpt><trkpt lat="45.1855982" lon="7.8941792"><ele>180.0</ele><time>2026-05-02T09:37:05.012Z</time></trkpt><trkpt lat="45.1856082" lon="7.8942698"><ele>180.0</ele><time>2026-05-02T09:37:06.005Z</time></trkpt><trkpt lat="45.1856207" lon="7.8943615"><ele>180.0</ele><time>2026-05-02T09:37:07.008Z</time></trkpt><trkpt lat="45.1856322" lon="7.8944504"><ele>180.0</ele><time>2026-05-02T09:37:08.003Z</time></trkpt><trkpt lat="45.1856827" lon="7.8946031"><ele>180.0</ele><time>2026-05-02T09:37:10.004Z</time></trkpt><trkpt lat="45.1857926" lon="7.894681"><ele>179.85714285714286</ele><time>2026-05-02T09:37:12.009Z</time></trkpt><trkpt lat="45.1858599" lon="7.8946885"><ele>179.71428571428572</ele><time>2026-05-02T09:37:12.998Z</time></trkpt><trkpt lat="45.1859317" lon="7.8946851"><ele>179.57142857142858</ele><time>2026-05-02T09:37:14.01Z</time></trkpt><trkpt lat="45.1860051" lon="7.8946798"><ele>179.42857142857144</ele><time>2026-05-02T09:37:15.005Z</time></trkpt><trkpt lat="45.1860771" lon="7.8946771"><ele>179.28571428571428</ele><time>2026-05-02T09:37:16.006Z</time></trkpt><trkpt lat="45.186149" lon="7.8946724"><ele>179.14285714285717</ele><time>2026-05-02T09:37:17Z</time></trkpt><trkpt lat="45.1862242" lon="7.8946649"><ele>179.0</ele><time>2026-05-02T09:37:18.005Z</time></trkpt><trkpt lat="45.1863007" lon="7.8946584"><ele>179.00000000000003</ele><time>2026-05-02T09:37:19.004Z</time></trkpt><trkpt lat="45.186375" lon="7.8946552"><ele>179.0</ele><time>2026-05-02T09:37:20.001Z</time></trkpt><trkpt lat="45.1864469" lon="7.8946525"><ele>179.0</ele><time>2026-05-02T09:37:21.011Z</time></trkpt><trkpt lat="45.1865176" lon="7.8946492"><ele>179.0</ele><time>2026-05-02T09:37:22.005Z</time></trkpt><trkpt lat="45.18659" lon="7.8946494"><ele>179.0</ele><time>2026-05-02T09:37:23.011Z</time></trkpt><trkpt lat="45.1866655" lon="7.8946583"><ele>179.00000000000003</ele><time>2026-05-02T09:37:24.002Z</time></trkpt><trkpt lat="45.1867428" lon="7.8946769"><ele>179.0</ele><time>2026-05-02T09:37:25.017Z</time></trkpt><trkpt lat="45.186818" lon="7.8947042"><ele>179.2857142857143</ele><time>2026-05-02T09:37:26.003Z</time></trkpt><trkpt lat="45.1868918" lon="7.8947383"><ele>179.57142857142858</ele><time>2026-05-02T09:37:27.004Z</time></trkpt><trkpt lat="45.1869628" lon="7.8947809"><ele>179.85714285714286</ele><time>2026-05-02T09:37:28.003Z</time></trkpt><trkpt lat="45.1870272" lon="7.8948382"><ele>180.14285714285717</ele><time>2026-05-02T09:37:29.009Z</time></trkpt><trkpt lat="45.1870787" lon="7.8949017"><ele>180.42857142857142</ele><time>2026-05-02T09:37:30.003Z</time></trkpt><trkpt lat="45.1871299" lon="7.8949561"><ele>180.71428571428572</ele><time>2026-05-02T09:37:31.008Z</time></trkpt><trkpt lat="45.1871874" lon="7.8949972"><ele>181.0</ele><time>2026-05-02T09:37:32.026Z</time></trkpt><trkpt lat="45.1873076" lon="7.8950105"><ele>181.4</ele><time>2026-05-02T09:37:34.017Z</time></trkpt><trkpt lat="45.18743" lon="7.8950025"><ele>181.8</ele><time>2026-05-02T09:37:36.002Z</time></trkpt><trkpt lat="45.1875348" lon="7.8950663"><ele>182.20000000000002</ele><time>2026-05-02T09:37:38.013Z</time></trkpt><trkpt lat="45.1876078" lon="7.8952138"><ele>182.60000000000002</ele><time>2026-05-02T09:37:40.009Z</time></trkpt><trkpt lat="45.1876284" lon="7.8953125"><ele>183.0</ele><time>2026-05-02T09:37:41.018Z</time></trkpt><trkpt lat="45.1876443" lon="7.8954226"><ele>183.0</ele><time>2026-05-02T09:37:42.025Z</time></trkpt><trkpt lat="45.1876636" lon="7.8955394"><ele>183.0</ele><time>2026-05-02T09:37:43.01Z</time></trkpt><trkpt lat="45.1876984" lon="7.8956577"><ele>183.0</ele><time>2026-05-02T09:37:44.016Z</time></trkpt><trkpt lat="45.1877525" lon="7.8957739"><ele>183.0</ele><time>2026-05-02T09:37:45.011Z</time></trkpt><trkpt lat="45.187808" lon="7.8958939"><ele>183.0</ele><time>2026-05-02T09:37:45.994Z</time></trkpt><trkpt lat="45.1878945" lon="7.8959846"><ele>183.0</ele><time>2026-05-02T09:37:47.005Z</time></trkpt><trkpt lat="45.1879886" lon="7.8960711"><ele>183.0</ele><time>2026-05-02T09:37:48.007Z</time></trkpt><trkpt lat="45.1880872" lon="7.8961663"><ele>183.0</ele><time>2026-05-02T09:37:48.999Z</time></trkpt><trkpt lat="45.1881912" lon="7.8962651"><ele>183.0</ele><time>2026-05-02T09:37:50.005Z</time></trkpt><trkpt lat="45.188298" lon="7.8963703"><ele>182.5</ele><time>2026-05-02T09:37:51.007Z</time></trkpt><trkpt lat="45.1884034" lon="7.8964793"><ele>182.0</ele><time>2026-05-02T09:37:52.007Z</time></trkpt><trkpt lat="45.188503" lon="7.8965869"><ele>181.5</ele><time>2026-05-02T09:37:53.002Z</time></trkpt><trkpt lat="45.1885944" lon="7.896691"><ele>181.0</ele><time>2026-05-02T09:37:54.003Z</time></trkpt><trkpt lat="45.1886784" lon="7.8967913"><ele>181.0</ele><time>2026-05-02T09:37:55.003Z</time></trkpt><trkpt lat="45.1887573" lon="7.8968826"><ele>181.0</ele><time>2026-05-02T09:37:56Z</time></trkpt><trkpt lat="45.1888317" lon="7.8969675"><ele>181.0</ele><time>2026-05-02T09:37:57.002Z</time></trkpt><trkpt lat="45.1888989" lon="7.8970498"><ele>181.0</ele><time>2026-05-02T09:37:58.007Z</time></trkpt><trkpt lat="45.1889571" lon="7.8971224"><ele>181.0</ele><time>2026-05-02T09:37:59.014Z</time></trkpt><trkpt lat="45.1890097" lon="7.8971882"><ele>181.0</ele><time>2026-05-02T09:37:59.999Z</time></trkpt><trkpt lat="45.1890563" lon="7.8972526"><ele>180.5</ele><time>2026-05-02T09:38:01.018Z</time></trkpt><trkpt lat="45.1891028" lon="7.8973226"><ele>180.0</ele><time>2026-05-02T09:38:02.001Z</time></trkpt><trkpt lat="45.189151" lon="7.8973961"><ele>179.5</ele><time>2026-05-02T09:38:02.995Z</time></trkpt><trkpt lat="45.1891969" lon="7.8974882"><ele>179.0</ele><time>2026-05-02T09:38:04.009Z</time></trkpt><trkpt lat="45.1892418" lon="7.8975922"><ele>178.5</ele><time>2026-05-02T09:38:05.004Z</time></trkpt><trkpt lat="45.1892864" lon="7.8977104"><ele>178.0</ele><time>2026-05-02T09:38:05.995Z</time></trkpt><trkpt lat="45.1893291" lon="7.8978436"><ele>178.0</ele><time>2026-05-02T09:38:07.001Z</time></trkpt><trkpt lat="45.1893715" lon="7.897989"><ele>178.0</ele><time>2026-05-02T09:38:08.012Z</time></trkpt><trkpt lat="45.1894163" lon="7.8981386"><ele>178.0</ele><time>2026-05-02T09:38:09Z</time></trkpt><trkpt lat="45.1894651" lon="7.8982909"><ele>178.0</ele><time>2026-05-02T09:38:10.004Z</time></trkpt><trkpt lat="45.1895169" lon="7.8984462"><ele>177.75</ele><time>2026-05-02T09:38:11.007Z</time></trkpt><trkpt lat="45.189567" lon="7.8986064"><ele>177.5</ele><time>2026-05-02T09:38:11.997Z</time></trkpt><trkpt lat="45.1896163" lon="7.8987709"><ele>177.25</ele><time>2026-05-02T09:38:13.001Z</time></trkpt><trkpt lat="45.1896624" lon="7.8989396"><ele>177.0</ele><time>2026-05-02T09:38:13.999Z</time></trkpt><trkpt lat="45.189707" lon="7.8991152"><ele>177.5</ele><time>2026-05-02T09:38:15.003Z</time></trkpt><trkpt lat="45.1897486" lon="7.8992951"><ele>178.0</ele><time>2026-05-02T09:38:16.006Z</time></trkpt><trkpt lat="45.1897846" lon="7.8994705"><ele>178.5</ele><time>2026-05-02T09:38:16.999Z</time></trkpt><trkpt lat="45.189817" lon="7.899639"><ele>179.0</ele><time>2026-05-02T09:38:17.998Z</time></trkpt><trkpt lat="45.1898491" lon="7.899806"><ele>179.0</ele><time>2026-05-02T09:38:19.005Z</time></trkpt><trkpt lat="45.1898786" lon="7.8999697"><ele>179.0</ele><time>2026-05-02T09:38:20.001Z</time></trkpt><trkpt lat="45.1899135" lon="7.9001302"><ele>179.0</ele><time>2026-05-02T09:38:21.002Z</time></trkpt><trkpt lat="45.1899471" lon="7.9002936"><ele>179.0</ele><time>2026-05-02T09:38:21.996Z</time></trkpt><trkpt lat="45.1899813" lon="7.9004605"><ele>179.0</ele><time>2026-05-02T09:38:23.005Z</time></trkpt><trkpt lat="45.1900149" lon="7.9006287"><ele>179.0</ele><time>2026-05-02T09:38:23.995Z</time></trkpt><trkpt lat="45.1900471" lon="7.9007993"><ele>179.0</ele><time>2026-05-02T09:38:25.009Z</time></trkpt><trkpt lat="45.1900812" lon="7.9009724"><ele>179.0</ele><time>2026-05-02T09:38:26.01Z</time></trkpt><trkpt lat="45.1901163" lon="7.9011478"><ele>179.0</ele><time>2026-05-02T09:38:27.001Z</time></trkpt><trkpt lat="45.1901517" lon="7.90132"><ele>179.0</ele><time>2026-05-02T09:38:28.006Z</time></trkpt><trkpt lat="45.1901853" lon="7.9014992"><ele>179.0</ele><time>2026-05-02T09:38:29.003Z</time></trkpt><trkpt lat="45.1902207" lon="7.9016776"><ele>179.0</ele><time>2026-05-02T09:38:30.005Z</time></trkpt><trkpt lat="45.1902563" lon="7.9018576"><ele>179.0</ele><time>2026-05-02T09:38:31.017Z</time></trkpt><trkpt lat="45.1902905" lon="7.9020376"><ele>179.0</ele><time>2026-05-02T09:38:32.005Z</time></trkpt><trkpt lat="45.1903248" lon="7.902219"><ele>179.0</ele><time>2026-05-02T09:38:33.018Z</time></trkpt><trkpt lat="45.1903613" lon="7.9024011"><ele>179.0</ele><time>2026-05-02T09:38:34.007Z</time></trkpt><trkpt lat="45.1903988" lon="7.9025838"><ele>179.25</ele><time>2026-05-02T09:38:35.002Z</time></trkpt><trkpt lat="45.190436" lon="7.9027712"><ele>179.5</ele><time>2026-05-02T09:38:36.006Z</time></trkpt><trkpt lat="45.1904718" lon="7.9029627"><ele>179.75</ele><time>2026-05-02T09:38:36.997Z</time></trkpt><trkpt lat="45.1905071" lon="7.9031548"><ele>180.0</ele><time>2026-05-02T09:38:38.003Z</time></trkpt><trkpt lat="45.1905426" lon="7.9033409"><ele>179.25</ele><time>2026-05-02T09:38:39.019Z</time></trkpt><trkpt lat="45.1905786" lon="7.903522"><ele>178.5</ele><time>2026-05-02T09:38:40.005Z</time></trkpt><trkpt lat="45.1906119" lon="7.9036878"><ele>177.75</ele><time>2026-05-02T09:38:41.009Z</time></trkpt><trkpt lat="45.1906414" lon="7.9038318"><ele>177.0</ele><time>2026-05-02T09:38:42.004Z</time></trkpt><trkpt lat="45.190669" lon="7.9039673"><ele>177.33333333333334</ele><time>2026-05-02T09:38:43.004Z</time></trkpt><trkpt lat="45.1906942" lon="7.9040923"><ele>177.66666666666666</ele><time>2026-05-02T09:38:43.999Z</time></trkpt><trkpt lat="45.1907168" lon="7.9042115"><ele>178.0</ele><time>2026-05-02T09:38:45.015Z</time></trkpt><trkpt lat="45.1907366" lon="7.9043219"><ele>178.33333333333331</ele><time>2026-05-02T09:38:46.011Z</time></trkpt><trkpt lat="45.1907563" lon="7.9044258"><ele>178.66666666666666</ele><time>2026-05-02T09:38:47.003Z</time></trkpt><trkpt lat="45.1907746" lon="7.9045262"><ele>179.0</ele><time>2026-05-02T09:38:48.021Z</time></trkpt><trkpt lat="45.1907941" lon="7.9046282"><ele>179.0</ele><time>2026-05-02T09:38:49.002Z</time></trkpt><trkpt lat="45.1908156" lon="7.9047424"><ele>179.0</ele><time>2026-05-02T09:38:50.009Z</time></trkpt><trkpt lat="45.1908418" lon="7.9048682"><ele>179.0</ele><time>2026-05-02T09:38:51.008Z</time></trkpt><trkpt lat="45.1908675" lon="7.9049944"><ele>179.0</ele><time>2026-05-02T09:38:52.023Z</time></trkpt><trkpt lat="45.1908949" lon="7.9051246"><ele>179.0</ele><time>2026-05-02T09:38:52.998Z</time></trkpt><trkpt lat="45.190921" lon="7.905261"><ele>178.79999999999998</ele><time>2026-05-02T09:38:54.007Z</time></trkpt><trkpt lat="45.190949" lon="7.9054034"><ele>178.6</ele><time>2026-05-02T09:38:55.008Z</time></trkpt><trkpt lat="45.190978" lon="7.9055514"><ele>178.4</ele><time>2026-05-02T09:38:56.029Z</time></trkpt><trkpt lat="45.1910098" lon="7.9057031"><ele>178.2</ele><time>2026-05-02T09:38:57.007Z</time></trkpt><trkpt lat="45.1910422" lon="7.9058574"><ele>178.0</ele><time>2026-05-02T09:38:58.009Z</time></trkpt><trkpt lat="45.19108" lon="7.9060105"><ele>177.8</ele><time>2026-05-02T09:38:59.012Z</time></trkpt><trkpt lat="45.1911183" lon="7.9061593"><ele>177.60000000000002</ele><time>2026-05-02T09:39:00.013Z</time></trkpt><trkpt lat="45.1911598" lon="7.9063029"><ele>177.39999999999998</ele><time>2026-05-02T09:39:01.01Z</time></trkpt><trkpt lat="45.1912046" lon="7.9064411"><ele>177.2</ele><time>2026-05-02T09:39:02.006Z</time></trkpt><trkpt lat="45.1912495" lon="7.9065824"><ele>177.0</ele><time>2026-05-02T09:39:03.002Z</time></trkpt><trkpt lat="45.1912862" lon="7.9067328"><ele>177.25</ele><time>2026-05-02T09:39:04.009Z</time></trkpt><trkpt lat="45.1913166" lon="7.906899"><ele>177.5</ele><time>2026-05-02T09:39:05.01Z</time></trkpt><trkpt lat="45.191345" lon="7.9070898"><ele>177.75</ele><time>2026-05-02T09:39:06.014Z</time></trkpt><trkpt lat="45.191369" lon="7.9072965"><ele>178.0</ele><time>2026-05-02T09:39:07.012Z</time></trkpt><trkpt lat="45.1913878" lon="7.9075052"><ele>177.5</ele><time>2026-05-02T09:39:08.015Z</time></trkpt><trkpt lat="45.1914075" lon="7.9077019"><ele>177.0</ele><time>2026-05-02T09:39:09.012Z</time></trkpt><trkpt lat="45.1914348" lon="7.907892"><ele>176.5</ele><time>2026-05-02T09:39:10.017Z</time></trkpt><trkpt lat="45.1914667" lon="7.9080803"><ele>176.0</ele><time>2026-05-02T09:39:11.01Z</time></trkpt><trkpt lat="45.1915004" lon="7.9082672"><ele>176.0</ele><time>2026-05-02T09:39:12.009Z</time></trkpt><trkpt lat="45.1915343" lon="7.9084573"><ele>176.0</ele><time>2026-05-02T09:39:13.008Z</time></trkpt><trkpt lat="45.1915697" lon="7.9086486"><ele>176.0</ele><time>2026-05-02T09:39:14.014Z</time></trkpt><trkpt lat="45.1916055" lon="7.9088427"><ele>176.0</ele><time>2026-05-02T09:39:15.011Z</time></trkpt><trkpt lat="45.1916424" lon="7.9090395"><ele>176.0</ele><time>2026-05-02T09:39:16.01Z</time></trkpt><trkpt lat="45.1916811" lon="7.9092369"><ele>176.0</ele><time>2026-05-02T09:39:17.007Z</time></trkpt><trkpt lat="45.1917205" lon="7.9094322"><ele>176.0</ele><time>2026-05-02T09:39:18.022Z</time></trkpt><trkpt lat="45.191758" lon="7.9096222"><ele>176.0</ele><time>2026-05-02T09:39:19.013Z</time></trkpt><trkpt lat="45.1917959" lon="7.9098099"><ele>176.0</ele><time>2026-05-02T09:39:20.011Z</time></trkpt><trkpt lat="45.1918345" lon="7.9099988"><ele>176.0</ele><time>2026-05-02T09:39:21.017Z</time></trkpt><trkpt lat="45.1918728" lon="7.9101892"><ele>176.0</ele><time>2026-05-02T09:39:22.005Z</time></trkpt><trkpt lat="45.1919102" lon="7.9103813"><ele>176.0</ele><time>2026-05-02T09:39:23.007Z</time></trkpt><trkpt lat="45.1919465" lon="7.910576"><ele>176.0</ele><time>2026-05-02T09:39:24.011Z</time></trkpt><trkpt lat="45.1919843" lon="7.9107721"><ele>176.0</ele><time>2026-05-02T09:39:25.013Z</time></trkpt><trkpt lat="45.192024" lon="7.9109713"><ele>176.0</ele><time>2026-05-02T09:39:26.014Z</time></trkpt><trkpt lat="45.1920628" lon="7.9111756"><ele>176.0</ele><time>2026-05-02T09:39:27.003Z</time></trkpt><trkpt lat="45.1921022" lon="7.9113833"><ele>176.0</ele><time>2026-05-02T09:39:28.001Z</time></trkpt><trkpt lat="45.1921432" lon="7.9115954"><ele>176.0</ele><time>2026-05-02T09:39:29.003Z</time></trkpt><trkpt lat="45.192185" lon="7.911813"><ele>176.0</ele><time>2026-05-02T09:39:30.007Z</time></trkpt><trkpt lat="45.1922266" lon="7.9120364"><ele>176.33333333333331</ele><time>2026-05-02T09:39:31.006Z</time></trkpt><trkpt lat="45.1922677" lon="7.9122654"><ele>176.66666666666666</ele><time>2026-05-02T09:39:32.004Z</time></trkpt><trkpt lat="45.1923095" lon="7.9124971"><ele>177.0</ele><time>2026-05-02T09:39:33.006Z</time></trkpt><trkpt lat="45.192352" lon="7.9127276"><ele>177.0</ele><time>2026-05-02T09:39:34.004Z</time></trkpt><trkpt lat="45.1923959" lon="7.9129536"><ele>177.0</ele><time>2026-05-02T09:39:35.012Z</time></trkpt><trkpt lat="45.1924423" lon="7.9131747"><ele>177.0</ele><time>2026-05-02T09:39:36.013Z</time></trkpt><trkpt lat="45.1924887" lon="7.9133912"><ele>176.33333333333334</ele><time>2026-05-02T09:39:37.015Z</time></trkpt><trkpt lat="45.1925327" lon="7.913604"><ele>175.66666666666669</ele><time>2026-05-02T09:39:38.008Z</time></trkpt><trkpt lat="45.1925755" lon="7.9138149"><ele>175.0</ele><time>2026-05-02T09:39:39.011Z</time></trkpt><trkpt lat="45.1926167" lon="7.9140256"><ele>175.0</ele><time>2026-05-02T09:39:40.013Z</time></trkpt><trkpt lat="45.1926572" lon="7.9142346"><ele>175.0</ele><time>2026-05-02T09:39:41.001Z</time></trkpt><trkpt lat="45.1926958" lon="7.9144341"><ele>175.0</ele><time>2026-05-02T09:39:42.014Z</time></trkpt><trkpt lat="45.1927346" lon="7.9146325"><ele>175.0</ele><time>2026-05-02T09:39:42.998Z</time></trkpt><trkpt lat="45.192774" lon="7.9148311"><ele>175.5</ele><time>2026-05-02T09:39:44.014Z</time></trkpt><trkpt lat="45.1928145" lon="7.9150307"><ele>176.0</ele><time>2026-05-02T09:39:45.002Z</time></trkpt><trkpt lat="45.192854" lon="7.9152297"><ele>176.5</ele><time>2026-05-02T09:39:46.007Z</time></trkpt><trkpt lat="45.1928914" lon="7.9154243"><ele>177.0</ele><time>2026-05-02T09:39:47.004Z</time></trkpt><trkpt lat="45.1929223" lon="7.9156055"><ele>177.2</ele><time>2026-05-02T09:39:48.006Z</time></trkpt><trkpt lat="45.1929463" lon="7.9157673"><ele>177.39999999999998</ele><time>2026-05-02T09:39:49.004Z</time></trkpt><trkpt lat="45.1929685" lon="7.9159146"><ele>177.60000000000002</ele><time>2026-05-02T09:39:50.014Z</time></trkpt><trkpt lat="45.1929912" lon="7.9160506"><ele>177.8</ele><time>2026-05-02T09:39:51.01Z</time></trkpt><trkpt lat="45.1930132" lon="7.9161771"><ele>178.0</ele><time>2026-05-02T09:39:52.017Z</time></trkpt><trkpt lat="45.1930333" lon="7.9162959"><ele>178.0</ele><time>2026-05-02T09:39:53.014Z</time></trkpt><trkpt lat="45.1930526" lon="7.9164096"><ele>178.0</ele><time>2026-05-02T09:39:54.007Z</time></trkpt><trkpt lat="45.1930704" lon="7.9165172"><ele>178.0</ele><time>2026-05-02T09:39:55.01Z</time></trkpt><trkpt lat="45.1930894" lon="7.9166278"><ele>178.0</ele><time>2026-05-02T09:39:56.016Z</time></trkpt><trkpt lat="45.1931098" lon="7.9167439"><ele>178.0</ele><time>2026-05-02T09:39:57.006Z</time></trkpt><trkpt lat="45.1931312" lon="7.916869"><ele>178.0</ele><time>2026-05-02T09:39:58.015Z</time></trkpt><trkpt lat="45.1931535" lon="7.9170052"><ele>178.5</ele><time>2026-05-02T09:39:59.005Z</time></trkpt><trkpt lat="45.1931739" lon="7.9171553"><ele>179.0</ele><time>2026-05-02T09:40:00.017Z</time></trkpt><trkpt lat="45.1931929" lon="7.9173215"><ele>179.5</ele><time>2026-05-02T09:40:01.011Z</time></trkpt><trkpt lat="45.1932095" lon="7.9175004"><ele>180.0</ele><time>2026-05-02T09:40:02.006Z</time></trkpt><trkpt lat="45.1932226" lon="7.9176605"><ele>180.0</ele><time>2026-05-02T09:40:03.012Z</time></trkpt><trkpt lat="45.1932303" lon="7.9177701"><ele>180.0</ele><time>2026-05-02T09:40:04.008Z</time></trkpt><trkpt lat="45.1932394" lon="7.91786"><ele>180.0</ele><time>2026-05-02T09:40:05.011Z</time></trkpt><trkpt lat="45.193242" lon="7.9179985"><ele>180.0</ele><time>2026-05-02T09:40:07.003Z</time></trkpt><trkpt lat="45.1932082" lon="7.9181348"><ele>180.0</ele><time>2026-05-02T09:40:09.013Z</time></trkpt><trkpt lat="45.1932013" lon="7.9183215"><ele>180.0</ele><time>2026-05-02T09:40:11.028Z</time></trkpt><trkpt lat="45.1932081" lon="7.9184387"><ele>180.0</ele><time>2026-05-02T09:40:12.01Z</time></trkpt><trkpt lat="45.1932176" lon="7.9185686"><ele>180.0</ele><time>2026-05-02T09:40:13.011Z</time></trkpt><trkpt lat="45.1932299" lon="7.9187112"><ele>180.0</ele><time>2026-05-02T09:40:14.012Z</time></trkpt><trkpt lat="45.1932417" lon="7.9188635"><ele>180.0</ele><time>2026-05-02T09:40:15.009Z</time></trkpt><trkpt lat="45.1932538" lon="7.9190176"><ele>180.0</ele><time>2026-05-02T09:40:16.014Z</time></trkpt><trkpt lat="45.1932663" lon="7.9191617"><ele>180.0</ele><time>2026-05-02T09:40:17.003Z</time></trkpt><trkpt lat="45.1932792" lon="7.919293"><ele>180.0</ele><time>2026-05-02T09:40:18.013Z</time></trkpt><trkpt lat="45.1932941" lon="7.9194048"><ele>180.0</ele><time>2026-05-02T09:40:19.017Z</time></trkpt><trkpt lat="45.1932952" lon="7.9195136"><ele>180.0</ele><time>2026-05-02T09:40:20.011Z</time></trkpt><trkpt lat="45.1933062" lon="7.9196048"><ele>180.0</ele><time>2026-05-02T09:40:21.013Z</time></trkpt><trkpt lat="45.1933201" lon="7.9197623"><ele>180.0</ele><time>2026-05-02T09:40:23.01Z</time></trkpt><trkpt lat="45.193331" lon="7.9198854"><ele>180.0</ele><time>2026-05-02T09:40:25.017Z</time></trkpt><trkpt lat="45.1933338" lon="7.9199925"><ele>180.0</ele><time>2026-05-02T09:40:27.009Z</time></trkpt><trkpt lat="45.1933569" lon="7.9201437"><ele>180.0</ele><time>2026-05-02T09:40:32.017Z</time></trkpt><trkpt lat="45.1933647" lon="7.9202489"><ele>180.0</ele><time>2026-05-02T09:40:45.014Z</time></trkpt><trkpt lat="45.1934043" lon="7.9203938"><ele>179.66666666666666</ele><time>2026-05-02T09:40:52.013Z</time></trkpt><trkpt lat="45.193421" lon="7.9204955"><ele>179.33333333333334</ele><time>2026-05-02T09:41:06.023Z</time></trkpt><trkpt lat="45.1934208" lon="7.9206152"><ele>179.0</ele><time>2026-05-02T09:41:08.01Z</time></trkpt><trkpt lat="45.1934275" lon="7.9207843"><ele>178.66666666666669</ele><time>2026-05-02T09:41:10.017Z</time></trkpt><trkpt lat="45.193437" lon="7.920888"><ele>178.33333333333334</ele><time>2026-05-02T09:41:11.016Z</time></trkpt><trkpt lat="45.1934474" lon="7.9210013"><ele>178.0</ele><time>2026-05-02T09:41:12.008Z</time></trkpt><trkpt lat="45.193458" lon="7.9211238"><ele>178.0</ele><time>2026-05-02T09:41:13.005Z</time></trkpt><trkpt lat="45.1934703" lon="7.9212579"><ele>178.0</ele><time>2026-05-02T09:41:14.01Z</time></trkpt><trkpt lat="45.193483" lon="7.9214015"><ele>178.0</ele><time>2026-05-02T09:41:15.006Z</time></trkpt><trkpt lat="45.1934969" lon="7.9215528"><ele>178.0</ele><time>2026-05-02T09:41:16.005Z</time></trkpt><trkpt lat="45.1935091" lon="7.9217091"><ele>178.0</ele><time>2026-05-02T09:41:17.009Z</time></trkpt><trkpt lat="45.1935222" lon="7.9218695"><ele>178.25</ele><time>2026-05-02T09:41:18.007Z</time></trkpt><trkpt lat="45.1935361" lon="7.922035"><ele>178.5</ele><time>2026-05-02T09:41:19.005Z</time></trkpt><trkpt lat="45.1935505" lon="7.9222029"><ele>178.75</ele><time>2026-05-02T09:41:20.01Z</time></trkpt><trkpt lat="45.193565" lon="7.9223706"><ele>179.0</ele><time>2026-05-02T09:41:21.005Z</time></trkpt><trkpt lat="45.19358" lon="7.9225382"><ele>179.0</ele><time>2026-05-02T09:41:22.002Z</time></trkpt><trkpt lat="45.1935957" lon="7.922707"><ele>179.0</ele><time>2026-05-02T09:41:23.007Z</time></trkpt><trkpt lat="45.1936104" lon="7.9228781"><ele>179.0</ele><time>2026-05-02T09:41:24.018Z</time></trkpt><trkpt lat="45.1936242" lon="7.923052"><ele>179.0</ele><time>2026-05-02T09:41:25.014Z</time></trkpt><trkpt lat="45.1936384" lon="7.9232267"><ele>179.25</ele><time>2026-05-02T09:41:26.003Z</time></trkpt><trkpt lat="45.1936541" lon="7.9233973"><ele>179.5</ele><time>2026-05-02T09:41:27.002Z</time></trkpt><trkpt lat="45.193667" lon="7.92358"><ele>179.75</ele><time>2026-05-02T09:41:28.016Z</time></trkpt><trkpt lat="45.1936787" lon="7.923767"><ele>180.0</ele><time>2026-05-02T09:41:29.005Z</time></trkpt><trkpt lat="45.1936967" lon="7.9239518"><ele>180.0</ele><time>2026-05-02T09:41:30.013Z</time></trkpt><trkpt lat="45.1937129" lon="7.9241325"><ele>180.0</ele><time>2026-05-02T09:41:31.005Z</time></trkpt><trkpt lat="45.1937261" lon="7.9243104"><ele>180.0</ele><time>2026-05-02T09:41:32.002Z</time></trkpt><trkpt lat="45.1937399" lon="7.9244931"><ele>180.0</ele><time>2026-05-02T09:41:33.012Z</time></trkpt><trkpt lat="45.1937552" lon="7.9246761"><ele>179.5</ele><time>2026-05-02T09:41:34.012Z</time></trkpt><trkpt lat="45.1937676" lon="7.9248605"><ele>179.0</ele><time>2026-05-02T09:41:35.01Z</time></trkpt><trkpt lat="45.1937776" lon="7.9250473"><ele>178.5</ele><time>2026-05-02T09:41:36.002Z</time></trkpt><trkpt lat="45.1937892" lon="7.9252347"><ele>178.0</ele><time>2026-05-02T09:41:37.004Z</time></trkpt><trkpt lat="45.193806" lon="7.9254244"><ele>177.25</ele><time>2026-05-02T09:41:38.004Z</time></trkpt><trkpt lat="45.1938225" lon="7.9256151"><ele>176.5</ele><time>2026-05-02T09:41:39.005Z</time></trkpt><trkpt lat="45.1938372" lon="7.9258023"><ele>175.75</ele><time>2026-05-02T09:41:40.008Z</time></trkpt><trkpt lat="45.1938519" lon="7.9259892"><ele>175.0</ele><time>2026-05-02T09:41:41.007Z</time></trkpt><trkpt lat="45.1938672" lon="7.926175"><ele>175.0</ele><time>2026-05-02T09:41:42.007Z</time></trkpt><trkpt lat="45.1938826" lon="7.9263615"><ele>175.0</ele><time>2026-05-02T09:41:43.016Z</time></trkpt><trkpt lat="45.1938976" lon="7.9265432"><ele>175.0</ele><time>2026-05-02T09:41:44.012Z</time></trkpt><trkpt lat="45.193915" lon="7.9267251"><ele>175.0</ele><time>2026-05-02T09:41:45.012Z</time></trkpt><trkpt lat="45.1939303" lon="7.9269083"><ele>175.25</ele><time>2026-05-02T09:41:46.013Z</time></trkpt><trkpt lat="45.193945" lon="7.9270879"><ele>175.5</ele><time>2026-05-02T09:41:47.009Z</time></trkpt><trkpt lat="45.1939639" lon="7.9272694"><ele>175.75</ele><time>2026-05-02T09:41:48.01Z</time></trkpt><trkpt lat="45.1939799" lon="7.9274491"><ele>176.0</ele><time>2026-05-02T09:41:49.011Z</time></trkpt><trkpt lat="45.1939978" lon="7.9276296"><ele>176.25</ele><time>2026-05-02T09:41:50.008Z</time></trkpt><trkpt lat="45.194014" lon="7.9278085"><ele>176.5</ele><time>2026-05-02T09:41:51.002Z</time></trkpt><trkpt lat="45.1940311" lon="7.9279847"><ele>176.75</ele><time>2026-05-02T09:41:52.009Z</time></trkpt><trkpt lat="45.1940472" lon="7.9281618"><ele>177.0</ele><time>2026-05-02T09:41:53.012Z</time></trkpt><trkpt lat="45.1940625" lon="7.928335"><ele>177.25</ele><time>2026-05-02T09:41:54.012Z</time></trkpt><trkpt lat="45.1940774" lon="7.928507"><ele>177.5</ele><time>2026-05-02T09:41:55.007Z</time></trkpt><trkpt lat="45.1940923" lon="7.9286806"><ele>177.75</ele><time>2026-05-02T09:41:56.015Z</time></trkpt><trkpt lat="45.1941071" lon="7.9288577"><ele>178.0</ele><time>2026-05-02T09:41:57.015Z</time></trkpt><trkpt lat="45.1941241" lon="7.9290314"><ele>178.0</ele><time>2026-05-02T09:41:58.01Z</time></trkpt><trkpt lat="45.1941406" lon="7.9292034"><ele>178.0</ele><time>2026-05-02T09:41:59.018Z</time></trkpt><trkpt lat="45.1941567" lon="7.9293756"><ele>178.0</ele><time>2026-05-02T09:42:00.004Z</time></trkpt><trkpt lat="45.194174" lon="7.9295449"><ele>178.0</ele><time>2026-05-02T09:42:01.007Z</time></trkpt><trkpt lat="45.194191" lon="7.9297111"><ele>178.0</ele><time>2026-05-02T09:42:02.009Z</time></trkpt><trkpt lat="45.1942089" lon="7.929875"><ele>178.0</ele><time>2026-05-02T09:42:03.024Z</time></trkpt><trkpt lat="45.1942295" lon="7.9300373"><ele>178.0</ele><time>2026-05-02T09:42:04.012Z</time></trkpt><trkpt lat="45.1942496" lon="7.9301986"><ele>178.0</ele><time>2026-05-02T09:42:05.011Z</time></trkpt><trkpt lat="45.1942666" lon="7.9303597"><ele>178.0</ele><time>2026-05-02T09:42:06.009Z</time></trkpt><trkpt lat="45.1942788" lon="7.9305245"><ele>178.0</ele><time>2026-05-02T09:42:07.019Z</time></trkpt><trkpt lat="45.1942862" lon="7.930693"><ele>178.0</ele><time>2026-05-02T09:42:08.015Z</time></trkpt><trkpt lat="45.1942904" lon="7.9308615"><ele>178.0</ele><time>2026-05-02T09:42:09.002Z</time></trkpt><trkpt lat="45.1942966" lon="7.9310179"><ele>178.0</ele><time>2026-05-02T09:42:10.016Z</time></trkpt><trkpt lat="45.1943036" lon="7.9311646"><ele>178.0</ele><time>2026-05-02T09:42:11.014Z</time></trkpt><trkpt lat="45.194313" lon="7.9313096"><ele>178.0</ele><time>2026-05-02T09:42:12.018Z</time></trkpt><trkpt lat="45.194323" lon="7.9314567"><ele>178.0</ele><time>2026-05-02T09:42:13.006Z</time></trkpt><trkpt lat="45.1943351" lon="7.9316023"><ele>178.0</ele><time>2026-05-02T09:42:14.014Z</time></trkpt><trkpt lat="45.1943487" lon="7.931746"><ele>177.8</ele><time>2026-05-02T09:42:15.021Z</time></trkpt><trkpt lat="45.1943641" lon="7.9318897"><ele>177.60000000000002</ele><time>2026-05-02T09:42:16Z</time></trkpt><trkpt lat="45.1943762" lon="7.9320355"><ele>177.39999999999998</ele><time>2026-05-02T09:42:17.011Z</time></trkpt><trkpt lat="45.1943906" lon="7.932182"><ele>177.2</ele><time>2026-05-02T09:42:18.015Z</time></trkpt><trkpt lat="45.194405" lon="7.9323262"><ele>177.0</ele><time>2026-05-02T09:42:19.011Z</time></trkpt><trkpt lat="45.1944184" lon="7.9324621"><ele>176.85714285714286</ele><time>2026-05-02T09:42:20.015Z</time></trkpt><trkpt lat="45.1944289" lon="7.9325796"><ele>176.7142857142857</ele><time>2026-05-02T09:42:21.013Z</time></trkpt><trkpt lat="45.1944386" lon="7.9326818"><ele>176.57142857142856</ele><time>2026-05-02T09:42:22.016Z</time></trkpt><trkpt lat="45.1944457" lon="7.9327782"><ele>176.42857142857144</ele><time>2026-05-02T09:42:23.016Z</time></trkpt><trkpt lat="45.194456" lon="7.9328752"><ele>176.28571428571428</ele><time>2026-05-02T09:42:24.009Z</time></trkpt><trkpt lat="45.1944662" lon="7.9329738"><ele>176.14285714285714</ele><time>2026-05-02T09:42:25.001Z</time></trkpt><trkpt lat="45.1944784" lon="7.9330744"><ele>176.0</ele><time>2026-05-02T09:42:26.008Z</time></trkpt><trkpt lat="45.1944934" lon="7.9331709"><ele>176.0</ele><time>2026-05-02T09:42:27.011Z</time></trkpt><trkpt lat="45.1945256" lon="7.9333018"><ele>176.0</ele><time>2026-05-02T09:42:29.023Z</time></trkpt><trkpt lat="45.1945412" lon="7.9334264"><ele>176.0</ele><time>2026-05-02T09:42:32.015Z</time></trkpt><trkpt lat="45.1945408" lon="7.9335943"><ele>176.0</ele><time>2026-05-02T09:42:34.014Z</time></trkpt><trkpt lat="45.194543" lon="7.9337019"><ele>176.0</ele><time>2026-05-02T09:42:35.003Z</time></trkpt><trkpt lat="45.1945489" lon="7.9338293"><ele>176.20000000000002</ele><time>2026-05-02T09:42:36.006Z</time></trkpt><trkpt lat="45.194556" lon="7.9339687"><ele>176.4</ele><time>2026-05-02T09:42:37.003Z</time></trkpt><trkpt lat="45.1945659" lon="7.9341239"><ele>176.6</ele><time>2026-05-02T09:42:38.009Z</time></trkpt><trkpt lat="45.1945779" lon="7.9342882"><ele>176.8</ele><time>2026-05-02T09:42:39.014Z</time></trkpt><trkpt lat="45.1945908" lon="7.9344569"><ele>177.0</ele><time>2026-05-02T09:42:40.007Z</time></trkpt><trkpt lat="45.1946047" lon="7.9346303"><ele>177.0</ele><time>2026-05-02T09:42:41.011Z</time></trkpt><trkpt lat="45.1946202" lon="7.9348053"><ele>177.0</ele><time>2026-05-02T09:42:42.005Z</time></trkpt><trkpt lat="45.1946353" lon="7.934984"><ele>177.0</ele><time>2026-05-02T09:42:43.009Z</time></trkpt><trkpt lat="45.1946521" lon="7.9351653"><ele>177.0</ele><time>2026-05-02T09:42:44.01Z</time></trkpt><trkpt lat="45.1946657" lon="7.9353502"><ele>177.5</ele><time>2026-05-02T09:42:45.007Z</time></trkpt><trkpt lat="45.1946784" lon="7.9355368"><ele>178.0</ele><time>2026-05-02T09:42:46.008Z</time></trkpt><trkpt lat="45.1946904" lon="7.9357265"><ele>178.5</ele><time>2026-05-02T09:42:47.002Z</time></trkpt><trkpt lat="45.1947003" lon="7.9359184"><ele>179.0</ele><time>2026-05-02T09:42:48.013Z</time></trkpt><trkpt lat="45.1947072" lon="7.9361141"><ele>178.75</ele><time>2026-05-02T09:42:49.013Z</time></trkpt><trkpt lat="45.1947081" lon="7.9363124"><ele>178.5</ele><time>2026-05-02T09:42:50.016Z</time></trkpt><trkpt lat="45.194703" lon="7.9365121"><ele>178.25</ele><time>2026-05-02T09:42:51.016Z</time></trkpt><trkpt lat="45.1946928" lon="7.9367145"><ele>178.0</ele><time>2026-05-02T09:42:52.011Z</time></trkpt><trkpt lat="45.1946805" lon="7.936919"><ele>178.0</ele><time>2026-05-02T09:42:52.999Z</time></trkpt><trkpt lat="45.1946649" lon="7.9371241"><ele>178.0</ele><time>2026-05-02T09:42:54.007Z</time></trkpt><trkpt lat="45.1946473" lon="7.937328"><ele>178.0</ele><time>2026-05-02T09:42:55.01Z</time></trkpt><trkpt lat="45.1946316" lon="7.9375323"><ele>178.0</ele><time>2026-05-02T09:42:56.009Z</time></trkpt><trkpt lat="45.194616" lon="7.9377371"><ele>177.75</ele><time>2026-05-02T09:42:57.009Z</time></trkpt><trkpt lat="45.1945979" lon="7.9379429"><ele>177.5</ele><time>2026-05-02T09:42:58.015Z</time></trkpt><trkpt lat="45.1945796" lon="7.938147"><ele>177.25</ele><time>2026-05-02T09:42:59.005Z</time></trkpt><trkpt lat="45.1945655" lon="7.9383526"><ele>177.0</ele><time>2026-05-02T09:43:00.013Z</time></trkpt><trkpt lat="45.1945518" lon="7.9385568"><ele>177.25</ele><time>2026-05-02T09:43:01.007Z</time></trkpt><trkpt lat="45.1945342" lon="7.9387584"><ele>177.5</ele><time>2026-05-02T09:43:02.003Z</time></trkpt><trkpt lat="45.1945168" lon="7.9389534"><ele>177.75</ele><time>2026-05-02T09:43:02.998Z</time></trkpt><trkpt lat="45.1945003" lon="7.9391455"><ele>178.0</ele><time>2026-05-02T09:43:04.005Z</time></trkpt><trkpt lat="45.1944872" lon="7.9393343"><ele>178.0</ele><time>2026-05-02T09:43:05.011Z</time></trkpt><trkpt lat="45.1944728" lon="7.939524"><ele>178.0</ele><time>2026-05-02T09:43:06.013Z</time></trkpt><trkpt lat="45.1944582" lon="7.9397143"><ele>178.0</ele><time>2026-05-02T09:43:07.009Z</time></trkpt><trkpt lat="45.1944427" lon="7.9399037"><ele>178.0</ele><time>2026-05-02T09:43:07.997Z</time></trkpt><trkpt lat="45.1944258" lon="7.9400933"><ele>178.5</ele><time>2026-05-02T09:43:08.998Z</time></trkpt><trkpt lat="45.194408" lon="7.9402814"><ele>179.0</ele><time>2026-05-02T09:43:10.006Z</time></trkpt><trkpt lat="45.1943901" lon="7.9404686"><ele>179.5</ele><time>2026-05-02T09:43:11.007Z</time></trkpt><trkpt lat="45.1943742" lon="7.9406528"><ele>180.0</ele><time>2026-05-02T09:43:12.014Z</time></trkpt><trkpt lat="45.1943583" lon="7.9408357"><ele>179.5</ele><time>2026-05-02T09:43:13.006Z</time></trkpt><trkpt lat="45.194344" lon="7.9410173"><ele>179.0</ele><time>2026-05-02T09:43:14.013Z</time></trkpt><trkpt lat="45.1943309" lon="7.9411978"><ele>178.5</ele><time>2026-05-02T09:43:15Z</time></trkpt><trkpt lat="45.1943174" lon="7.9413753"><ele>178.0</ele><time>2026-05-02T09:43:15.998Z</time></trkpt><trkpt lat="45.1943024" lon="7.9415517"><ele>178.25</ele><time>2026-05-02T09:43:17.003Z</time></trkpt><trkpt lat="45.1942887" lon="7.94173"><ele>178.5</ele><time>2026-05-02T09:43:18.004Z</time></trkpt><trkpt lat="45.1942781" lon="7.94191"><ele>178.75</ele><time>2026-05-02T09:43:19.006Z</time></trkpt><trkpt lat="45.1942665" lon="7.9420919"><ele>179.0</ele><time>2026-05-02T09:43:20.012Z</time></trkpt><trkpt lat="45.1942524" lon="7.9422736"><ele>179.0</ele><time>2026-05-02T09:43:21.01Z</time></trkpt><trkpt lat="45.1942387" lon="7.9424521"><ele>179.0</ele><time>2026-05-02T09:43:22.005Z</time></trkpt><trkpt lat="45.1942279" lon="7.9426276"><ele>179.0</ele><time>2026-05-02T09:43:23.005Z</time></trkpt><trkpt lat="45.1942186" lon="7.9428002"><ele>179.0</ele><time>2026-05-02T09:43:23.998Z</time></trkpt><trkpt lat="45.1942089" lon="7.942971"><ele>178.5</ele><time>2026-05-02T09:43:25.008Z</time></trkpt><trkpt lat="45.194197" lon="7.9431448"><ele>178.0</ele><time>2026-05-02T09:43:26.008Z</time></trkpt><trkpt lat="45.1941854" lon="7.9433238"><ele>177.5</ele><time>2026-05-02T09:43:27.009Z</time></trkpt><trkpt lat="45.1941754" lon="7.9435085"><ele>177.0</ele><time>2026-05-02T09:43:28.011Z</time></trkpt><trkpt lat="45.194164" lon="7.9436971"><ele>177.0</ele><time>2026-05-02T09:43:29.009Z</time></trkpt><trkpt lat="45.19415" lon="7.9438868"><ele>177.0</ele><time>2026-05-02T09:43:30.02Z</time></trkpt><trkpt lat="45.1941358" lon="7.9440761"><ele>177.0</ele><time>2026-05-02T09:43:31.006Z</time></trkpt><trkpt lat="45.1941216" lon="7.9442671"><ele>177.0</ele><time>2026-05-02T09:43:32.006Z</time></trkpt><trkpt lat="45.1941078" lon="7.9444576"><ele>177.25</ele><time>2026-05-02T09:43:33.006Z</time></trkpt><trkpt lat="45.1940943" lon="7.9446473"><ele>177.5</ele><time>2026-05-02T09:43:33.999Z</time></trkpt><trkpt lat="45.1940808" lon="7.9448376"><ele>177.75</ele><time>2026-05-02T09:43:35.016Z</time></trkpt><trkpt lat="45.1940677" lon="7.945028"><ele>178.0</ele><time>2026-05-02T09:43:36.011Z</time></trkpt><trkpt lat="45.1940535" lon="7.9452166"><ele>177.75</ele><time>2026-05-02T09:43:36.997Z</time></trkpt><trkpt lat="45.1940381" lon="7.9454044"><ele>177.5</ele><time>2026-05-02T09:43:38.003Z</time></trkpt><trkpt lat="45.1940252" lon="7.9455901"><ele>177.25</ele><time>2026-05-02T09:43:39.014Z</time></trkpt><trkpt lat="45.1940124" lon="7.9457745"><ele>177.0</ele><time>2026-05-02T09:43:40.014Z</time></trkpt><trkpt lat="45.1939975" lon="7.9459559"><ele>177.0</ele><time>2026-05-02T09:43:41.003Z</time></trkpt><trkpt lat="45.1939814" lon="7.9461378"><ele>177.0</ele><time>2026-05-02T09:43:42.007Z</time></trkpt><trkpt lat="45.193969" lon="7.9463208"><ele>177.0</ele><time>2026-05-02T09:43:43.012Z</time></trkpt><trkpt lat="45.1939578" lon="7.946505"><ele>177.0</ele><time>2026-05-02T09:43:44.005Z</time></trkpt><trkpt lat="45.193944" lon="7.9466892"><ele>177.75</ele><time>2026-05-02T09:43:45.014Z</time></trkpt><trkpt lat="45.1939297" lon="7.9468736"><ele>178.5</ele><time>2026-05-02T09:43:46.008Z</time></trkpt><trkpt lat="45.1939145" lon="7.9470576"><ele>179.25</ele><time>2026-05-02T09:43:47.001Z</time></trkpt><trkpt lat="45.1938998" lon="7.9472414"><ele>180.0</ele><time>2026-05-02T09:43:48.011Z</time></trkpt><trkpt lat="45.1938856" lon="7.9474218"><ele>179.6</ele><time>2026-05-02T09:43:49.004Z</time></trkpt><trkpt lat="45.1938752" lon="7.9475866"><ele>179.2</ele><time>2026-05-02T09:43:50.008Z</time></trkpt><trkpt lat="45.1938666" lon="7.9477391"><ele>178.8</ele><time>2026-05-02T09:43:50.998Z</time></trkpt><trkpt lat="45.1938594" lon="7.9478893"><ele>178.4</ele><time>2026-05-02T09:43:52.005Z</time></trkpt><trkpt lat="45.1938531" lon="7.9480385"><ele>178.0</ele><time>2026-05-02T09:43:53.01Z</time></trkpt><trkpt lat="45.1938482" lon="7.9481768"><ele>178.0</ele><time>2026-05-02T09:43:54.011Z</time></trkpt><trkpt lat="45.1938443" lon="7.9483039"><ele>178.0</ele><time>2026-05-02T09:43:55.013Z</time></trkpt><trkpt lat="45.1938404" lon="7.9484222"><ele>178.0</ele><time>2026-05-02T09:43:56.007Z</time></trkpt><trkpt lat="45.1938359" lon="7.9485327"><ele>178.0</ele><time>2026-05-02T09:43:57.012Z</time></trkpt><trkpt lat="45.1938295" lon="7.9486367"><ele>178.0</ele><time>2026-05-02T09:43:58.007Z</time></trkpt><trkpt lat="45.1938249" lon="7.9487344"><ele>178.0</ele><time>2026-05-02T09:43:59.01Z</time></trkpt><trkpt lat="45.1938203" lon="7.9488979"><ele>177.5</ele><time>2026-05-02T09:44:01.018Z</time></trkpt><trkpt lat="45.1938319" lon="7.9490036"><ele>177.0</ele><time>2026-05-02T09:44:03.011Z</time></trkpt><trkpt lat="45.1938099" lon="7.9491166"><ele>176.5</ele><time>2026-05-02T09:44:06.01Z</time></trkpt><trkpt lat="45.1937009" lon="7.949201"><ele>176.0</ele><time>2026-05-02T09:44:08.008Z</time></trkpt><trkpt lat="45.1936324" lon="7.9492589"><ele>175.5</ele><time>2026-05-02T09:44:09.01Z</time></trkpt><trkpt lat="45.1935632" lon="7.9493157"><ele>175.0</ele><time>2026-05-02T09:44:10.012Z</time></trkpt><trkpt lat="45.1935058" lon="7.9493633"><ele>175.0</ele><time>2026-05-02T09:44:11.014Z</time></trkpt><trkpt lat="45.1934107" lon="7.9494373"><ele>175.0</ele><time>2026-05-02T09:44:13.013Z</time></trkpt><trkpt lat="45.1933481" lon="7.9494821"><ele>175.0</ele><time>2026-05-02T09:44:15.019Z</time></trkpt><trkpt lat="45.1932845" lon="7.94955"><ele>175.0</ele><time>2026-05-02T09:44:19.005Z</time></trkpt><trkpt lat="45.1933227" lon="7.9496876"><ele>175.0</ele><time>2026-05-02T09:44:22.004Z</time></trkpt><trkpt lat="45.1933395" lon="7.9498336"><ele>175.0</ele><time>2026-05-02T09:44:24.005Z</time></trkpt><trkpt lat="45.1933429" lon="7.9499282"><ele>175.0</ele><time>2026-05-02T09:44:25.015Z</time></trkpt><trkpt lat="45.193344" lon="7.9500351"><ele>175.0</ele><time>2026-05-02T09:44:26.017Z</time></trkpt><trkpt lat="45.1933417" lon="7.950149"><ele>175.0</ele><time>2026-05-02T09:44:27.011Z</time></trkpt><trkpt lat="45.1933376" lon="7.9502709"><ele>175.0</ele><time>2026-05-02T09:44:28.01Z</time></trkpt><trkpt lat="45.1933333" lon="7.9503862"><ele>175.0</ele><time>2026-05-02T09:44:29.01Z</time></trkpt><trkpt lat="45.1933297" lon="7.9504934"><ele>175.14285714285714</ele><time>2026-05-02T09:44:30.011Z</time></trkpt><trkpt lat="45.1933268" lon="7.9505904"><ele>175.28571428571428</ele><time>2026-05-02T09:44:31.007Z</time></trkpt><trkpt lat="45.1933229" lon="7.9506828"><ele>175.42857142857144</ele><time>2026-05-02T09:44:32.014Z</time></trkpt><trkpt lat="45.1933201" lon="7.9507774"><ele>175.57142857142856</ele><time>2026-05-02T09:44:33.002Z</time></trkpt><trkpt lat="45.1933179" lon="7.9508757"><ele>175.71428571428572</ele><time>2026-05-02T09:44:34.009Z</time></trkpt><trkpt lat="45.1933161" lon="7.9509815"><ele>175.85714285714286</ele><time>2026-05-02T09:44:35.012Z</time></trkpt><trkpt lat="45.1933144" lon="7.9510959"><ele>176.0</ele><time>2026-05-02T09:44:36.008Z</time></trkpt><trkpt lat="45.1933128" lon="7.9512158"><ele>176.0</ele><time>2026-05-02T09:44:37.018Z</time></trkpt><trkpt lat="45.1933175" lon="7.9513478"><ele>176.0</ele><time>2026-05-02T09:44:38.013Z</time></trkpt><trkpt lat="45.1933247" lon="7.9514842"><ele>176.0</ele><time>2026-05-02T09:44:39.014Z</time></trkpt><trkpt lat="45.1933376" lon="7.9516257"><ele>176.0</ele><time>2026-05-02T09:44:40.01Z</time></trkpt><trkpt lat="45.1933549" lon="7.9517692"><ele>176.0</ele><time>2026-05-02T09:44:41.006Z</time></trkpt><trkpt lat="45.1933757" lon="7.9519151"><ele>176.20000000000002</ele><time>2026-05-02T09:44:42.007Z</time></trkpt><trkpt lat="45.1934028" lon="7.9520621"><ele>176.4</ele><time>2026-05-02T09:44:43.007Z</time></trkpt><trkpt lat="45.193435" lon="7.9522096"><ele>176.6</ele><time>2026-05-02T09:44:44.012Z</time></trkpt><trkpt lat="45.1934699" lon="7.9523587"><ele>176.8</ele><time>2026-05-02T09:44:45.009Z</time></trkpt><trkpt lat="45.193504" lon="7.9525036"><ele>177.0</ele><time>2026-05-02T09:44:46.006Z</time></trkpt><trkpt lat="45.1935401" lon="7.9526459"><ele>177.2</ele><time>2026-05-02T09:44:47.001Z</time></trkpt><trkpt lat="45.1935772" lon="7.952787"><ele>177.39999999999998</ele><time>2026-05-02T09:44:48.001Z</time></trkpt><trkpt lat="45.1936138" lon="7.9529332"><ele>177.60000000000002</ele><time>2026-05-02T09:44:49Z</time></trkpt><trkpt lat="45.1936496" lon="7.9530798"><ele>177.8</ele><time>2026-05-02T09:44:50.003Z</time></trkpt><trkpt lat="45.1936839" lon="7.9532275"><ele>178.0</ele><time>2026-05-02T09:44:51.021Z</time></trkpt><trkpt lat="45.1937155" lon="7.9533767"><ele>178.0</ele><time>2026-05-02T09:44:52.007Z</time></trkpt><trkpt lat="45.1937432" lon="7.9535278"><ele>178.0</ele><time>2026-05-02T09:44:53.015Z</time></trkpt><trkpt lat="45.193767" lon="7.9536806"><ele>178.0</ele><time>2026-05-02T09:44:54.009Z</time></trkpt><trkpt lat="45.193787" lon="7.9538374"><ele>178.0</ele><time>2026-05-02T09:44:55.012Z</time></trkpt><trkpt lat="45.1938013" lon="7.9539946"><ele>178.0</ele><time>2026-05-02T09:44:56.018Z</time></trkpt><trkpt lat="45.1938113" lon="7.9541535"><ele>177.75</ele><time>2026-05-02T09:44:57.001Z</time></trkpt><trkpt lat="45.1938184" lon="7.9543181"><ele>177.5</ele><time>2026-05-02T09:44:58.007Z</time></trkpt><trkpt lat="45.1938243" lon="7.9544892"><ele>177.25</ele><time>2026-05-02T09:44:59.007Z</time></trkpt><trkpt lat="45.1938309" lon="7.9546658"><ele>177.0</ele><time>2026-05-02T09:45:00.014Z</time></trkpt><trkpt lat="45.1938365" lon="7.9548486"><ele>177.0</ele><time>2026-05-02T09:45:01.009Z</time></trkpt><trkpt lat="45.1938411" lon="7.9550317"><ele>177.0</ele><time>2026-05-02T09:45:02.005Z</time></trkpt><trkpt lat="45.1938453" lon="7.9552209"><ele>177.0</ele><time>2026-05-02T09:45:03.007Z</time></trkpt><trkpt lat="45.1938505" lon="7.955414"><ele>177.0</ele><time>2026-05-02T09:45:04.013Z</time></trkpt><trkpt lat="45.1938552" lon="7.9556021"><ele>177.25</ele><time>2026-05-02T09:45:05.006Z</time></trkpt><trkpt lat="45.1938605" lon="7.9557821"><ele>177.5</ele><time>2026-05-02T09:45:06.008Z</time></trkpt><trkpt lat="45.1938661" lon="7.9559509"><ele>177.75</ele><time>2026-05-02T09:45:07.012Z</time></trkpt><trkpt lat="45.1938708" lon="7.9561168"><ele>178.0</ele><time>2026-05-02T09:45:08.006Z</time></trkpt><trkpt lat="45.193873" lon="7.9562795"><ele>178.0</ele><time>2026-05-02T09:45:09.018Z</time></trkpt><trkpt lat="45.193876" lon="7.9564354"><ele>178.0</ele><time>2026-05-02T09:45:10.012Z</time></trkpt><trkpt lat="45.1938797" lon="7.9565796"><ele>178.0</ele><time>2026-05-02T09:45:11.017Z</time></trkpt><trkpt lat="45.1938831" lon="7.956714"><ele>178.0</ele><time>2026-05-02T09:45:12.018Z</time></trkpt><trkpt lat="45.1938855" lon="7.9568487"><ele>178.0</ele><time>2026-05-02T09:45:13.011Z</time></trkpt><trkpt lat="45.1938852" lon="7.9569834"><ele>177.83333333333334</ele><time>2026-05-02T09:45:14.009Z</time></trkpt><trkpt lat="45.1938801" lon="7.9571181"><ele>177.66666666666669</ele><time>2026-05-02T09:45:15.018Z</time></trkpt><trkpt lat="45.1938668" lon="7.9572498"><ele>177.5</ele><time>2026-05-02T09:45:16.016Z</time></trkpt><trkpt lat="45.1938459" lon="7.957367"><ele>177.33333333333334</ele><time>2026-05-02T09:45:17.018Z</time></trkpt><trkpt lat="45.1938219" lon="7.9574713"><ele>177.16666666666666</ele><time>2026-05-02T09:45:18.018Z</time></trkpt><trkpt lat="45.193802" lon="7.9575687"><ele>177.0</ele><time>2026-05-02T09:45:19Z</time></trkpt><trkpt lat="45.193791" lon="7.9576639"><ele>176.66666666666666</ele><time>2026-05-02T09:45:20.002Z</time></trkpt><trkpt lat="45.1937882" lon="7.9577532"><ele>176.33333333333334</ele><time>2026-05-02T09:45:21.011Z</time></trkpt><trkpt lat="45.1937912" lon="7.9579031"><ele>176.0</ele><time>2026-05-02T09:45:23.017Z</time></trkpt><trkpt lat="45.1938006" lon="7.9580228"><ele>175.66666666666669</ele><time>2026-05-02T09:45:24.999Z</time></trkpt><trkpt lat="45.1937994" lon="7.9581332"><ele>175.33333333333334</ele><time>2026-05-02T09:45:27.006Z</time></trkpt><trkpt lat="45.193811" lon="7.9579954"><ele>175.0</ele><time>2026-05-02T09:45:39.043Z</time></trkpt><trkpt lat="45.1938031" lon="7.957904"><ele>175.0</ele><time>2026-05-02T09:45:40.01Z</time></trkpt><trkpt lat="45.1937973" lon="7.9577881"><ele>175.0</ele><time>2026-05-02T09:45:41.002Z</time></trkpt><trkpt lat="45.1937914" lon="7.9576712"><ele>175.0</ele><time>2026-05-02T09:45:42.022Z</time></trkpt><trkpt lat="45.1938069" lon="7.9575573"><ele>175.0</ele><time>2026-05-02T09:45:43.002Z</time></trkpt><trkpt lat="45.1938338" lon="7.9574555"><ele>175.0</ele><time>2026-05-02T09:45:44.009Z</time></trkpt><trkpt lat="45.1938589" lon="7.9573609"><ele>175.0</ele><time>2026-05-02T09:45:45.005Z</time></trkpt><trkpt lat="45.1938746" lon="7.9572481"><ele>175.4</ele><time>2026-05-02T09:45:46.016Z</time></trkpt><trkpt lat="45.1938823" lon="7.9571284"><ele>175.8</ele><time>2026-05-02T09:45:47.008Z</time></trkpt><trkpt lat="45.1938908" lon="7.9570058"><ele>176.2</ele><time>2026-05-02T09:45:48.019Z</time></trkpt><trkpt lat="45.1938925" lon="7.9568718"><ele>176.6</ele><time>2026-05-02T09:45:49.006Z</time></trkpt><trkpt lat="45.193895" lon="7.9567273"><ele>177.0</ele><time>2026-05-02T09:45:50.002Z</time></trkpt><trkpt lat="45.1938924" lon="7.9565778"><ele>177.25</ele><time>2026-05-02T09:45:51.004Z</time></trkpt><trkpt lat="45.1938869" lon="7.9564184"><ele>177.5</ele><time>2026-05-02T09:45:52.01Z</time></trkpt><trkpt lat="45.1938833" lon="7.9562493"><ele>177.75</ele><time>2026-05-02T09:45:53.007Z</time></trkpt><trkpt lat="45.1938809" lon="7.9560712"><ele>178.0</ele><time>2026-05-02T09:45:54.003Z</time></trkpt><trkpt lat="45.1938787" lon="7.9558884"><ele>178.25</ele><time>2026-05-02T09:45:55.014Z</time></trkpt><trkpt lat="45.1938752" lon="7.9557019"><ele>178.5</ele><time>2026-05-02T09:45:56.007Z</time></trkpt><trkpt lat="45.193868" lon="7.9555157"><ele>178.75</ele><time>2026-05-02T09:45:57.018Z</time></trkpt><trkpt lat="45.1938619" lon="7.9553302"><ele>179.0</ele><time>2026-05-02T09:45:58.001Z</time></trkpt><trkpt lat="45.1938565" lon="7.9551466"><ele>178.5</ele><time>2026-05-02T09:45:59.005Z</time></trkpt><trkpt lat="45.1938528" lon="7.9549668"><ele>178.0</ele><time>2026-05-02T09:46:00.009Z</time></trkpt><trkpt lat="45.1938484" lon="7.9547926"><ele>177.5</ele><time>2026-05-02T09:46:01.009Z</time></trkpt><trkpt lat="45.1938433" lon="7.9546267"><ele>177.0</ele><time>2026-05-02T09:46:02.001Z</time></trkpt><trkpt lat="45.1938379" lon="7.9544673"><ele>177.0</ele><time>2026-05-02T09:46:03.01Z</time></trkpt><trkpt lat="45.1938318" lon="7.9543103"><ele>177.0</ele><time>2026-05-02T09:46:04.008Z</time></trkpt><trkpt lat="45.1938241" lon="7.954153"><ele>177.0</ele><time>2026-05-02T09:46:05.005Z</time></trkpt><trkpt lat="45.193813" lon="7.9539953"><ele>177.0</ele><time>2026-05-02T09:46:06.015Z</time></trkpt><trkpt lat="45.193799" lon="7.9538368"><ele>177.0</ele><time>2026-05-02T09:46:07.01Z</time></trkpt><trkpt lat="45.1937842" lon="7.9536772"><ele>177.25</ele><time>2026-05-02T09:46:08.009Z</time></trkpt><trkpt lat="45.1937586" lon="7.9535156"><ele>177.5</ele><time>2026-05-02T09:46:09.01Z</time></trkpt><trkpt lat="45.1937269" lon="7.9533487"><ele>177.75</ele><time>2026-05-02T09:46:10.004Z</time></trkpt><trkpt lat="45.1936945" lon="7.9531783"><ele>178.0</ele><time>2026-05-02T09:46:11.015Z</time></trkpt><trkpt lat="45.1936556" lon="7.9530235"><ele>178.0</ele><time>2026-05-02T09:46:12.016Z</time></trkpt><trkpt lat="45.1936158" lon="7.9528779"><ele>178.0</ele><time>2026-05-02T09:46:13.01Z</time></trkpt><trkpt lat="45.1935755" lon="7.9527269"><ele>178.0</ele><time>2026-05-02T09:46:14.015Z</time></trkpt><trkpt lat="45.1935328" lon="7.9525742"><ele>178.0</ele><time>2026-05-02T09:46:15.005Z</time></trkpt><trkpt lat="45.1934933" lon="7.9524256"><ele>177.8</ele><time>2026-05-02T09:46:16.009Z</time></trkpt><trkpt lat="45.1934565" lon="7.9522785"><ele>177.60000000000002</ele><time>2026-05-02T09:46:17.01Z</time></trkpt><trkpt lat="45.1934248" lon="7.9521296"><ele>177.39999999999998</ele><time>2026-05-02T09:46:18.01Z</time></trkpt><trkpt lat="45.1933973" lon="7.9519862"><ele>177.2</ele><time>2026-05-02T09:46:19.001Z</time></trkpt><trkpt lat="45.1933745" lon="7.9518415"><ele>177.0</ele><time>2026-05-02T09:46:20.014Z</time></trkpt><trkpt lat="45.193356" lon="7.9516903"><ele>176.8</ele><time>2026-05-02T09:46:21.053Z</time></trkpt><trkpt lat="45.1933375" lon="7.9515402"><ele>176.6</ele><time>2026-05-02T09:46:22.009Z</time></trkpt><trkpt lat="45.193327" lon="7.9513811"><ele>176.4</ele><time>2026-05-02T09:46:23.017Z</time></trkpt><trkpt lat="45.1933183" lon="7.9512308"><ele>176.20000000000002</ele><time>2026-05-02T09:46:24.007Z</time></trkpt><trkpt lat="45.193313" lon="7.9510984"><ele>176.0</ele><time>2026-05-02T09:46:25.009Z</time></trkpt><trkpt lat="45.1933095" lon="7.9509732"><ele>176.0</ele><time>2026-05-02T09:46:26.006Z</time></trkpt><trkpt lat="45.1933093" lon="7.9508582"><ele>176.0</ele><time>2026-05-02T09:46:27.011Z</time></trkpt><trkpt lat="45.1933092" lon="7.9507398"><ele>176.0</ele><time>2026-05-02T09:46:28.009Z</time></trkpt><trkpt lat="45.1933184" lon="7.9505986"><ele>176.0</ele><time>2026-05-02T09:46:29.014Z</time></trkpt><trkpt lat="45.1933275" lon="7.9504518"><ele>176.0</ele><time>2026-05-02T09:46:30.013Z</time></trkpt><trkpt lat="45.1933347" lon="7.9502955"><ele>176.0</ele><time>2026-05-02T09:46:31.009Z</time></trkpt><trkpt lat="45.1933396" lon="7.9501515"><ele>176.0</ele><time>2026-05-02T09:46:32.006Z</time></trkpt><trkpt lat="45.1933413" lon="7.9500216"><ele>176.0</ele><time>2026-05-02T09:46:32.998Z</time></trkpt><trkpt lat="45.1933454" lon="7.9499084"><ele>176.0</ele><time>2026-05-02T09:46:34.005Z</time></trkpt><trkpt lat="45.1933454" lon="7.949811"><ele>176.0</ele><time>2026-05-02T09:46:35.005Z</time></trkpt><trkpt lat="45.1933346" lon="7.9496739"><ele>176.0</ele><time>2026-05-02T09:46:37.004Z</time></trkpt><trkpt lat="45.1933078" lon="7.9495847"><ele>175.8</ele><time>2026-05-02T09:46:41.008Z</time></trkpt><trkpt lat="45.1932252" lon="7.9495833"><ele>175.60000000000002</ele><time>2026-05-02T09:46:44.015Z</time></trkpt><trkpt lat="45.1931686" lon="7.9496316"><ele>175.4</ele><time>2026-05-02T09:46:45.014Z</time></trkpt><trkpt lat="45.1930928" lon="7.949701"><ele>175.2</ele><time>2026-05-02T09:46:46.012Z</time></trkpt><trkpt lat="45.1930013" lon="7.9497723"><ele>175.0</ele><time>2026-05-02T09:46:47.005Z</time></trkpt><trkpt lat="45.192891" lon="7.9498598"><ele>174.66666666666669</ele><time>2026-05-02T09:46:48.017Z</time></trkpt><trkpt lat="45.1927654" lon="7.9499644"><ele>174.33333333333334</ele><time>2026-05-02T09:46:49.009Z</time></trkpt><trkpt lat="45.1926293" lon="7.9500869"><ele>174.0</ele><time>2026-05-02T09:46:50.009Z</time></trkpt><trkpt lat="45.1924763" lon="7.9502274"><ele>173.0</ele><time>2026-05-02T09:46:51.015Z</time></trkpt><trkpt lat="45.1923081" lon="7.950383"><ele>172.0</ele><time>2026-05-02T09:46:52.01Z</time></trkpt><trkpt lat="45.1921321" lon="7.9505447"><ele>171.0</ele><time>2026-05-02T09:46:53.009Z</time></trkpt><trkpt lat="45.1919537" lon="7.9507112"><ele>171.0</ele><time>2026-05-02T09:46:54.017Z</time></trkpt><trkpt lat="45.1917775" lon="7.950877"><ele>171.0</ele><time>2026-05-02T09:46:55.015Z</time></trkpt><trkpt lat="45.1916041" lon="7.9510418"><ele>171.0</ele><time>2026-05-02T09:46:56.015Z</time></trkpt><trkpt lat="45.1914422" lon="7.9512019"><ele>171.0</ele><time>2026-05-02T09:46:57.014Z</time></trkpt><trkpt lat="45.1912938" lon="7.9513598"><ele>171.0</ele><time>2026-05-02T09:46:58.01Z</time></trkpt><trkpt lat="45.1911582" lon="7.9515134"><ele>171.0</ele><time>2026-05-02T09:46:59.011Z</time></trkpt><trkpt lat="45.1910308" lon="7.9516669"><ele>171.66666666666666</ele><time>2026-05-02T09:47:00.014Z</time></trkpt><trkpt lat="45.1909088" lon="7.9518239"><ele>172.33333333333331</ele><time>2026-05-02T09:47:01.014Z</time></trkpt><trkpt lat="45.190788" lon="7.9519858"><ele>173.0</ele><time>2026-05-02T09:47:02.012Z</time></trkpt><trkpt lat="45.190668" lon="7.9521491"><ele>173.0</ele><time>2026-05-02T09:47:03.01Z</time></trkpt><trkpt lat="45.1905474" lon="7.952312"><ele>173.0</ele><time>2026-05-02T09:47:04.015Z</time></trkpt><trkpt lat="45.1904267" lon="7.952476"><ele>173.0</ele><time>2026-05-02T09:47:05.01Z</time></trkpt><trkpt lat="45.190306" lon="7.9526418"><ele>173.0</ele><time>2026-05-02T09:47:06.008Z</time></trkpt><trkpt lat="45.1901837" lon="7.9528084"><ele>173.0</ele><time>2026-05-02T09:47:07.006Z</time></trkpt><trkpt lat="45.1900614" lon="7.9529768"><ele>173.0</ele><time>2026-05-02T09:47:08.002Z</time></trkpt><trkpt lat="45.1899391" lon="7.9531463"><ele>173.33333333333331</ele><time>2026-05-02T09:47:09.011Z</time></trkpt><trkpt lat="45.1898147" lon="7.9533161"><ele>173.66666666666666</ele><time>2026-05-02T09:47:10.012Z</time></trkpt><trkpt lat="45.189684" lon="7.9534804"><ele>174.0</ele><time>2026-05-02T09:47:11.015Z</time></trkpt><trkpt lat="45.1895455" lon="7.9536327"><ele>174.0</ele><time>2026-05-02T09:47:12.01Z</time></trkpt><trkpt lat="45.189398" lon="7.9537718"><ele>174.0</ele><time>2026-05-02T09:47:13.004Z</time></trkpt><trkpt lat="45.189244" lon="7.953901"><ele>174.0</ele><time>2026-05-02T09:47:14.005Z</time></trkpt><trkpt lat="45.1890861" lon="7.9540224"><ele>172.66666666666666</ele><time>2026-05-02T09:47:15.008Z</time></trkpt><trkpt lat="45.1889237" lon="7.9541349"><ele>171.33333333333331</ele><time>2026-05-02T09:47:16.01Z</time></trkpt><trkpt lat="45.1887603" lon="7.9542369"><ele>170.0</ele><time>2026-05-02T09:47:17.005Z</time></trkpt><trkpt lat="45.1886017" lon="7.954326"><ele>170.0</ele><time>2026-05-02T09:47:18.014Z</time></trkpt><trkpt lat="45.1884494" lon="7.9544085"><ele>170.0</ele><time>2026-05-02T09:47:19.012Z</time></trkpt><trkpt lat="45.1883031" lon="7.9544918"><ele>170.0</ele><time>2026-05-02T09:47:20.005Z</time></trkpt><trkpt lat="45.1881588" lon="7.9545806"><ele>170.0</ele><time>2026-05-02T09:47:21.005Z</time></trkpt><trkpt lat="45.1880162" lon="7.9546764"><ele>170.0</ele><time>2026-05-02T09:47:22.003Z</time></trkpt><trkpt lat="45.1878771" lon="7.9547782"><ele>170.0</ele><time>2026-05-02T09:47:22.998Z</time></trkpt><trkpt lat="45.1877453" lon="7.9548854"><ele>170.0</ele><time>2026-05-02T09:47:24.007Z</time></trkpt><trkpt lat="45.1876209" lon="7.9549961"><ele>170.0</ele><time>2026-05-02T09:47:25.018Z</time></trkpt><trkpt lat="45.1874998" lon="7.9551122"><ele>170.0</ele><time>2026-05-02T09:47:26.007Z</time></trkpt><trkpt lat="45.1873819" lon="7.955232"><ele>170.0</ele><time>2026-05-02T09:47:27.012Z</time></trkpt><trkpt lat="45.1872689" lon="7.9553553"><ele>169.75</ele><time>2026-05-02T09:47:28.012Z</time></trkpt><trkpt lat="45.1871634" lon="7.9554828"><ele>169.5</ele><time>2026-05-02T09:47:29.011Z</time></trkpt><trkpt lat="45.1870663" lon="7.9556138"><ele>169.25</ele><time>2026-05-02T09:47:30.005Z</time></trkpt><trkpt lat="45.1869746" lon="7.9557468"><ele>169.0</ele><time>2026-05-02T09:47:31.01Z</time></trkpt><trkpt lat="45.1868864" lon="7.9558794"><ele>169.75</ele><time>2026-05-02T09:47:32.014Z</time></trkpt><trkpt lat="45.1868002" lon="7.95601"><ele>170.5</ele><time>2026-05-02T09:47:33.01Z</time></trkpt><trkpt lat="45.1867224" lon="7.9561473"><ele>171.25</ele><time>2026-05-02T09:47:34.008Z</time></trkpt><trkpt lat="45.1866482" lon="7.956287"><ele>172.0</ele><time>2026-05-02T09:47:35.011Z</time></trkpt><trkpt lat="45.1865761" lon="7.9564349"><ele>171.5</ele><time>2026-05-02T09:47:36.014Z</time></trkpt><trkpt lat="45.1865082" lon="7.956575"><ele>171.0</ele><time>2026-05-02T09:47:37.017Z</time></trkpt><trkpt lat="45.1864484" lon="7.9567103"><ele>170.5</ele><time>2026-05-02T09:47:38.001Z</time></trkpt><trkpt lat="45.1863883" lon="7.956849"><ele>170.0</ele><time>2026-05-02T09:47:39.007Z</time></trkpt><trkpt lat="45.1863381" lon="7.956987"><ele>169.8</ele><time>2026-05-02T09:47:40.014Z</time></trkpt><trkpt lat="45.186291" lon="7.9571294"><ele>169.6</ele><time>2026-05-02T09:47:41.017Z</time></trkpt><trkpt lat="45.1862445" lon="7.9572656"><ele>169.39999999999998</ele><time>2026-05-02T09:47:42.006Z</time></trkpt><trkpt lat="45.1862006" lon="7.9574048"><ele>169.2</ele><time>2026-05-02T09:47:43.011Z</time></trkpt><trkpt lat="45.1861625" lon="7.9575357"><ele>169.0</ele><time>2026-05-02T09:47:44.011Z</time></trkpt><trkpt lat="45.1861241" lon="7.957665"><ele>168.79999999999998</ele><time>2026-05-02T09:47:45.014Z</time></trkpt><trkpt lat="45.1860789" lon="7.9577922"><ele>168.6</ele><time>2026-05-02T09:47:46.018Z</time></trkpt><trkpt lat="45.1860197" lon="7.9579063"><ele>168.4</ele><time>2026-05-02T09:47:47.01Z</time></trkpt><trkpt lat="45.185952" lon="7.9579968"><ele>168.2</ele><time>2026-05-02T09:47:48.003Z</time></trkpt><trkpt lat="45.1858835" lon="7.9580691"><ele>168.0</ele><time>2026-05-02T09:47:49.016Z</time></trkpt><trkpt lat="45.1858162" lon="7.9581322"><ele>168.0</ele><time>2026-05-02T09:47:50.008Z</time></trkpt><trkpt lat="45.1857522" lon="7.9581923"><ele>168.0</ele><time>2026-05-02T09:47:51.017Z</time></trkpt><trkpt lat="45.1856876" lon="7.9582588"><ele>168.0</ele><time>2026-05-02T09:47:52.022Z</time></trkpt><trkpt lat="45.1856192" lon="7.9583326"><ele>168.0</ele><time>2026-05-02T09:47:53.005Z</time></trkpt><trkpt lat="45.1855479" lon="7.9584166"><ele>168.0</ele><time>2026-05-02T09:47:54.011Z</time></trkpt><trkpt lat="45.1854772" lon="7.958513"><ele>168.0</ele><time>2026-05-02T09:47:55.005Z</time></trkpt><trkpt lat="45.1854092" lon="7.9586199"><ele>168.2</ele><time>2026-05-02T09:47:56.01Z</time></trkpt><trkpt lat="45.1853489" lon="7.9587363"><ele>168.4</ele><time>2026-05-02T09:47:57.014Z</time></trkpt><trkpt lat="45.1852976" lon="7.9588629"><ele>168.6</ele><time>2026-05-02T09:47:58.017Z</time></trkpt><trkpt lat="45.185256" lon="7.9590014"><ele>168.79999999999998</ele><time>2026-05-02T09:47:59.015Z</time></trkpt><trkpt lat="45.1852208" lon="7.9591557"><ele>169.0</ele><time>2026-05-02T09:48:00.014Z</time></trkpt><trkpt lat="45.185194" lon="7.9593226"><ele>169.0</ele><time>2026-05-02T09:48:01.011Z</time></trkpt><trkpt lat="45.1851843" lon="7.9595024"><ele>169.0</ele><time>2026-05-02T09:48:02.004Z</time></trkpt><trkpt lat="45.1851929" lon="7.9596953"><ele>169.0</ele><time>2026-05-02T09:48:03.013Z</time></trkpt><trkpt lat="45.1852151" lon="7.9599006"><ele>169.0</ele><time>2026-05-02T09:48:04.015Z</time></trkpt><trkpt lat="45.1852445" lon="7.9601107"><ele>169.0</ele><time>2026-05-02T09:48:05.016Z</time></trkpt><trkpt lat="45.1852776" lon="7.9603329"><ele>169.0</ele><time>2026-05-02T09:48:06.005Z</time></trkpt><trkpt lat="45.1852977" lon="7.9605633"><ele>169.0</ele><time>2026-05-02T09:48:07.001Z</time></trkpt><trkpt lat="45.1853154" lon="7.9607914"><ele>168.66666666666669</ele><time>2026-05-02T09:48:08.014Z</time></trkpt><trkpt lat="45.1852768" lon="7.9610216"><ele>168.33333333333334</ele><time>2026-05-02T09:48:09.012Z</time></trkpt><trkpt lat="45.1852217" lon="7.961242"><ele>168.0</ele><time>2026-05-02T09:48:10.007Z</time></trkpt><trkpt lat="45.1851656" lon="7.9614525"><ele>168.0</ele><time>2026-05-02T09:48:11.01Z</time></trkpt><trkpt lat="45.1851097" lon="7.9616618"><ele>168.0</ele><time>2026-05-02T09:48:12.009Z</time></trkpt><trkpt lat="45.1850532" lon="7.9618719"><ele>168.0</ele><time>2026-05-02T09:48:13.015Z</time></trkpt><trkpt lat="45.1849961" lon="7.9620832"><ele>168.0</ele><time>2026-05-02T09:48:14.007Z</time></trkpt><trkpt lat="45.1849385" lon="7.9622897"><ele>168.0</ele><time>2026-05-02T09:48:15.002Z</time></trkpt><trkpt lat="45.1848829" lon="7.962498"><ele>168.0</ele><time>2026-05-02T09:48:16.008Z</time></trkpt><trkpt lat="45.1848307" lon="7.9627085"><ele>167.33333333333334</ele><time>2026-05-02T09:48:17.017Z</time></trkpt><trkpt lat="45.1847771" lon="7.96292"><ele>166.66666666666669</ele><time>2026-05-02T09:48:18.018Z</time></trkpt><trkpt lat="45.1847238" lon="7.9631294"><ele>166.0</ele><time>2026-05-02T09:48:19.006Z</time></trkpt><trkpt lat="45.1846754" lon="7.9633293"><ele>166.25</ele><time>2026-05-02T09:48:20.006Z</time></trkpt><trkpt lat="45.1846263" lon="7.9635184"><ele>166.5</ele><time>2026-05-02T09:48:21.011Z</time></trkpt><trkpt lat="45.1845779" lon="7.9637037"><ele>166.75</ele><time>2026-05-02T09:48:22Z</time></trkpt><trkpt lat="45.1845319" lon="7.9638786"><ele>167.0</ele><time>2026-05-02T09:48:23.002Z</time></trkpt><trkpt lat="45.1844886" lon="7.9640451"><ele>167.75</ele><time>2026-05-02T09:48:24.01Z</time></trkpt><trkpt lat="45.1844487" lon="7.964201"><ele>168.5</ele><time>2026-05-02T09:48:25.004Z</time></trkpt><trkpt lat="45.1844082" lon="7.9643597"><ele>169.25</ele><time>2026-05-02T09:48:26.014Z</time></trkpt><trkpt lat="45.1843621" lon="7.9645172"><ele>170.0</ele><time>2026-05-02T09:48:27.006Z</time></trkpt><trkpt lat="45.1843105" lon="7.9646756"><ele>170.0</ele><time>2026-05-02T09:48:28.005Z</time></trkpt><trkpt lat="45.1842525" lon="7.9648344"><ele>170.0</ele><time>2026-05-02T09:48:29.015Z</time></trkpt><trkpt lat="45.1841884" lon="7.9649973"><ele>170.0</ele><time>2026-05-02T09:48:30.007Z</time></trkpt><trkpt lat="45.184118" lon="7.9651631"><ele>170.0</ele><time>2026-05-02T09:48:31.005Z</time></trkpt><trkpt lat="45.1840448" lon="7.9653303"><ele>169.75</ele><time>2026-05-02T09:48:32.017Z</time></trkpt><trkpt lat="45.1839737" lon="7.9655047"><ele>169.5</ele><time>2026-05-02T09:48:33.013Z</time></trkpt><trkpt lat="45.1839005" lon="7.9656733"><ele>169.25</ele><time>2026-05-02T09:48:34.005Z</time></trkpt><trkpt lat="45.1838299" lon="7.9658434"><ele>169.0</ele><time>2026-05-02T09:48:35.008Z</time></trkpt><trkpt lat="45.183768" lon="7.9659939"><ele>168.79999999999998</ele><time>2026-05-02T09:48:36.015Z</time></trkpt><trkpt lat="45.1837043" lon="7.9661356"><ele>168.6</ele><time>2026-05-02T09:48:37.007Z</time></trkpt><trkpt lat="45.1836403" lon="7.9662703"><ele>168.4</ele><time>2026-05-02T09:48:38.006Z</time></trkpt><trkpt lat="45.1835844" lon="7.9663943"><ele>168.2</ele><time>2026-05-02T09:48:39.011Z</time></trkpt><trkpt lat="45.1835401" lon="7.9664872"><ele>168.0</ele><time>2026-05-02T09:48:40.024Z</time></trkpt><trkpt lat="45.1834706" lon="7.9665912"><ele>168.0</ele><time>2026-05-02T09:48:42.016Z</time></trkpt><trkpt lat="45.1833808" lon="7.966633"><ele>168.0</ele><time>2026-05-02T09:48:44.014Z</time></trkpt><trkpt lat="45.1833134" lon="7.966633"><ele>168.0</ele><time>2026-05-02T09:48:45.006Z</time></trkpt><trkpt lat="45.1832287" lon="7.9666164"><ele>168.0</ele><time>2026-05-02T09:48:46.011Z</time></trkpt><trkpt lat="45.1831285" lon="7.966589"><ele>168.0</ele><time>2026-05-02T09:48:47.022Z</time></trkpt><trkpt lat="45.1830193" lon="7.9665567"><ele>167.8</ele><time>2026-05-02T09:48:48.009Z</time></trkpt><trkpt lat="45.1829067" lon="7.96652"><ele>167.60000000000002</ele><time>2026-05-02T09:48:49.014Z</time></trkpt><trkpt lat="45.1828018" lon="7.9664863"><ele>167.39999999999998</ele><time>2026-05-02T09:48:50.015Z</time></trkpt><trkpt lat="45.1827053" lon="7.9664574"><ele>167.2</ele><time>2026-05-02T09:48:51.011Z</time></trkpt><trkpt lat="45.1826199" lon="7.9664276"><ele>167.0</ele><time>2026-05-02T09:48:52.014Z</time></trkpt><trkpt lat="45.1825424" lon="7.9664028"><ele>167.0</ele><time>2026-05-02T09:48:53.01Z</time></trkpt><trkpt lat="45.182472" lon="7.9663769"><ele>167.0</ele><time>2026-05-02T09:48:54.017Z</time></trkpt><trkpt lat="45.1823614" lon="7.9663433"><ele>167.0</ele><time>2026-05-02T09:48:56.018Z</time></trkpt><trkpt lat="45.1822808" lon="7.9663516"><ele>167.0</ele><time>2026-05-02T09:48:58.016Z</time></trkpt><trkpt lat="45.1822163" lon="7.9664257"><ele>167.0</ele><time>2026-05-02T09:49:00.006Z</time></trkpt><trkpt lat="45.1821709" lon="7.9665978"><ele>167.0</ele><time>2026-05-02T09:49:02.015Z</time></trkpt><trkpt lat="45.1821461" lon="7.9667277"><ele>167.0</ele><time>2026-05-02T09:49:03.006Z</time></trkpt><trkpt lat="45.1821151" lon="7.9668862"><ele>167.0</ele><time>2026-05-02T09:49:04.004Z</time></trkpt><trkpt lat="45.1820832" lon="7.9670493"><ele>167.0</ele><time>2026-05-02T09:49:05.008Z</time></trkpt><trkpt lat="45.1820496" lon="7.967222"><ele>167.0</ele><time>2026-05-02T09:49:06.006Z</time></trkpt><trkpt lat="45.1820081" lon="7.9674066"><ele>167.0</ele><time>2026-05-02T09:49:07.015Z</time></trkpt><trkpt lat="45.1819561" lon="7.967598"><ele>167.0</ele><time>2026-05-02T09:49:08.008Z</time></trkpt><trkpt lat="45.1818974" lon="7.9678024"><ele>167.0</ele><time>2026-05-02T09:49:09.021Z</time></trkpt><trkpt lat="45.1818351" lon="7.9680122"><ele>167.33333333333331</ele><time>2026-05-02T09:49:10.01Z</time></trkpt><trkpt lat="45.1817714" lon="7.9682193"><ele>167.66666666666666</ele><time>2026-05-02T09:49:11Z</time></trkpt><trkpt lat="45.1817047" lon="7.9684244"><ele>168.0</ele><time>2026-05-02T09:49:12.003Z</time></trkpt><trkpt lat="45.1816369" lon="7.9686237"><ele>168.25</ele><time>2026-05-02T09:49:13.012Z</time></trkpt><trkpt lat="45.1815703" lon="7.968817"><ele>168.5</ele><time>2026-05-02T09:49:14.011Z</time></trkpt><trkpt lat="45.1815032" lon="7.969001"><ele>168.75</ele><time>2026-05-02T09:49:15.009Z</time></trkpt><trkpt lat="45.1814353" lon="7.9691823"><ele>169.0</ele><time>2026-05-02T09:49:16.004Z</time></trkpt><trkpt lat="45.1813651" lon="7.9693604"><ele>169.0</ele><time>2026-05-02T09:49:17.014Z</time></trkpt><trkpt lat="45.1812929" lon="7.9695391"><ele>169.0</ele><time>2026-05-02T09:49:18.012Z</time></trkpt><trkpt lat="45.1812159" lon="7.9697146"><ele>169.0</ele><time>2026-05-02T09:49:19.014Z</time></trkpt><trkpt lat="45.1811328" lon="7.9698867"><ele>169.0</ele><time>2026-05-02T09:49:20.006Z</time></trkpt><trkpt lat="45.1810438" lon="7.9700538"><ele>168.25</ele><time>2026-05-02T09:49:21.015Z</time></trkpt><trkpt lat="45.1809526" lon="7.9702165"><ele>167.5</ele><time>2026-05-02T09:49:22.001Z</time></trkpt><trkpt lat="45.1808629" lon="7.9703791"><ele>166.75</ele><time>2026-05-02T09:49:23.003Z</time></trkpt><trkpt lat="45.1807758" lon="7.9705369"><ele>166.0</ele><time>2026-05-02T09:49:24.007Z</time></trkpt><trkpt lat="45.1806919" lon="7.9706933"><ele>166.25</ele><time>2026-05-02T09:49:25.017Z</time></trkpt><trkpt lat="45.1806122" lon="7.9708438"><ele>166.5</ele><time>2026-05-02T09:49:26.008Z</time></trkpt><trkpt lat="45.18054" lon="7.9709822"><ele>166.75</ele><time>2026-05-02T09:49:27.007Z</time></trkpt><trkpt lat="45.1804718" lon="7.9711186"><ele>167.0</ele><time>2026-05-02T09:49:28.011Z</time></trkpt><trkpt lat="45.1804087" lon="7.9712577"><ele>167.0</ele><time>2026-05-02T09:49:29.015Z</time></trkpt><trkpt lat="45.1803515" lon="7.9714006"><ele>167.0</ele><time>2026-05-02T09:49:30.005Z</time></trkpt><trkpt lat="45.1803014" lon="7.9715498"><ele>167.0</ele><time>2026-05-02T09:49:31.01Z</time></trkpt><trkpt lat="45.1802572" lon="7.9717032"><ele>167.0</ele><time>2026-05-02T09:49:32.009Z</time></trkpt><trkpt lat="45.1802202" lon="7.9718585"><ele>167.0</ele><time>2026-05-02T09:49:33.011Z</time></trkpt><trkpt lat="45.180184" lon="7.9720127"><ele>167.0</ele><time>2026-05-02T09:49:34.012Z</time></trkpt><trkpt lat="45.1801565" lon="7.9721842"><ele>167.0</ele><time>2026-05-02T09:49:35.009Z</time></trkpt><trkpt lat="45.1801412" lon="7.972361"><ele>167.0</ele><time>2026-05-02T09:49:36.007Z</time></trkpt><trkpt lat="45.180135" lon="7.9725529"><ele>167.5</ele><time>2026-05-02T09:49:37.012Z</time></trkpt><trkpt lat="45.1801286" lon="7.9727467"><ele>168.0</ele><time>2026-05-02T09:49:38.016Z</time></trkpt><trkpt lat="45.1801266" lon="7.972946"><ele>168.5</ele><time>2026-05-02T09:49:39.01Z</time></trkpt><trkpt lat="45.1801249" lon="7.9731405"><ele>169.0</ele><time>2026-05-02T09:49:40.013Z</time></trkpt><trkpt lat="45.1801262" lon="7.9733413"><ele>169.5</ele><time>2026-05-02T09:49:41.016Z</time></trkpt><trkpt lat="45.1801304" lon="7.9735539"><ele>170.0</ele><time>2026-05-02T09:49:42.012Z</time></trkpt><trkpt lat="45.1801304" lon="7.9737647"><ele>170.5</ele><time>2026-05-02T09:49:43.018Z</time></trkpt><trkpt lat="45.1801354" lon="7.9739525"><ele>171.0</ele><time>2026-05-02T09:49:44.015Z</time></trkpt><trkpt lat="45.1801347" lon="7.9741299"><ele>171.16666666666666</ele><time>2026-05-02T09:49:45.019Z</time></trkpt><trkpt lat="45.180132" lon="7.9742842"><ele>171.33333333333334</ele><time>2026-05-02T09:49:46.019Z</time></trkpt><trkpt lat="45.1801347" lon="7.9744166"><ele>171.5</ele><time>2026-05-02T09:49:47.016Z</time></trkpt><trkpt lat="45.1801477" lon="7.9745293"><ele>171.66666666666669</ele><time>2026-05-02T09:49:48.016Z</time></trkpt><trkpt lat="45.1801685" lon="7.9746355"><ele>171.83333333333334</ele><time>2026-05-02T09:49:49.014Z</time></trkpt><trkpt lat="45.1802129" lon="7.9747347"><ele>172.0</ele><time>2026-05-02T09:49:50.007Z</time></trkpt><trkpt lat="45.180277" lon="7.9748302"><ele>172.0</ele><time>2026-05-02T09:49:51.009Z</time></trkpt><trkpt lat="45.1803606" lon="7.9749195"><ele>172.0</ele><time>2026-05-02T09:49:52.014Z</time></trkpt><trkpt lat="45.1804503" lon="7.9750173"><ele>172.0</ele><time>2026-05-02T09:49:53.012Z</time></trkpt><trkpt lat="45.1805341" lon="7.9751279"><ele>172.0</ele><time>2026-05-02T09:49:54.005Z</time></trkpt><trkpt lat="45.180614" lon="7.9752608"><ele>171.25</ele><time>2026-05-02T09:49:55.014Z</time></trkpt><trkpt lat="45.180694" lon="7.9754214"><ele>170.5</ele><time>2026-05-02T09:49:56.001Z</time></trkpt><trkpt lat="45.1807774" lon="7.9755938"><ele>169.75</ele><time>2026-05-02T09:49:57.012Z</time></trkpt><trkpt lat="45.180864" lon="7.9757694"><ele>169.0</ele><time>2026-05-02T09:49:58.013Z</time></trkpt><trkpt lat="45.1809458" lon="7.9759533"><ele>169.0</ele><time>2026-05-02T09:49:59.007Z</time></trkpt><trkpt lat="45.1810258" lon="7.9761429"><ele>169.0</ele><time>2026-05-02T09:50:00.007Z</time></trkpt><trkpt lat="45.1811024" lon="7.9763385"><ele>169.0</ele><time>2026-05-02T09:50:01.013Z</time></trkpt><trkpt lat="45.1811792" lon="7.976537"><ele>168.0</ele><time>2026-05-02T09:50:02.014Z</time></trkpt><trkpt lat="45.1812535" lon="7.976738"><ele>167.0</ele><time>2026-05-02T09:50:03.013Z</time></trkpt><trkpt lat="45.1813263" lon="7.9769399"><ele>166.0</ele><time>2026-05-02T09:50:04.014Z</time></trkpt><trkpt lat="45.1813978" lon="7.9771419"><ele>166.0</ele><time>2026-05-02T09:50:05.01Z</time></trkpt><trkpt lat="45.1814644" lon="7.9773473"><ele>166.0</ele><time>2026-05-02T09:50:06.006Z</time></trkpt><trkpt lat="45.181527" lon="7.9775572"><ele>166.0</ele><time>2026-05-02T09:50:07Z</time></trkpt><trkpt lat="45.1815864" lon="7.9777687"><ele>166.33333333333334</ele><time>2026-05-02T09:50:08.002Z</time></trkpt><trkpt lat="45.1816413" lon="7.9779788"><ele>166.66666666666666</ele><time>2026-05-02T09:50:09.002Z</time></trkpt><trkpt lat="45.1816937" lon="7.978186"><ele>167.0</ele><time>2026-05-02T09:50:09.997Z</time></trkpt><trkpt lat="45.1817413" lon="7.9783778"><ele>167.0</ele><time>2026-05-02T09:50:10.993Z</time></trkpt><trkpt lat="45.181787" lon="7.978554"><ele>167.0</ele><time>2026-05-02T09:50:11.999Z</time></trkpt><trkpt lat="45.1818301" lon="7.9787161"><ele>167.0</ele><time>2026-05-02T09:50:12.994Z</time></trkpt><trkpt lat="45.1818664" lon="7.9788793"><ele>167.0</ele><time>2026-05-02T09:50:13.996Z</time></trkpt><trkpt lat="45.1818922" lon="7.9790473"><ele>167.25</ele><time>2026-05-02T09:50:15.002Z</time></trkpt><trkpt lat="45.1819081" lon="7.9792188"><ele>167.5</ele><time>2026-05-02T09:50:15.999Z</time></trkpt><trkpt lat="45.1819154" lon="7.9793926"><ele>167.75</ele><time>2026-05-02T09:50:17.003Z</time></trkpt><trkpt lat="45.1819142" lon="7.9795649"><ele>168.0</ele><time>2026-05-02T09:50:18.001Z</time></trkpt><trkpt lat="45.1819054" lon="7.9797243"><ele>168.0</ele><time>2026-05-02T09:50:18.996Z</time></trkpt><trkpt lat="45.1818911" lon="7.9798747"><ele>168.0</ele><time>2026-05-02T09:50:19.999Z</time></trkpt><trkpt lat="45.1818742" lon="7.9800219"><ele>168.0</ele><time>2026-05-02T09:50:21.004Z</time></trkpt><trkpt lat="45.181855" lon="7.9801681"><ele>168.0</ele><time>2026-05-02T09:50:21.997Z</time></trkpt><trkpt lat="45.1818338" lon="7.9803172"><ele>168.0</ele><time>2026-05-02T09:50:23.007Z</time></trkpt><trkpt lat="45.1818074" lon="7.9804698"><ele>167.60000000000002</ele><time>2026-05-02T09:50:24.003Z</time></trkpt><trkpt lat="45.1817749" lon="7.9806256"><ele>167.20000000000002</ele><time>2026-05-02T09:50:25.002Z</time></trkpt><trkpt lat="45.1817383" lon="7.9807815"><ele>166.8</ele><time>2026-05-02T09:50:26.004Z</time></trkpt><trkpt lat="45.1817005" lon="7.9809287"><ele>166.4</ele><time>2026-05-02T09:50:27.005Z</time></trkpt><trkpt lat="45.1816592" lon="7.9810691"><ele>166.0</ele><time>2026-05-02T09:50:28.004Z</time></trkpt><trkpt lat="45.1816074" lon="7.981196"><ele>165.75</ele><time>2026-05-02T09:50:28.999Z</time></trkpt><trkpt lat="45.1815397" lon="7.9813127"><ele>165.5</ele><time>2026-05-02T09:50:30.009Z</time></trkpt><trkpt lat="45.1814581" lon="7.9814225"><ele>165.25</ele><time>2026-05-02T09:50:31.006Z</time></trkpt><trkpt lat="45.1813648" lon="7.981528"><ele>165.0</ele><time>2026-05-02T09:50:32.006Z</time></trkpt><trkpt lat="45.1812651" lon="7.9816243"><ele>164.75</ele><time>2026-05-02T09:50:33.001Z</time></trkpt><trkpt lat="45.181147" lon="7.9817145"><ele>164.5</ele><time>2026-05-02T09:50:33.996Z</time></trkpt><trkpt lat="45.1810261" lon="7.9818004"><ele>164.25</ele><time>2026-05-02T09:50:35.008Z</time></trkpt><trkpt lat="45.1809089" lon="7.9818987"><ele>164.0</ele><time>2026-05-02T09:50:35.999Z</time></trkpt><trkpt lat="45.1807957" lon="7.9820025"><ele>164.0</ele><time>2026-05-02T09:50:37.006Z</time></trkpt><trkpt lat="45.1806854" lon="7.9821088"><ele>164.0</ele><time>2026-05-02T09:50:37.997Z</time></trkpt><trkpt lat="45.1805798" lon="7.9822193"><ele>164.0</ele><time>2026-05-02T09:50:39.005Z</time></trkpt><trkpt lat="45.1804801" lon="7.9823358"><ele>164.0</ele><time>2026-05-02T09:50:40.001Z</time></trkpt><trkpt lat="45.1803881" lon="7.9824634"><ele>164.2</ele><time>2026-05-02T09:50:41.002Z</time></trkpt><trkpt lat="45.1803093" lon="7.9825918"><ele>164.39999999999998</ele><time>2026-05-02T09:50:42.003Z</time></trkpt><trkpt lat="45.180241" lon="7.9827144"><ele>164.6</ele><time>2026-05-02T09:50:43.008Z</time></trkpt><trkpt lat="45.18018" lon="7.9828337"><ele>164.8</ele><time>2026-05-02T09:50:44.001Z</time></trkpt><trkpt lat="45.1801298" lon="7.982957"><ele>165.0</ele><time>2026-05-02T09:50:45Z</time></trkpt><trkpt lat="45.1800905" lon="7.983094"><ele>165.0</ele><time>2026-05-02T09:50:46.006Z</time></trkpt><trkpt lat="45.1800638" lon="7.9832527"><ele>165.0</ele><time>2026-05-02T09:50:47.001Z</time></trkpt><trkpt lat="45.1800472" lon="7.9834346"><ele>165.0</ele><time>2026-05-02T09:50:47.994Z</time></trkpt><trkpt lat="45.1800361" lon="7.9836415"><ele>165.0</ele><time>2026-05-02T09:50:49.005Z</time></trkpt><trkpt lat="45.1800306" lon="7.9838767"><ele>165.33333333333334</ele><time>2026-05-02T09:50:49.999Z</time></trkpt><trkpt lat="45.1800263" lon="7.9841416"><ele>165.66666666666669</ele><time>2026-05-02T09:50:51Z</time></trkpt><trkpt lat="45.1800183" lon="7.9844304"><ele>166.0</ele><time>2026-05-02T09:50:52.001Z</time></trkpt><trkpt lat="45.1800119" lon="7.9847262"><ele>166.0</ele><time>2026-05-02T09:50:52.999Z</time></trkpt><trkpt lat="45.1800122" lon="7.985016"><ele>166.0</ele><time>2026-05-02T09:50:54Z</time></trkpt><trkpt lat="45.1800063" lon="7.9852747"><ele>166.0</ele><time>2026-05-02T09:50:54.996Z</time></trkpt><trkpt lat="45.1800024" lon="7.985507"><ele>166.0</ele><time>2026-05-02T09:50:56Z</time></trkpt><trkpt lat="45.1800067" lon="7.9857191"><ele>166.0</ele><time>2026-05-02T09:50:56.997Z</time></trkpt><trkpt lat="45.1800025" lon="7.9859326"><ele>166.0</ele><time>2026-05-02T09:50:58.006Z</time></trkpt><trkpt lat="45.1799989" lon="7.9861378"><ele>166.0</ele><time>2026-05-02T09:50:59.002Z</time></trkpt><trkpt lat="45.1799956" lon="7.9863339"><ele>165.75</ele><time>2026-05-02T09:50:59.998Z</time></trkpt><trkpt lat="45.1799943" lon="7.9865166"><ele>165.5</ele><time>2026-05-02T09:51:01.002Z</time></trkpt><trkpt lat="45.1799929" lon="7.9866906"><ele>165.25</ele><time>2026-05-02T09:51:02Z</time></trkpt><trkpt lat="45.1799941" lon="7.9868598"><ele>165.0</ele><time>2026-05-02T09:51:03.006Z</time></trkpt><trkpt lat="45.1799997" lon="7.9870184"><ele>165.0</ele><time>2026-05-02T09:51:04Z</time></trkpt><trkpt lat="45.180013" lon="7.9871625"><ele>165.0</ele><time>2026-05-02T09:51:05.005Z</time></trkpt><trkpt lat="45.1800411" lon="7.9873101"><ele>165.0</ele><time>2026-05-02T09:51:06.004Z</time></trkpt><trkpt lat="45.1800814" lon="7.9874645"><ele>165.0</ele><time>2026-05-02T09:51:07.005Z</time></trkpt><trkpt lat="45.1801318" lon="7.9876256"><ele>165.5</ele><time>2026-05-02T09:51:08.001Z</time></trkpt><trkpt lat="45.1801908" lon="7.9877968"><ele>166.0</ele><time>2026-05-02T09:51:09.007Z</time></trkpt><trkpt lat="45.1802575" lon="7.9879792"><ele>166.5</ele><time>2026-05-02T09:51:10.001Z</time></trkpt><trkpt lat="45.1803255" lon="7.9881655"><ele>167.0</ele><time>2026-05-02T09:51:11.011Z</time></trkpt><trkpt lat="45.1803874" lon="7.9883424"><ele>167.75</ele><time>2026-05-02T09:51:12.004Z</time></trkpt><trkpt lat="45.1804409" lon="7.9885095"><ele>168.5</ele><time>2026-05-02T09:51:12.997Z</time></trkpt><trkpt lat="45.1804875" lon="7.9886642"><ele>169.25</ele><time>2026-05-02T09:51:14.005Z</time></trkpt><trkpt lat="45.1805282" lon="7.98881"><ele>170.0</ele><time>2026-05-02T09:51:15.006Z</time></trkpt><trkpt lat="45.1805568" lon="7.9889449"><ele>170.0</ele><time>2026-05-02T09:51:16.004Z</time></trkpt><trkpt lat="45.1805732" lon="7.9890695"><ele>170.0</ele><time>2026-05-02T09:51:17.003Z</time></trkpt><trkpt lat="45.180574" lon="7.9891998"><ele>170.0</ele><time>2026-05-02T09:51:18.006Z</time></trkpt><trkpt lat="45.180554" lon="7.9893422"><ele>170.0</ele><time>2026-05-02T09:51:18.995Z</time></trkpt><trkpt lat="45.180517" lon="7.9894943"><ele>170.0</ele><time>2026-05-02T09:51:19.995Z</time></trkpt><trkpt lat="45.1804707" lon="7.989658"><ele>169.5</ele><time>2026-05-02T09:51:20.994Z</time></trkpt><trkpt lat="45.1804175" lon="7.9898333"><ele>169.0</ele><time>2026-05-02T09:51:22.008Z</time></trkpt><trkpt lat="45.180361" lon="7.9900201"><ele>168.5</ele><time>2026-05-02T09:51:23.006Z</time></trkpt><trkpt lat="45.180298" lon="7.9902183"><ele>168.0</ele><time>2026-05-02T09:51:24.002Z</time></trkpt><trkpt lat="45.1802304" lon="7.9904133"><ele>167.5</ele><time>2026-05-02T09:51:24.998Z</time></trkpt><trkpt lat="45.1801668" lon="7.9905892"><ele>167.0</ele><time>2026-05-02T09:51:26.007Z</time></trkpt><trkpt lat="45.1801099" lon="7.9907517"><ele>166.5</ele><time>2026-05-02T09:51:27.004Z</time></trkpt><trkpt lat="45.180058" lon="7.9909045"><ele>166.0</ele><time>2026-05-02T09:51:28.008Z</time></trkpt><trkpt lat="45.1800143" lon="7.991032"><ele>165.60000000000002</ele><time>2026-05-02T09:51:28.996Z</time></trkpt><trkpt lat="45.1799766" lon="7.9911403"><ele>165.2</ele><time>2026-05-02T09:51:30.004Z</time></trkpt><trkpt lat="45.179946" lon="7.9912315"><ele>164.8</ele><time>2026-05-02T09:51:31.005Z</time></trkpt><trkpt lat="45.179916" lon="7.9913691"><ele>164.39999999999998</ele><time>2026-05-02T09:51:33.004Z</time></trkpt><trkpt lat="45.1799412" lon="7.991494"><ele>164.0</ele><time>2026-05-02T09:51:35.003Z</time></trkpt><trkpt lat="45.1800195" lon="7.9916312"><ele>164.0</ele><time>2026-05-02T09:51:36.999Z</time></trkpt><trkpt lat="45.180071" lon="7.9917024"><ele>164.0</ele><time>2026-05-02T09:51:37.998Z</time></trkpt><trkpt lat="45.1801283" lon="7.9917878"><ele>164.0</ele><time>2026-05-02T09:51:38.996Z</time></trkpt><trkpt lat="45.1801918" lon="7.9918742"><ele>164.0</ele><time>2026-05-02T09:51:40Z</time></trkpt><trkpt lat="45.1802625" lon="7.9919714"><ele>164.0</ele><time>2026-05-02T09:51:41.005Z</time></trkpt><trkpt lat="45.1803361" lon="7.9920703"><ele>164.0</ele><time>2026-05-02T09:51:41.998Z</time></trkpt><trkpt lat="45.1804052" lon="7.9921582"><ele>164.0</ele><time>2026-05-02T09:51:43.003Z</time></trkpt><trkpt lat="45.1804689" lon="7.99223"><ele>164.0</ele><time>2026-05-02T09:51:44.008Z</time></trkpt><trkpt lat="45.1805614" lon="7.9923202"><ele>164.0</ele><time>2026-05-02T09:51:46.008Z</time></trkpt><trkpt lat="45.1806296" lon="7.992389"><ele>164.0</ele><time>2026-05-02T09:51:48.001Z</time></trkpt><trkpt lat="45.1807141" lon="7.9924723"><ele>164.0</ele><time>2026-05-02T09:51:50.005Z</time></trkpt><trkpt lat="45.1808236" lon="7.9925682"><ele>163.79999999999998</ele><time>2026-05-02T09:51:52.004Z</time></trkpt><trkpt lat="45.1808919" lon="7.9926265"><ele>163.6</ele><time>2026-05-02T09:51:53.002Z</time></trkpt><trkpt lat="45.1809655" lon="7.9926944"><ele>163.4</ele><time>2026-05-02T09:51:54.011Z</time></trkpt><trkpt lat="45.1810474" lon="7.9927652"><ele>163.2</ele><time>2026-05-02T09:51:55.002Z</time></trkpt><trkpt lat="45.1811321" lon="7.9928445"><ele>163.0</ele><time>2026-05-02T09:51:55.999Z</time></trkpt><trkpt lat="45.1812125" lon="7.9929227"><ele>163.0</ele><time>2026-05-02T09:51:57.001Z</time></trkpt><trkpt lat="45.1812869" lon="7.9929924"><ele>163.0</ele><time>2026-05-02T09:51:58.001Z</time></trkpt><trkpt lat="45.1813548" lon="7.9930518"><ele>163.0</ele><time>2026-05-02T09:51:59.001Z</time></trkpt><trkpt lat="45.1814151" lon="7.9931077"><ele>163.0</ele><time>2026-05-02T09:52:00.009Z</time></trkpt><trkpt lat="45.1814715" lon="7.9931564"><ele>163.0</ele><time>2026-05-02T09:52:01.001Z</time></trkpt><trkpt lat="45.1815559" lon="7.9932783"><ele>163.0</ele><time>2026-05-02T09:52:03.007Z</time></trkpt><trkpt lat="45.1815968" lon="7.9934077"><ele>163.2</ele><time>2026-05-02T09:52:05.002Z</time></trkpt><trkpt lat="45.1815812" lon="7.9935681"><ele>163.4</ele><time>2026-05-02T09:52:06.999Z</time></trkpt><trkpt lat="45.1815525" lon="7.9936674"><ele>163.6</ele><time>2026-05-02T09:52:08.006Z</time></trkpt><trkpt lat="45.1815118" lon="7.9937764"><ele>163.79999999999998</ele><time>2026-05-02T09:52:08.999Z</time></trkpt><trkpt lat="45.1814629" lon="7.9939129"><ele>164.0</ele><time>2026-05-02T09:52:10Z</time></trkpt><trkpt lat="45.1814043" lon="7.9940642"><ele>164.5</ele><time>2026-05-02T09:52:11.001Z</time></trkpt><trkpt lat="45.1813492" lon="7.9942266"><ele>165.0</ele><time>2026-05-02T09:52:12.013Z</time></trkpt><trkpt lat="45.1812979" lon="7.9944119"><ele>165.5</ele><time>2026-05-02T09:52:12.996Z</time></trkpt><trkpt lat="45.1812555" lon="7.9946196"><ele>166.0</ele><time>2026-05-02T09:52:14.007Z</time></trkpt><trkpt lat="45.1812248" lon="7.9948471"><ele>166.66666666666669</ele><time>2026-05-02T09:52:15.003Z</time></trkpt><trkpt lat="45.1812014" lon="7.995091"><ele>167.33333333333334</ele><time>2026-05-02T09:52:16.003Z</time></trkpt><trkpt lat="45.1811817" lon="7.9953363"><ele>168.0</ele><time>2026-05-02T09:52:17.003Z</time></trkpt><trkpt lat="45.1811616" lon="7.9955816"><ele>168.0</ele><time>2026-05-02T09:52:17.999Z</time></trkpt><trkpt lat="45.1811407" lon="7.9958336"><ele>168.0</ele><time>2026-05-02T09:52:19.004Z</time></trkpt><trkpt lat="45.1811178" lon="7.9960837"><ele>168.0</ele><time>2026-05-02T09:52:19.992Z</time></trkpt><trkpt lat="45.1810938" lon="7.9963283"><ele>167.33333333333334</ele><time>2026-05-02T09:52:20.998Z</time></trkpt><trkpt lat="45.181069" lon="7.9965665"><ele>166.66666666666669</ele><time>2026-05-02T09:52:22.008Z</time></trkpt><trkpt lat="45.1810393" lon="7.9967979"><ele>166.0</ele><time>2026-05-02T09:52:23.007Z</time></trkpt><trkpt lat="45.1810098" lon="7.9970202"><ele>166.0</ele><time>2026-05-02T09:52:24.001Z</time></trkpt><trkpt lat="45.1809837" lon="7.9972418"><ele>166.0</ele><time>2026-05-02T09:52:25Z</time></trkpt><trkpt lat="45.1809642" lon="7.9974661"><ele>166.0</ele><time>2026-05-02T09:52:25.998Z</time></trkpt><trkpt lat="45.1809496" lon="7.9976821"><ele>165.75</ele><time>2026-05-02T09:52:26.999Z</time></trkpt><trkpt lat="45.1809348" lon="7.997882"><ele>165.5</ele><time>2026-05-02T09:52:28.008Z</time></trkpt><trkpt lat="45.1809183" lon="7.9980764"><ele>165.25</ele><time>2026-05-02T09:52:28.998Z</time></trkpt><trkpt lat="45.1809005" lon="7.9982602"><ele>165.0</ele><time>2026-05-02T09:52:30.008Z</time></trkpt><trkpt lat="45.1808835" lon="7.9984219"><ele>165.0</ele><time>2026-05-02T09:52:31.005Z</time></trkpt><trkpt lat="45.1808774" lon="7.9985709"><ele>165.0</ele><time>2026-05-02T09:52:32.001Z</time></trkpt><trkpt lat="45.1808879" lon="7.9987147"><ele>165.0</ele><time>2026-05-02T09:52:32.994Z</time></trkpt><trkpt lat="45.1809187" lon="7.998853"><ele>165.0</ele><time>2026-05-02T09:52:34.002Z</time></trkpt><trkpt lat="45.1809742" lon="7.9989773"><ele>165.0</ele><time>2026-05-02T09:52:35.01Z</time></trkpt><trkpt lat="45.1810511" lon="7.9990892"><ele>165.0</ele><time>2026-05-02T09:52:35.997Z</time></trkpt><trkpt lat="45.1811421" lon="7.999198"><ele>165.0</ele><time>2026-05-02T09:52:37.005Z</time></trkpt><trkpt lat="45.1812402" lon="7.9993128"><ele>165.0</ele><time>2026-05-02T09:52:37.999Z</time></trkpt><trkpt lat="45.1813415" lon="7.9994356"><ele>165.0</ele><time>2026-05-02T09:52:39.01Z</time></trkpt><trkpt lat="45.1814437" lon="7.999563"><ele>165.25</ele><time>2026-05-02T09:52:40.003Z</time></trkpt><trkpt lat="45.18154" lon="7.9996858"><ele>165.5</ele><time>2026-05-02T09:52:41.002Z</time></trkpt><trkpt lat="45.1816311" lon="7.9998012"><ele>165.75</ele><time>2026-05-02T09:52:42Z</time></trkpt><trkpt lat="45.1817143" lon="7.9999106"><ele>166.0</ele><time>2026-05-02T09:52:43.003Z</time></trkpt><trkpt lat="45.1817953" lon="8.000032"><ele>166.0</ele><time>2026-05-02T09:52:44.002Z</time></trkpt><trkpt lat="45.1818775" lon="8.0001339"><ele>166.0</ele><time>2026-05-02T09:52:44.998Z</time></trkpt><trkpt lat="45.1819575" lon="8.000237"><ele>166.0</ele><time>2026-05-02T09:52:46.007Z</time></trkpt><trkpt lat="45.1820415" lon="8.0003445"><ele>166.0</ele><time>2026-05-02T09:52:47.003Z</time></trkpt><trkpt lat="45.1821225" lon="8.0004584"><ele>166.0</ele><time>2026-05-02T09:52:47.998Z</time></trkpt><trkpt lat="45.1822052" lon="8.000577"><ele>166.0</ele><time>2026-05-02T09:52:49.01Z</time></trkpt><trkpt lat="45.18228" lon="8.0006922"><ele>166.0</ele><time>2026-05-02T09:52:49.997Z</time></trkpt><trkpt lat="45.1823491" lon="8.0007963"><ele>166.0</ele><time>2026-05-02T09:52:50.995Z</time></trkpt><trkpt lat="45.1824092" lon="8.0008851"><ele>166.0</ele><time>2026-05-02T09:52:52.008Z</time></trkpt><trkpt lat="45.1824568" lon="8.000967"><ele>166.0</ele><time>2026-05-02T09:52:52.994Z</time></trkpt><trkpt lat="45.1825192" lon="8.0010593"><ele>166.0</ele><time>2026-05-02T09:52:55.002Z</time></trkpt><trkpt lat="45.1824558" lon="8.0009394"><ele>166.0</ele><time>2026-05-02T09:53:37.014Z</time></trkpt><trkpt lat="45.182373" lon="8.0007975"><ele>166.0</ele><time>2026-05-02T09:53:39.005Z</time></trkpt><trkpt lat="45.1823176" lon="8.0007131"><ele>166.0</ele><time>2026-05-02T09:53:40.012Z</time></trkpt><trkpt lat="45.182261" lon="8.0006238"><ele>166.0</ele><time>2026-05-02T09:53:40.996Z</time></trkpt><trkpt lat="45.1822021" lon="8.0005368"><ele>166.0</ele><time>2026-05-02T09:53:41.994Z</time></trkpt><trkpt lat="45.1821485" lon="8.0004619"><ele>166.0</ele><time>2026-05-02T09:53:43.001Z</time></trkpt><trkpt lat="45.1821006" lon="8.0003919"><ele>166.0</ele><time>2026-05-02T09:53:44.002Z</time></trkpt><trkpt lat="45.1820515" lon="8.0003203"><ele>166.0</ele><time>2026-05-02T09:53:44.993Z</time></trkpt><trkpt lat="45.1819968" lon="8.0002453"><ele>166.0</ele><time>2026-05-02T09:53:46.005Z</time></trkpt><trkpt lat="45.1819346" lon="8.0001618"><ele>166.0</ele><time>2026-05-02T09:53:46.99Z</time></trkpt><trkpt lat="45.1818694" lon="8.0000775"><ele>166.0</ele><time>2026-05-02T09:53:47.998Z</time></trkpt><trkpt lat="45.181802" lon="7.9999932"><ele>166.0</ele><time>2026-05-02T09:53:49Z</time></trkpt><trkpt lat="45.1817321" lon="7.9999063"><ele>166.0</ele><time>2026-05-02T09:53:50.001Z</time></trkpt><trkpt lat="45.1816553" lon="7.9998109"><ele>166.0</ele><time>2026-05-02T09:53:51.005Z</time></trkpt><trkpt lat="45.1815721" lon="7.9997062"><ele>166.0</ele><time>2026-05-02T09:53:52Z</time></trkpt><trkpt lat="45.1814822" lon="7.9995971"><ele>165.75</ele><time>2026-05-02T09:53:53.001Z</time></trkpt><trkpt lat="45.1813879" lon="7.9994701"><ele>165.5</ele><time>2026-05-02T09:53:54.006Z</time></trkpt><trkpt lat="45.1812927" lon="7.9993456"><ele>165.25</ele><time>2026-05-02T09:53:55.003Z</time></trkpt><trkpt lat="45.1812019" lon="7.9992353"><ele>165.0</ele><time>2026-05-02T09:53:56.001Z</time></trkpt><trkpt lat="45.1811128" lon="7.9991379"><ele>165.0</ele><time>2026-05-02T09:53:57.003Z</time></trkpt><trkpt lat="45.1810393" lon="7.9990498"><ele>165.0</ele><time>2026-05-02T09:53:58.001Z</time></trkpt><trkpt lat="45.1809742" lon="7.998967"><ele>165.0</ele><time>2026-05-02T09:53:59.009Z</time></trkpt><trkpt lat="45.1809245" lon="7.9988693"><ele>165.0</ele><time>2026-05-02T09:54:00Z</time></trkpt><trkpt lat="45.1808893" lon="7.9987575"><ele>165.0</ele><time>2026-05-02T09:54:01.01Z</time></trkpt><trkpt lat="45.180874" lon="7.9986254"><ele>165.0</ele><time>2026-05-02T09:54:01.995Z</time></trkpt><trkpt lat="45.180876" lon="7.9984771"><ele>165.75</ele><time>2026-05-02T09:54:03.005Z</time></trkpt><trkpt lat="45.1808911" lon="7.9983134"><ele>166.5</ele><time>2026-05-02T09:54:03.998Z</time></trkpt><trkpt lat="45.1809102" lon="7.9981322"><ele>167.25</ele><time>2026-05-02T09:54:05.005Z</time></trkpt><trkpt lat="45.1809263" lon="7.9979399"><ele>168.0</ele><time>2026-05-02T09:54:05.999Z</time></trkpt><trkpt lat="45.1809369" lon="7.9977358"><ele>168.0</ele><time>2026-05-02T09:54:07.006Z</time></trkpt><trkpt lat="45.1809489" lon="7.9975222"><ele>168.0</ele><time>2026-05-02T09:54:08Z</time></trkpt><trkpt lat="45.1809729" lon="7.9972993"><ele>168.0</ele><time>2026-05-02T09:54:09.003Z</time></trkpt><trkpt lat="45.1810036" lon="7.9970848"><ele>167.33333333333334</ele><time>2026-05-02T09:54:10.001Z</time></trkpt><trkpt lat="45.1810341" lon="7.9968768"><ele>166.66666666666669</ele><time>2026-05-02T09:54:11.005Z</time></trkpt><trkpt lat="45.181061" lon="7.9966664"><ele>166.0</ele><time>2026-05-02T09:54:11.997Z</time></trkpt><trkpt lat="45.1810835" lon="7.9964495"><ele>166.0</ele><time>2026-05-02T09:54:12.999Z</time></trkpt><trkpt lat="45.181107" lon="7.9962311"><ele>166.0</ele><time>2026-05-02T09:54:13.997Z</time></trkpt><trkpt lat="45.1811296" lon="7.9960088"><ele>166.0</ele><time>2026-05-02T09:54:14.999Z</time></trkpt><trkpt lat="45.18115" lon="7.9957886"><ele>166.0</ele><time>2026-05-02T09:54:15.999Z</time></trkpt><trkpt lat="45.1811686" lon="7.9955813"><ele>166.0</ele><time>2026-05-02T09:54:17.012Z</time></trkpt><trkpt lat="45.181185" lon="7.9953836"><ele>166.0</ele><time>2026-05-02T09:54:17.997Z</time></trkpt><trkpt lat="45.1812003" lon="7.9951857"><ele>166.0</ele><time>2026-05-02T09:54:18.992Z</time></trkpt><trkpt lat="45.1812161" lon="7.9949826"><ele>166.0</ele><time>2026-05-02T09:54:20Z</time></trkpt><trkpt lat="45.1812358" lon="7.9947808"><ele>166.0</ele><time>2026-05-02T09:54:20.994Z</time></trkpt><trkpt lat="45.1812611" lon="7.9945869"><ele>166.0</ele><time>2026-05-02T09:54:22.004Z</time></trkpt><trkpt lat="45.1813031" lon="7.9943988"><ele>166.0</ele><time>2026-05-02T09:54:22.997Z</time></trkpt><trkpt lat="45.1813553" lon="7.9942288"><ele>166.20000000000002</ele><time>2026-05-02T09:54:24.009Z</time></trkpt><trkpt lat="45.1814068" lon="7.9940743"><ele>166.4</ele><time>2026-05-02T09:54:25Z</time></trkpt><trkpt lat="45.1814558" lon="7.993934"><ele>166.6</ele><time>2026-05-02T09:54:25.999Z</time></trkpt><trkpt lat="45.1815009" lon="7.9938046"><ele>166.8</ele><time>2026-05-02T09:54:27.005Z</time></trkpt><trkpt lat="45.1815412" lon="7.9936832"><ele>167.0</ele><time>2026-05-02T09:54:28.008Z</time></trkpt><trkpt lat="45.1815792" lon="7.9935718"><ele>166.83333333333331</ele><time>2026-05-02T09:54:28.999Z</time></trkpt><trkpt lat="45.1816157" lon="7.9934683"><ele>166.66666666666666</ele><time>2026-05-02T09:54:30.003Z</time></trkpt><trkpt lat="45.1816581" lon="7.9933754"><ele>166.5</ele><time>2026-05-02T09:54:31.001Z</time></trkpt><trkpt lat="45.1817149" lon="7.9932963"><ele>166.33333333333334</ele><time>2026-05-02T09:54:31.999Z</time></trkpt><trkpt lat="45.1817891" lon="7.9932393"><ele>166.16666666666669</ele><time>2026-05-02T09:54:33.005Z</time></trkpt><trkpt lat="45.1818795" lon="7.9932061"><ele>166.0</ele><time>2026-05-02T09:54:34.004Z</time></trkpt><trkpt lat="45.1819857" lon="7.9931842"><ele>166.0</ele><time>2026-05-02T09:54:35Z</time></trkpt><trkpt lat="45.182103" lon="7.9931602"><ele>166.0</ele><time>2026-05-02T09:54:35.997Z</time></trkpt><trkpt lat="45.1822232" lon="7.993132"><ele>166.0</ele><time>2026-05-02T09:54:37.003Z</time></trkpt><trkpt lat="45.1823421" lon="7.9931046"><ele>166.0</ele><time>2026-05-02T09:54:38.005Z</time></trkpt><trkpt lat="45.1824597" lon="7.9930816"><ele>165.75</ele><time>2026-05-02T09:54:39.004Z</time></trkpt><trkpt lat="45.1825784" lon="7.993047"><ele>165.5</ele><time>2026-05-02T09:54:40.006Z</time></trkpt><trkpt lat="45.1826974" lon="7.993013"><ele>165.25</ele><time>2026-05-02T09:54:41.006Z</time></trkpt><trkpt lat="45.1828229" lon="7.9929727"><ele>165.0</ele><time>2026-05-02T09:54:42.003Z</time></trkpt><trkpt lat="45.1829574" lon="7.9929264"><ele>165.0</ele><time>2026-05-02T09:54:42.997Z</time></trkpt><trkpt lat="45.183091" lon="7.9928745"><ele>165.0</ele><time>2026-05-02T09:54:44.001Z</time></trkpt><trkpt lat="45.1832191" lon="7.9928324"><ele>165.0</ele><time>2026-05-02T09:54:45.004Z</time></trkpt><trkpt lat="45.1833429" lon="7.9927841"><ele>165.0</ele><time>2026-05-02T09:54:45.995Z</time></trkpt><trkpt lat="45.1834572" lon="7.9927376"><ele>164.8</ele><time>2026-05-02T09:54:47.005Z</time></trkpt><trkpt lat="45.1835632" lon="7.9926929"><ele>164.6</ele><time>2026-05-02T09:54:48.003Z</time></trkpt><trkpt lat="45.1836629" lon="7.9926433"><ele>164.39999999999998</ele><time>2026-05-02T09:54:49Z</time></trkpt><trkpt lat="45.1837636" lon="7.9925949"><ele>164.2</ele><time>2026-05-02T09:54:50.001Z</time></trkpt><trkpt lat="45.1838678" lon="7.9925487"><ele>164.0</ele><time>2026-05-02T09:54:50.998Z</time></trkpt><trkpt lat="45.1839745" lon="7.992504"><ele>164.0</ele><time>2026-05-02T09:54:52.01Z</time></trkpt><trkpt lat="45.1840788" lon="7.9924503"><ele>164.0</ele><time>2026-05-02T09:54:53.002Z</time></trkpt><trkpt lat="45.1841815" lon="7.9923827"><ele>164.0</ele><time>2026-05-02T09:54:53.997Z</time></trkpt><trkpt lat="45.1842795" lon="7.992301"><ele>164.0</ele><time>2026-05-02T09:54:54.997Z</time></trkpt><trkpt lat="45.1843765" lon="7.9922151"><ele>164.0</ele><time>2026-05-02T09:54:56.008Z</time></trkpt><trkpt lat="45.1844731" lon="7.9921272"><ele>164.0</ele><time>2026-05-02T09:54:56.998Z</time></trkpt><trkpt lat="45.1845798" lon="7.9920516"><ele>164.0</ele><time>2026-05-02T09:54:58.002Z</time></trkpt><trkpt lat="45.1846866" lon="7.991978"><ele>164.0</ele><time>2026-05-02T09:54:59.002Z</time></trkpt><trkpt lat="45.1847902" lon="7.9919186"><ele>163.75</ele><time>2026-05-02T09:55:00.004Z</time></trkpt><trkpt lat="45.1849008" lon="7.9918736"><ele>163.5</ele><time>2026-05-02T09:55:00.997Z</time></trkpt><trkpt lat="45.1850122" lon="7.9918475"><ele>163.25</ele><time>2026-05-02T09:55:02.003Z</time></trkpt><trkpt lat="45.1851327" lon="7.9918424"><ele>163.0</ele><time>2026-05-02T09:55:03.004Z</time></trkpt><trkpt lat="45.1852563" lon="7.9918594"><ele>163.0</ele><time>2026-05-02T09:55:04.007Z</time></trkpt><trkpt lat="45.1853838" lon="7.9918992"><ele>163.0</ele><time>2026-05-02T09:55:05.004Z</time></trkpt><trkpt lat="45.1855205" lon="7.9919445"><ele>163.0</ele><time>2026-05-02T09:55:06Z</time></trkpt><trkpt lat="45.1856614" lon="7.9919961"><ele>163.0</ele><time>2026-05-02T09:55:07.004Z</time></trkpt><trkpt lat="45.1858081" lon="7.9920428"><ele>162.66666666666669</ele><time>2026-05-02T09:55:08.001Z</time></trkpt><trkpt lat="45.1859587" lon="7.9920979"><ele>162.33333333333334</ele><time>2026-05-02T09:55:09.001Z</time></trkpt><trkpt lat="45.1861075" lon="7.9921568"><ele>162.0</ele><time>2026-05-02T09:55:09.995Z</time></trkpt><trkpt lat="45.1862604" lon="7.992215"><ele>162.0</ele><time>2026-05-02T09:55:11Z</time></trkpt><trkpt lat="45.1864167" lon="7.992274"><ele>162.0</ele><time>2026-05-02T09:55:12Z</time></trkpt><trkpt lat="45.1865699" lon="7.9923378"><ele>162.0</ele><time>2026-05-02T09:55:13.008Z</time></trkpt><trkpt lat="45.186726" lon="7.9923995"><ele>162.25</ele><time>2026-05-02T09:55:14.002Z</time></trkpt><trkpt lat="45.1868754" lon="7.9924651"><ele>162.5</ele><time>2026-05-02T09:55:14.997Z</time></trkpt><trkpt lat="45.1870176" lon="7.9925258"><ele>162.75</ele><time>2026-05-02T09:55:16.001Z</time></trkpt><trkpt lat="45.1871415" lon="7.9925811"><ele>163.0</ele><time>2026-05-02T09:55:17Z</time></trkpt><trkpt lat="45.1872549" lon="7.9926326"><ele>163.2</ele><time>2026-05-02T09:55:18Z</time></trkpt><trkpt lat="45.1873597" lon="7.992675"><ele>163.4</ele><time>2026-05-02T09:55:19.009Z</time></trkpt><trkpt lat="45.1874497" lon="7.992714"><ele>163.6</ele><time>2026-05-02T09:55:19.998Z</time></trkpt><trkpt lat="45.1875243" lon="7.9927488"><ele>163.79999999999998</ele><time>2026-05-02T09:55:21.003Z</time></trkpt><trkpt lat="45.1876281" lon="7.992803"><ele>164.0</ele><time>2026-05-02T09:55:23.009Z</time></trkpt><trkpt lat="45.1877052" lon="7.9928376"><ele>164.0</ele><time>2026-05-02T09:55:24.993Z</time></trkpt><trkpt lat="45.1877986" lon="7.9928989"><ele>164.0</ele><time>2026-05-02T09:55:29.005Z</time></trkpt><trkpt lat="45.1878798" lon="7.9929887"><ele>164.0</ele><time>2026-05-02T09:55:32.002Z</time></trkpt><trkpt lat="45.1879792" lon="7.9931245"><ele>164.0</ele><time>2026-05-02T09:55:34.002Z</time></trkpt><trkpt lat="45.1880406" lon="7.9932139"><ele>164.0</ele><time>2026-05-02T09:55:34.998Z</time></trkpt><trkpt lat="45.1881087" lon="7.9933103"><ele>163.79999999999998</ele><time>2026-05-02T09:55:36.008Z</time></trkpt><trkpt lat="45.1881773" lon="7.9934052"><ele>163.6</ele><time>2026-05-02T09:55:37.002Z</time></trkpt><trkpt lat="45.1882484" lon="7.9935026"><ele>163.4</ele><time>2026-05-02T09:55:38.001Z</time></trkpt><trkpt lat="45.1883254" lon="7.9936014"><ele>163.2</ele><time>2026-05-02T09:55:39Z</time></trkpt><trkpt lat="45.1884135" lon="7.9937072"><ele>163.0</ele><time>2026-05-02T09:55:39.997Z</time></trkpt><trkpt lat="45.1885247" lon="7.9937804"><ele>163.0</ele><time>2026-05-02T09:55:41.007Z</time></trkpt><trkpt lat="45.1886599" lon="7.9938582"><ele>163.0</ele><time>2026-05-02T09:55:42.002Z</time></trkpt><trkpt lat="45.1888073" lon="7.9939355"><ele>163.0</ele><time>2026-05-02T09:55:43.003Z</time></trkpt><trkpt lat="45.1889597" lon="7.9940117"><ele>162.66666666666669</ele><time>2026-05-02T09:55:44.007Z</time></trkpt><trkpt lat="45.1891075" lon="7.994096"><ele>162.33333333333334</ele><time>2026-05-02T09:55:45.003Z</time></trkpt><trkpt lat="45.1892461" lon="7.9941821"><ele>162.0</ele><time>2026-05-02T09:55:45.998Z</time></trkpt><trkpt lat="45.1893767" lon="7.9942683"><ele>162.0</ele><time>2026-05-02T09:55:47.002Z</time></trkpt><trkpt lat="45.189502" lon="7.9943554"><ele>162.0</ele><time>2026-05-02T09:55:48Z</time></trkpt><trkpt lat="45.1896244" lon="7.9944356"><ele>162.0</ele><time>2026-05-02T09:55:48.996Z</time></trkpt><trkpt lat="45.1897442" lon="7.9945136"><ele>162.0</ele><time>2026-05-02T09:55:50.001Z</time></trkpt><trkpt lat="45.1898603" lon="7.9945885"><ele>163.0</ele><time>2026-05-02T09:55:51.005Z</time></trkpt><trkpt lat="45.1899723" lon="7.9946579"><ele>164.0</ele><time>2026-05-02T09:55:51.995Z</time></trkpt><trkpt lat="45.1900822" lon="7.9947233"><ele>165.0</ele><time>2026-05-02T09:55:53Z</time></trkpt><trkpt lat="45.1901862" lon="7.9947788"><ele>166.0</ele><time>2026-05-02T09:55:53.996Z</time></trkpt><trkpt lat="45.1902829" lon="7.9948259"><ele>166.0</ele><time>2026-05-02T09:55:54.998Z</time></trkpt><trkpt lat="45.1903736" lon="7.994865"><ele>166.0</ele><time>2026-05-02T09:55:55.994Z</time></trkpt><trkpt lat="45.1904588" lon="7.994899"><ele>166.0</ele><time>2026-05-02T09:55:56.996Z</time></trkpt><trkpt lat="45.1905475" lon="7.9949318"><ele>166.0</ele><time>2026-05-02T09:55:58.001Z</time></trkpt><trkpt lat="45.1906342" lon="7.9949526"><ele>166.0</ele><time>2026-05-02T09:55:59.002Z</time></trkpt><trkpt lat="45.1907192" lon="7.9949754"><ele>166.0</ele><time>2026-05-02T09:56:00.01Z</time></trkpt><trkpt lat="45.1907917" lon="7.9949938"><ele>167.0</ele><time>2026-05-02T09:56:00.992Z</time></trkpt><trkpt lat="45.1909" lon="7.9950147"><ele>168.0</ele><time>2026-05-02T09:56:03.003Z</time></trkpt><trkpt lat="45.1910371" lon="7.9950526"><ele>169.0</ele><time>2026-05-02T09:56:10.004Z</time></trkpt><trkpt lat="45.191063" lon="7.9952154"><ele>170.0</ele><time>2026-05-02T09:56:12Z</time></trkpt><trkpt lat="45.1910398" lon="7.9953583"><ele>170.0</ele><time>2026-05-02T09:56:12.991Z</time></trkpt><trkpt lat="45.1910192" lon="7.9955359"><ele>170.0</ele><time>2026-05-02T09:56:14Z</time></trkpt><trkpt lat="45.1910101" lon="7.9957381"><ele>170.0</ele><time>2026-05-02T09:56:15.001Z</time></trkpt><trkpt lat="45.1909977" lon="7.9959662"><ele>170.0</ele><time>2026-05-02T09:56:15.992Z</time></trkpt><trkpt lat="45.1909821" lon="7.9962121"><ele>170.33333333333331</ele><time>2026-05-02T09:56:17.001Z</time></trkpt><trkpt lat="45.1909677" lon="7.9964738"><ele>170.66666666666666</ele><time>2026-05-02T09:56:17.998Z</time></trkpt><trkpt lat="45.1909495" lon="7.9967372"><ele>171.0</ele><time>2026-05-02T09:56:19.007Z</time></trkpt><trkpt lat="45.1909274" lon="7.9970153"><ele>171.33333333333334</ele><time>2026-05-02T09:56:19.994Z</time></trkpt><trkpt lat="45.1909143" lon="7.9972924"><ele>171.66666666666669</ele><time>2026-05-02T09:56:21Z</time></trkpt><trkpt lat="45.1909035" lon="7.9975613"><ele>172.0</ele><time>2026-05-02T09:56:22.001Z</time></trkpt><trkpt lat="45.1908953" lon="7.9978271"><ele>171.33333333333334</ele><time>2026-05-02T09:56:23.002Z</time></trkpt><trkpt lat="45.1908844" lon="7.9980938"><ele>170.66666666666666</ele><time>2026-05-02T09:56:23.996Z</time></trkpt><trkpt lat="45.1908726" lon="7.9983493"><ele>170.0</ele><time>2026-05-02T09:56:24.994Z</time></trkpt><trkpt lat="45.1908582" lon="7.9985936"><ele>170.0</ele><time>2026-05-02T09:56:25.997Z</time></trkpt><trkpt lat="45.1908465" lon="7.998819"><ele>170.0</ele><time>2026-05-02T09:56:26.996Z</time></trkpt><trkpt lat="45.1908381" lon="7.9990307"><ele>170.0</ele><time>2026-05-02T09:56:28.002Z</time></trkpt><trkpt lat="45.1908294" lon="7.999237"><ele>170.0</ele><time>2026-05-02T09:56:28.992Z</time></trkpt><trkpt lat="45.1908189" lon="7.9994429"><ele>170.0</ele><time>2026-05-02T09:56:30Z</time></trkpt><trkpt lat="45.190807" lon="7.999645"><ele>170.0</ele><time>2026-05-02T09:56:30.998Z</time></trkpt><trkpt lat="45.1907907" lon="7.9998417"><ele>170.0</ele><time>2026-05-02T09:56:32.003Z</time></trkpt><trkpt lat="45.1907616" lon="8.0000344"><ele>170.0</ele><time>2026-05-02T09:56:32.996Z</time></trkpt><trkpt lat="45.1907169" lon="8.0002178"><ele>170.0</ele><time>2026-05-02T09:56:33.992Z</time></trkpt><trkpt lat="45.1906575" lon="8.000391"><ele>170.0</ele><time>2026-05-02T09:56:35.001Z</time></trkpt><trkpt lat="45.1905855" lon="8.0005508"><ele>170.0</ele><time>2026-05-02T09:56:36.002Z</time></trkpt><trkpt lat="45.1905035" lon="8.0006875"><ele>169.6</ele><time>2026-05-02T09:56:37.018Z</time></trkpt><trkpt lat="45.1904184" lon="8.0008037"><ele>169.2</ele><time>2026-05-02T09:56:38.003Z</time></trkpt><trkpt lat="45.1903372" lon="8.0009102"><ele>168.8</ele><time>2026-05-02T09:56:38.997Z</time></trkpt><trkpt lat="45.1902709" lon="8.0010145"><ele>168.4</ele><time>2026-05-02T09:56:40.005Z</time></trkpt><trkpt lat="45.1902268" lon="8.0011099"><ele>168.0</ele><time>2026-05-02T09:56:40.999Z</time></trkpt><trkpt lat="45.1901987" lon="8.0011979"><ele>168.0</ele><time>2026-05-02T09:56:42Z</time></trkpt><trkpt lat="45.1901764" lon="8.0013407"><ele>168.0</ele><time>2026-05-02T09:56:43.995Z</time></trkpt><trkpt lat="45.1901783" lon="8.0014661"><ele>168.0</ele><time>2026-05-02T09:56:45.998Z</time></trkpt><trkpt lat="45.1901861" lon="8.0015715"><ele>168.0</ele><time>2026-05-02T09:56:46.993Z</time></trkpt><trkpt lat="45.1902069" lon="8.0017058"><ele>168.0</ele><time>2026-05-02T09:56:47.996Z</time></trkpt><trkpt lat="45.1902458" lon="8.0018643"><ele>167.33333333333334</ele><time>2026-05-02T09:56:49.002Z</time></trkpt><trkpt lat="45.1903008" lon="8.0020482"><ele>166.66666666666669</ele><time>2026-05-02T09:56:49.999Z</time></trkpt><trkpt lat="45.1903652" lon="8.0022532"><ele>166.0</ele><time>2026-05-02T09:56:50.997Z</time></trkpt><trkpt lat="45.19043" lon="8.0024845"><ele>166.0</ele><time>2026-05-02T09:56:52.007Z</time></trkpt><trkpt lat="45.1904885" lon="8.0027354"><ele>166.0</ele><time>2026-05-02T09:56:53.001Z</time></trkpt><trkpt lat="45.1905362" lon="8.0029976"><ele>166.0</ele><time>2026-05-02T09:56:53.997Z</time></trkpt><trkpt lat="45.1905675" lon="8.0032597"><ele>166.33333333333334</ele><time>2026-05-02T09:56:55.006Z</time></trkpt><trkpt lat="45.1905826" lon="8.0035299"><ele>166.66666666666666</ele><time>2026-05-02T09:56:55.994Z</time></trkpt><trkpt lat="45.1905849" lon="8.0038034"><ele>167.0</ele><time>2026-05-02T09:56:57.006Z</time></trkpt><trkpt lat="45.1905797" lon="8.0040771"><ele>167.33333333333331</ele><time>2026-05-02T09:56:57.999Z</time></trkpt><trkpt lat="45.1905711" lon="8.0043494"><ele>167.66666666666666</ele><time>2026-05-02T09:56:59Z</time></trkpt><trkpt lat="45.1905619" lon="8.0046211"><ele>168.0</ele><time>2026-05-02T09:56:59.998Z</time></trkpt><trkpt lat="45.1905518" lon="8.0048915"><ele>168.33333333333334</ele><time>2026-05-02T09:57:01.002Z</time></trkpt><trkpt lat="45.1905412" lon="8.0051604"><ele>168.66666666666669</ele><time>2026-05-02T09:57:01.997Z</time></trkpt><trkpt lat="45.1905306" lon="8.0054263"><ele>169.0</ele><time>2026-05-02T09:57:03.005Z</time></trkpt><trkpt lat="45.1905181" lon="8.0056883"><ele>168.66666666666669</ele><time>2026-05-02T09:57:03.999Z</time></trkpt><trkpt lat="45.1905046" lon="8.005945"><ele>168.33333333333334</ele><time>2026-05-02T09:57:05.003Z</time></trkpt><trkpt lat="45.1904912" lon="8.0061937"><ele>168.0</ele><time>2026-05-02T09:57:05.995Z</time></trkpt><trkpt lat="45.1904794" lon="8.006439"><ele>168.33333333333334</ele><time>2026-05-02T09:57:06.99Z</time></trkpt><trkpt lat="45.190467" lon="8.0066773"><ele>168.66666666666669</ele><time>2026-05-02T09:57:08.005Z</time></trkpt><trkpt lat="45.1904573" lon="8.0069172"><ele>169.0</ele><time>2026-05-02T09:57:09.005Z</time></trkpt><trkpt lat="45.1904448" lon="8.0071536"><ele>169.0</ele><time>2026-05-02T09:57:09.999Z</time></trkpt><trkpt lat="45.1904346" lon="8.0073961"><ele>169.0</ele><time>2026-05-02T09:57:11.003Z</time></trkpt><trkpt lat="45.190423" lon="8.0076369"><ele>169.0</ele><time>2026-05-02T09:57:12.01Z</time></trkpt><trkpt lat="45.1904119" lon="8.007876"><ele>168.66666666666669</ele><time>2026-05-02T09:57:12.995Z</time></trkpt><trkpt lat="45.1904012" lon="8.0081134"><ele>168.33333333333334</ele><time>2026-05-02T09:57:13.994Z</time></trkpt><trkpt lat="45.1903918" lon="8.0083356"><ele>168.0</ele><time>2026-05-02T09:57:15.007Z</time></trkpt><trkpt lat="45.1903821" lon="8.0085569"><ele>167.66666666666666</ele><time>2026-05-02T09:57:16Z</time></trkpt><trkpt lat="45.1903781" lon="8.0087731"><ele>167.33333333333331</ele><time>2026-05-02T09:57:17.001Z</time></trkpt><trkpt lat="45.1903667" lon="8.0090001"><ele>167.0</ele><time>2026-05-02T09:57:18.001Z</time></trkpt><trkpt lat="45.1903588" lon="8.0092177"><ele>166.66666666666666</ele><time>2026-05-02T09:57:19.007Z</time></trkpt><trkpt lat="45.190348" lon="8.0094391"><ele>166.33333333333334</ele><time>2026-05-02T09:57:19.995Z</time></trkpt><trkpt lat="45.1903357" lon="8.0096603"><ele>166.0</ele><time>2026-05-02T09:57:21Z</time></trkpt><trkpt lat="45.1903219" lon="8.0098814"><ele>167.0</ele><time>2026-05-02T09:57:21.996Z</time></trkpt><trkpt lat="45.1903122" lon="8.0101014"><ele>168.0</ele><time>2026-05-02T09:57:23.002Z</time></trkpt><trkpt lat="45.1903049" lon="8.0103207"><ele>169.0</ele><time>2026-05-02T09:57:24.002Z</time></trkpt><trkpt lat="45.1902978" lon="8.0105349"><ele>169.0</ele><time>2026-05-02T09:57:25.008Z</time></trkpt><trkpt lat="45.1902917" lon="8.0107491"><ele>169.0</ele><time>2026-05-02T09:57:25.998Z</time></trkpt><trkpt lat="45.190284" lon="8.0109651"><ele>169.0</ele><time>2026-05-02T09:57:26.999Z</time></trkpt><trkpt lat="45.1902758" lon="8.0111887"><ele>169.0</ele><time>2026-05-02T09:57:28.002Z</time></trkpt><trkpt lat="45.1902689" lon="8.0114281"><ele>169.0</ele><time>2026-05-02T09:57:29Z</time></trkpt><trkpt lat="45.1902639" lon="8.0116861"><ele>169.0</ele><time>2026-05-02T09:57:30.002Z</time></trkpt><trkpt lat="45.1902642" lon="8.0119529"><ele>169.0</ele><time>2026-05-02T09:57:30.998Z</time></trkpt><trkpt lat="45.1902552" lon="8.0122491"><ele>169.0</ele><time>2026-05-02T09:57:31.994Z</time></trkpt><trkpt lat="45.1902384" lon="8.0125545"><ele>169.0</ele><time>2026-05-02T09:57:33.002Z</time></trkpt><trkpt lat="45.1902113" lon="8.012873"><ele>169.33333333333334</ele><time>2026-05-02T09:57:34Z</time></trkpt><trkpt lat="45.1901777" lon="8.0131854"><ele>169.66666666666666</ele><time>2026-05-02T09:57:35.001Z</time></trkpt><trkpt lat="45.1901607" lon="8.013499"><ele>170.0</ele><time>2026-05-02T09:57:36.001Z</time></trkpt><trkpt lat="45.1901445" lon="8.01381"><ele>169.33333333333331</ele><time>2026-05-02T09:57:36.998Z</time></trkpt><trkpt lat="45.1901261" lon="8.0141113"><ele>168.66666666666666</ele><time>2026-05-02T09:57:38.003Z</time></trkpt><trkpt lat="45.1901099" lon="8.0144067"><ele>168.0</ele><time>2026-05-02T09:57:39.002Z</time></trkpt><trkpt lat="45.1900924" lon="8.0146969"><ele>168.0</ele><time>2026-05-02T09:57:40Z</time></trkpt><trkpt lat="45.1900745" lon="8.0149881"><ele>168.0</ele><time>2026-05-02T09:57:41.006Z</time></trkpt><trkpt lat="45.1900564" lon="8.0152748"><ele>168.0</ele><time>2026-05-02T09:57:42.001Z</time></trkpt><trkpt lat="45.1900397" lon="8.0155588"><ele>168.33333333333334</ele><time>2026-05-02T09:57:42.994Z</time></trkpt><trkpt lat="45.1900224" lon="8.0158413"><ele>168.66666666666669</ele><time>2026-05-02T09:57:43.999Z</time></trkpt><trkpt lat="45.1900084" lon="8.0161235"><ele>169.0</ele><time>2026-05-02T09:57:44.996Z</time></trkpt><trkpt lat="45.1899899" lon="8.0164049"><ele>169.33333333333334</ele><time>2026-05-02T09:57:46.001Z</time></trkpt><trkpt lat="45.1899703" lon="8.0166878"><ele>169.66666666666666</ele><time>2026-05-02T09:57:46.999Z</time></trkpt><trkpt lat="45.1899525" lon="8.0169668"><ele>170.0</ele><time>2026-05-02T09:57:48Z</time></trkpt><trkpt lat="45.189937" lon="8.0172291"><ele>170.0</ele><time>2026-05-02T09:57:49.002Z</time></trkpt><trkpt lat="45.1899206" lon="8.0174715"><ele>170.0</ele><time>2026-05-02T09:57:50.005Z</time></trkpt><trkpt lat="45.1899061" lon="8.0176934"><ele>170.0</ele><time>2026-05-02T09:57:51.002Z</time></trkpt><trkpt lat="45.1898922" lon="8.0179002"><ele>169.25</ele><time>2026-05-02T09:57:51.994Z</time></trkpt><trkpt lat="45.1898802" lon="8.0180975"><ele>168.5</ele><time>2026-05-02T09:57:53.007Z</time></trkpt><trkpt lat="45.1898689" lon="8.0182914"><ele>167.75</ele><time>2026-05-02T09:57:53.996Z</time></trkpt><trkpt lat="45.1898613" lon="8.0184754"><ele>167.0</ele><time>2026-05-02T09:57:55.002Z</time></trkpt><trkpt lat="45.189851" lon="8.0186677"><ele>167.0</ele><time>2026-05-02T09:57:56.009Z</time></trkpt><trkpt lat="45.1898393" lon="8.0188614"><ele>167.0</ele><time>2026-05-02T09:57:56.997Z</time></trkpt><trkpt lat="45.1898274" lon="8.0190593"><ele>167.0</ele><time>2026-05-02T09:57:58.003Z</time></trkpt><trkpt lat="45.1898118" lon="8.0192588"><ele>167.0</ele><time>2026-05-02T09:57:58.999Z</time></trkpt><trkpt lat="45.1897988" lon="8.019458"><ele>167.33333333333331</ele><time>2026-05-02T09:58:00.005Z</time></trkpt><trkpt lat="45.1897865" lon="8.0196616"><ele>167.66666666666666</ele><time>2026-05-02T09:58:00.998Z</time></trkpt><trkpt lat="45.1897698" lon="8.019879"><ele>168.0</ele><time>2026-05-02T09:58:02Z</time></trkpt><trkpt lat="45.1897538" lon="8.0201014"><ele>168.0</ele><time>2026-05-02T09:58:03.011Z</time></trkpt><trkpt lat="45.1897392" lon="8.0203346"><ele>168.0</ele><time>2026-05-02T09:58:04.003Z</time></trkpt><trkpt lat="45.1897244" lon="8.0205736"><ele>168.0</ele><time>2026-05-02T09:58:05.002Z</time></trkpt><trkpt lat="45.1897098" lon="8.0208182"><ele>169.0</ele><time>2026-05-02T09:58:06.001Z</time></trkpt><trkpt lat="45.189695" lon="8.0210616"><ele>170.0</ele><time>2026-05-02T09:58:07.007Z</time></trkpt><trkpt lat="45.1896815" lon="8.0213087"><ele>171.0</ele><time>2026-05-02T09:58:08Z</time></trkpt><trkpt lat="45.1896659" lon="8.0215614"><ele>170.0</ele><time>2026-05-02T09:58:09.004Z</time></trkpt><trkpt lat="45.1896472" lon="8.0218205"><ele>169.0</ele><time>2026-05-02T09:58:09.997Z</time></trkpt><trkpt lat="45.1896315" lon="8.0220871"><ele>168.0</ele><time>2026-05-02T09:58:11.003Z</time></trkpt><trkpt lat="45.1896178" lon="8.0223686"><ele>167.33333333333334</ele><time>2026-05-02T09:58:12.003Z</time></trkpt><trkpt lat="45.1896044" lon="8.0226544"><ele>166.66666666666669</ele><time>2026-05-02T09:58:13.002Z</time></trkpt><trkpt lat="45.1895863" lon="8.022963"><ele>166.0</ele><time>2026-05-02T09:58:14.011Z</time></trkpt><trkpt lat="45.1895729" lon="8.0232701"><ele>166.33333333333334</ele><time>2026-05-02T09:58:15Z</time></trkpt><trkpt lat="45.1895562" lon="8.0235834"><ele>166.66666666666666</ele><time>2026-05-02T09:58:16.003Z</time></trkpt><trkpt lat="45.1895398" lon="8.0238974"><ele>167.0</ele><time>2026-05-02T09:58:17Z</time></trkpt><trkpt lat="45.1895218" lon="8.0242196"><ele>167.0</ele><time>2026-05-02T09:58:18.002Z</time></trkpt><trkpt lat="45.1895077" lon="8.0245272"><ele>167.0</ele><time>2026-05-02T09:58:18.997Z</time></trkpt><trkpt lat="45.1894898" lon="8.0248368"><ele>167.0</ele><time>2026-05-02T09:58:20.002Z</time></trkpt><trkpt lat="45.1894686" lon="8.025145"><ele>167.0</ele><time>2026-05-02T09:58:21.002Z</time></trkpt><trkpt lat="45.1894531" lon="8.0254377"><ele>167.0</ele><time>2026-05-02T09:58:21.996Z</time></trkpt><trkpt lat="45.1894392" lon="8.025716"><ele>167.0</ele><time>2026-05-02T09:58:23.005Z</time></trkpt><trkpt lat="45.1894292" lon="8.0259721"><ele>167.0</ele><time>2026-05-02T09:58:23.994Z</time></trkpt><trkpt lat="45.1894213" lon="8.0262157"><ele>167.0</ele><time>2026-05-02T09:58:24.999Z</time></trkpt><trkpt lat="45.1894138" lon="8.0264608"><ele>167.0</ele><time>2026-05-02T09:58:26.002Z</time></trkpt><trkpt lat="45.1894067" lon="8.0267051"><ele>166.66666666666666</ele><time>2026-05-02T09:58:26.996Z</time></trkpt><trkpt lat="45.1893978" lon="8.0269435"><ele>166.33333333333334</ele><time>2026-05-02T09:58:28.011Z</time></trkpt><trkpt lat="45.1893863" lon="8.0271729"><ele>166.0</ele><time>2026-05-02T09:58:28.995Z</time></trkpt><trkpt lat="45.1893779" lon="8.0274019"><ele>166.25</ele><time>2026-05-02T09:58:29.998Z</time></trkpt><trkpt lat="45.1893714" lon="8.0276237"><ele>166.5</ele><time>2026-05-02T09:58:31Z</time></trkpt><trkpt lat="45.1893676" lon="8.027832"><ele>166.75</ele><time>2026-05-02T09:58:31.995Z</time></trkpt><trkpt lat="45.1893637" lon="8.0280291"><ele>167.0</ele><time>2026-05-02T09:58:33.002Z</time></trkpt><trkpt lat="45.1893589" lon="8.0282214"><ele>167.0</ele><time>2026-05-02T09:58:34Z</time></trkpt><trkpt lat="45.1893564" lon="8.0284057"><ele>167.0</ele><time>2026-05-02T09:58:34.995Z</time></trkpt><trkpt lat="45.189357" lon="8.0285827"><ele>167.0</ele><time>2026-05-02T09:58:36.003Z</time></trkpt><trkpt lat="45.1893607" lon="8.0287602"><ele>167.0</ele><time>2026-05-02T09:58:36.993Z</time></trkpt><trkpt lat="45.1893637" lon="8.0289383"><ele>167.0</ele><time>2026-05-02T09:58:38.004Z</time></trkpt><trkpt lat="45.1893632" lon="8.0291191"><ele>167.0</ele><time>2026-05-02T09:58:39.004Z</time></trkpt><trkpt lat="45.1893596" lon="8.0292999"><ele>167.0</ele><time>2026-05-02T09:58:40.005Z</time></trkpt><trkpt lat="45.1893543" lon="8.029482"><ele>167.0</ele><time>2026-05-02T09:58:41.005Z</time></trkpt><trkpt lat="45.1893485" lon="8.0296654"><ele>167.0</ele><time>2026-05-02T09:58:42.001Z</time></trkpt><trkpt lat="45.1893407" lon="8.0298478"><ele>167.0</ele><time>2026-05-02T09:58:43.002Z</time></trkpt><trkpt lat="45.1893315" lon="8.0300276"><ele>167.0</ele><time>2026-05-02T09:58:43.995Z</time></trkpt><trkpt lat="45.1893199" lon="8.0302067"><ele>167.0</ele><time>2026-05-02T09:58:44.997Z</time></trkpt><trkpt lat="45.1893126" lon="8.0303864"><ele>166.75</ele><time>2026-05-02T09:58:45.998Z</time></trkpt><trkpt lat="45.1892933" lon="8.0305699"><ele>166.5</ele><time>2026-05-02T09:58:47.003Z</time></trkpt><trkpt lat="45.1892818" lon="8.0307647"><ele>166.25</ele><time>2026-05-02T09:58:48.002Z</time></trkpt><trkpt lat="45.1892757" lon="8.0309516"><ele>166.0</ele><time>2026-05-02T09:58:48.994Z</time></trkpt><trkpt lat="45.1892703" lon="8.0311406"><ele>166.0</ele><time>2026-05-02T09:58:50.012Z</time></trkpt><trkpt lat="45.1892638" lon="8.031349"><ele>166.0</ele><time>2026-05-02T09:58:51Z</time></trkpt><trkpt lat="45.1892556" lon="8.0315455"><ele>166.0</ele><time>2026-05-02T09:58:52.006Z</time></trkpt><trkpt lat="45.1892508" lon="8.0317327"><ele>166.0</ele><time>2026-05-02T09:58:52.997Z</time></trkpt><trkpt lat="45.1892537" lon="8.0319185"><ele>165.5</ele><time>2026-05-02T09:58:53.998Z</time></trkpt><trkpt lat="45.1892612" lon="8.0321028"><ele>165.0</ele><time>2026-05-02T09:58:55.002Z</time></trkpt><trkpt lat="45.1892821" lon="8.0322851"><ele>164.5</ele><time>2026-05-02T09:58:56Z</time></trkpt><trkpt lat="45.189313" lon="8.0324647"><ele>164.0</ele><time>2026-05-02T09:58:57Z</time></trkpt><trkpt lat="45.1893532" lon="8.0326463"><ele>164.0</ele><time>2026-05-02T09:58:58.001Z</time></trkpt><trkpt lat="45.1894022" lon="8.0328341"><ele>164.0</ele><time>2026-05-02T09:58:58.994Z</time></trkpt><trkpt lat="45.1894565" lon="8.0330341"><ele>164.0</ele><time>2026-05-02T09:58:59.991Z</time></trkpt><trkpt lat="45.1895161" lon="8.0332489"><ele>163.66666666666666</ele><time>2026-05-02T09:59:00.997Z</time></trkpt><trkpt lat="45.1895802" lon="8.033479"><ele>163.33333333333334</ele><time>2026-05-02T09:59:02.001Z</time></trkpt><trkpt lat="45.1896528" lon="8.0337268"><ele>163.0</ele><time>2026-05-02T09:59:03.002Z</time></trkpt><trkpt lat="45.189732" lon="8.0339931"><ele>162.66666666666669</ele><time>2026-05-02T09:59:03.999Z</time></trkpt><trkpt lat="45.1898149" lon="8.0342738"><ele>162.33333333333334</ele><time>2026-05-02T09:59:05.002Z</time></trkpt><trkpt lat="45.1899023" lon="8.0345691"><ele>162.0</ele><time>2026-05-02T09:59:05.998Z</time></trkpt><trkpt lat="45.1899931" lon="8.0348794"><ele>161.5</ele><time>2026-05-02T09:59:07.001Z</time></trkpt><trkpt lat="45.1900886" lon="8.0352029"><ele>161.0</ele><time>2026-05-02T09:59:07.997Z</time></trkpt><trkpt lat="45.1901928" lon="8.0355344"><ele>160.5</ele><time>2026-05-02T09:59:08.999Z</time></trkpt><trkpt lat="45.1903028" lon="8.0358773"><ele>160.0</ele><time>2026-05-02T09:59:10.002Z</time></trkpt><trkpt lat="45.1904132" lon="8.0362319"><ele>160.0</ele><time>2026-05-02T09:59:10.994Z</time></trkpt><trkpt lat="45.1905253" lon="8.0365842"><ele>160.0</ele><time>2026-05-02T09:59:12.002Z</time></trkpt><trkpt lat="45.1906312" lon="8.0369415"><ele>161.0</ele><time>2026-05-02T09:59:12.992Z</time></trkpt><trkpt lat="45.1907439" lon="8.0372908"><ele>162.0</ele><time>2026-05-02T09:59:13.995Z</time></trkpt><trkpt lat="45.1908525" lon="8.0376395"><ele>162.5</ele><time>2026-05-02T09:59:14.995Z</time></trkpt><trkpt lat="45.1909689" lon="8.0379867"><ele>163.0</ele><time>2026-05-02T09:59:16.001Z</time></trkpt><trkpt lat="45.1910871" lon="8.0383342"><ele>162.0</ele><time>2026-05-02T09:59:17.002Z</time></trkpt><trkpt lat="45.191208" lon="8.0386816"><ele>161.0</ele><time>2026-05-02T09:59:17.997Z</time></trkpt><trkpt lat="45.19133" lon="8.0390323"><ele>161.5</ele><time>2026-05-02T09:59:18.999Z</time></trkpt><trkpt lat="45.1914539" lon="8.0393878"><ele>162.0</ele><time>2026-05-02T09:59:19.994Z</time></trkpt><trkpt lat="45.1915779" lon="8.0397483"><ele>161.5</ele><time>2026-05-02T09:59:20.987Z</time></trkpt><trkpt lat="45.1917006" lon="8.0401141"><ele>161.0</ele><time>2026-05-02T09:59:22.011Z</time></trkpt><trkpt lat="45.1918212" lon="8.0404821"><ele>160.0</ele><time>2026-05-02T09:59:23.004Z</time></trkpt><trkpt lat="45.1919402" lon="8.0408453"><ele>159.0</ele><time>2026-05-02T09:59:23.993Z</time></trkpt><trkpt lat="45.1920539" lon="8.0411947"><ele>159.0</ele><time>2026-05-02T09:59:25.003Z</time></trkpt><trkpt lat="45.1921613" lon="8.0415286"><ele>159.0</ele><time>2026-05-02T09:59:25.994Z</time></trkpt><trkpt lat="45.1922608" lon="8.0418396"><ele>161.0</ele><time>2026-05-02T09:59:27.002Z</time></trkpt><trkpt lat="45.1923501" lon="8.0421445"><ele>163.0</ele><time>2026-05-02T09:59:27.998Z</time></trkpt><trkpt lat="45.1924247" lon="8.0424531"><ele>163.0</ele><time>2026-05-02T09:59:29.001Z</time></trkpt><trkpt lat="45.1924803" lon="8.0427688"><ele>163.0</ele><time>2026-05-02T09:59:29.998Z</time></trkpt><trkpt lat="45.1925165" lon="8.0430956"><ele>162.0</ele><time>2026-05-02T09:59:31.001Z</time></trkpt><trkpt lat="45.192536" lon="8.0434393"><ele>161.0</ele><time>2026-05-02T09:59:31.999Z</time></trkpt><trkpt lat="45.1925436" lon="8.0437989"><ele>160.5</ele><time>2026-05-02T09:59:32.99Z</time></trkpt><trkpt lat="45.1925499" lon="8.0441628"><ele>160.0</ele><time>2026-05-02T09:59:33.993Z</time></trkpt><trkpt lat="45.1925538" lon="8.0445484"><ele>160.0</ele><time>2026-05-02T09:59:34.997Z</time></trkpt><trkpt lat="45.1925653" lon="8.0449253"><ele>160.0</ele><time>2026-05-02T09:59:36.003Z</time></trkpt><trkpt lat="45.1925736" lon="8.0452762"><ele>160.0</ele><time>2026-05-02T09:59:36.997Z</time></trkpt><trkpt lat="45.1925851" lon="8.0456034"><ele>160.0</ele><time>2026-05-02T09:59:37.999Z</time></trkpt><trkpt lat="45.1925938" lon="8.045907"><ele>160.0</ele><time>2026-05-02T09:59:38.999Z</time></trkpt><trkpt lat="45.1926034" lon="8.0461928"><ele>160.0</ele><time>2026-05-02T09:59:40.002Z</time></trkpt><trkpt lat="45.1926127" lon="8.0464555"><ele>160.0</ele><time>2026-05-02T09:59:40.993Z</time></trkpt><trkpt lat="45.192621" lon="8.0467025"><ele>160.0</ele><time>2026-05-02T09:59:42.002Z</time></trkpt><trkpt lat="45.1926289" lon="8.0469323"><ele>159.75</ele><time>2026-05-02T09:59:42.997Z</time></trkpt><trkpt lat="45.1926334" lon="8.047149"><ele>159.5</ele><time>2026-05-02T09:59:43.99Z</time></trkpt><trkpt lat="45.1926408" lon="8.0473506"><ele>159.25</ele><time>2026-05-02T09:59:44.992Z</time></trkpt><trkpt lat="45.1926464" lon="8.0475386"><ele>159.0</ele><time>2026-05-02T09:59:45.993Z</time></trkpt><trkpt lat="45.1926493" lon="8.0477177"><ele>159.0</ele><time>2026-05-02T09:59:47Z</time></trkpt><trkpt lat="45.192653" lon="8.0478964"><ele>159.0</ele><time>2026-05-02T09:59:48.004Z</time></trkpt><trkpt lat="45.192661" lon="8.0480741"><ele>159.0</ele><time>2026-05-02T09:59:48.998Z</time></trkpt><trkpt lat="45.1926696" lon="8.0482468"><ele>159.0</ele><time>2026-05-02T09:59:50.006Z</time></trkpt><trkpt lat="45.1926767" lon="8.0484215"><ele>159.0</ele><time>2026-05-02T09:59:50.993Z</time></trkpt><trkpt lat="45.1926859" lon="8.0485831"><ele>159.0</ele><time>2026-05-02T09:59:51.997Z</time></trkpt><trkpt lat="45.1926982" lon="8.0487401"><ele>159.0</ele><time>2026-05-02T09:59:52.994Z</time></trkpt><trkpt lat="45.1927118" lon="8.0488838"><ele>159.0</ele><time>2026-05-02T09:59:54.003Z</time></trkpt><trkpt lat="45.192723" lon="8.0490204"><ele>159.0</ele><time>2026-05-02T09:59:55Z</time></trkpt><trkpt lat="45.1927218" lon="8.0491454"><ele>159.0</ele><time>2026-05-02T09:59:55.998Z</time></trkpt><trkpt lat="45.1926995" lon="8.0492561"><ele>159.0</ele><time>2026-05-02T09:59:56.998Z</time></trkpt><trkpt lat="45.1926527" lon="8.0493431"><ele>159.0</ele><time>2026-05-02T09:59:58.004Z</time></trkpt><trkpt lat="45.1925906" lon="8.0494016"><ele>159.0</ele><time>2026-05-02T09:59:58.999Z</time></trkpt><trkpt lat="45.1925144" lon="8.0494311"><ele>159.0</ele><time>2026-05-02T10:00:00.004Z</time></trkpt><trkpt lat="45.192436" lon="8.0494584"><ele>159.0</ele><time>2026-05-02T10:00:00.992Z</time></trkpt><trkpt lat="45.1923682" lon="8.0495129"><ele>158.8</ele><time>2026-05-02T10:00:01.999Z</time></trkpt><trkpt lat="45.1923176" lon="8.0496013"><ele>158.60000000000002</ele><time>2026-05-02T10:00:03.002Z</time></trkpt><trkpt lat="45.1922903" lon="8.0497148"><ele>158.4</ele><time>2026-05-02T10:00:04Z</time></trkpt><trkpt lat="45.1922793" lon="8.0498467"><ele>158.20000000000002</ele><time>2026-05-02T10:00:04.999Z</time></trkpt><trkpt lat="45.1922721" lon="8.0499932"><ele>158.0</ele><time>2026-05-02T10:00:06.002Z</time></trkpt><trkpt lat="45.1922499" lon="8.0501408"><ele>158.0</ele><time>2026-05-02T10:00:07.005Z</time></trkpt><trkpt lat="45.192204" lon="8.0502907"><ele>158.0</ele><time>2026-05-02T10:00:07.995Z</time></trkpt><trkpt lat="45.1921366" lon="8.0504596"><ele>158.0</ele><time>2026-05-02T10:00:09.004Z</time></trkpt><trkpt lat="45.1920629" lon="8.0506427"><ele>158.0</ele><time>2026-05-02T10:00:10.001Z</time></trkpt><trkpt lat="45.1919829" lon="8.0508459"><ele>158.66666666666666</ele><time>2026-05-02T10:00:11.009Z</time></trkpt><trkpt lat="45.191893" lon="8.0510755"><ele>159.33333333333334</ele><time>2026-05-02T10:00:11.997Z</time></trkpt><trkpt lat="45.1917935" lon="8.0513296"><ele>160.0</ele><time>2026-05-02T10:00:13.002Z</time></trkpt><trkpt lat="45.1916858" lon="8.0516001"><ele>158.5</ele><time>2026-05-02T10:00:14.007Z</time></trkpt><trkpt lat="45.1915732" lon="8.0518811"><ele>157.0</ele><time>2026-05-02T10:00:15.001Z</time></trkpt><trkpt lat="45.1914542" lon="8.0521802"><ele>157.0</ele><time>2026-05-02T10:00:16.002Z</time></trkpt><trkpt lat="45.1913297" lon="8.0524987"><ele>157.0</ele><time>2026-05-02T10:00:17.002Z</time></trkpt><trkpt lat="45.1912083" lon="8.0528136"><ele>157.0</ele><time>2026-05-02T10:00:17.995Z</time></trkpt><trkpt lat="45.1910865" lon="8.0531276"><ele>157.0</ele><time>2026-05-02T10:00:18.999Z</time></trkpt><trkpt lat="45.1909696" lon="8.0534236"><ele>156.66666666666669</ele><time>2026-05-02T10:00:19.998Z</time></trkpt><trkpt lat="45.1908591" lon="8.0536974"><ele>156.33333333333334</ele><time>2026-05-02T10:00:21.004Z</time></trkpt><trkpt lat="45.1907542" lon="8.0539522"><ele>156.0</ele><time>2026-05-02T10:00:22.006Z</time></trkpt><trkpt lat="45.1906553" lon="8.0541968"><ele>156.0</ele><time>2026-05-02T10:00:23.001Z</time></trkpt><trkpt lat="45.1905597" lon="8.0544348"><ele>156.0</ele><time>2026-05-02T10:00:23.997Z</time></trkpt><trkpt lat="45.1904722" lon="8.0546549"><ele>156.0</ele><time>2026-05-02T10:00:24.995Z</time></trkpt><trkpt lat="45.190394" lon="8.0548602"><ele>156.0</ele><time>2026-05-02T10:00:26.004Z</time></trkpt><trkpt lat="45.1903153" lon="8.0550611"><ele>156.0</ele><time>2026-05-02T10:00:26.992Z</time></trkpt><trkpt lat="45.190235" lon="8.0552615"><ele>156.0</ele><time>2026-05-02T10:00:27.996Z</time></trkpt><trkpt lat="45.1901492" lon="8.0554623"><ele>156.0</ele><time>2026-05-02T10:00:28.998Z</time></trkpt><trkpt lat="45.1900631" lon="8.0556443"><ele>156.0</ele><time>2026-05-02T10:00:30.006Z</time></trkpt><trkpt lat="45.1899754" lon="8.0558087"><ele>156.0</ele><time>2026-05-02T10:00:30.996Z</time></trkpt><trkpt lat="45.1898919" lon="8.0559535"><ele>156.0</ele><time>2026-05-02T10:00:32.003Z</time></trkpt><trkpt lat="45.1898227" lon="8.0560809"><ele>156.0</ele><time>2026-05-02T10:00:33.003Z</time></trkpt><trkpt lat="45.1897629" lon="8.0561886"><ele>156.0</ele><time>2026-05-02T10:00:33.993Z</time></trkpt><trkpt lat="45.1897058" lon="8.0562817"><ele>156.0</ele><time>2026-05-02T10:00:35.002Z</time></trkpt><trkpt lat="45.1896305" lon="8.0563287"><ele>156.0</ele><time>2026-05-02T10:00:36Z</time></trkpt><trkpt lat="45.1895331" lon="8.0563816"><ele>156.0</ele><time>2026-05-02T10:00:36.997Z</time></trkpt><trkpt lat="45.1894101" lon="8.0563821"><ele>156.0</ele><time>2026-05-02T10:00:37.999Z</time></trkpt><trkpt lat="45.189282" lon="8.056378"><ele>156.0</ele><time>2026-05-02T10:00:39.002Z</time></trkpt><trkpt lat="45.1891546" lon="8.0563641"><ele>156.0</ele><time>2026-05-02T10:00:40.004Z</time></trkpt><trkpt lat="45.189036" lon="8.0563437"><ele>156.0</ele><time>2026-05-02T10:00:41.001Z</time></trkpt><trkpt lat="45.1889302" lon="8.0563335"><ele>156.0</ele><time>2026-05-02T10:00:42.006Z</time></trkpt><trkpt lat="45.1888343" lon="8.0563257"><ele>156.0</ele><time>2026-05-02T10:00:43.002Z</time></trkpt><trkpt lat="45.1887484" lon="8.0563416"><ele>156.0</ele><time>2026-05-02T10:00:44.008Z</time></trkpt><trkpt lat="45.1886809" lon="8.0563881"><ele>156.0</ele><time>2026-05-02T10:00:44.998Z</time></trkpt><trkpt lat="45.1886279" lon="8.0564667"><ele>156.0</ele><time>2026-05-02T10:00:46.013Z</time></trkpt><trkpt lat="45.1885912" lon="8.0565713"><ele>156.0</ele><time>2026-05-02T10:00:47.001Z</time></trkpt><trkpt lat="45.1885708" lon="8.0567027"><ele>155.75</ele><time>2026-05-02T10:00:47.994Z</time></trkpt><trkpt lat="45.1885637" lon="8.0568612"><ele>155.5</ele><time>2026-05-02T10:00:48.997Z</time></trkpt><trkpt lat="45.1885687" lon="8.057051"><ele>155.25</ele><time>2026-05-02T10:00:49.993Z</time></trkpt><trkpt lat="45.1885909" lon="8.0572722"><ele>155.0</ele><time>2026-05-02T10:00:51.001Z</time></trkpt><trkpt lat="45.1886231" lon="8.0575189"><ele>155.0</ele><time>2026-05-02T10:00:52.007Z</time></trkpt><trkpt lat="45.1886617" lon="8.0577818"><ele>155.0</ele><time>2026-05-02T10:00:53.002Z</time></trkpt><trkpt lat="45.188703" lon="8.0580658"><ele>155.0</ele><time>2026-05-02T10:00:54.001Z</time></trkpt><trkpt lat="45.1887456" lon="8.0583631"><ele>155.0</ele><time>2026-05-02T10:00:54.998Z</time></trkpt><trkpt lat="45.188789" lon="8.0586668"><ele>155.0</ele><time>2026-05-02T10:00:55.998Z</time></trkpt><trkpt lat="45.1888314" lon="8.058952"><ele>155.0</ele><time>2026-05-02T10:00:56.996Z</time></trkpt><trkpt lat="45.1888719" lon="8.0592165"><ele>155.0</ele><time>2026-05-02T10:00:57.993Z</time></trkpt><trkpt lat="45.1889119" lon="8.0594632"><ele>155.0</ele><time>2026-05-02T10:00:59.002Z</time></trkpt><trkpt lat="45.1889502" lon="8.0596931"><ele>155.0</ele><time>2026-05-02T10:01:00Z</time></trkpt><trkpt lat="45.1889843" lon="8.0598986"><ele>155.0</ele><time>2026-05-02T10:01:00.995Z</time></trkpt><trkpt lat="45.1890124" lon="8.0600656"><ele>155.0</ele><time>2026-05-02T10:01:02Z</time></trkpt><trkpt lat="45.1890327" lon="8.0601932"><ele>155.0</ele><time>2026-05-02T10:01:02.993Z</time></trkpt><trkpt lat="45.1890443" lon="8.0602888"><ele>155.0</ele><time>2026-05-02T10:01:03.998Z</time></trkpt><trkpt lat="45.1890497" lon="8.0603783"><ele>155.0</ele><time>2026-05-02T10:01:05.001Z</time></trkpt><trkpt lat="45.1890669" lon="8.0605368"><ele>155.0</ele><time>2026-05-02T10:01:06.997Z</time></trkpt><trkpt lat="45.1891057" lon="8.0606737"><ele>155.0</ele><time>2026-05-02T10:01:09.001Z</time></trkpt><trkpt lat="45.1891387" lon="8.0607784"><ele>155.0</ele><time>2026-05-02T10:01:11Z</time></trkpt><trkpt lat="45.1891943" lon="8.0609196"><ele>155.0</ele><time>2026-05-02T10:01:12.997Z</time></trkpt><trkpt lat="45.1892323" lon="8.0610213"><ele>155.0</ele><time>2026-05-02T10:01:13.993Z</time></trkpt><trkpt lat="45.1892794" lon="8.0611475"><ele>155.0</ele><time>2026-05-02T10:01:15.003Z</time></trkpt><trkpt lat="45.1893344" lon="8.0612952"><ele>155.0</ele><time>2026-05-02T10:01:15.992Z</time></trkpt><trkpt lat="45.1893948" lon="8.0614582"><ele>155.0</ele><time>2026-05-02T10:01:16.991Z</time></trkpt><trkpt lat="45.1894627" lon="8.0616359"><ele>155.0</ele><time>2026-05-02T10:01:17.989Z</time></trkpt><trkpt lat="45.1895385" lon="8.0618334"><ele>155.0</ele><time>2026-05-02T10:01:18.996Z</time></trkpt><trkpt lat="45.1896228" lon="8.0620518"><ele>155.0</ele><time>2026-05-02T10:01:19.988Z</time></trkpt><trkpt lat="45.1897104" lon="8.0622762"><ele>155.0</ele><time>2026-05-02T10:01:20.996Z</time></trkpt><trkpt lat="45.1897968" lon="8.0624946"><ele>155.33333333333331</ele><time>2026-05-02T10:01:21.999Z</time></trkpt><trkpt lat="45.1898775" lon="8.0626973"><ele>155.66666666666666</ele><time>2026-05-02T10:01:22.999Z</time></trkpt><trkpt lat="45.1899515" lon="8.0628838"><ele>156.0</ele><time>2026-05-02T10:01:23.989Z</time></trkpt><trkpt lat="45.1900191" lon="8.0630561"><ele>156.0</ele><time>2026-05-02T10:01:24.994Z</time></trkpt><trkpt lat="45.1900792" lon="8.0632154"><ele>156.0</ele><time>2026-05-02T10:01:26.002Z</time></trkpt><trkpt lat="45.1901325" lon="8.063365"><ele>156.0</ele><time>2026-05-02T10:01:26.998Z</time></trkpt><trkpt lat="45.1901783" lon="8.063507"><ele>156.0</ele><time>2026-05-02T10:01:27.999Z</time></trkpt><trkpt lat="45.1902157" lon="8.0636413"><ele>156.0</ele><time>2026-05-02T10:01:28.998Z</time></trkpt><trkpt lat="45.1902446" lon="8.0637679"><ele>156.0</ele><time>2026-05-02T10:01:29.994Z</time></trkpt><trkpt lat="45.1902677" lon="8.0638873"><ele>156.0</ele><time>2026-05-02T10:01:31.008Z</time></trkpt><trkpt lat="45.190283" lon="8.0640052"><ele>156.0</ele><time>2026-05-02T10:01:31.999Z</time></trkpt><trkpt lat="45.1902949" lon="8.0641194"><ele>156.0</ele><time>2026-05-02T10:01:32.996Z</time></trkpt><trkpt lat="45.1902762" lon="8.0642377"><ele>156.0</ele><time>2026-05-02T10:01:33.999Z</time></trkpt><trkpt lat="45.1902458" lon="8.0643571"><ele>156.0</ele><time>2026-05-02T10:01:35Z</time></trkpt><trkpt lat="45.1902106" lon="8.0644715"><ele>156.0</ele><time>2026-05-02T10:01:36.004Z</time></trkpt><trkpt lat="45.1901802" lon="8.0645634"><ele>156.0</ele><time>2026-05-02T10:01:36.995Z</time></trkpt><trkpt lat="45.1901561" lon="8.0646473"><ele>156.0</ele><time>2026-05-02T10:01:38.005Z</time></trkpt><trkpt lat="45.1901282" lon="8.0647484"><ele>156.0</ele><time>2026-05-02T10:01:40.002Z</time></trkpt><trkpt lat="45.1901014" lon="8.0648297"><ele>156.0</ele><time>2026-05-02T10:01:41.991Z</time></trkpt><trkpt lat="45.1900756" lon="8.0649162"><ele>156.0</ele><time>2026-05-02T10:01:43.994Z</time></trkpt><trkpt lat="45.1900417" lon="8.0650386"><ele>156.0</ele><time>2026-05-02T10:01:45.998Z</time></trkpt><trkpt lat="45.1899864" lon="8.0652038"><ele>156.0</ele><time>2026-05-02T10:01:48.001Z</time></trkpt><trkpt lat="45.1899503" lon="8.0653049"><ele>156.0</ele><time>2026-05-02T10:01:48.999Z</time></trkpt><trkpt lat="45.1899095" lon="8.0654126"><ele>156.0</ele><time>2026-05-02T10:01:49.998Z</time></trkpt><trkpt lat="45.1898646" lon="8.0655246"><ele>156.0</ele><time>2026-05-02T10:01:51.005Z</time></trkpt><trkpt lat="45.1898195" lon="8.0656379"><ele>156.0</ele><time>2026-05-02T10:01:51.997Z</time></trkpt><trkpt lat="45.1897748" lon="8.0657558"><ele>156.0</ele><time>2026-05-02T10:01:53.002Z</time></trkpt><trkpt lat="45.1897327" lon="8.0658683"><ele>156.0</ele><time>2026-05-02T10:01:53.997Z</time></trkpt><trkpt lat="45.1896929" lon="8.0659673"><ele>156.0</ele><time>2026-05-02T10:01:54.997Z</time></trkpt><trkpt lat="45.1896559" lon="8.0660571"><ele>156.0</ele><time>2026-05-02T10:01:55.998Z</time></trkpt><trkpt lat="45.1896217" lon="8.066138"><ele>156.0</ele><time>2026-05-02T10:01:57.001Z</time></trkpt><trkpt lat="45.1895665" lon="8.0662737"><ele>157.0</ele><time>2026-05-02T10:01:59.001Z</time></trkpt><trkpt lat="45.1895249" lon="8.0663882"><ele>157.0</ele><time>2026-05-02T10:02:01.013Z</time></trkpt><trkpt lat="45.1894793" lon="8.0664566"><ele>157.0</ele><time>2026-05-02T10:02:03Z</time></trkpt><trkpt lat="45.1894111" lon="8.0664414"><ele>157.0</ele><time>2026-05-02T10:02:50Z</time></trkpt></trkseg></trk></gpx>